<?xml version='1.0' encoding='UTF-8'?><gpx version="1.1" creator="JPX - https://github.com/jenetics/jpx" xmlns="http://www.topografix.com/GPX/1/1"><trk><trkseg><trkpt lat="42.91505160976608" lon="10.769917569552758"><ele>3.25</ele><time>2026-04-26T08:54:43.002Z</time></trkpt><trkpt lat="42.915262333173196" lon="10.76996025434417"><ele>3.5</ele><time>2026-04-26T08:54:47.005Z</time></trkpt><trkpt lat="42.915370755819474" lon="10.77006964156022"><ele>3.75</ele><time>2026-04-26T08:55:32Z</time></trkpt><trkpt lat="42.915323545591036" lon="10.769997201336968"><ele>4.0</ele><time>2026-04-26T08:56:00.001Z</time></trkpt><trkpt lat="42.91529627408816" lon="10.769917429916774"><ele>4.0</ele><time>2026-04-26T08:56:24.001Z</time></trkpt><trkpt lat="42.91527052738839" lon="10.76982262362073"><ele>4.0</ele><time>2026-04-26T08:56:28.001Z</time></trkpt><trkpt lat="42.91519535974967" lon="10.769847609146566"><ele>4.0</ele><time>2026-04-26T08:56:37.001Z</time></trkpt><trkpt lat="42.91510502391124" lon="10.769964273314896"><ele>4.0</ele><time>2026-04-26T08:56:40.001Z</time></trkpt><trkpt lat="42.91512350688284" lon="10.770215388295217"><ele>4.2</ele><time>2026-04-26T08:56:52.001Z</time></trkpt><trkpt lat="42.9151877029856" lon="10.770281986695196"><ele>4.4</ele><time>2026-04-26T08:56:53.001Z</time></trkpt><trkpt lat="42.91523485285358" lon="10.770357514938935"><ele>4.6</ele><time>2026-04-26T08:56:54Z</time></trkpt><trkpt lat="42.915298614806225" lon="10.77042081588302"><ele>4.8</ele><time>2026-04-26T08:57:11Z</time></trkpt><trkpt lat="42.9154438394077" lon="10.770457805660406"><ele>5.0</ele><time>2026-04-26T08:57:16Z</time></trkpt><trkpt lat="42.91551337276095" lon="10.77035730174862"><ele>5.0</ele><time>2026-04-26T08:57:17Z</time></trkpt><trkpt lat="42.91558132374862" lon="10.770277029183363"><ele>5.0</ele><time>2026-04-26T08:57:18Z</time></trkpt><trkpt lat="42.91565166402945" lon="10.770177524688714"><ele>5.0</ele><time>2026-04-26T08:57:19Z</time></trkpt><trkpt lat="42.91571560322456" lon="10.770102538383194"><ele>5.0</ele><time>2026-04-26T08:57:20Z</time></trkpt><trkpt lat="42.91577808382586" lon="10.770018063986392"><ele>5.0</ele><time>2026-04-26T08:57:21Z</time></trkpt><trkpt lat="42.9158447478137" lon="10.769940177268614"><ele>5.0</ele><time>2026-04-26T08:57:22Z</time></trkpt><trkpt lat="42.91589887373847" lon="10.769851627541652"><ele>5.0</ele><time>2026-04-26T08:57:23Z</time></trkpt><trkpt lat="42.91595138226407" lon="10.769770982401504"><ele>5.0</ele><time>2026-04-26T08:57:24Z</time></trkpt><trkpt lat="42.91600346217941" lon="10.769697006362927"><ele>5.0</ele><time>2026-04-26T08:57:25Z</time></trkpt><trkpt lat="42.916052510949626" lon="10.769630294265438"><ele>5.0</ele><time>2026-04-26T08:57:26Z</time></trkpt><trkpt lat="42.91609066972841" lon="10.769554704018985"><ele>5.0</ele><time>2026-04-26T08:57:27Z</time></trkpt><trkpt lat="42.9161285801116" lon="10.769482386852962"><ele>5.0</ele><time>2026-04-26T08:57:28Z</time></trkpt><trkpt lat="42.91619867691169" lon="10.769428092099739"><ele>5.0</ele><time>2026-04-26T08:57:29Z</time></trkpt><trkpt lat="42.91624753524462" lon="10.769282398385526"><ele>5.0</ele><time>2026-04-26T08:57:31Z</time></trkpt><trkpt lat="42.91635789082074" lon="10.769302330746015"><ele>5.0</ele><time>2026-04-26T08:57:32Z</time></trkpt><trkpt lat="42.91645829411897" lon="10.769326640570997"><ele>5.0</ele><time>2026-04-26T08:57:34Z</time></trkpt><trkpt lat="42.91649288729929" lon="10.769424546374472"><ele>5.0</ele><time>2026-04-26T08:57:35Z</time></trkpt><trkpt lat="42.916584108995366" lon="10.769548524165362"><ele>5.0</ele><time>2026-04-26T08:57:37Z</time></trkpt><trkpt lat="42.916700381176696" lon="10.769607361456288"><ele>5.0</ele><time>2026-04-26T08:57:39Z</time></trkpt><trkpt lat="42.91679453665285" lon="10.769639701684389"><ele>5.0</ele><time>2026-04-26T08:57:41Z</time></trkpt><trkpt lat="42.916868541364636" lon="10.769418857489889"><ele>5.0</ele><time>2026-04-26T08:57:42Z</time></trkpt><trkpt lat="42.91691408878402" lon="10.769302646626514"><ele>4.75</ele><time>2026-04-26T08:57:43Z</time></trkpt><trkpt lat="42.91696474593397" lon="10.769200063865508"><ele>4.5</ele><time>2026-04-26T08:57:44Z</time></trkpt><trkpt lat="42.91703151003263" lon="10.769088914705177"><ele>4.25</ele><time>2026-04-26T08:57:45Z</time></trkpt><trkpt lat="42.91711603928195" lon="10.7689616611881"><ele>4.0</ele><time>2026-04-26T08:57:46Z</time></trkpt><trkpt lat="42.917217254996366" lon="10.768817573423524"><ele>4.0</ele><time>2026-04-26T08:57:47Z</time></trkpt><trkpt lat="42.917309257540644" lon="10.768670623803011"><ele>4.0</ele><time>2026-04-26T08:57:48Z</time></trkpt><trkpt lat="42.91741130951444" lon="10.768515528438636"><ele>4.0</ele><time>2026-04-26T08:57:49Z</time></trkpt><trkpt lat="42.917514364799075" lon="10.768344980257012"><ele>4.0</ele><time>2026-04-26T08:57:50Z</time></trkpt><trkpt lat="42.91762353718516" lon="10.768175755546267"><ele>4.0</ele><time>2026-04-26T08:57:51Z</time></trkpt><trkpt lat="42.917738371329946" lon="10.768008001486018"><ele>4.0</ele><time>2026-04-26T08:57:52Z</time></trkpt><trkpt lat="42.917851195678764" lon="10.767831828790046"><ele>5.0</ele><time>2026-04-26T08:57:53Z</time></trkpt><trkpt lat="42.917968965465356" lon="10.76764957378783"><ele>6.0</ele><time>2026-04-26T08:57:54Z</time></trkpt><trkpt lat="42.918081348904195" lon="10.76745255110128"><ele>7.0</ele><time>2026-04-26T08:57:55Z</time></trkpt><trkpt lat="42.91819567523103" lon="10.76725702396885"><ele>7.0</ele><time>2026-04-26T08:57:56Z</time></trkpt><trkpt lat="42.91830940771944" lon="10.76706382391677"><ele>7.0</ele><time>2026-04-26T08:57:57Z</time></trkpt><trkpt lat="42.91841667173956" lon="10.766889784327683"><ele>7.0</ele><time>2026-04-26T08:57:58Z</time></trkpt><trkpt lat="42.91852848096062" lon="10.766740211143436"><ele>6.75</ele><time>2026-04-26T08:57:59Z</time></trkpt><trkpt lat="42.91864037267186" lon="10.766636652691348"><ele>6.5</ele><time>2026-04-26T08:58:00Z</time></trkpt><trkpt lat="42.918740487640974" lon="10.766546175118346"><ele>6.25</ele><time>2026-04-26T08:58:01Z</time></trkpt><trkpt lat="42.91882829708804" lon="10.766457885355406"><ele>6.0</ele><time>2026-04-26T08:58:02Z</time></trkpt><trkpt lat="42.918913653926246" lon="10.766371276464056"><ele>6.0</ele><time>2026-04-26T08:58:03Z</time></trkpt><trkpt lat="42.919010974557644" lon="10.766281684136224"><ele>6.0</ele><time>2026-04-26T08:58:04Z</time></trkpt><trkpt lat="42.91912458006495" lon="10.766220272280846"><ele>6.0</ele><time>2026-04-26T08:58:05Z</time></trkpt><trkpt lat="42.91922558042638" lon="10.766142046858127"><ele>6.0</ele><time>2026-04-26T08:58:06Z</time></trkpt><trkpt lat="42.91933534872279" lon="10.766063571939597"><ele>5.25</ele><time>2026-04-26T08:58:07Z</time></trkpt><trkpt lat="42.919443245551385" lon="10.765980481861211"><ele>4.5</ele><time>2026-04-26T08:58:08.001Z</time></trkpt><trkpt lat="42.9195542967366" lon="10.765896755887029"><ele>3.75</ele><time>2026-04-26T08:58:09.001Z</time></trkpt><trkpt lat="42.91966320254758" lon="10.765817461343454"><ele>3.0</ele><time>2026-04-26T08:58:10.001Z</time></trkpt><trkpt lat="42.91978182628739" lon="10.765761998085292"><ele>3.0</ele><time>2026-04-26T08:58:11.001Z</time></trkpt><trkpt lat="42.91988617205546" lon="10.765705674599683"><ele>3.0</ele><time>2026-04-26T08:58:12.001Z</time></trkpt><trkpt lat="42.91998512562366" lon="10.765653781421983"><ele>3.0</ele><time>2026-04-26T08:58:13.001Z</time></trkpt><trkpt lat="42.92008851923282" lon="10.765598523588423"><ele>3.0</ele><time>2026-04-26T08:58:14.001Z</time></trkpt><trkpt lat="42.92019449254846" lon="10.765545736407566"><ele>3.0</ele><time>2026-04-26T08:58:15.001Z</time></trkpt><trkpt lat="42.92029524633465" lon="10.765497916539127"><ele>3.1666666666666665</ele><time>2026-04-26T08:58:16.001Z</time></trkpt><trkpt lat="42.92038676043627" lon="10.765459345997057"><ele>3.333333333333333</ele><time>2026-04-26T08:58:17.001Z</time></trkpt><trkpt lat="42.92047102893186" lon="10.76543446964804"><ele>3.5</ele><time>2026-04-26T08:58:18.001Z</time></trkpt><trkpt lat="42.92054938560599" lon="10.765414490300001"><ele>3.6666666666666665</ele><time>2026-04-26T08:58:19.001Z</time></trkpt><trkpt lat="42.920632699211524" lon="10.765382947253077"><ele>3.833333333333333</ele><time>2026-04-26T08:58:20.001Z</time></trkpt><trkpt lat="42.92072448592078" lon="10.76535291898694"><ele>4.0</ele><time>2026-04-26T08:58:21.001Z</time></trkpt><trkpt lat="42.920824631664736" lon="10.765319866538706"><ele>4.4</ele><time>2026-04-26T08:58:22.001Z</time></trkpt><trkpt lat="42.920916919806665" lon="10.765285436564787"><ele>4.800000000000001</ele><time>2026-04-26T08:58:23.001Z</time></trkpt><trkpt lat="42.921013766351464" lon="10.765254134023825"><ele>5.199999999999999</ele><time>2026-04-26T08:58:24.001Z</time></trkpt><trkpt lat="42.92110094863534" lon="10.765227821735623"><ele>5.6</ele><time>2026-04-26T08:58:25.001Z</time></trkpt><trkpt lat="42.92120326985153" lon="10.765239201238678"><ele>6.0</ele><time>2026-04-26T08:58:26.001Z</time></trkpt><trkpt lat="42.92127639727718" lon="10.76521751914284"><ele>5.8</ele><time>2026-04-26T08:58:27.001Z</time></trkpt><trkpt lat="42.92134122465201" lon="10.765190060156876"><ele>5.6</ele><time>2026-04-26T08:58:28.001Z</time></trkpt><trkpt lat="42.92143961820888" lon="10.765137393329598"><ele>5.4</ele><time>2026-04-26T08:58:30.001Z</time></trkpt><trkpt lat="42.921520297358754" lon="10.765134574190803"><ele>5.2</ele><time>2026-04-26T08:58:33.001Z</time></trkpt><trkpt lat="42.921616241175656" lon="10.765150027472057"><ele>5.0</ele><time>2026-04-26T08:58:36.001Z</time></trkpt><trkpt lat="42.921719971084805" lon="10.765149018317333"><ele>5.4</ele><time>2026-04-26T08:58:38.001Z</time></trkpt><trkpt lat="42.92180906402234" lon="10.765092792582788"><ele>5.8</ele><time>2026-04-26T08:58:40.001Z</time></trkpt><trkpt lat="42.9218590639559" lon="10.765024956479543"><ele>6.199999999999999</ele><time>2026-04-26T08:58:42.001Z</time></trkpt><trkpt lat="42.921925439838795" lon="10.764958523038542"><ele>6.6</ele><time>2026-04-26T08:58:44.001Z</time></trkpt><trkpt lat="42.92202829470326" lon="10.764910574292408"><ele>7.0</ele><time>2026-04-26T08:58:46.001Z</time></trkpt><trkpt lat="42.92214330998043" lon="10.764887320962234"><ele>7.000000000000001</ele><time>2026-04-26T08:58:48.001Z</time></trkpt><trkpt lat="42.92220774184589" lon="10.764862980221737"><ele>7.0</ele><time>2026-04-26T08:58:49.001Z</time></trkpt><trkpt lat="42.92228237811139" lon="10.764844856891798"><ele>7.0</ele><time>2026-04-26T08:58:50.001Z</time></trkpt><trkpt lat="42.922365030911074" lon="10.764827892063977"><ele>7.0</ele><time>2026-04-26T08:58:51.001Z</time></trkpt><trkpt lat="42.922451934771175" lon="10.764815030404026"><ele>7.000000000000001</ele><time>2026-04-26T08:58:52.001Z</time></trkpt><trkpt lat="42.92254029992383" lon="10.764797577238928"><ele>7.0</ele><time>2026-04-26T08:58:53.001Z</time></trkpt><trkpt lat="42.922625390031186" lon="10.764775793836877"><ele>7.000000000000001</ele><time>2026-04-26T08:58:54.001Z</time></trkpt><trkpt lat="42.9227082333543" lon="10.764754039511622"><ele>7.0</ele><time>2026-04-26T08:58:55.001Z</time></trkpt><trkpt lat="42.92278847306156" lon="10.764736036669966"><ele>7.0</ele><time>2026-04-26T08:58:56.001Z</time></trkpt><trkpt lat="42.92285817244985" lon="10.764718420131924"><ele>7.0</ele><time>2026-04-26T08:58:57.001Z</time></trkpt><trkpt lat="42.92293341996469" lon="10.764703234917844"><ele>7.000000000000001</ele><time>2026-04-26T08:58:58.001Z</time></trkpt><trkpt lat="42.922996331369504" lon="10.76468257731354"><ele>7.0</ele><time>2026-04-26T08:58:59.001Z</time></trkpt><trkpt lat="42.923078214730666" lon="10.764673329363672"><ele>7.000000000000001</ele><time>2026-04-26T08:59:00Z</time></trkpt><trkpt lat="42.92315497379796" lon="10.764662393411038"><ele>7.0</ele><time>2026-04-26T08:59:01Z</time></trkpt><trkpt lat="42.92322313796527" lon="10.764639159593093"><ele>7.0</ele><time>2026-04-26T08:59:02Z</time></trkpt><trkpt lat="42.923295764894725" lon="10.764624138557492"><ele>7.0</ele><time>2026-04-26T08:59:03Z</time></trkpt><trkpt lat="42.92337322002771" lon="10.764608814548483"><ele>7.000000000000001</ele><time>2026-04-26T08:59:04Z</time></trkpt><trkpt lat="42.923452321803005" lon="10.764591227866202"><ele>7.0</ele><time>2026-04-26T08:59:05Z</time></trkpt><trkpt lat="42.92353456160743" lon="10.764566595396175"><ele>7.166666666666667</ele><time>2026-04-26T08:59:06Z</time></trkpt><trkpt lat="42.92362331456073" lon="10.764555625866759"><ele>7.333333333333334</ele><time>2026-04-26T08:59:07Z</time></trkpt><trkpt lat="42.92370231932611" lon="10.764513864551962"><ele>7.5</ele><time>2026-04-26T08:59:08Z</time></trkpt><trkpt lat="42.92378392316465" lon="10.764471428037675"><ele>7.666666666666666</ele><time>2026-04-26T08:59:09Z</time></trkpt><trkpt lat="42.92386238232452" lon="10.764431047722363"><ele>7.833333333333333</ele><time>2026-04-26T08:59:10Z</time></trkpt><trkpt lat="42.92393379576387" lon="10.7643944997485"><ele>8.0</ele><time>2026-04-26T08:59:11Z</time></trkpt><trkpt lat="42.92400128325729" lon="10.764361141697444"><ele>8.285714285714285</ele><time>2026-04-26T08:59:12Z</time></trkpt><trkpt lat="42.92406518857386" lon="10.764329731577064"><ele>8.571428571428571</ele><time>2026-04-26T08:59:13Z</time></trkpt><trkpt lat="42.924122092392" lon="10.76428845011308"><ele>8.857142857142858</ele><time>2026-04-26T08:59:14Z</time></trkpt><trkpt lat="42.92418600742315" lon="10.764265168315008"><ele>9.142857142857142</ele><time>2026-04-26T08:59:15Z</time></trkpt><trkpt lat="42.924256870621036" lon="10.76425721858639"><ele>9.428571428571429</ele><time>2026-04-26T08:59:16Z</time></trkpt><trkpt lat="42.924319497255794" lon="10.76421332963084"><ele>9.714285714285714</ele><time>2026-04-26T08:59:17Z</time></trkpt><trkpt lat="42.92438572067658" lon="10.764201974981058"><ele>10.0</ele><time>2026-04-26T08:59:18Z</time></trkpt><trkpt lat="42.9244846858947" lon="10.764190745793652"><ele>10.0</ele><time>2026-04-26T08:59:20Z</time></trkpt><trkpt lat="42.924559381481735" lon="10.764189614557756"><ele>10.0</ele><time>2026-04-26T08:59:24Z</time></trkpt><trkpt lat="42.924663795482815" lon="10.76420654271887"><ele>10.0</ele><time>2026-04-26T08:59:26Z</time></trkpt><trkpt lat="42.92474544471002" lon="10.764205555240986"><ele>10.0</ele><time>2026-04-26T08:59:27Z</time></trkpt><trkpt lat="42.92480735660932" lon="10.764333546668277"><ele>10.0</ele><time>2026-04-26T08:59:28Z</time></trkpt><trkpt lat="42.92487370215507" lon="10.764431323569543"><ele>10.0</ele><time>2026-04-26T08:59:29Z</time></trkpt><trkpt lat="42.924956266070815" lon="10.764521282343424"><ele>10.0</ele><time>2026-04-26T08:59:30Z</time></trkpt><trkpt lat="42.92500169020508" lon="10.764685094395215"><ele>10.0</ele><time>2026-04-26T08:59:31Z</time></trkpt><trkpt lat="42.92509804796132" lon="10.764813854164661"><ele>10.0</ele><time>2026-04-26T08:59:32Z</time></trkpt><trkpt lat="42.92517280087759" lon="10.764919941617633"><ele>10.0</ele><time>2026-04-26T08:59:33Z</time></trkpt><trkpt lat="42.925239966032926" lon="10.765036579155606"><ele>10.0</ele><time>2026-04-26T08:59:34Z</time></trkpt><trkpt lat="42.925308617285566" lon="10.765160471303831"><ele>10.0</ele><time>2026-04-26T08:59:35Z</time></trkpt><trkpt lat="42.92537678435815" lon="10.765302194501587"><ele>10.0</ele><time>2026-04-26T08:59:36Z</time></trkpt><trkpt lat="42.925464684523725" lon="10.765442690589918"><ele>10.333333333333334</ele><time>2026-04-26T08:59:37Z</time></trkpt><trkpt lat="42.925549442198026" lon="10.765611569391627"><ele>10.666666666666666</ele><time>2026-04-26T08:59:38Z</time></trkpt><trkpt lat="42.92563075145229" lon="10.765796670602775"><ele>11.0</ele><time>2026-04-26T08:59:39Z</time></trkpt><trkpt lat="42.92571473153921" lon="10.765970996311003"><ele>11.333333333333332</ele><time>2026-04-26T08:59:40Z</time></trkpt><trkpt lat="42.92580502552329" lon="10.7661345564307"><ele>11.666666666666666</ele><time>2026-04-26T08:59:41Z</time></trkpt><trkpt lat="42.92590695944625" lon="10.766284107831968"><ele>12.0</ele><time>2026-04-26T08:59:42Z</time></trkpt><trkpt lat="42.92602021742514" lon="10.766428328367017"><ele>12.0</ele><time>2026-04-26T08:59:43Z</time></trkpt><trkpt lat="42.92612660848985" lon="10.76655929272933"><ele>12.0</ele><time>2026-04-26T08:59:44Z</time></trkpt><trkpt lat="42.92621864011071" lon="10.766662467386782"><ele>12.0</ele><time>2026-04-26T08:59:45Z</time></trkpt><trkpt lat="42.926299549937106" lon="10.766741223729683"><ele>12.0</ele><time>2026-04-26T08:59:46Z</time></trkpt><trkpt lat="42.92636572964199" lon="10.766811587056774"><ele>12.0</ele><time>2026-04-26T08:59:47Z</time></trkpt><trkpt lat="42.9264210483621" lon="10.766876360762028"><ele>11.833333333333334</ele><time>2026-04-26T08:59:48Z</time></trkpt><trkpt lat="42.926479462536385" lon="10.766945016648108"><ele>11.666666666666666</ele><time>2026-04-26T08:59:49Z</time></trkpt><trkpt lat="42.92654522881983" lon="10.767022263282621"><ele>11.5</ele><time>2026-04-26T08:59:50Z</time></trkpt><trkpt lat="42.926608815117845" lon="10.767106401239605"><ele>11.333333333333332</ele><time>2026-04-26T08:59:51Z</time></trkpt><trkpt lat="42.92669166224007" lon="10.767138291728608"><ele>11.166666666666666</ele><time>2026-04-26T08:59:52Z</time></trkpt><trkpt lat="42.92676370771821" lon="10.76711939652045"><ele>11.0</ele><time>2026-04-26T08:59:53Z</time></trkpt><trkpt lat="42.926866147304885" lon="10.767208126865706"><ele>11.0</ele><time>2026-04-26T08:59:55Z</time></trkpt><trkpt lat="42.926927163497155" lon="10.767265195219686"><ele>11.0</ele><time>2026-04-26T08:59:56Z</time></trkpt><trkpt lat="42.92698397627038" lon="10.767325205379223"><ele>11.0</ele><time>2026-04-26T08:59:57Z</time></trkpt><trkpt lat="42.927051339703866" lon="10.767392506923422"><ele>11.0</ele><time>2026-04-26T08:59:58Z</time></trkpt><trkpt lat="42.92712986670026" lon="10.767468414588754"><ele>11.0</ele><time>2026-04-26T08:59:59Z</time></trkpt><trkpt lat="42.92721690438959" lon="10.767554882262424"><ele>11.0</ele><time>2026-04-26T09:00:00Z</time></trkpt><trkpt lat="42.92730965076341" lon="10.767615612582373"><ele>11.0</ele><time>2026-04-26T09:00:01Z</time></trkpt><trkpt lat="42.92740917799217" lon="10.76765254250606"><ele>11.0</ele><time>2026-04-26T09:00:02Z</time></trkpt><trkpt lat="42.92750111316129" lon="10.76767647088067"><ele>11.0</ele><time>2026-04-26T09:00:03Z</time></trkpt><trkpt lat="42.927585072233484" lon="10.767704726952617"><ele>11.0</ele><time>2026-04-26T09:00:04Z</time></trkpt><trkpt lat="42.9276693203146" lon="10.767746963075394"><ele>11.0</ele><time>2026-04-26T09:00:05Z</time></trkpt><trkpt lat="42.92773187561103" lon="10.767813255080394"><ele>11.333333333333332</ele><time>2026-04-26T09:00:06Z</time></trkpt><trkpt lat="42.92778988925723" lon="10.767892885229871"><ele>11.666666666666666</ele><time>2026-04-26T09:00:07Z</time></trkpt><trkpt lat="42.927833381971645" lon="10.767990948641208"><ele>12.0</ele><time>2026-04-26T09:00:08Z</time></trkpt><trkpt lat="42.92786618124773" lon="10.768101008583862"><ele>12.333333333333332</ele><time>2026-04-26T09:00:09Z</time></trkpt><trkpt lat="42.92788652401759" lon="10.768201467805525"><ele>12.666666666666666</ele><time>2026-04-26T09:00:10Z</time></trkpt><trkpt lat="42.92790733541946" lon="10.768296787199857"><ele>13.0</ele><time>2026-04-26T09:00:11Z</time></trkpt><trkpt lat="42.92794505227341" lon="10.76837925383198"><ele>12.999999999999998</ele><time>2026-04-26T09:00:12Z</time></trkpt><trkpt lat="42.927996111102765" lon="10.768461706876165"><ele>13.0</ele><time>2026-04-26T09:00:13Z</time></trkpt><trkpt lat="42.92805485438687" lon="10.768537265363722"><ele>13.0</ele><time>2026-04-26T09:00:14Z</time></trkpt><trkpt lat="42.92812047176358" lon="10.768606092454187"><ele>13.0</ele><time>2026-04-26T09:00:15Z</time></trkpt><trkpt lat="42.92818894011814" lon="10.768673780241286"><ele>12.999999999999998</ele><time>2026-04-26T09:00:16.001Z</time></trkpt><trkpt lat="42.928254866107636" lon="10.76874167590712"><ele>13.0</ele><time>2026-04-26T09:00:17.001Z</time></trkpt><trkpt lat="42.92831906561058" lon="10.768807902379196"><ele>13.166666666666666</ele><time>2026-04-26T09:00:18.001Z</time></trkpt><trkpt lat="42.92837696546783" lon="10.768867341762839"><ele>13.333333333333332</ele><time>2026-04-26T09:00:19.001Z</time></trkpt><trkpt lat="42.92843053956423" lon="10.768917654934041"><ele>13.5</ele><time>2026-04-26T09:00:20.001Z</time></trkpt><trkpt lat="42.928516734238215" lon="10.769012928366694"><ele>13.666666666666668</ele><time>2026-04-26T09:00:22.001Z</time></trkpt><trkpt lat="42.92858297590105" lon="10.769105007342171"><ele>13.833333333333334</ele><time>2026-04-26T09:00:24.001Z</time></trkpt><trkpt lat="42.92863207697789" lon="10.76917409081133"><ele>14.0</ele><time>2026-04-26T09:00:25.001Z</time></trkpt><trkpt lat="42.92870557660092" lon="10.769259783580072"><ele>14.2</ele><time>2026-04-26T09:00:26.001Z</time></trkpt><trkpt lat="42.92880312373433" lon="10.769361353476699"><ele>14.399999999999999</ele><time>2026-04-26T09:00:27.001Z</time></trkpt><trkpt lat="42.9288973176078" lon="10.769474843020463"><ele>14.6</ele><time>2026-04-26T09:00:28.001Z</time></trkpt><trkpt lat="42.92897086629452" lon="10.769557986054913"><ele>14.8</ele><time>2026-04-26T09:00:29.001Z</time></trkpt><trkpt lat="42.929035122364716" lon="10.769634519977865"><ele>15.0</ele><time>2026-04-26T09:00:30.001Z</time></trkpt><trkpt lat="42.92909252920424" lon="10.769692295468825"><ele>15.0</ele><time>2026-04-26T09:00:31.001Z</time></trkpt><trkpt lat="42.92915577936216" lon="10.769745263225856"><ele>15.0</ele><time>2026-04-26T09:00:32.001Z</time></trkpt><trkpt lat="42.92921413091988" lon="10.769804456603099"><ele>15.0</ele><time>2026-04-26T09:00:33.001Z</time></trkpt><trkpt lat="42.92928614713494" lon="10.76992251907859"><ele>15.0</ele><time>2026-04-26T09:00:35.001Z</time></trkpt><trkpt lat="42.929297201599724" lon="10.77006297284428"><ele>15.0</ele><time>2026-04-26T09:00:37.001Z</time></trkpt><trkpt lat="42.92934150086878" lon="10.770185999359583"><ele>15.6</ele><time>2026-04-26T09:00:39.001Z</time></trkpt><trkpt lat="42.929397330652804" lon="10.770284615059708"><ele>16.2</ele><time>2026-04-26T09:00:41.001Z</time></trkpt><trkpt lat="42.92950465776821" lon="10.770323709724288"><ele>16.8</ele><time>2026-04-26T09:00:43.001Z</time></trkpt><trkpt lat="42.92962686821618" lon="10.77033204136285"><ele>17.4</ele><time>2026-04-26T09:00:45.001Z</time></trkpt><trkpt lat="42.92969070777759" lon="10.770344927728367"><ele>18.0</ele><time>2026-04-26T09:00:46.001Z</time></trkpt><trkpt lat="42.92975781277775" lon="10.770369316634662"><ele>18.0</ele><time>2026-04-26T09:00:47.001Z</time></trkpt><trkpt lat="42.929828691549304" lon="10.7703930412341"><ele>18.0</ele><time>2026-04-26T09:00:48.001Z</time></trkpt><trkpt lat="42.92989005555046" lon="10.770478024218551"><ele>18.0</ele><time>2026-04-26T09:00:49.001Z</time></trkpt><trkpt lat="42.92995612711426" lon="10.770541652342096"><ele>18.0</ele><time>2026-04-26T09:00:50.001Z</time></trkpt><trkpt lat="42.930026981201024" lon="10.770622793982175"><ele>18.0</ele><time>2026-04-26T09:00:51.001Z</time></trkpt><trkpt lat="42.930101416248604" lon="10.770702165075534"><ele>18.0</ele><time>2026-04-26T09:00:52.001Z</time></trkpt><trkpt lat="42.93017136793258" lon="10.77077560640871"><ele>18.166666666666668</ele><time>2026-04-26T09:00:53.001Z</time></trkpt><trkpt lat="42.93023236466251" lon="10.770840006246202"><ele>18.333333333333332</ele><time>2026-04-26T09:00:54.001Z</time></trkpt><trkpt lat="42.93028309791024" lon="10.770893533687603"><ele>18.5</ele><time>2026-04-26T09:00:55.001Z</time></trkpt><trkpt lat="42.93033885193415" lon="10.770951734788731"><ele>18.666666666666664</ele><time>2026-04-26T09:00:56.001Z</time></trkpt><trkpt lat="42.93039203035318" lon="10.771004357187865"><ele>18.833333333333332</ele><time>2026-04-26T09:00:57.001Z</time></trkpt><trkpt lat="42.93046523320126" lon="10.771093412676528"><ele>19.0</ele><time>2026-04-26T09:00:59.001Z</time></trkpt><trkpt lat="42.93053719536561" lon="10.771213863673978"><ele>19.0</ele><time>2026-04-26T09:01:01.001Z</time></trkpt><trkpt lat="42.93058822566816" lon="10.771351844270209"><ele>19.0</ele><time>2026-04-26T09:01:03.001Z</time></trkpt><trkpt lat="42.93067285873544" lon="10.77144915711529"><ele>19.0</ele><time>2026-04-26T09:01:05.001Z</time></trkpt><trkpt lat="42.93080753041287" lon="10.771465409068533"><ele>19.0</ele><time>2026-04-26T09:01:07Z</time></trkpt><trkpt lat="42.93090791893314" lon="10.77155751377131"><ele>19.0</ele><time>2026-04-26T09:01:08Z</time></trkpt><trkpt lat="42.93102828608602" lon="10.771694753519613"><ele>19.0</ele><time>2026-04-26T09:01:09Z</time></trkpt><trkpt lat="42.93120135923573" lon="10.771903381754788"><ele>19.0</ele><time>2026-04-26T09:01:10Z</time></trkpt><trkpt lat="42.93142530188254" lon="10.772135426308857"><ele>19.5</ele><time>2026-04-26T09:01:11Z</time></trkpt><trkpt lat="42.931642878186324" lon="10.772357217731743"><ele>20.0</ele><time>2026-04-26T09:01:12Z</time></trkpt><trkpt lat="42.93180452520985" lon="10.772537756873676"><ele>20.25</ele><time>2026-04-26T09:01:13Z</time></trkpt><trkpt lat="42.93192208208747" lon="10.772668659445225"><ele>20.5</ele><time>2026-04-26T09:01:14Z</time></trkpt><trkpt lat="42.932026927635484" lon="10.772784158665264"><ele>20.75</ele><time>2026-04-26T09:01:15Z</time></trkpt><trkpt lat="42.93213460269682" lon="10.772910663696472"><ele>21.0</ele><time>2026-04-26T09:01:16Z</time></trkpt><trkpt lat="42.93227870693817" lon="10.773051718077232"><ele>21.0</ele><time>2026-04-26T09:01:17Z</time></trkpt><trkpt lat="42.932467873201176" lon="10.773250756262279"><ele>21.0</ele><time>2026-04-26T09:01:18Z</time></trkpt><trkpt lat="42.93269694034845" lon="10.773487826305502"><ele>21.0</ele><time>2026-04-26T09:01:19Z</time></trkpt><trkpt lat="42.93288976740201" lon="10.773691232435137"><ele>21.0</ele><time>2026-04-26T09:01:20Z</time></trkpt><trkpt lat="42.93305061382382" lon="10.773864700460106"><ele>21.0</ele><time>2026-04-26T09:01:21Z</time></trkpt><trkpt lat="42.93318796032189" lon="10.774005446653861"><ele>21.0</ele><time>2026-04-26T09:01:22Z</time></trkpt><trkpt lat="42.9333031904939" lon="10.774133298910021"><ele>21.0</ele><time>2026-04-26T09:01:23Z</time></trkpt><trkpt lat="42.93340737636688" lon="10.774246056476105"><ele>21.0</ele><time>2026-04-26T09:01:24Z</time></trkpt><trkpt lat="42.93349976024016" lon="10.774346631324493"><ele>21.0</ele><time>2026-04-26T09:01:25Z</time></trkpt><trkpt lat="42.933603523792236" lon="10.774456090521927"><ele>21.4</ele><time>2026-04-26T09:01:26Z</time></trkpt><trkpt lat="42.93370696319861" lon="10.774568504134216"><ele>21.8</ele><time>2026-04-26T09:01:27Z</time></trkpt><trkpt lat="42.93379227423887" lon="10.774661281208251"><ele>22.2</ele><time>2026-04-26T09:01:28Z</time></trkpt><trkpt lat="42.933854374787806" lon="10.774743857879933"><ele>22.599999999999998</ele><time>2026-04-26T09:01:29Z</time></trkpt><trkpt lat="42.93389965713077" lon="10.774835947661057"><ele>23.0</ele><time>2026-04-26T09:01:30Z</time></trkpt><trkpt lat="42.9339411693698" lon="10.77490451006603"><ele>23.0</ele><time>2026-04-26T09:01:31Z</time></trkpt><trkpt lat="42.93396213504341" lon="10.774998528375763"><ele>23.0</ele><time>2026-04-26T09:01:33Z</time></trkpt><trkpt lat="42.93417500253403" lon="10.775059577725996"><ele>23.0</ele><time>2026-04-26T09:01:34Z</time></trkpt><trkpt lat="42.93432208044397" lon="10.77520583795387"><ele>24.0</ele><time>2026-04-26T09:01:35Z</time></trkpt><trkpt lat="42.93449512031001" lon="10.775399582423326"><ele>25.0</ele><time>2026-04-26T09:01:36Z</time></trkpt><trkpt lat="42.934658168629454" lon="10.775573117304173"><ele>26.0</ele><time>2026-04-26T09:01:37Z</time></trkpt><trkpt lat="42.93479148911827" lon="10.775714844341364"><ele>26.0</ele><time>2026-04-26T09:01:38Z</time></trkpt><trkpt lat="42.93490942435019" lon="10.77584515384102"><ele>26.0</ele><time>2026-04-26T09:01:39Z</time></trkpt><trkpt lat="42.935015092887255" lon="10.775957012085613"><ele>26.0</ele><time>2026-04-26T09:01:40Z</time></trkpt><trkpt lat="42.93511540970265" lon="10.776068330333276"><ele>26.0</ele><time>2026-04-26T09:01:41Z</time></trkpt><trkpt lat="42.93521143851008" lon="10.776178089748456"><ele>26.0</ele><time>2026-04-26T09:01:42Z</time></trkpt><trkpt lat="42.9353030454505" lon="10.776268282042981"><ele>26.0</ele><time>2026-04-26T09:01:43Z</time></trkpt><trkpt lat="42.93539328151153" lon="10.776359382565678"><ele>26.0</ele><time>2026-04-26T09:01:44Z</time></trkpt><trkpt lat="42.93546890739511" lon="10.776424118346238"><ele>26.0</ele><time>2026-04-26T09:01:45Z</time></trkpt><trkpt lat="42.93553508520276" lon="10.776458684031953"><ele>26.0</ele><time>2026-04-26T09:01:46Z</time></trkpt><trkpt lat="42.93563564908865" lon="10.776502179938063"><ele>25.999999999999996</ele><time>2026-04-26T09:01:48Z</time></trkpt><trkpt lat="42.9357025285129" lon="10.77655670000454"><ele>26.0</ele><time>2026-04-26T09:01:50Z</time></trkpt><trkpt lat="42.935754444901356" lon="10.776635067160791"><ele>26.0</ele><time>2026-04-26T09:01:52Z</time></trkpt><trkpt lat="42.935786195643175" lon="10.7767241490998"><ele>26.0</ele><time>2026-04-26T09:01:53Z</time></trkpt><trkpt lat="42.93581999616269" lon="10.776814934473938"><ele>25.999999999999996</ele><time>2026-04-26T09:01:54Z</time></trkpt><trkpt lat="42.9358724395332" lon="10.776890050186054"><ele>26.0</ele><time>2026-04-26T09:01:55Z</time></trkpt><trkpt lat="42.935937644382555" lon="10.776949387153088"><ele>26.0</ele><time>2026-04-26T09:01:56Z</time></trkpt><trkpt lat="42.936013420942146" lon="10.776988158064745"><ele>26.0</ele><time>2026-04-26T09:01:57Z</time></trkpt><trkpt lat="42.93609526125565" lon="10.776996268996472"><ele>26.0</ele><time>2026-04-26T09:01:58Z</time></trkpt><trkpt lat="42.93617938064799" lon="10.776993330096776"><ele>26.0</ele><time>2026-04-26T09:01:59Z</time></trkpt><trkpt lat="42.936276864154244" lon="10.77700551194468"><ele>26.0</ele><time>2026-04-26T09:02:00Z</time></trkpt><trkpt lat="42.936380505345376" lon="10.777066294533272"><ele>26.0</ele><time>2026-04-26T09:02:01Z</time></trkpt><trkpt lat="42.93647885082423" lon="10.777157379086534"><ele>26.0</ele><time>2026-04-26T09:02:02Z</time></trkpt><trkpt lat="42.93656986650911" lon="10.777261330532005"><ele>26.0</ele><time>2026-04-26T09:02:03Z</time></trkpt><trkpt lat="42.93665505865996" lon="10.777371382452067"><ele>26.0</ele><time>2026-04-26T09:02:04Z</time></trkpt><trkpt lat="42.93674185988754" lon="10.777480050308265"><ele>26.0</ele><time>2026-04-26T09:02:05Z</time></trkpt><trkpt lat="42.936826388891376" lon="10.777598558923579"><ele>26.0</ele><time>2026-04-26T09:02:06Z</time></trkpt><trkpt lat="42.936913414956976" lon="10.777720610698099"><ele>26.0</ele><time>2026-04-26T09:02:07Z</time></trkpt><trkpt lat="42.93700496034874" lon="10.777843247338344"><ele>26.0</ele><time>2026-04-26T09:02:08Z</time></trkpt><trkpt lat="42.937101386164436" lon="10.777974166030434"><ele>26.0</ele><time>2026-04-26T09:02:09Z</time></trkpt><trkpt lat="42.93720222055349" lon="10.778110229617335"><ele>26.0</ele><time>2026-04-26T09:02:10Z</time></trkpt><trkpt lat="42.93730626051692" lon="10.778247825068435"><ele>26.0</ele><time>2026-04-26T09:02:11Z</time></trkpt><trkpt lat="42.937410343170775" lon="10.778385751424414"><ele>26.0</ele><time>2026-04-26T09:02:12Z</time></trkpt><trkpt lat="42.93751388105724" lon="10.778527490693193"><ele>26.333333333333332</ele><time>2026-04-26T09:02:13Z</time></trkpt><trkpt lat="42.937623482140026" lon="10.778673649520806"><ele>26.666666666666664</ele><time>2026-04-26T09:02:14Z</time></trkpt><trkpt lat="42.93774374142774" lon="10.778813412571093"><ele>27.0</ele><time>2026-04-26T09:02:15Z</time></trkpt><trkpt lat="42.937869285085796" lon="10.778951151952569"><ele>27.0</ele><time>2026-04-26T09:02:16Z</time></trkpt><trkpt lat="42.93800783436478" lon="10.779082147686"><ele>27.0</ele><time>2026-04-26T09:02:17Z</time></trkpt><trkpt lat="42.938151317283186" lon="10.779206184909846"><ele>27.0</ele><time>2026-04-26T09:02:18Z</time></trkpt><trkpt lat="42.938304771514346" lon="10.779322816754915"><ele>27.666666666666664</ele><time>2026-04-26T09:02:19Z</time></trkpt><trkpt lat="42.938461514214346" lon="10.779437459215252"><ele>28.333333333333332</ele><time>2026-04-26T09:02:20Z</time></trkpt><trkpt lat="42.93861909667118" lon="10.779543872046666"><ele>29.0</ele><time>2026-04-26T09:02:21Z</time></trkpt><trkpt lat="42.93878008629413" lon="10.77963779658867"><ele>29.0</ele><time>2026-04-26T09:02:22Z</time></trkpt><trkpt lat="42.93894905404013" lon="10.779718100000897"><ele>29.0</ele><time>2026-04-26T09:02:23Z</time></trkpt><trkpt lat="42.9391188753285" lon="10.779792134111501"><ele>29.0</ele><time>2026-04-26T09:02:24Z</time></trkpt><trkpt lat="42.93929659134424" lon="10.779852526378132"><ele>29.333333333333332</ele><time>2026-04-26T09:02:25Z</time></trkpt><trkpt lat="42.93948030739232" lon="10.77990276519706"><ele>29.666666666666664</ele><time>2026-04-26T09:02:26Z</time></trkpt><trkpt lat="42.93966251386824" lon="10.779935664106615"><ele>30.0</ele><time>2026-04-26T09:02:27.001Z</time></trkpt><trkpt lat="42.939843328466566" lon="10.779957077812146"><ele>30.0</ele><time>2026-04-26T09:02:28.001Z</time></trkpt><trkpt lat="42.94002448302148" lon="10.77996984833459"><ele>30.0</ele><time>2026-04-26T09:02:29.001Z</time></trkpt><trkpt lat="42.940204984862675" lon="10.77996952140786"><ele>30.0</ele><time>2026-04-26T09:02:30.001Z</time></trkpt><trkpt lat="42.9403835464816" lon="10.77996476295213"><ele>30.0</ele><time>2026-04-26T09:02:31.001Z</time></trkpt><trkpt lat="42.940557954723076" lon="10.779959690605581"><ele>30.0</ele><time>2026-04-26T09:02:32.001Z</time></trkpt><trkpt lat="42.94073031358661" lon="10.779951591737426"><ele>30.0</ele><time>2026-04-26T09:02:33.001Z</time></trkpt><trkpt lat="42.94089973168048" lon="10.779951629617264"><ele>29.333333333333336</ele><time>2026-04-26T09:02:34.001Z</time></trkpt><trkpt lat="42.94107053067458" lon="10.779937086405043"><ele>28.666666666666668</ele><time>2026-04-26T09:02:35.001Z</time></trkpt><trkpt lat="42.94124332137085" lon="10.779924304268992"><ele>28.0</ele><time>2026-04-26T09:02:36.001Z</time></trkpt><trkpt lat="42.941419092881624" lon="10.77991771193236"><ele>28.0</ele><time>2026-04-26T09:02:37.001Z</time></trkpt><trkpt lat="42.94159819707294" lon="10.779903399797735"><ele>28.0</ele><time>2026-04-26T09:02:38.001Z</time></trkpt><trkpt lat="42.941774720900945" lon="10.779885422463684"><ele>28.0</ele><time>2026-04-26T09:02:39.001Z</time></trkpt><trkpt lat="42.941953910146914" lon="10.779870380775893"><ele>28.666666666666668</ele><time>2026-04-26T09:02:40.001Z</time></trkpt><trkpt lat="42.94213720543483" lon="10.779853936289044"><ele>29.333333333333336</ele><time>2026-04-26T09:02:41.001Z</time></trkpt><trkpt lat="42.942312893171774" lon="10.779836764769286"><ele>30.0</ele><time>2026-04-26T09:02:42.001Z</time></trkpt><trkpt lat="42.942473121276976" lon="10.779823423469043"><ele>29.666666666666664</ele><time>2026-04-26T09:02:43.001Z</time></trkpt><trkpt lat="42.942628945828474" lon="10.779817151334726"><ele>29.333333333333332</ele><time>2026-04-26T09:02:44.001Z</time></trkpt><trkpt lat="42.94278517004389" lon="10.779806299984765"><ele>29.0</ele><time>2026-04-26T09:02:45.001Z</time></trkpt><trkpt lat="42.94294270406011" lon="10.779802425045949"><ele>29.0</ele><time>2026-04-26T09:02:46.001Z</time></trkpt><trkpt lat="42.94310497949236" lon="10.779799764454435"><ele>29.0</ele><time>2026-04-26T09:02:47.001Z</time></trkpt><trkpt lat="42.94326390499357" lon="10.779805894513258"><ele>29.0</ele><time>2026-04-26T09:02:48.001Z</time></trkpt><trkpt lat="42.94342606461348" lon="10.779826248879163"><ele>29.0</ele><time>2026-04-26T09:02:49.001Z</time></trkpt><trkpt lat="42.943588608824115" lon="10.779848303538431"><ele>29.0</ele><time>2026-04-26T09:02:50.001Z</time></trkpt><trkpt lat="42.94375531651549" lon="10.77988256330145"><ele>29.0</ele><time>2026-04-26T09:02:51.001Z</time></trkpt><trkpt lat="42.94392055613738" lon="10.779918903315604"><ele>29.0</ele><time>2026-04-26T09:02:52.001Z</time></trkpt><trkpt lat="42.94408385801617" lon="10.779958609176857"><ele>29.0</ele><time>2026-04-26T09:02:53.001Z</time></trkpt><trkpt lat="42.94425131944698" lon="10.779997916959863"><ele>29.0</ele><time>2026-04-26T09:02:54.001Z</time></trkpt><trkpt lat="42.944416690068046" lon="10.78003859567694"><ele>29.333333333333332</ele><time>2026-04-26T09:02:55.001Z</time></trkpt><trkpt lat="42.9445875825363" lon="10.78007579306741"><ele>29.666666666666664</ele><time>2026-04-26T09:02:56.001Z</time></trkpt><trkpt lat="42.94476078850673" lon="10.780109419384257"><ele>30.0</ele><time>2026-04-26T09:02:57.001Z</time></trkpt><trkpt lat="42.944931942103906" lon="10.780146587095242"><ele>30.0</ele><time>2026-04-26T09:02:58.001Z</time></trkpt><trkpt lat="42.94510608852213" lon="10.780182922975904"><ele>30.0</ele><time>2026-04-26T09:02:59.001Z</time></trkpt><trkpt lat="42.94528002542122" lon="10.780217617423776"><ele>30.0</ele><time>2026-04-26T09:03:00.001Z</time></trkpt><trkpt lat="42.945455919230454" lon="10.780256254649164"><ele>30.0</ele><time>2026-04-26T09:03:01.001Z</time></trkpt><trkpt lat="42.94563210500298" lon="10.780296441824586"><ele>30.0</ele><time>2026-04-26T09:03:02.001Z</time></trkpt><trkpt lat="42.94580845776892" lon="10.780338349541317"><ele>30.0</ele><time>2026-04-26T09:03:03.001Z</time></trkpt><trkpt lat="42.94598481072406" lon="10.780380421477231"><ele>30.333333333333336</ele><time>2026-04-26T09:03:04.001Z</time></trkpt><trkpt lat="42.94616325268214" lon="10.780422813826696"><ele>30.666666666666668</ele><time>2026-04-26T09:03:05.001Z</time></trkpt><trkpt lat="42.94634286432195" lon="10.780461356389225"><ele>31.0</ele><time>2026-04-26T09:03:06.001Z</time></trkpt><trkpt lat="42.94652169887267" lon="10.780501936438453"><ele>31.0</ele><time>2026-04-26T09:03:07.001Z</time></trkpt><trkpt lat="42.94670242404379" lon="10.780543069271964"><ele>31.0</ele><time>2026-04-26T09:03:08.001Z</time></trkpt><trkpt lat="42.94688311286523" lon="10.780583134935783"><ele>31.0</ele><time>2026-04-26T09:03:09.001Z</time></trkpt><trkpt lat="42.947062166899364" lon="10.780621506542122"><ele>31.0</ele><time>2026-04-26T09:03:10.001Z</time></trkpt><trkpt lat="42.947234519374305" lon="10.78066001609457"><ele>31.0</ele><time>2026-04-26T09:03:11.001Z</time></trkpt><trkpt lat="42.94740397404391" lon="10.780697304200404"><ele>31.0</ele><time>2026-04-26T09:03:12Z</time></trkpt><trkpt lat="42.947571245336" lon="10.78074194408554"><ele>31.0</ele><time>2026-04-26T09:03:13Z</time></trkpt><trkpt lat="42.947738877137596" lon="10.780784861706264"><ele>31.0</ele><time>2026-04-26T09:03:14Z</time></trkpt><trkpt lat="42.947906132931" lon="10.780829382933238"><ele>31.0</ele><time>2026-04-26T09:03:15Z</time></trkpt><trkpt lat="42.948073623456125" lon="10.7808865907398"><ele>31.0</ele><time>2026-04-26T09:03:16Z</time></trkpt><trkpt lat="42.9482390455921" lon="10.780952097596408"><ele>31.0</ele><time>2026-04-26T09:03:17Z</time></trkpt><trkpt lat="42.94839963798805" lon="10.781035196871443"><ele>31.0</ele><time>2026-04-26T09:03:18Z</time></trkpt><trkpt lat="42.94855828290105" lon="10.781132293794155"><ele>31.666666666666668</ele><time>2026-04-26T09:03:19Z</time></trkpt><trkpt lat="42.94871366521729" lon="10.781251088127435"><ele>32.333333333333336</ele><time>2026-04-26T09:03:20Z</time></trkpt><trkpt lat="42.94886409813661" lon="10.78138584453279"><ele>33.0</ele><time>2026-04-26T09:03:21Z</time></trkpt><trkpt lat="42.94900839903956" lon="10.781540900037967"><ele>33.0</ele><time>2026-04-26T09:03:22Z</time></trkpt><trkpt lat="42.94914485191015" lon="10.78170993880915"><ele>33.0</ele><time>2026-04-26T09:03:23Z</time></trkpt><trkpt lat="42.94927269528998" lon="10.781895590497419"><ele>33.0</ele><time>2026-04-26T09:03:24Z</time></trkpt><trkpt lat="42.949386714879765" lon="10.782100149460526"><ele>32.333333333333336</ele><time>2026-04-26T09:03:25Z</time></trkpt><trkpt lat="42.94949176931589" lon="10.782319697985256"><ele>31.666666666666668</ele><time>2026-04-26T09:03:26Z</time></trkpt><trkpt lat="42.949584130505166" lon="10.782552735211766"><ele>31.0</ele><time>2026-04-26T09:03:27Z</time></trkpt><trkpt lat="42.94966447571478" lon="10.782792267297935"><ele>30.333333333333336</ele><time>2026-04-26T09:03:28Z</time></trkpt><trkpt lat="42.949735917461645" lon="10.783037180565502"><ele>29.666666666666664</ele><time>2026-04-26T09:03:29Z</time></trkpt><trkpt lat="42.94980608671189" lon="10.783285283761508"><ele>29.0</ele><time>2026-04-26T09:03:30Z</time></trkpt><trkpt lat="42.94987298400747" lon="10.78353456382391"><ele>29.0</ele><time>2026-04-26T09:03:31Z</time></trkpt><trkpt lat="42.949936938549925" lon="10.783788158636348"><ele>29.0</ele><time>2026-04-26T09:03:32Z</time></trkpt><trkpt lat="42.95000137964988" lon="10.784052405781983"><ele>29.0</ele><time>2026-04-26T09:03:33Z</time></trkpt><trkpt lat="42.9500684623772" lon="10.784326998333459"><ele>28.0</ele><time>2026-04-26T09:03:34Z</time></trkpt><trkpt lat="42.95013919002953" lon="10.784605592064882"><ele>27.0</ele><time>2026-04-26T09:03:35Z</time></trkpt><trkpt lat="42.95021537863978" lon="10.784890799532732"><ele>26.0</ele><time>2026-04-26T09:03:36Z</time></trkpt><trkpt lat="42.950303287500596" lon="10.785191872498885"><ele>26.0</ele><time>2026-04-26T09:03:37Z</time></trkpt><trkpt lat="42.95039556952781" lon="10.785529435679447"><ele>26.0</ele><time>2026-04-26T09:03:38Z</time></trkpt><trkpt lat="42.95048904781171" lon="10.785882558270044"><ele>25.5</ele><time>2026-04-26T09:03:39Z</time></trkpt><trkpt lat="42.95057881467264" lon="10.786241172800835"><ele>25.0</ele><time>2026-04-26T09:03:40Z</time></trkpt><trkpt lat="42.95066103371329" lon="10.786582614823836"><ele>25.0</ele><time>2026-04-26T09:03:41Z</time></trkpt><trkpt lat="42.95073871396422" lon="10.786893467072254"><ele>25.0</ele><time>2026-04-26T09:03:42Z</time></trkpt><trkpt lat="42.95082346633771" lon="10.787179107307406"><ele>24.333333333333336</ele><time>2026-04-26T09:03:43Z</time></trkpt><trkpt lat="42.95090288955524" lon="10.787446902417585"><ele>23.666666666666668</ele><time>2026-04-26T09:03:44Z</time></trkpt><trkpt lat="42.9509822985309" lon="10.78768887696642"><ele>23.0</ele><time>2026-04-26T09:03:45Z</time></trkpt><trkpt lat="42.95106256262513" lon="10.787911247853675"><ele>23.0</ele><time>2026-04-26T09:03:46Z</time></trkpt><trkpt lat="42.951153965448654" lon="10.788126135908035"><ele>23.0</ele><time>2026-04-26T09:03:47Z</time></trkpt><trkpt lat="42.951254845470714" lon="10.788341934915373"><ele>23.0</ele><time>2026-04-26T09:03:48Z</time></trkpt><trkpt lat="42.951370259460866" lon="10.788548193081581"><ele>23.666666666666668</ele><time>2026-04-26T09:03:49Z</time></trkpt><trkpt lat="42.951483870884225" lon="10.788757916855605"><ele>24.333333333333336</ele><time>2026-04-26T09:03:50Z</time></trkpt><trkpt lat="42.95161033013313" lon="10.788954525751628"><ele>25.0</ele><time>2026-04-26T09:03:51Z</time></trkpt><trkpt lat="42.951745573199055" lon="10.789140307000947"><ele>25.666666666666668</ele><time>2026-04-26T09:03:52Z</time></trkpt><trkpt lat="42.95188580635539" lon="10.789313858262403"><ele>26.333333333333336</ele><time>2026-04-26T09:03:53Z</time></trkpt><trkpt lat="42.95202906777332" lon="10.789478940581171"><ele>27.0</ele><time>2026-04-26T09:03:54Z</time></trkpt><trkpt lat="42.95217576032845" lon="10.78963740789434"><ele>27.0</ele><time>2026-04-26T09:03:55Z</time></trkpt><trkpt lat="42.95233014599214" lon="10.789789057618247"><ele>27.0</ele><time>2026-04-26T09:03:56Z</time></trkpt><trkpt lat="42.95249017354021" lon="10.789936436352821"><ele>27.0</ele><time>2026-04-26T09:03:57Z</time></trkpt><trkpt lat="42.952652769151676" lon="10.790083237610167"><ele>27.0</ele><time>2026-04-26T09:03:58Z</time></trkpt><trkpt lat="42.952805618934036" lon="10.790220195209823"><ele>27.0</ele><time>2026-04-26T09:03:59Z</time></trkpt><trkpt lat="42.9529512361137" lon="10.79035265070762"><ele>27.0</ele><time>2026-04-26T09:04:00Z</time></trkpt><trkpt lat="42.95310462321671" lon="10.79049200972556"><ele>27.0</ele><time>2026-04-26T09:04:01Z</time></trkpt><trkpt lat="42.953259079535" lon="10.790637156764666"><ele>27.0</ele><time>2026-04-26T09:04:02Z</time></trkpt><trkpt lat="42.95341051094249" lon="10.790779338198265"><ele>27.0</ele><time>2026-04-26T09:04:03Z</time></trkpt><trkpt lat="42.95356080262624" lon="10.790921526715705"><ele>26.333333333333336</ele><time>2026-04-26T09:04:04Z</time></trkpt><trkpt lat="42.95370862352988" lon="10.791057010877056"><ele>25.666666666666668</ele><time>2026-04-26T09:04:05Z</time></trkpt><trkpt lat="42.95385312495675" lon="10.791185783656543"><ele>25.0</ele><time>2026-04-26T09:04:06Z</time></trkpt><trkpt lat="42.95398861397989" lon="10.791310271022411"><ele>25.0</ele><time>2026-04-26T09:04:07Z</time></trkpt><trkpt lat="42.954114315629084" lon="10.791427938310047"><ele>25.0</ele><time>2026-04-26T09:04:08Z</time></trkpt><trkpt lat="42.95423135859163" lon="10.791542585118497"><ele>25.0</ele><time>2026-04-26T09:04:09Z</time></trkpt><trkpt lat="42.95434247299069" lon="10.791648701895873"><ele>25.0</ele><time>2026-04-26T09:04:10Z</time></trkpt><trkpt lat="42.95444459543502" lon="10.79174235598223"><ele>25.8</ele><time>2026-04-26T09:04:11Z</time></trkpt><trkpt lat="42.954529999866416" lon="10.79182094490666"><ele>26.6</ele><time>2026-04-26T09:04:12Z</time></trkpt><trkpt lat="42.95459079329231" lon="10.791879537585956"><ele>27.4</ele><time>2026-04-26T09:04:13Z</time></trkpt><trkpt lat="42.9546654158626" lon="10.791954470625708"><ele>28.2</ele><time>2026-04-26T09:04:15Z</time></trkpt><trkpt lat="42.95473375698997" lon="10.792015777303725"><ele>29.0</ele><time>2026-04-26T09:04:18Z</time></trkpt><trkpt lat="42.95484545537113" lon="10.792113859467086"><ele>29.0</ele><time>2026-04-26T09:04:20Z</time></trkpt><trkpt lat="42.95491352014623" lon="10.792170713787494"><ele>29.0</ele><time>2026-04-26T09:04:21Z</time></trkpt><trkpt lat="42.95499564281423" lon="10.792241842494983"><ele>29.0</ele><time>2026-04-26T09:04:22Z</time></trkpt><trkpt lat="42.95507290259961" lon="10.792311798451676"><ele>29.0</ele><time>2026-04-26T09:04:23Z</time></trkpt><trkpt lat="42.95516294082699" lon="10.792391467436174"><ele>29.0</ele><time>2026-04-26T09:04:24Z</time></trkpt><trkpt lat="42.955259868751874" lon="10.792476846584574"><ele>29.75</ele><time>2026-04-26T09:04:25Z</time></trkpt><trkpt lat="42.95536372980557" lon="10.792569879964184"><ele>30.5</ele><time>2026-04-26T09:04:26Z</time></trkpt><trkpt lat="42.955472050174386" lon="10.79266739485865"><ele>31.25</ele><time>2026-04-26T09:04:27Z</time></trkpt><trkpt lat="42.95558688429129" lon="10.79277194154531"><ele>32.0</ele><time>2026-04-26T09:04:28Z</time></trkpt><trkpt lat="42.955696656414226" lon="10.79287228943949"><ele>32.0</ele><time>2026-04-26T09:04:29Z</time></trkpt><trkpt lat="42.95581645655275" lon="10.792982918844766"><ele>32.0</ele><time>2026-04-26T09:04:30Z</time></trkpt><trkpt lat="42.95594213076816" lon="10.793097385630512"><ele>32.0</ele><time>2026-04-26T09:04:31Z</time></trkpt><trkpt lat="42.95607026619808" lon="10.793215964355763"><ele>32.33333333333333</ele><time>2026-04-26T09:04:32Z</time></trkpt><trkpt lat="42.95620221212369" lon="10.793337702573485"><ele>32.666666666666664</ele><time>2026-04-26T09:04:33.001Z</time></trkpt><trkpt lat="42.95633913554026" lon="10.793465753089833"><ele>33.0</ele><time>2026-04-26T09:04:34.001Z</time></trkpt><trkpt lat="42.956480782639744" lon="10.793599645843717"><ele>32.666666666666664</ele><time>2026-04-26T09:04:35.001Z</time></trkpt><trkpt lat="42.95662823171828" lon="10.793738579167247"><ele>32.33333333333333</ele><time>2026-04-26T09:04:36.001Z</time></trkpt><trkpt lat="42.95678042727744" lon="10.793880138324432"><ele>32.0</ele><time>2026-04-26T09:04:37.001Z</time></trkpt><trkpt lat="42.95692431533054" lon="10.794014055726182"><ele>32.0</ele><time>2026-04-26T09:04:38.001Z</time></trkpt><trkpt lat="42.95706298101363" lon="10.794144935256243"><ele>32.0</ele><time>2026-04-26T09:04:39.001Z</time></trkpt><trkpt lat="42.95720260798648" lon="10.794275919559878"><ele>32.0</ele><time>2026-04-26T09:04:40.001Z</time></trkpt><trkpt lat="42.95734005393634" lon="10.794406242206916"><ele>32.0</ele><time>2026-04-26T09:04:41.001Z</time></trkpt><trkpt lat="42.95747917465149" lon="10.794538296741411"><ele>32.0</ele><time>2026-04-26T09:04:42.001Z</time></trkpt><trkpt lat="42.95761957556554" lon="10.794675415827724"><ele>32.0</ele><time>2026-04-26T09:04:43.001Z</time></trkpt><trkpt lat="42.95776468409452" lon="10.794814444065215"><ele>32.0</ele><time>2026-04-26T09:04:44.001Z</time></trkpt><trkpt lat="42.95791077707327" lon="10.794951002147029"><ele>32.0</ele><time>2026-04-26T09:04:45.001Z</time></trkpt><trkpt lat="42.9580609930185" lon="10.795092909283158"><ele>32.0</ele><time>2026-04-26T09:04:46.001Z</time></trkpt><trkpt lat="42.95820472261163" lon="10.79522905548953"><ele>31.666666666666664</ele><time>2026-04-26T09:04:47.001Z</time></trkpt><trkpt lat="42.95834947684724" lon="10.795359730126288"><ele>31.333333333333336</ele><time>2026-04-26T09:04:48.001Z</time></trkpt><trkpt lat="42.95849395925127" lon="10.795492235531803"><ele>31.0</ele><time>2026-04-26T09:04:49.001Z</time></trkpt><trkpt lat="42.95863749554686" lon="10.795623133274074"><ele>31.0</ele><time>2026-04-26T09:04:50.001Z</time></trkpt><trkpt lat="42.95878380414016" lon="10.795760405220134"><ele>31.0</ele><time>2026-04-26T09:04:51.001Z</time></trkpt><trkpt lat="42.95893211901702" lon="10.795896123091687"><ele>31.0</ele><time>2026-04-26T09:04:52.001Z</time></trkpt><trkpt lat="42.95907956229646" lon="10.796030515049901"><ele>30.0</ele><time>2026-04-26T09:04:53.001Z</time></trkpt><trkpt lat="42.959225802289815" lon="10.796164046437339"><ele>29.0</ele><time>2026-04-26T09:04:54.001Z</time></trkpt><trkpt lat="42.959371626041744" lon="10.796300167509218"><ele>28.0</ele><time>2026-04-26T09:04:55.001Z</time></trkpt><trkpt lat="42.959519608666746" lon="10.796436959790983"><ele>28.0</ele><time>2026-04-26T09:04:56.001Z</time></trkpt><trkpt lat="42.959671325120816" lon="10.796574021140003"><ele>28.0</ele><time>2026-04-26T09:04:57.001Z</time></trkpt><trkpt lat="42.959827403139826" lon="10.796714824991794"><ele>28.0</ele><time>2026-04-26T09:04:58.001Z</time></trkpt><trkpt lat="42.95998352941508" lon="10.79685900165502"><ele>26.666666666666668</ele><time>2026-04-26T09:04:59.001Z</time></trkpt><trkpt lat="42.96013924871709" lon="10.79700705655229"><ele>25.333333333333336</ele><time>2026-04-26T09:05:00.001Z</time></trkpt><trkpt lat="42.960295525583106" lon="10.797152212200208"><ele>24.0</ele><time>2026-04-26T09:05:01.001Z</time></trkpt><trkpt lat="42.96045500984777" lon="10.797300083858948"><ele>24.0</ele><time>2026-04-26T09:05:02.001Z</time></trkpt><trkpt lat="42.96061903888062" lon="10.797453830310744"><ele>24.0</ele><time>2026-04-26T09:05:03.001Z</time></trkpt><trkpt lat="42.9607964197545" lon="10.797604288027571"><ele>24.0</ele><time>2026-04-26T09:05:04.001Z</time></trkpt><trkpt lat="42.96100604304505" lon="10.797762086437729"><ele>23.0</ele><time>2026-04-26T09:05:05.001Z</time></trkpt><trkpt lat="42.961214736305415" lon="10.79799934084486"><ele>22.0</ele><time>2026-04-26T09:05:06.001Z</time></trkpt><trkpt lat="42.96146838468763" lon="10.798228106151546"><ele>22.0</ele><time>2026-04-26T09:05:07.001Z</time></trkpt><trkpt lat="42.961763173964776" lon="10.798486017056677"><ele>22.0</ele><time>2026-04-26T09:05:08.001Z</time></trkpt><trkpt lat="42.962079655573945" lon="10.798781942564348"><ele>21.5</ele><time>2026-04-26T09:05:09.001Z</time></trkpt><trkpt lat="42.96242172425312" lon="10.799095129811093"><ele>21.0</ele><time>2026-04-26T09:05:10.001Z</time></trkpt><trkpt lat="42.962782774939406" lon="10.799421736781085"><ele>21.0</ele><time>2026-04-26T09:05:11.001Z</time></trkpt><trkpt lat="42.96315666160603" lon="10.79976101386595"><ele>21.0</ele><time>2026-04-26T09:05:12.001Z</time></trkpt><trkpt lat="42.9635196023536" lon="10.800094035949325"><ele>21.0</ele><time>2026-04-26T09:05:13.001Z</time></trkpt><trkpt lat="42.963837105624094" lon="10.800386512988466"><ele>21.0</ele><time>2026-04-26T09:05:14.001Z</time></trkpt><trkpt lat="42.96413956030864" lon="10.800660522734807"><ele>21.0</ele><time>2026-04-26T09:05:15.001Z</time></trkpt><trkpt lat="42.964437403806485" lon="10.800929476247353"><ele>21.0</ele><time>2026-04-26T09:05:16.001Z</time></trkpt><trkpt lat="42.96471463525433" lon="10.801182997926029"><ele>21.0</ele><time>2026-04-26T09:05:17.001Z</time></trkpt><trkpt lat="42.964975052281666" lon="10.801421068836156"><ele>21.0</ele><time>2026-04-26T09:05:18Z</time></trkpt><trkpt lat="42.96523358646939" lon="10.801658790265483"><ele>21.0</ele><time>2026-04-26T09:05:19Z</time></trkpt><trkpt lat="42.965493171097044" lon="10.801897292141836"><ele>21.0</ele><time>2026-04-26T09:05:20Z</time></trkpt><trkpt lat="42.965758233154254" lon="10.802136474280358"><ele>21.0</ele><time>2026-04-26T09:05:21Z</time></trkpt><trkpt lat="42.96603200946211" lon="10.802380911004702"><ele>21.0</ele><time>2026-04-26T09:05:22Z</time></trkpt><trkpt lat="42.966320569633595" lon="10.802642668402566"><ele>21.0</ele><time>2026-04-26T09:05:23Z</time></trkpt><trkpt lat="42.96660932510775" lon="10.802905202200787"><ele>21.0</ele><time>2026-04-26T09:05:24Z</time></trkpt><trkpt lat="42.96686722340394" lon="10.803137026984007"><ele>21.5</ele><time>2026-04-26T09:05:25Z</time></trkpt><trkpt lat="42.967108699041056" lon="10.803344972563051"><ele>22.0</ele><time>2026-04-26T09:05:26Z</time></trkpt><trkpt lat="42.96733696761852" lon="10.803542731583764"><ele>22.0</ele><time>2026-04-26T09:05:27Z</time></trkpt><trkpt lat="42.96757019805816" lon="10.803724402183521"><ele>22.0</ele><time>2026-04-26T09:05:28Z</time></trkpt><trkpt lat="42.96783457836039" lon="10.803884905279427"><ele>22.0</ele><time>2026-04-26T09:05:29Z</time></trkpt><trkpt lat="42.96809432669351" lon="10.804006737137431"><ele>22.0</ele><time>2026-04-26T09:05:30Z</time></trkpt><trkpt lat="42.968311910899594" lon="10.804090078004156"><ele>22.5</ele><time>2026-04-26T09:05:31Z</time></trkpt><trkpt lat="42.96848884251601" lon="10.804147948077928"><ele>23.0</ele><time>2026-04-26T09:05:32Z</time></trkpt><trkpt lat="42.968626321593554" lon="10.804201953948073"><ele>23.5</ele><time>2026-04-26T09:05:33Z</time></trkpt><trkpt lat="42.968737895859185" lon="10.804253122976572"><ele>24.0</ele><time>2026-04-26T09:05:34Z</time></trkpt><trkpt lat="42.968828987942054" lon="10.804328677164694"><ele>24.25</ele><time>2026-04-26T09:05:35Z</time></trkpt><trkpt lat="42.96890685841612" lon="10.80443429153353"><ele>24.5</ele><time>2026-04-26T09:05:36Z</time></trkpt><trkpt lat="42.96901011965569" lon="10.804530369243544"><ele>24.75</ele><time>2026-04-26T09:05:37Z</time></trkpt><trkpt lat="42.96913441926167" lon="10.804586976945991"><ele>25.0</ele><time>2026-04-26T09:05:38Z</time></trkpt><trkpt lat="42.96923875285455" lon="10.804646027575599"><ele>25.0</ele><time>2026-04-26T09:05:39Z</time></trkpt><trkpt lat="42.9693194959907" lon="10.80475695758661"><ele>25.0</ele><time>2026-04-26T09:05:40Z</time></trkpt><trkpt lat="42.969374219794645" lon="10.80491931764631"><ele>25.0</ele><time>2026-04-26T09:05:41Z</time></trkpt><trkpt lat="42.96941562961374" lon="10.805143857057228"><ele>25.0</ele><time>2026-04-26T09:05:42Z</time></trkpt><trkpt lat="42.96943198323448" lon="10.80541124188687"><ele>25.0</ele><time>2026-04-26T09:05:43Z</time></trkpt><trkpt lat="42.96941953724948" lon="10.805712756857616"><ele>25.0</ele><time>2026-04-26T09:05:44Z</time></trkpt><trkpt lat="42.96938103034643" lon="10.806028578458083"><ele>25.0</ele><time>2026-04-26T09:05:45Z</time></trkpt><trkpt lat="42.969326936026576" lon="10.806357371033616"><ele>25.0</ele><time>2026-04-26T09:05:46Z</time></trkpt><trkpt lat="42.96926852074634" lon="10.806683313060503"><ele>25.0</ele><time>2026-04-26T09:05:47Z</time></trkpt><trkpt lat="42.96921665635719" lon="10.807029022067649"><ele>25.0</ele><time>2026-04-26T09:05:48Z</time></trkpt><trkpt lat="42.96917093315245" lon="10.807381872860534"><ele>25.0</ele><time>2026-04-26T09:05:49Z</time></trkpt><trkpt lat="42.96914158738593" lon="10.807727527288963"><ele>25.0</ele><time>2026-04-26T09:05:50Z</time></trkpt><trkpt lat="42.96915537326506" lon="10.808058942788609"><ele>25.5</ele><time>2026-04-26T09:05:51Z</time></trkpt><trkpt lat="42.96923581803364" lon="10.80835718500533"><ele>26.0</ele><time>2026-04-26T09:05:52Z</time></trkpt><trkpt lat="42.96935609897179" lon="10.808635895843686"><ele>26.0</ele><time>2026-04-26T09:05:53Z</time></trkpt><trkpt lat="42.9695147385215" lon="10.808899267914999"><ele>26.0</ele><time>2026-04-26T09:05:54Z</time></trkpt><trkpt lat="42.96973116393535" lon="10.809159316093561"><ele>26.5</ele><time>2026-04-26T09:05:55Z</time></trkpt><trkpt lat="42.96998018998689" lon="10.809446321272695"><ele>27.0</ele><time>2026-04-26T09:05:56Z</time></trkpt><trkpt lat="42.97024590082158" lon="10.809753782312251"><ele>27.0</ele><time>2026-04-26T09:05:57Z</time></trkpt><trkpt lat="42.97053196045464" lon="10.810079097390126"><ele>27.0</ele><time>2026-04-26T09:05:58Z</time></trkpt><trkpt lat="42.97079321782302" lon="10.810378386981752"><ele>27.0</ele><time>2026-04-26T09:05:59Z</time></trkpt><trkpt lat="42.97102690793441" lon="10.810644481865348"><ele>27.0</ele><time>2026-04-26T09:06:00Z</time></trkpt><trkpt lat="42.97124351722206" lon="10.81089679169685"><ele>28.5</ele><time>2026-04-26T09:06:01Z</time></trkpt><trkpt lat="42.97146023552033" lon="10.8111521603824"><ele>30.0</ele><time>2026-04-26T09:06:02Z</time></trkpt><trkpt lat="42.97167529444194" lon="10.81139980726605"><ele>29.5</ele><time>2026-04-26T09:06:03Z</time></trkpt><trkpt lat="42.9718818699602" lon="10.811635973889613"><ele>29.0</ele><time>2026-04-26T09:06:04Z</time></trkpt><trkpt lat="42.972080039227656" lon="10.811864216151676"><ele>29.0</ele><time>2026-04-26T09:06:05Z</time></trkpt><trkpt lat="42.972273633108564" lon="10.812092176116069"><ele>29.0</ele><time>2026-04-26T09:06:06Z</time></trkpt><trkpt lat="42.97245858751693" lon="10.812311528837649"><ele>29.5</ele><time>2026-04-26T09:06:07Z</time></trkpt><trkpt lat="42.97263529726649" lon="10.812517658616644"><ele>30.0</ele><time>2026-04-26T09:06:08Z</time></trkpt><trkpt lat="42.972803905080745" lon="10.812711917829477"><ele>30.0</ele><time>2026-04-26T09:06:09Z</time></trkpt><trkpt lat="42.972963163680966" lon="10.812901249003453"><ele>30.0</ele><time>2026-04-26T09:06:10Z</time></trkpt><trkpt lat="42.973115164995335" lon="10.813084694794597"><ele>30.0</ele><time>2026-04-26T09:06:11Z</time></trkpt><trkpt lat="42.97326710310477" lon="10.813259019386104"><ele>30.666666666666664</ele><time>2026-04-26T09:06:12Z</time></trkpt><trkpt lat="42.97341251602762" lon="10.813422100376716"><ele>31.333333333333332</ele><time>2026-04-26T09:06:13Z</time></trkpt><trkpt lat="42.97354526315762" lon="10.813572768014694"><ele>32.0</ele><time>2026-04-26T09:06:14Z</time></trkpt><trkpt lat="42.97366473391701" lon="10.813712125658427"><ele>32.75</ele><time>2026-04-26T09:06:15Z</time></trkpt><trkpt lat="42.97377629443326" lon="10.81384130539426"><ele>33.5</ele><time>2026-04-26T09:06:16Z</time></trkpt><trkpt lat="42.97389034100411" lon="10.81396227337357"><ele>34.25</ele><time>2026-04-26T09:06:17Z</time></trkpt><trkpt lat="42.97399836951149" lon="10.81408713017128"><ele>35.0</ele><time>2026-04-26T09:06:18Z</time></trkpt><trkpt lat="42.97410532444234" lon="10.814208338412797"><ele>36.0</ele><time>2026-04-26T09:06:19Z</time></trkpt><trkpt lat="42.9742101133914" lon="10.814327838426518"><ele>37.0</ele><time>2026-04-26T09:06:20Z</time></trkpt><trkpt lat="42.97431380059171" lon="10.814442249041413"><ele>38.0</ele><time>2026-04-26T09:06:21Z</time></trkpt><trkpt lat="42.97440527723091" lon="10.814547936368172"><ele>39.0</ele><time>2026-04-26T09:06:22Z</time></trkpt><trkpt lat="42.97448383323463" lon="10.814638009118397"><ele>39.0</ele><time>2026-04-26T09:06:23Z</time></trkpt><trkpt lat="42.97455420171893" lon="10.814724666193182"><ele>39.0</ele><time>2026-04-26T09:06:24Z</time></trkpt><trkpt lat="42.974615729679634" lon="10.814818931191185"><ele>39.0</ele><time>2026-04-26T09:06:25Z</time></trkpt><trkpt lat="42.97466423720995" lon="10.814935004487838"><ele>39.0</ele><time>2026-04-26T09:06:26Z</time></trkpt><trkpt lat="42.974694182409785" lon="10.815066978599669"><ele>39.0</ele><time>2026-04-26T09:06:27Z</time></trkpt><trkpt lat="42.9747393268645" lon="10.815182222225289"><ele>39.166666666666664</ele><time>2026-04-26T09:06:28Z</time></trkpt><trkpt lat="42.97480804981815" lon="10.815261661042577"><ele>39.333333333333336</ele><time>2026-04-26T09:06:29Z</time></trkpt><trkpt lat="42.9748867799794" lon="10.815310638295987"><ele>39.5</ele><time>2026-04-26T09:06:30Z</time></trkpt><trkpt lat="42.97495874539088" lon="10.815348957521174"><ele>39.66666666666667</ele><time>2026-04-26T09:06:31Z</time></trkpt><trkpt lat="42.97502486694291" lon="10.815400565895764"><ele>39.833333333333336</ele><time>2026-04-26T09:06:32Z</time></trkpt><trkpt lat="42.97509961456041" lon="10.815481193450768"><ele>40.0</ele><time>2026-04-26T09:06:33Z</time></trkpt><trkpt lat="42.97517884080204" lon="10.815576791112452"><ele>40.0</ele><time>2026-04-26T09:06:34Z</time></trkpt><trkpt lat="42.97525999558472" lon="10.815676114949172"><ele>40.0</ele><time>2026-04-26T09:06:35Z</time></trkpt><trkpt lat="42.97534227939736" lon="10.815774712797655"><ele>40.0</ele><time>2026-04-26T09:06:36Z</time></trkpt><trkpt lat="42.97542403891877" lon="10.815868526422257"><ele>40.0</ele><time>2026-04-26T09:06:37Z</time></trkpt><trkpt lat="42.97550430948738" lon="10.815966934960855"><ele>40.0</ele><time>2026-04-26T09:06:38Z</time></trkpt><trkpt lat="42.975585202018266" lon="10.816070771184975"><ele>40.5</ele><time>2026-04-26T09:06:39Z</time></trkpt><trkpt lat="42.97567238562174" lon="10.8161890804298"><ele>41.0</ele><time>2026-04-26T09:06:40Z</time></trkpt><trkpt lat="42.97577059389235" lon="10.816307591334535"><ele>41.5</ele><time>2026-04-26T09:06:41.001Z</time></trkpt><trkpt lat="42.975872423918446" lon="10.816439257528394"><ele>42.0</ele><time>2026-04-26T09:06:42.001Z</time></trkpt><trkpt lat="42.975973333831234" lon="10.816562260365673"><ele>42.0</ele><time>2026-04-26T09:06:43.001Z</time></trkpt><trkpt lat="42.97607443191095" lon="10.81667671047337"><ele>42.0</ele><time>2026-04-26T09:06:44.001Z</time></trkpt><trkpt lat="42.976185451367215" lon="10.816805776768726"><ele>42.0</ele><time>2026-04-26T09:06:45.001Z</time></trkpt><trkpt lat="42.976294971085565" lon="10.816935117697327"><ele>42.0</ele><time>2026-04-26T09:06:46.001Z</time></trkpt><trkpt lat="42.97640449243941" lon="10.817065354132891"><ele>41.666666666666664</ele><time>2026-04-26T09:06:47.001Z</time></trkpt><trkpt lat="42.97651520471865" lon="10.817199981764482"><ele>41.33333333333333</ele><time>2026-04-26T09:06:48.001Z</time></trkpt><trkpt lat="42.976629067859456" lon="10.81733759799445"><ele>41.0</ele><time>2026-04-26T09:06:49.001Z</time></trkpt><trkpt lat="42.976743363500084" lon="10.817477427281435"><ele>41.0</ele><time>2026-04-26T09:06:50.001Z</time></trkpt><trkpt lat="42.97686262709114" lon="10.817617380609281"><ele>41.0</ele><time>2026-04-26T09:06:51.001Z</time></trkpt><trkpt lat="42.97697363823939" lon="10.817749408364385"><ele>41.0</ele><time>2026-04-26T09:06:52.001Z</time></trkpt><trkpt lat="42.97708304722496" lon="10.81788057248579"><ele>41.666666666666664</ele><time>2026-04-26T09:06:53.001Z</time></trkpt><trkpt lat="42.97719048183944" lon="10.818015310916433"><ele>42.333333333333336</ele><time>2026-04-26T09:06:54.001Z</time></trkpt><trkpt lat="42.97730413369464" lon="10.818149684548917"><ele>43.0</ele><time>2026-04-26T09:06:55.001Z</time></trkpt><trkpt lat="42.97742218822317" lon="10.818286378149349"><ele>42.333333333333336</ele><time>2026-04-26T09:06:56.001Z</time></trkpt><trkpt lat="42.977539463452274" lon="10.818432310293073"><ele>41.666666666666664</ele><time>2026-04-26T09:06:57.001Z</time></trkpt><trkpt lat="42.97765687734733" lon="10.818578404338291"><ele>41.0</ele><time>2026-04-26T09:06:58.001Z</time></trkpt><trkpt lat="42.97777294742667" lon="10.818722021159003"><ele>42.666666666666664</ele><time>2026-04-26T09:06:59.001Z</time></trkpt><trkpt lat="42.97789093347729" lon="10.818862665328124"><ele>44.333333333333336</ele><time>2026-04-26T09:07:00.001Z</time></trkpt><trkpt lat="42.97801179816424" lon="10.819007981402713"><ele>46.0</ele><time>2026-04-26T09:07:01.001Z</time></trkpt><trkpt lat="42.97813127980293" lon="10.819155928189252"><ele>46.0</ele><time>2026-04-26T09:07:02.001Z</time></trkpt><trkpt lat="42.978251845770664" lon="10.819305545874395"><ele>46.0</ele><time>2026-04-26T09:07:03.001Z</time></trkpt><trkpt lat="42.97836770240289" lon="10.819446227161583"><ele>46.0</ele><time>2026-04-26T09:07:04.001Z</time></trkpt><trkpt lat="42.97848221200298" lon="10.819585801257427"><ele>46.333333333333336</ele><time>2026-04-26T09:07:05.001Z</time></trkpt><trkpt lat="42.97859523657162" lon="10.819721259239143"><ele>46.666666666666664</ele><time>2026-04-26T09:07:06.001Z</time></trkpt><trkpt lat="42.97871062440953" lon="10.819858440295228"><ele>47.0</ele><time>2026-04-26T09:07:07.001Z</time></trkpt><trkpt lat="42.97882671182308" lon="10.820000196752044"><ele>47.0</ele><time>2026-04-26T09:07:08.001Z</time></trkpt><trkpt lat="42.978946624033064" lon="10.820142316196014"><ele>47.0</ele><time>2026-04-26T09:07:09.001Z</time></trkpt><trkpt lat="42.979058058157" lon="10.820305445739663"><ele>47.0</ele><time>2026-04-26T09:07:10.001Z</time></trkpt><trkpt lat="42.97917960117369" lon="10.820454262525574"><ele>48.0</ele><time>2026-04-26T09:07:11.001Z</time></trkpt><trkpt lat="42.97929866357535" lon="10.820600042049726"><ele>49.0</ele><time>2026-04-26T09:07:12.001Z</time></trkpt><trkpt lat="42.979414151255945" lon="10.82074225766342"><ele>50.0</ele><time>2026-04-26T09:07:13.001Z</time></trkpt><trkpt lat="42.979530075060616" lon="10.820885004707089"><ele>50.0</ele><time>2026-04-26T09:07:14.001Z</time></trkpt><trkpt lat="42.979648616088795" lon="10.82103097462123"><ele>50.0</ele><time>2026-04-26T09:07:15.001Z</time></trkpt><trkpt lat="42.97977070160575" lon="10.82118130902735"><ele>50.0</ele><time>2026-04-26T09:07:16.001Z</time></trkpt><trkpt lat="42.97989435300398" lon="10.82133357180108"><ele>50.0</ele><time>2026-04-26T09:07:17.001Z</time></trkpt><trkpt lat="42.98003107064865" lon="10.82147422187421"><ele>50.0</ele><time>2026-04-26T09:07:18.001Z</time></trkpt><trkpt lat="42.98015625061829" lon="10.821635152929856"><ele>50.0</ele><time>2026-04-26T09:07:19.001Z</time></trkpt><trkpt lat="42.980282638559174" lon="10.821793528104251"><ele>50.333333333333336</ele><time>2026-04-26T09:07:20.001Z</time></trkpt><trkpt lat="42.98041010600684" lon="10.821953305580681"><ele>50.66666666666667</ele><time>2026-04-26T09:07:21.001Z</time></trkpt><trkpt lat="42.98054081806004" lon="10.822112069477303"><ele>51.0</ele><time>2026-04-26T09:07:22.001Z</time></trkpt><trkpt lat="42.9806701729451" lon="10.822274234024478"><ele>51.0</ele><time>2026-04-26T09:07:23.001Z</time></trkpt><trkpt lat="42.98079738572714" lon="10.822427794411478"><ele>51.0</ele><time>2026-04-26T09:07:24Z</time></trkpt><trkpt lat="42.980926105193234" lon="10.822582188577915"><ele>51.0</ele><time>2026-04-26T09:07:25Z</time></trkpt><trkpt lat="42.98105540484808" lon="10.822735713448488"><ele>51.33333333333333</ele><time>2026-04-26T09:07:26Z</time></trkpt><trkpt lat="42.98117347600969" lon="10.82290875361763"><ele>51.666666666666664</ele><time>2026-04-26T09:07:27Z</time></trkpt><trkpt lat="42.98130171441033" lon="10.823066703267882"><ele>52.0</ele><time>2026-04-26T09:07:28Z</time></trkpt><trkpt lat="42.981428382407834" lon="10.823222241352811"><ele>52.0</ele><time>2026-04-26T09:07:29Z</time></trkpt><trkpt lat="42.981555465589715" lon="10.82337777407822"><ele>52.0</ele><time>2026-04-26T09:07:30Z</time></trkpt><trkpt lat="42.9816835394608" lon="10.823534519283019"><ele>52.0</ele><time>2026-04-26T09:07:31Z</time></trkpt><trkpt lat="42.98181245501963" lon="10.82369229459728"><ele>52.666666666666664</ele><time>2026-04-26T09:07:32Z</time></trkpt><trkpt lat="42.98194434496568" lon="10.823853710107716"><ele>53.33333333333333</ele><time>2026-04-26T09:07:33Z</time></trkpt><trkpt lat="42.98207675612987" lon="10.824015763603118"><ele>54.0</ele><time>2026-04-26T09:07:34Z</time></trkpt><trkpt lat="42.982221065857644" lon="10.824161658824753"><ele>54.33333333333333</ele><time>2026-04-26T09:07:35Z</time></trkpt><trkpt lat="42.98235421902396" lon="10.824326228227433"><ele>54.666666666666664</ele><time>2026-04-26T09:07:36Z</time></trkpt><trkpt lat="42.98248683301751" lon="10.824488527712328"><ele>55.0</ele><time>2026-04-26T09:07:37Z</time></trkpt><trkpt lat="42.98261811806311" lon="10.824649910440703"><ele>55.33333333333333</ele><time>2026-04-26T09:07:38Z</time></trkpt><trkpt lat="42.98274959499486" lon="10.824812892190618"><ele>55.66666666666667</ele><time>2026-04-26T09:07:39Z</time></trkpt><trkpt lat="42.982882312313706" lon="10.824974241094553"><ele>56.0</ele><time>2026-04-26T09:07:40Z</time></trkpt><trkpt lat="42.983012687986296" lon="10.82513947338296"><ele>56.333333333333336</ele><time>2026-04-26T09:07:41Z</time></trkpt><trkpt lat="42.98314547961723" lon="10.825303375272764"><ele>56.66666666666667</ele><time>2026-04-26T09:07:42Z</time></trkpt><trkpt lat="42.98327756851488" lon="10.825461643046133"><ele>57.0</ele><time>2026-04-26T09:07:43Z</time></trkpt><trkpt lat="42.983407724745646" lon="10.825616482206675"><ele>57.0</ele><time>2026-04-26T09:07:44Z</time></trkpt><trkpt lat="42.98353541562587" lon="10.825773937522769"><ele>57.0</ele><time>2026-04-26T09:07:45Z</time></trkpt><trkpt lat="42.98365804937494" lon="10.825916722262875"><ele>57.0</ele><time>2026-04-26T09:07:46Z</time></trkpt><trkpt lat="42.983766615219906" lon="10.826051624973399"><ele>57.25</ele><time>2026-04-26T09:07:47Z</time></trkpt><trkpt lat="42.98387501712075" lon="10.826185239056214"><ele>57.5</ele><time>2026-04-26T09:07:48Z</time></trkpt><trkpt lat="42.983983222228176" lon="10.826317632872206"><ele>57.75</ele><time>2026-04-26T09:07:49Z</time></trkpt><trkpt lat="42.9840940417575" lon="10.826443169125609"><ele>58.0</ele><time>2026-04-26T09:07:50Z</time></trkpt><trkpt lat="42.98420126235243" lon="10.826574449170959"><ele>58.0</ele><time>2026-04-26T09:07:51Z</time></trkpt><trkpt lat="42.98430664222516" lon="10.82670403848299"><ele>58.0</ele><time>2026-04-26T09:07:52Z</time></trkpt><trkpt lat="42.98442095674231" lon="10.826839424759951"><ele>58.0</ele><time>2026-04-26T09:07:53Z</time></trkpt><trkpt lat="42.98455081281584" lon="10.82698830065165"><ele>58.666666666666664</ele><time>2026-04-26T09:07:54Z</time></trkpt><trkpt lat="42.98469468573793" lon="10.827190792308226"><ele>59.33333333333333</ele><time>2026-04-26T09:07:55Z</time></trkpt><trkpt lat="42.984874806831556" lon="10.827408623985146"><ele>60.0</ele><time>2026-04-26T09:07:56Z</time></trkpt><trkpt lat="42.98507719436749" lon="10.827653383846025"><ele>60.0</ele><time>2026-04-26T09:07:57Z</time></trkpt><trkpt lat="42.985295973780474" lon="10.827892178943046"><ele>60.0</ele><time>2026-04-26T09:07:58Z</time></trkpt><trkpt lat="42.98550666318941" lon="10.828163450798819"><ele>60.0</ele><time>2026-04-26T09:07:59Z</time></trkpt><trkpt lat="42.98573371656316" lon="10.82843454650116"><ele>60.0</ele><time>2026-04-26T09:08:00Z</time></trkpt><trkpt lat="42.985960939367686" lon="10.828705142315291"><ele>61.5</ele><time>2026-04-26T09:08:01Z</time></trkpt><trkpt lat="42.98618163400175" lon="10.828973827662484"><ele>63.0</ele><time>2026-04-26T09:08:02Z</time></trkpt><trkpt lat="42.98640022709987" lon="10.829241303100842"><ele>63.5</ele><time>2026-04-26T09:08:03Z</time></trkpt><trkpt lat="42.98661376378726" lon="10.829502573190746"><ele>64.0</ele><time>2026-04-26T09:08:04Z</time></trkpt><trkpt lat="42.98682546697248" lon="10.829760810337772"><ele>64.0</ele><time>2026-04-26T09:08:05Z</time></trkpt><trkpt lat="42.98703523655328" lon="10.830014168117218"><ele>64.0</ele><time>2026-04-26T09:08:06Z</time></trkpt><trkpt lat="42.98724415357048" lon="10.830269723798848"><ele>65.0</ele><time>2026-04-26T09:08:07Z</time></trkpt><trkpt lat="42.987462196713054" lon="10.830518720513613"><ele>66.0</ele><time>2026-04-26T09:08:08Z</time></trkpt><trkpt lat="42.987675145816034" lon="10.830775636275584"><ele>66.5</ele><time>2026-04-26T09:08:09Z</time></trkpt><trkpt lat="42.987890156767435" lon="10.831030185197065"><ele>67.0</ele><time>2026-04-26T09:08:10Z</time></trkpt><trkpt lat="42.98810541484173" lon="10.83128142560194"><ele>67.0</ele><time>2026-04-26T09:08:11Z</time></trkpt><trkpt lat="42.988319701256295" lon="10.831538748485753"><ele>67.0</ele><time>2026-04-26T09:08:12Z</time></trkpt><trkpt lat="42.98853528771191" lon="10.83179399339"><ele>70.0</ele><time>2026-04-26T09:08:13Z</time></trkpt><trkpt lat="42.98874959043288" lon="10.832051415709248"><ele>73.0</ele><time>2026-04-26T09:08:14Z</time></trkpt><trkpt lat="42.988956697226115" lon="10.832303841820293"><ele>73.0</ele><time>2026-04-26T09:08:15Z</time></trkpt><trkpt lat="42.989167970912455" lon="10.832560628501966"><ele>73.0</ele><time>2026-04-26T09:08:16Z</time></trkpt><trkpt lat="42.989380028137404" lon="10.83282005389237"><ele>72.0</ele><time>2026-04-26T09:08:17Z</time></trkpt><trkpt lat="42.989590105351134" lon="10.833073953196433"><ele>71.0</ele><time>2026-04-26T09:08:18Z</time></trkpt><trkpt lat="42.98979798963361" lon="10.83331935740429"><ele>71.5</ele><time>2026-04-26T09:08:19Z</time></trkpt><trkpt lat="42.990008219800515" lon="10.83355705161938"><ele>72.0</ele><time>2026-04-26T09:08:20Z</time></trkpt><trkpt lat="42.990218161685426" lon="10.833793140226959"><ele>73.0</ele><time>2026-04-26T09:08:21Z</time></trkpt><trkpt lat="42.990416596452974" lon="10.834030438294057"><ele>74.0</ele><time>2026-04-26T09:08:22Z</time></trkpt><trkpt lat="42.99061065613073" lon="10.834269987300848"><ele>74.5</ele><time>2026-04-26T09:08:23Z</time></trkpt><trkpt lat="42.990781806901566" lon="10.834529909649184"><ele>75.0</ele><time>2026-04-26T09:08:24Z</time></trkpt><trkpt lat="42.990950942918026" lon="10.834802525538137"><ele>75.0</ele><time>2026-04-26T09:08:25Z</time></trkpt><trkpt lat="42.99113501943033" lon="10.835076328598758"><ele>75.0</ele><time>2026-04-26T09:08:26Z</time></trkpt><trkpt lat="42.99130620557574" lon="10.835368607171285"><ele>75.5</ele><time>2026-04-26T09:08:27Z</time></trkpt><trkpt lat="42.99146926505687" lon="10.83567355042948"><ele>76.0</ele><time>2026-04-26T09:08:28Z</time></trkpt><trkpt lat="42.99163140092659" lon="10.83598952994375"><ele>77.5</ele><time>2026-04-26T09:08:29Z</time></trkpt><trkpt lat="42.99178772044866" lon="10.836312814408725"><ele>79.0</ele><time>2026-04-26T09:08:30Z</time></trkpt><trkpt lat="42.99194314327605" lon="10.836641229359314"><ele>80.5</ele><time>2026-04-26T09:08:31Z</time></trkpt><trkpt lat="42.992099300622435" lon="10.836971445642298"><ele>82.0</ele><time>2026-04-26T09:08:32Z</time></trkpt><trkpt lat="42.992264489442064" lon="10.837298820902449"><ele>82.0</ele><time>2026-04-26T09:08:33Z</time></trkpt><trkpt lat="42.99243771041782" lon="10.83762308374412"><ele>82.0</ele><time>2026-04-26T09:08:34Z</time></trkpt><trkpt lat="42.99262082965803" lon="10.837938040338024"><ele>84.0</ele><time>2026-04-26T09:08:35Z</time></trkpt><trkpt lat="42.99280912216459" lon="10.83824182575062"><ele>86.0</ele><time>2026-04-26T09:08:36Z</time></trkpt><trkpt lat="42.993006808476885" lon="10.83853479501904"><ele>86.0</ele><time>2026-04-26T09:08:37Z</time></trkpt><trkpt lat="42.99321832664637" lon="10.838810519755093"><ele>86.0</ele><time>2026-04-26T09:08:38Z</time></trkpt><trkpt lat="42.99344210690522" lon="10.839075932581059"><ele>87.0</ele><time>2026-04-26T09:08:39Z</time></trkpt><trkpt lat="42.99367360332557" lon="10.839338106478118"><ele>88.0</ele><time>2026-04-26T09:08:40Z</time></trkpt><trkpt lat="42.99390995820883" lon="10.839598104600592"><ele>88.0</ele><time>2026-04-26T09:08:41Z</time></trkpt><trkpt lat="42.99415249140659" lon="10.83985412355197"><ele>88.0</ele><time>2026-04-26T09:08:42Z</time></trkpt><trkpt lat="42.99438872953334" lon="10.840112903766528"><ele>89.5</ele><time>2026-04-26T09:08:43Z</time></trkpt><trkpt lat="42.99462850153779" lon="10.840379670493686"><ele>91.0</ele><time>2026-04-26T09:08:44Z</time></trkpt><trkpt lat="42.99486925708609" lon="10.840650354684477"><ele>92.0</ele><time>2026-04-26T09:08:45Z</time></trkpt><trkpt lat="42.99511045181623" lon="10.840917302965302"><ele>93.0</ele><time>2026-04-26T09:08:46Z</time></trkpt><trkpt lat="42.99535279694729" lon="10.841186051856898"><ele>94.0</ele><time>2026-04-26T09:08:47.001Z</time></trkpt><trkpt lat="42.9955929768804" lon="10.841452198929797"><ele>95.0</ele><time>2026-04-26T09:08:48.001Z</time></trkpt><trkpt lat="42.99583431772155" lon="10.841715828284126"><ele>96.5</ele><time>2026-04-26T09:08:49.001Z</time></trkpt><trkpt lat="42.99607552655992" lon="10.841977004601482"><ele>98.0</ele><time>2026-04-26T09:08:50.001Z</time></trkpt><trkpt lat="42.99631788926443" lon="10.84223462021833"><ele>98.0</ele><time>2026-04-26T09:08:51.001Z</time></trkpt><trkpt lat="42.99655315882927" lon="10.842488646137255"><ele>98.0</ele><time>2026-04-26T09:08:52.001Z</time></trkpt><trkpt lat="42.99678625660077" lon="10.842742426921617"><ele>100.0</ele><time>2026-04-26T09:08:53.001Z</time></trkpt><trkpt lat="42.997018232011975" lon="10.84299063695043"><ele>102.0</ele><time>2026-04-26T09:08:54.001Z</time></trkpt><trkpt lat="42.99724527129172" lon="10.843234873094639"><ele>102.0</ele><time>2026-04-26T09:08:55.001Z</time></trkpt><trkpt lat="42.99745380595777" lon="10.843456130836273"><ele>102.0</ele><time>2026-04-26T09:08:56.001Z</time></trkpt><trkpt lat="42.99764238554765" lon="10.84365443433887"><ele>102.66666666666666</ele><time>2026-04-26T09:08:57.001Z</time></trkpt><trkpt lat="42.99781478307775" lon="10.843839278285161"><ele>103.33333333333333</ele><time>2026-04-26T09:08:58.001Z</time></trkpt><trkpt lat="42.99797184669062" lon="10.844009615249892"><ele>104.0</ele><time>2026-04-26T09:08:59.001Z</time></trkpt><trkpt lat="42.99811500110524" lon="10.844166655380516"><ele>105.66666666666666</ele><time>2026-04-26T09:09:00.001Z</time></trkpt><trkpt lat="42.99824739213867" lon="10.844311536423465"><ele>107.33333333333334</ele><time>2026-04-26T09:09:01.001Z</time></trkpt><trkpt lat="42.9983703883706" lon="10.844443322763464"><ele>109.0</ele><time>2026-04-26T09:09:02.001Z</time></trkpt><trkpt lat="42.99849003556847" lon="10.844565138556936"><ele>109.25</ele><time>2026-04-26T09:09:03.001Z</time></trkpt><trkpt lat="42.99859977082603" lon="10.84467621510267"><ele>109.5</ele><time>2026-04-26T09:09:04.001Z</time></trkpt><trkpt lat="42.99870794624304" lon="10.844797746237269"><ele>109.75</ele><time>2026-04-26T09:09:05.001Z</time></trkpt><trkpt lat="42.9988294068415" lon="10.844908145618133"><ele>110.0</ele><time>2026-04-26T09:09:06.001Z</time></trkpt><trkpt lat="42.99895293646056" lon="10.845008393023909"><ele>110.0</ele><time>2026-04-26T09:09:07.001Z</time></trkpt><trkpt lat="42.99907567131036" lon="10.845100676341803"><ele>110.0</ele><time>2026-04-26T09:09:08.001Z</time></trkpt><trkpt lat="42.99920084622973" lon="10.845188559192671"><ele>110.0</ele><time>2026-04-26T09:09:09.001Z</time></trkpt><trkpt lat="42.999331132043565" lon="10.845277989235534"><ele>110.0</ele><time>2026-04-26T09:09:10.001Z</time></trkpt><trkpt lat="42.999468064762944" lon="10.845363511645175"><ele>112.0</ele><time>2026-04-26T09:09:11.001Z</time></trkpt><trkpt lat="42.99960907806287" lon="10.845446643087568"><ele>114.0</ele><time>2026-04-26T09:09:12.001Z</time></trkpt><trkpt lat="42.99976748727593" lon="10.845516793376442"><ele>116.0</ele><time>2026-04-26T09:09:13.001Z</time></trkpt><trkpt lat="42.99995845286543" lon="10.8455767573593"><ele>116.0</ele><time>2026-04-26T09:09:14.001Z</time></trkpt><trkpt lat="43.000166972909284" lon="10.845676982190648"><ele>116.0</ele><time>2026-04-26T09:09:15.001Z</time></trkpt><trkpt lat="43.00041003774413" lon="10.845737411974403"><ele>116.0</ele><time>2026-04-26T09:09:16.001Z</time></trkpt><trkpt lat="43.00067688816148" lon="10.845819190548466"><ele>116.0</ele><time>2026-04-26T09:09:17.001Z</time></trkpt><trkpt lat="43.000961506848434" lon="10.845888046331002"><ele>119.5</ele><time>2026-04-26T09:09:18.001Z</time></trkpt><trkpt lat="43.001264643264236" lon="10.845954193621397"><ele>123.0</ele><time>2026-04-26T09:09:19.001Z</time></trkpt><trkpt lat="43.00157855815549" lon="10.846030174443262"><ele>127.0</ele><time>2026-04-26T09:09:20.001Z</time></trkpt><trkpt lat="43.00189544396159" lon="10.846124959656118"><ele>131.0</ele><time>2026-04-26T09:09:21.001Z</time></trkpt><trkpt lat="43.00220587737221" lon="10.846237884715666"><ele>132.5</ele><time>2026-04-26T09:09:22.001Z</time></trkpt><trkpt lat="43.0025134376439" lon="10.846376407317523"><ele>134.0</ele><time>2026-04-26T09:09:23.001Z</time></trkpt><trkpt lat="43.00281661083629" lon="10.846550597058382"><ele>134.0</ele><time>2026-04-26T09:09:24.001Z</time></trkpt><trkpt lat="43.003116250170514" lon="10.846756487031328"><ele>134.0</ele><time>2026-04-26T09:09:25.001Z</time></trkpt><trkpt lat="43.00340861599538" lon="10.846992419520282"><ele>136.5</ele><time>2026-04-26T09:09:26.001Z</time></trkpt><trkpt lat="43.003693346124855" lon="10.847255083437013"><ele>139.0</ele><time>2026-04-26T09:09:27.001Z</time></trkpt><trkpt lat="43.003974041980584" lon="10.847526755369799"><ele>140.0</ele><time>2026-04-26T09:09:28.001Z</time></trkpt><trkpt lat="43.004250891408404" lon="10.84780875395405"><ele>141.0</ele><time>2026-04-26T09:09:29.001Z</time></trkpt><trkpt lat="43.004527055782795" lon="10.848095357099506"><ele>141.0</ele><time>2026-04-26T09:09:30Z</time></trkpt><trkpt lat="43.00480728662077" lon="10.848381075575945"><ele>141.0</ele><time>2026-04-26T09:09:31Z</time></trkpt><trkpt lat="43.005083167128696" lon="10.848667480406702"><ele>142.0</ele><time>2026-04-26T09:09:32Z</time></trkpt><trkpt lat="43.00535147161842" lon="10.84895011089925"><ele>143.0</ele><time>2026-04-26T09:09:33Z</time></trkpt><trkpt lat="43.00561854828171" lon="10.849221200624866"><ele>143.5</ele><time>2026-04-26T09:09:34Z</time></trkpt><trkpt lat="43.00588281940784" lon="10.84948699267456"><ele>144.0</ele><time>2026-04-26T09:09:35Z</time></trkpt><trkpt lat="43.00613958919477" lon="10.849747617166756"><ele>144.0</ele><time>2026-04-26T09:09:36Z</time></trkpt><trkpt lat="43.00639628035834" lon="10.850006380092191"><ele>144.0</ele><time>2026-04-26T09:09:37Z</time></trkpt><trkpt lat="43.006641148886914" lon="10.850251771638234"><ele>145.5</ele><time>2026-04-26T09:09:38Z</time></trkpt><trkpt lat="43.006880838364054" lon="10.850493416126502"><ele>147.0</ele><time>2026-04-26T09:09:39Z</time></trkpt><trkpt lat="43.007115380567036" lon="10.850731982938818"><ele>147.5</ele><time>2026-04-26T09:09:40Z</time></trkpt><trkpt lat="43.007347108481675" lon="10.850966646036749"><ele>148.0</ele><time>2026-04-26T09:09:41Z</time></trkpt><trkpt lat="43.00757167884553" lon="10.85119813421551"><ele>148.0</ele><time>2026-04-26T09:09:42Z</time></trkpt><trkpt lat="43.007797601618684" lon="10.851430008707728"><ele>148.0</ele><time>2026-04-26T09:09:43Z</time></trkpt><trkpt lat="43.00802193804391" lon="10.851663632638433"><ele>148.0</ele><time>2026-04-26T09:09:44Z</time></trkpt><trkpt lat="43.008252176913054" lon="10.851894051041054"><ele>148.0</ele><time>2026-04-26T09:09:45Z</time></trkpt><trkpt lat="43.00848517964247" lon="10.852128347663735"><ele>149.0</ele><time>2026-04-26T09:09:46Z</time></trkpt><trkpt lat="43.008718676232114" lon="10.85236447551675"><ele>150.0</ele><time>2026-04-26T09:09:47Z</time></trkpt><trkpt lat="43.00895796530867" lon="10.852612343279432"><ele>151.0</ele><time>2026-04-26T09:09:48Z</time></trkpt><trkpt lat="43.00919648806851" lon="10.852856228099117"><ele>152.0</ele><time>2026-04-26T09:09:49Z</time></trkpt><trkpt lat="43.009436184767175" lon="10.853097424442227"><ele>152.0</ele><time>2026-04-26T09:09:50Z</time></trkpt><trkpt lat="43.00967442160316" lon="10.853337435980645"><ele>152.0</ele><time>2026-04-26T09:09:51Z</time></trkpt><trkpt lat="43.00990047226241" lon="10.853558362394187"><ele>153.0</ele><time>2026-04-26T09:09:52Z</time></trkpt><trkpt lat="43.01010817019027" lon="10.853769723096478"><ele>154.0</ele><time>2026-04-26T09:09:53Z</time></trkpt><trkpt lat="43.01031763311561" lon="10.853983526335034"><ele>154.0</ele><time>2026-04-26T09:09:54Z</time></trkpt><trkpt lat="43.0105252476877" lon="10.854197200064212"><ele>154.0</ele><time>2026-04-26T09:09:55Z</time></trkpt><trkpt lat="43.01073293625994" lon="10.85441059361709"><ele>153.0</ele><time>2026-04-26T09:09:56Z</time></trkpt><trkpt lat="43.01094274687354" lon="10.854623826380497"><ele>152.0</ele><time>2026-04-26T09:09:57Z</time></trkpt><trkpt lat="43.01115614758917" lon="10.854843289977335"><ele>152.0</ele><time>2026-04-26T09:09:58Z</time></trkpt><trkpt lat="43.011369282960985" lon="10.855063753050622"><ele>152.0</ele><time>2026-04-26T09:09:59Z</time></trkpt><trkpt lat="43.011583524848255" lon="10.855284360075327"><ele>153.5</ele><time>2026-04-26T09:10:00Z</time></trkpt><trkpt lat="43.01180652009671" lon="10.85551203823717"><ele>155.0</ele><time>2026-04-26T09:10:01Z</time></trkpt><trkpt lat="43.01203205220892" lon="10.85573901578529"><ele>155.5</ele><time>2026-04-26T09:10:02Z</time></trkpt><trkpt lat="43.0122550606375" lon="10.855956945412014"><ele>156.0</ele><time>2026-04-26T09:10:03Z</time></trkpt><trkpt lat="43.01249157241882" lon="10.856167003494372"><ele>156.0</ele><time>2026-04-26T09:10:04Z</time></trkpt><trkpt lat="43.012743146971495" lon="10.856359811621987"><ele>156.0</ele><time>2026-04-26T09:10:05Z</time></trkpt><trkpt lat="43.01299819940221" lon="10.856527991624857"><ele>156.0</ele><time>2026-04-26T09:10:06Z</time></trkpt><trkpt lat="43.01325912781195" lon="10.856685476365111"><ele>156.0</ele><time>2026-04-26T09:10:07Z</time></trkpt><trkpt lat="43.01352081131284" lon="10.856846944474695"><ele>155.0</ele><time>2026-04-26T09:10:08Z</time></trkpt><trkpt lat="43.01378375663449" lon="10.857010486215346"><ele>154.0</ele><time>2026-04-26T09:10:09Z</time></trkpt><trkpt lat="43.01405256458505" lon="10.857176520856035"><ele>153.0</ele><time>2026-04-26T09:10:10Z</time></trkpt><trkpt lat="43.01432321507023" lon="10.857341662198165"><ele>152.0</ele><time>2026-04-26T09:10:11Z</time></trkpt><trkpt lat="43.014593239176904" lon="10.857506839497896"><ele>153.0</ele><time>2026-04-26T09:10:12Z</time></trkpt><trkpt lat="43.01486459168548" lon="10.857668844527321"><ele>154.0</ele><time>2026-04-26T09:10:13Z</time></trkpt><trkpt lat="43.01513532826332" lon="10.857833991288791"><ele>154.0</ele><time>2026-04-26T09:10:14Z</time></trkpt><trkpt lat="43.01540533330166" lon="10.857997484160713"><ele>154.0</ele><time>2026-04-26T09:10:15Z</time></trkpt><trkpt lat="43.015676502979495" lon="10.858161185239181"><ele>154.0</ele><time>2026-04-26T09:10:16Z</time></trkpt><trkpt lat="43.01594451720733" lon="10.858334968041866"><ele>154.0</ele><time>2026-04-26T09:10:17Z</time></trkpt><trkpt lat="43.01620625516154" lon="10.858511275313015"><ele>154.0</ele><time>2026-04-26T09:10:18Z</time></trkpt><trkpt lat="43.01646775625429" lon="10.858682226638281"><ele>154.0</ele><time>2026-04-26T09:10:19Z</time></trkpt><trkpt lat="43.01672711322866" lon="10.85884637468777"><ele>155.0</ele><time>2026-04-26T09:10:20Z</time></trkpt><trkpt lat="43.0169818935098" lon="10.859013008713054"><ele>156.0</ele><time>2026-04-26T09:10:21Z</time></trkpt><trkpt lat="43.017241074749414" lon="10.85918703130938"><ele>157.0</ele><time>2026-04-26T09:10:22Z</time></trkpt><trkpt lat="43.01750032980349" lon="10.859353119375157"><ele>158.0</ele><time>2026-04-26T09:10:23Z</time></trkpt><trkpt lat="43.0177626684286" lon="10.859522986277737"><ele>158.0</ele><time>2026-04-26T09:10:24Z</time></trkpt><trkpt lat="43.01802998067331" lon="10.85968877308314"><ele>158.0</ele><time>2026-04-26T09:10:25Z</time></trkpt><trkpt lat="43.0183010716824" lon="10.859855243269093"><ele>157.5</ele><time>2026-04-26T09:10:26Z</time></trkpt><trkpt lat="43.01856866067693" lon="10.860023401021804"><ele>157.0</ele><time>2026-04-26T09:10:27Z</time></trkpt><trkpt lat="43.0188364834251" lon="10.86019433660145"><ele>158.0</ele><time>2026-04-26T09:10:28Z</time></trkpt><trkpt lat="43.019107160430316" lon="10.860371493806802"><ele>159.0</ele><time>2026-04-26T09:10:29Z</time></trkpt><trkpt lat="43.01937749468318" lon="10.860546454640275"><ele>159.0</ele><time>2026-04-26T09:10:30Z</time></trkpt><trkpt lat="43.019652394251075" lon="10.860716478925168"><ele>159.0</ele><time>2026-04-26T09:10:31Z</time></trkpt><trkpt lat="43.019928208522416" lon="10.86089127727072"><ele>160.5</ele><time>2026-04-26T09:10:32Z</time></trkpt><trkpt lat="43.02020161945153" lon="10.861059007550452"><ele>162.0</ele><time>2026-04-26T09:10:33Z</time></trkpt><trkpt lat="43.02046130979278" lon="10.861218662178633"><ele>162.0</ele><time>2026-04-26T09:10:34Z</time></trkpt><trkpt lat="43.020704264076095" lon="10.86137829913297"><ele>162.0</ele><time>2026-04-26T09:10:35Z</time></trkpt><trkpt lat="43.020933272289966" lon="10.861547605309807"><ele>161.0</ele><time>2026-04-26T09:10:36Z</time></trkpt><trkpt lat="43.02115671894445" lon="10.86175380856706"><ele>160.0</ele><time>2026-04-26T09:10:37Z</time></trkpt><trkpt lat="43.0213775309759" lon="10.861983983070633"><ele>161.0</ele><time>2026-04-26T09:10:38Z</time></trkpt><trkpt lat="43.02158898797362" lon="10.862241738309017"><ele>162.0</ele><time>2026-04-26T09:10:39Z</time></trkpt><trkpt lat="43.02178856980567" lon="10.862519239292942"><ele>169.0</ele><time>2026-04-26T09:10:40Z</time></trkpt><trkpt lat="43.02197843629673" lon="10.862827024435967"><ele>176.0</ele><time>2026-04-26T09:10:41Z</time></trkpt><trkpt lat="43.02215808443714" lon="10.86316186862562"><ele>180.5</ele><time>2026-04-26T09:10:42Z</time></trkpt><trkpt lat="43.022319596987565" lon="10.863518645108668"><ele>185.0</ele><time>2026-04-26T09:10:43Z</time></trkpt><trkpt lat="43.02246286713468" lon="10.863896636323359"><ele>176.5</ele><time>2026-04-26T09:10:44Z</time></trkpt><trkpt lat="43.022588722605164" lon="10.86429611215548"><ele>168.0</ele><time>2026-04-26T09:10:45Z</time></trkpt><trkpt lat="43.022710214328555" lon="10.864708185349205"><ele>169.0</ele><time>2026-04-26T09:10:46Z</time></trkpt><trkpt lat="43.02283728201882" lon="10.865121309609927"><ele>170.0</ele><time>2026-04-26T09:10:47Z</time></trkpt><trkpt lat="43.022946118202114" lon="10.865560947435942"><ele>171.0</ele><time>2026-04-26T09:10:48Z</time></trkpt><trkpt lat="43.02306616093791" lon="10.865990633388138"><ele>172.0</ele><time>2026-04-26T09:10:49.001Z</time></trkpt><trkpt lat="43.023199276912564" lon="10.866411129887155"><ele>174.5</ele><time>2026-04-26T09:10:50.001Z</time></trkpt><trkpt lat="43.02331312461241" lon="10.866835639393885"><ele>177.0</ele><time>2026-04-26T09:10:51.001Z</time></trkpt><trkpt lat="43.02342735916532" lon="10.86724932124103"><ele>174.0</ele><time>2026-04-26T09:10:52.001Z</time></trkpt><trkpt lat="43.02353818557429" lon="10.867662950936163"><ele>171.0</ele><time>2026-04-26T09:10:53.001Z</time></trkpt><trkpt lat="43.02364138231879" lon="10.8680553021628"><ele>171.0</ele><time>2026-04-26T09:10:54.001Z</time></trkpt><trkpt lat="43.023751201677925" lon="10.868440494308894"><ele>171.0</ele><time>2026-04-26T09:10:55.001Z</time></trkpt><trkpt lat="43.02387821724322" lon="10.86881123902377"><ele>168.5</ele><time>2026-04-26T09:10:56.001Z</time></trkpt><trkpt lat="43.02403185586399" lon="10.869167831541898"><ele>166.0</ele><time>2026-04-26T09:10:57.001Z</time></trkpt><trkpt lat="43.02421651573111" lon="10.869503844271609"><ele>166.0</ele><time>2026-04-26T09:10:58.001Z</time></trkpt><trkpt lat="43.02442196672896" lon="10.869838620332395"><ele>166.0</ele><time>2026-04-26T09:10:59.001Z</time></trkpt><trkpt lat="43.02463505216924" lon="10.870177704069153"><ele>165.0</ele><time>2026-04-26T09:11:00.001Z</time></trkpt><trkpt lat="43.024861471041284" lon="10.870510853191345"><ele>164.0</ele><time>2026-04-26T09:11:01.001Z</time></trkpt><trkpt lat="43.02508996703341" lon="10.870865767603087"><ele>163.5</ele><time>2026-04-26T09:11:02.001Z</time></trkpt><trkpt lat="43.0253178429117" lon="10.871221216333204"><ele>163.0</ele><time>2026-04-26T09:11:03.001Z</time></trkpt><trkpt lat="43.025545293355435" lon="10.871577891459122"><ele>163.5</ele><time>2026-04-26T09:11:04.001Z</time></trkpt><trkpt lat="43.02577249631985" lon="10.871945122906485"><ele>164.0</ele><time>2026-04-26T09:11:05.001Z</time></trkpt><trkpt lat="43.02600580544479" lon="10.872310075054234"><ele>162.0</ele><time>2026-04-26T09:11:06.001Z</time></trkpt><trkpt lat="43.02623832283992" lon="10.872676218698631"><ele>160.0</ele><time>2026-04-26T09:11:07.001Z</time></trkpt><trkpt lat="43.02647576985925" lon="10.873048110896857"><ele>160.0</ele><time>2026-04-26T09:11:08.001Z</time></trkpt><trkpt lat="43.02670819619247" lon="10.873419066976165"><ele>160.0</ele><time>2026-04-26T09:11:09.001Z</time></trkpt><trkpt lat="43.026929873696275" lon="10.873801254334944"><ele>160.0</ele><time>2026-04-26T09:11:10.001Z</time></trkpt><trkpt lat="43.02715634350627" lon="10.874167525557274"><ele>160.0</ele><time>2026-04-26T09:11:11.001Z</time></trkpt><trkpt lat="43.02738369057435" lon="10.874535215277017"><ele>161.0</ele><time>2026-04-26T09:11:12.001Z</time></trkpt><trkpt lat="43.02762320072603" lon="10.874887919573"><ele>162.0</ele><time>2026-04-26T09:11:13.001Z</time></trkpt><trkpt lat="43.02784490825002" lon="10.875254443379607"><ele>162.0</ele><time>2026-04-26T09:11:14.001Z</time></trkpt><trkpt lat="43.02807418817606" lon="10.875623660378654"><ele>162.0</ele><time>2026-04-26T09:11:15.001Z</time></trkpt><trkpt lat="43.02830054024305" lon="10.875989022679985"><ele>162.0</ele><time>2026-04-26T09:11:16.001Z</time></trkpt><trkpt lat="43.02852291899383" lon="10.87635957891336"><ele>162.0</ele><time>2026-04-26T09:11:17.001Z</time></trkpt><trkpt lat="43.02875034884746" lon="10.87672781305435"><ele>162.0</ele><time>2026-04-26T09:11:18.001Z</time></trkpt><trkpt lat="43.02896506149813" lon="10.87707608037546"><ele>162.0</ele><time>2026-04-26T09:11:19.001Z</time></trkpt><trkpt lat="43.02913763035104" lon="10.87737716149868"><ele>163.0</ele><time>2026-04-26T09:11:20.001Z</time></trkpt><trkpt lat="43.02932062661238" lon="10.877674181334314"><ele>164.0</ele><time>2026-04-26T09:11:21.001Z</time></trkpt><trkpt lat="43.02951459334711" lon="10.877976992764026"><ele>164.0</ele><time>2026-04-26T09:11:22.001Z</time></trkpt><trkpt lat="43.029700899106615" lon="10.878273709364668"><ele>164.0</ele><time>2026-04-26T09:11:23.001Z</time></trkpt><trkpt lat="43.02989289187276" lon="10.87857738777361"><ele>165.0</ele><time>2026-04-26T09:11:24.001Z</time></trkpt><trkpt lat="43.03008307531068" lon="10.878883930880775"><ele>166.0</ele><time>2026-04-26T09:11:25.001Z</time></trkpt><trkpt lat="43.03027546140256" lon="10.8791952256756"><ele>167.0</ele><time>2026-04-26T09:11:26.001Z</time></trkpt><trkpt lat="43.030473732348035" lon="10.879511124322336"><ele>168.0</ele><time>2026-04-26T09:11:27.001Z</time></trkpt><trkpt lat="43.03066925558024" lon="10.879831736189896"><ele>168.0</ele><time>2026-04-26T09:11:28.001Z</time></trkpt><trkpt lat="43.03086796711125" lon="10.880155043209047"><ele>168.0</ele><time>2026-04-26T09:11:29.001Z</time></trkpt><trkpt lat="43.03106936502205" lon="10.880477452533377"><ele>168.0</ele><time>2026-04-26T09:11:30.001Z</time></trkpt><trkpt lat="43.03126965662944" lon="10.880793479761808"><ele>168.0</ele><time>2026-04-26T09:11:31.001Z</time></trkpt><trkpt lat="43.031466451476376" lon="10.881107100354447"><ele>169.0</ele><time>2026-04-26T09:11:32.001Z</time></trkpt><trkpt lat="43.03166040016201" lon="10.881418319972882"><ele>170.0</ele><time>2026-04-26T09:11:33.001Z</time></trkpt><trkpt lat="43.03185531969652" lon="10.88172717787386"><ele>171.0</ele><time>2026-04-26T09:11:34.001Z</time></trkpt><trkpt lat="43.032053009172195" lon="10.882038398050845"><ele>172.0</ele><time>2026-04-26T09:11:35.001Z</time></trkpt><trkpt lat="43.0322491055167" lon="10.882343143930191"><ele>173.0</ele><time>2026-04-26T09:11:36Z</time></trkpt><trkpt lat="43.032438650439964" lon="10.882657409133575"><ele>174.0</ele><time>2026-04-26T09:11:37Z</time></trkpt><trkpt lat="43.03262971370353" lon="10.882964168937901"><ele>174.0</ele><time>2026-04-26T09:11:38Z</time></trkpt><trkpt lat="43.03279994964041" lon="10.883241957890482"><ele>174.0</ele><time>2026-04-26T09:11:39Z</time></trkpt><trkpt lat="43.032957393363425" lon="10.883496574188857"><ele>175.0</ele><time>2026-04-26T09:11:40Z</time></trkpt><trkpt lat="43.03310477943852" lon="10.88374088129173"><ele>176.0</ele><time>2026-04-26T09:11:41Z</time></trkpt><trkpt lat="43.033246344373815" lon="10.883961849011566"><ele>177.0</ele><time>2026-04-26T09:11:42Z</time></trkpt><trkpt lat="43.03337490110998" lon="10.884167306729246"><ele>177.33333333333334</ele><time>2026-04-26T09:11:43Z</time></trkpt><trkpt lat="43.033494943209995" lon="10.88436129982207"><ele>177.66666666666669</ele><time>2026-04-26T09:11:44Z</time></trkpt><trkpt lat="43.03361848671797" lon="10.884547377695354"><ele>178.0</ele><time>2026-04-26T09:11:45Z</time></trkpt><trkpt lat="43.03374438161814" lon="10.884727461848021"><ele>178.0</ele><time>2026-04-26T09:11:46Z</time></trkpt><trkpt lat="43.03387125983055" lon="10.884894220492509"><ele>178.0</ele><time>2026-04-26T09:11:47Z</time></trkpt><trkpt lat="43.033987727807876" lon="10.885038585053877"><ele>178.0</ele><time>2026-04-26T09:11:48Z</time></trkpt><trkpt lat="43.03409455052013" lon="10.885170459351748"><ele>179.0</ele><time>2026-04-26T09:11:49Z</time></trkpt><trkpt lat="43.03418522127569" lon="10.885289112086195"><ele>180.0</ele><time>2026-04-26T09:11:50Z</time></trkpt><trkpt lat="43.03425751424405" lon="10.885408944516458"><ele>181.0</ele><time>2026-04-26T09:11:51Z</time></trkpt><trkpt lat="43.03430884768583" lon="10.885517913059397"><ele>182.0</ele><time>2026-04-26T09:11:52Z</time></trkpt><trkpt lat="43.03433737641946" lon="10.88563311421773"><ele>183.0</ele><time>2026-04-26T09:11:53Z</time></trkpt><trkpt lat="43.034347717919445" lon="10.88574545852964"><ele>183.0</ele><time>2026-04-26T09:11:54Z</time></trkpt><trkpt lat="43.0343765029318" lon="10.885847469481224"><ele>183.0</ele><time>2026-04-26T09:11:55Z</time></trkpt><trkpt lat="43.03443924634221" lon="10.885911754013511"><ele>183.0</ele><time>2026-04-26T09:11:56Z</time></trkpt><trkpt lat="43.034514996354275" lon="10.885942011954775"><ele>183.0</ele><time>2026-04-26T09:11:57Z</time></trkpt><trkpt lat="43.03459241710283" lon="10.885931163406699"><ele>183.0</ele><time>2026-04-26T09:11:58Z</time></trkpt><trkpt lat="43.03467518656885" lon="10.88592413562343"><ele>183.0</ele><time>2026-04-26T09:11:59Z</time></trkpt><trkpt lat="43.03476908783858" lon="10.885821176808614"><ele>183.0</ele><time>2026-04-26T09:12:00Z</time></trkpt><trkpt lat="43.03491011980121" lon="10.885803951837392"><ele>183.0</ele><time>2026-04-26T09:12:01Z</time></trkpt><trkpt lat="43.035070466976215" lon="10.885810297056809"><ele>183.0</ele><time>2026-04-26T09:12:02Z</time></trkpt><trkpt lat="43.03524929198438" lon="10.885840553426197"><ele>183.0</ele><time>2026-04-26T09:12:03Z</time></trkpt><trkpt lat="43.03544951553096" lon="10.885877813198347"><ele>183.0</ele><time>2026-04-26T09:12:04Z</time></trkpt><trkpt lat="43.03567177054685" lon="10.885914584877025"><ele>183.0</ele><time>2026-04-26T09:12:05Z</time></trkpt><trkpt lat="43.03590611787949" lon="10.885944374413"><ele>184.0</ele><time>2026-04-26T09:12:06Z</time></trkpt><trkpt lat="43.03615674039146" lon="10.885962970608778"><ele>185.0</ele><time>2026-04-26T09:12:07Z</time></trkpt><trkpt lat="43.03641278502657" lon="10.885960744675376"><ele>183.0</ele><time>2026-04-26T09:12:08Z</time></trkpt><trkpt lat="43.036679451668945" lon="10.885937716678999"><ele>181.0</ele><time>2026-04-26T09:12:09Z</time></trkpt><trkpt lat="43.03695328324104" lon="10.885898398463656"><ele>181.0</ele><time>2026-04-26T09:12:10Z</time></trkpt><trkpt lat="43.037230551682285" lon="10.885837967551446"><ele>181.0</ele><time>2026-04-26T09:12:11Z</time></trkpt><trkpt lat="43.03750273420784" lon="10.885738834661618"><ele>185.0</ele><time>2026-04-26T09:12:12Z</time></trkpt><trkpt lat="43.037782228544614" lon="10.885614512154582"><ele>189.0</ele><time>2026-04-26T09:12:13Z</time></trkpt><trkpt lat="43.03805774329666" lon="10.885461252578416"><ele>186.5</ele><time>2026-04-26T09:12:14Z</time></trkpt><trkpt lat="43.038335971396876" lon="10.88528088657482"><ele>184.0</ele><time>2026-04-26T09:12:15Z</time></trkpt><trkpt lat="43.03860714027854" lon="10.885068227055811"><ele>184.0</ele><time>2026-04-26T09:12:16Z</time></trkpt><trkpt lat="43.038869357737816" lon="10.884832188516622"><ele>184.0</ele><time>2026-04-26T09:12:17Z</time></trkpt><trkpt lat="43.0391204557612" lon="10.884566717442455"><ele>183.0</ele><time>2026-04-26T09:12:18Z</time></trkpt><trkpt lat="43.03937131470994" lon="10.884278941595978"><ele>182.0</ele><time>2026-04-26T09:12:19Z</time></trkpt><trkpt lat="43.03960816406304" lon="10.88397005647135"><ele>182.0</ele><time>2026-04-26T09:12:20Z</time></trkpt><trkpt lat="43.039824455139886" lon="10.883640845619597"><ele>182.0</ele><time>2026-04-26T09:12:21Z</time></trkpt><trkpt lat="43.04004761381197" lon="10.883304896953733"><ele>185.5</ele><time>2026-04-26T09:12:22Z</time></trkpt><trkpt lat="43.04026782192365" lon="10.882958314019673"><ele>189.0</ele><time>2026-04-26T09:12:23Z</time></trkpt><trkpt lat="43.04049169305365" lon="10.882621219654954"><ele>192.5</ele><time>2026-04-26T09:12:24Z</time></trkpt><trkpt lat="43.040720924380516" lon="10.882289933695048"><ele>196.0</ele><time>2026-04-26T09:12:25Z</time></trkpt><trkpt lat="43.040949299038914" lon="10.881961546441154"><ele>188.0</ele><time>2026-04-26T09:12:26Z</time></trkpt><trkpt lat="43.04117961009173" lon="10.881636742036127"><ele>180.0</ele><time>2026-04-26T09:12:27Z</time></trkpt><trkpt lat="43.0414135527637" lon="10.881315030861444"><ele>184.0</ele><time>2026-04-26T09:12:28Z</time></trkpt><trkpt lat="43.04163406940133" lon="10.88097658006523"><ele>188.0</ele><time>2026-04-26T09:12:29Z</time></trkpt><trkpt lat="43.04185477915094" lon="10.880644559034247"><ele>188.0</ele><time>2026-04-26T09:12:30Z</time></trkpt><trkpt lat="43.04207699474377" lon="10.880316616889026"><ele>188.0</ele><time>2026-04-26T09:12:31Z</time></trkpt><trkpt lat="43.04229814734594" lon="10.879994115544722"><ele>190.0</ele><time>2026-04-26T09:12:32Z</time></trkpt><trkpt lat="43.04250365804517" lon="10.879698840753951"><ele>192.0</ele><time>2026-04-26T09:12:33Z</time></trkpt><trkpt lat="43.04270172007049" lon="10.879425153936209"><ele>188.5</ele><time>2026-04-26T09:12:34Z</time></trkpt><trkpt lat="43.04290885764758" lon="10.87916076696435"><ele>185.0</ele><time>2026-04-26T09:12:35Z</time></trkpt><trkpt lat="43.043124585277845" lon="10.878909110698007"><ele>190.5</ele><time>2026-04-26T09:12:36Z</time></trkpt><trkpt lat="43.043351763648616" lon="10.878677962602005"><ele>196.0</ele><time>2026-04-26T09:12:37Z</time></trkpt><trkpt lat="43.043598129583444" lon="10.878473408313111"><ele>195.5</ele><time>2026-04-26T09:12:38Z</time></trkpt><trkpt lat="43.0438584849585" lon="10.878282473959217"><ele>195.0</ele><time>2026-04-26T09:12:39Z</time></trkpt><trkpt lat="43.044132053239295" lon="10.878119443953027"><ele>195.0</ele><time>2026-04-26T09:12:40Z</time></trkpt><trkpt lat="43.04441599412336" lon="10.877980019410971"><ele>195.0</ele><time>2026-04-26T09:12:41Z</time></trkpt><trkpt lat="43.04470863674014" lon="10.877860848254118"><ele>195.5</ele><time>2026-04-26T09:12:42Z</time></trkpt><trkpt lat="43.04500754710102" lon="10.877758025729127"><ele>196.0</ele><time>2026-04-26T09:12:43Z</time></trkpt><trkpt lat="43.04531361019451" lon="10.877660765651385"><ele>191.0</ele><time>2026-04-26T09:12:44Z</time></trkpt><trkpt lat="43.04562693458758" lon="10.877559600958644"><ele>186.0</ele><time>2026-04-26T09:12:45Z</time></trkpt><trkpt lat="43.045942486084066" lon="10.877444580264955"><ele>186.0</ele><time>2026-04-26T09:12:46Z</time></trkpt><trkpt lat="43.04625426425593" lon="10.877331130126043"><ele>186.0</ele><time>2026-04-26T09:12:47Z</time></trkpt><trkpt lat="43.04656010013542" lon="10.877223174972544"><ele>185.5</ele><time>2026-04-26T09:12:48Z</time></trkpt><trkpt lat="43.046855541052594" lon="10.87712359243723"><ele>185.0</ele><time>2026-04-26T09:12:49Z</time></trkpt><trkpt lat="43.04713928044563" lon="10.87705003972809"><ele>185.0</ele><time>2026-04-26T09:12:50Z</time></trkpt><trkpt lat="43.047415509530765" lon="10.87700333253332"><ele>185.0</ele><time>2026-04-26T09:12:51Z</time></trkpt><trkpt lat="43.047700814319526" lon="10.876985342746295"><ele>185.5</ele><time>2026-04-26T09:12:52Z</time></trkpt><trkpt lat="43.04799300305975" lon="10.876987772408304"><ele>186.0</ele><time>2026-04-26T09:12:53Z</time></trkpt><trkpt lat="43.04829411356309" lon="10.877017284982141"><ele>189.5</ele><time>2026-04-26T09:12:54Z</time></trkpt><trkpt lat="43.04858919563923" lon="10.877071050090702"><ele>193.0</ele><time>2026-04-26T09:12:55Z</time></trkpt><trkpt lat="43.04888780684451" lon="10.877159552717469"><ele>196.5</ele><time>2026-04-26T09:12:56Z</time></trkpt><trkpt lat="43.04918321727167" lon="10.877272801089608"><ele>200.0</ele><time>2026-04-26T09:12:57.001Z</time></trkpt><trkpt lat="43.04947290860641" lon="10.877417855175631"><ele>200.0</ele><time>2026-04-26T09:12:58.001Z</time></trkpt><trkpt lat="43.04975679576172" lon="10.877589332417475"><ele>200.0</ele><time>2026-04-26T09:12:59.001Z</time></trkpt><trkpt lat="43.05003379484674" lon="10.87779301087266"><ele>202.5</ele><time>2026-04-26T09:13:00.001Z</time></trkpt><trkpt lat="43.050304864379605" lon="10.878014120978504"><ele>205.0</ele><time>2026-04-26T09:13:01.001Z</time></trkpt><trkpt lat="43.05056964574368" lon="10.878261777023182"><ele>204.0</ele><time>2026-04-26T09:13:02.001Z</time></trkpt><trkpt lat="43.050821722749134" lon="10.878536752615101"><ele>203.0</ele><time>2026-04-26T09:13:03.001Z</time></trkpt><trkpt lat="43.051062801290264" lon="10.878818540022323"><ele>203.0</ele><time>2026-04-26T09:13:04.001Z</time></trkpt><trkpt lat="43.05130070379751" lon="10.879100139226031"><ele>203.0</ele><time>2026-04-26T09:13:05.001Z</time></trkpt><trkpt lat="43.051543222251595" lon="10.879378694360142"><ele>208.0</ele><time>2026-04-26T09:13:06.001Z</time></trkpt><trkpt lat="43.05178991229586" lon="10.87965430244874"><ele>213.0</ele><time>2026-04-26T09:13:07.001Z</time></trkpt><trkpt lat="43.05204100750323" lon="10.879925562965749"><ele>216.0</ele><time>2026-04-26T09:13:08.001Z</time></trkpt><trkpt lat="43.05227866579171" lon="10.880219887593718"><ele>219.0</ele><time>2026-04-26T09:13:09.001Z</time></trkpt><trkpt lat="43.052523375302606" lon="10.880493411826976"><ele>219.0</ele><time>2026-04-26T09:13:10.001Z</time></trkpt><trkpt lat="43.05277857836079" lon="10.880743115620653"><ele>219.0</ele><time>2026-04-26T09:13:11.001Z</time></trkpt><trkpt lat="43.05304976710943" lon="10.880967209125847"><ele>218.5</ele><time>2026-04-26T09:13:12.001Z</time></trkpt><trkpt lat="43.05332237170784" lon="10.881165550200889"><ele>218.0</ele><time>2026-04-26T09:13:13.001Z</time></trkpt><trkpt lat="43.05359981343757" lon="10.88133168889855"><ele>218.0</ele><time>2026-04-26T09:13:14.001Z</time></trkpt><trkpt lat="43.053888314997415" lon="10.881473250129975"><ele>218.0</ele><time>2026-04-26T09:13:15.001Z</time></trkpt><trkpt lat="43.05419832594336" lon="10.881599122018345"><ele>218.0</ele><time>2026-04-26T09:13:16.001Z</time></trkpt><trkpt lat="43.05450224946065" lon="10.88171790447202"><ele>218.0</ele><time>2026-04-26T09:13:17.001Z</time></trkpt><trkpt lat="43.054803337132554" lon="10.881833951476363"><ele>224.5</ele><time>2026-04-26T09:13:18.001Z</time></trkpt><trkpt lat="43.05510757885539" lon="10.88193432311558"><ele>231.0</ele><time>2026-04-26T09:13:19.001Z</time></trkpt><trkpt lat="43.05538385214891" lon="10.882086355980977"><ele>231.0</ele><time>2026-04-26T09:13:20.001Z</time></trkpt><trkpt lat="43.05566357839225" lon="10.882229016726626"><ele>231.0</ele><time>2026-04-26T09:13:21.001Z</time></trkpt><trkpt lat="43.055936299968565" lon="10.882415619344123"><ele>233.5</ele><time>2026-04-26T09:13:22.001Z</time></trkpt><trkpt lat="43.05619789235475" lon="10.882622358588554"><ele>236.0</ele><time>2026-04-26T09:13:23.001Z</time></trkpt><trkpt lat="43.05644630920209" lon="10.88286247238638"><ele>232.5</ele><time>2026-04-26T09:13:24.001Z</time></trkpt><trkpt lat="43.05668581891604" lon="10.88311769497089"><ele>229.0</ele><time>2026-04-26T09:13:25.001Z</time></trkpt><trkpt lat="43.05691321956434" lon="10.883395849451231"><ele>233.5</ele><time>2026-04-26T09:13:26.001Z</time></trkpt><trkpt lat="43.057125668864295" lon="10.883692282835034"><ele>238.0</ele><time>2026-04-26T09:13:27.001Z</time></trkpt><trkpt lat="43.05731672468125" lon="10.884004879158136"><ele>236.0</ele><time>2026-04-26T09:13:28.001Z</time></trkpt><trkpt lat="43.05748141189227" lon="10.88432307036303"><ele>234.0</ele><time>2026-04-26T09:13:29.001Z</time></trkpt><trkpt lat="43.05763057014497" lon="10.884659712182227"><ele>234.0</ele><time>2026-04-26T09:13:30.001Z</time></trkpt><trkpt lat="43.057770357579365" lon="10.885009786136465"><ele>234.0</ele><time>2026-04-26T09:13:31.001Z</time></trkpt><trkpt lat="43.05789906672348" lon="10.8853761496704"><ele>234.0</ele><time>2026-04-26T09:13:32.001Z</time></trkpt><trkpt lat="43.0580076492711" lon="10.88575893750856"><ele>234.0</ele><time>2026-04-26T09:13:33.001Z</time></trkpt><trkpt lat="43.05809591738436" lon="10.886156440382136"><ele>234.0</ele><time>2026-04-26T09:13:34.001Z</time></trkpt><trkpt lat="43.058180957507915" lon="10.886562635825904"><ele>234.0</ele><time>2026-04-26T09:13:35.001Z</time></trkpt><trkpt lat="43.05825925265456" lon="10.886970347995035"><ele>233.5</ele><time>2026-04-26T09:13:36.001Z</time></trkpt><trkpt lat="43.058335400329085" lon="10.887384888642515"><ele>233.0</ele><time>2026-04-26T09:13:37.001Z</time></trkpt><trkpt lat="43.05842188276418" lon="10.887801537367977"><ele>234.0</ele><time>2026-04-26T09:13:38.001Z</time></trkpt><trkpt lat="43.05851119743405" lon="10.888226201784816"><ele>235.0</ele><time>2026-04-26T09:13:39.001Z</time></trkpt><trkpt lat="43.05859852060498" lon="10.888656526194527"><ele>237.5</ele><time>2026-04-26T09:13:40.001Z</time></trkpt><trkpt lat="43.058682642498255" lon="10.88908526114185"><ele>240.0</ele><time>2026-04-26T09:13:41.001Z</time></trkpt><trkpt lat="43.058766658419636" lon="10.889511652552306"><ele>242.5</ele><time>2026-04-26T09:13:42Z</time></trkpt><trkpt lat="43.05884842238045" lon="10.889929523923223"><ele>245.0</ele><time>2026-04-26T09:13:43Z</time></trkpt><trkpt lat="43.05892701229317" lon="10.890319765028128"><ele>247.5</ele><time>2026-04-26T09:13:44Z</time></trkpt><trkpt lat="43.05899399536182" lon="10.890707527593166"><ele>250.0</ele><time>2026-04-26T09:13:45Z</time></trkpt><trkpt lat="43.05904141402304" lon="10.891099481033253"><ele>253.5</ele><time>2026-04-26T09:13:46Z</time></trkpt><trkpt lat="43.059068235581485" lon="10.891513685143398"><ele>257.0</ele><time>2026-04-26T09:13:47Z</time></trkpt><trkpt lat="43.0590737397134" lon="10.891939341037114"><ele>259.0</ele><time>2026-04-26T09:13:48Z</time></trkpt><trkpt lat="43.05905815515913" lon="10.892370262348415"><ele>261.0</ele><time>2026-04-26T09:13:49Z</time></trkpt><trkpt lat="43.05902990646156" lon="10.892799651367817"><ele>261.5</ele><time>2026-04-26T09:13:50Z</time></trkpt><trkpt lat="43.059007298659395" lon="10.893229649078377"><ele>262.0</ele><time>2026-04-26T09:13:51Z</time></trkpt><trkpt lat="43.05901060149332" lon="10.893658168570624"><ele>265.0</ele><time>2026-04-26T09:13:52Z</time></trkpt><trkpt lat="43.05904577322381" lon="10.894078801173087"><ele>268.0</ele><time>2026-04-26T09:13:53Z</time></trkpt><trkpt lat="43.059104134231816" lon="10.894503313284671"><ele>266.5</ele><time>2026-04-26T09:13:54Z</time></trkpt><trkpt lat="43.05918322944474" lon="10.894935942356167"><ele>265.0</ele><time>2026-04-26T09:13:55Z</time></trkpt><trkpt lat="43.059277214745435" lon="10.895369833114804"><ele>265.0</ele><time>2026-04-26T09:13:56Z</time></trkpt><trkpt lat="43.059368288667656" lon="10.895807901214178"><ele>265.0</ele><time>2026-04-26T09:13:57Z</time></trkpt><trkpt lat="43.05946462417594" lon="10.89623193979213"><ele>265.5</ele><time>2026-04-26T09:13:58Z</time></trkpt><trkpt lat="43.05956469120057" lon="10.89665680798429"><ele>266.0</ele><time>2026-04-26T09:13:59Z</time></trkpt><trkpt lat="43.05966198575608" lon="10.897078187268427"><ele>269.5</ele><time>2026-04-26T09:14:00Z</time></trkpt><trkpt lat="43.059744010941685" lon="10.897507410817502"><ele>273.0</ele><time>2026-04-26T09:14:01Z</time></trkpt><trkpt lat="43.05984120208579" lon="10.897928636064082"><ele>275.0</ele><time>2026-04-26T09:14:02Z</time></trkpt><trkpt lat="43.059933980197485" lon="10.898348403811081"><ele>277.0</ele><time>2026-04-26T09:14:03Z</time></trkpt><trkpt lat="43.06002131070389" lon="10.898773710289186"><ele>274.0</ele><time>2026-04-26T09:14:04Z</time></trkpt><trkpt lat="43.06010762450303" lon="10.899200102648123"><ele>271.0</ele><time>2026-04-26T09:14:05Z</time></trkpt><trkpt lat="43.06019646676677" lon="10.899622337332566"><ele>271.0</ele><time>2026-04-26T09:14:06Z</time></trkpt><trkpt lat="43.06028760702567" lon="10.900045874497932"><ele>271.0</ele><time>2026-04-26T09:14:07Z</time></trkpt><trkpt lat="43.06038249105445" lon="10.900478977254759"><ele>273.0</ele><time>2026-04-26T09:14:08Z</time></trkpt><trkpt lat="43.06047461053677" lon="10.90091484308934"><ele>275.0</ele><time>2026-04-26T09:14:09Z</time></trkpt><trkpt lat="43.06056857385127" lon="10.901358275253317"><ele>277.5</ele><time>2026-04-26T09:14:10Z</time></trkpt><trkpt lat="43.06066091461368" lon="10.901791929263002"><ele>280.0</ele><time>2026-04-26T09:14:11Z</time></trkpt><trkpt lat="43.0607479414503" lon="10.902191221517159"><ele>280.0</ele><time>2026-04-26T09:14:12Z</time></trkpt><trkpt lat="43.06083320869528" lon="10.902560549495831"><ele>280.0</ele><time>2026-04-26T09:14:13Z</time></trkpt><trkpt lat="43.060949041114476" lon="10.902920815912733"><ele>282.0</ele><time>2026-04-26T09:14:14Z</time></trkpt><trkpt lat="43.06107928527169" lon="10.903273694978925"><ele>284.0</ele><time>2026-04-26T09:14:15Z</time></trkpt><trkpt lat="43.06122075489094" lon="10.903601046779938"><ele>286.0</ele><time>2026-04-26T09:14:16Z</time></trkpt><trkpt lat="43.0613721581104" lon="10.903896032999103"><ele>288.0</ele><time>2026-04-26T09:14:17Z</time></trkpt><trkpt lat="43.061531255705056" lon="10.90417945176094"><ele>289.5</ele><time>2026-04-26T09:14:18Z</time></trkpt><trkpt lat="43.06168771555544" lon="10.904427744899554"><ele>291.0</ele><time>2026-04-26T09:14:19Z</time></trkpt><trkpt lat="43.06184836182406" lon="10.904660281978462"><ele>291.0</ele><time>2026-04-26T09:14:20Z</time></trkpt><trkpt lat="43.062013102127196" lon="10.904874230391961"><ele>291.0</ele><time>2026-04-26T09:14:21Z</time></trkpt><trkpt lat="43.062180411838185" lon="10.905082355146444"><ele>291.0</ele><time>2026-04-26T09:14:22Z</time></trkpt><trkpt lat="43.062352477095736" lon="10.905289375268815"><ele>291.0</ele><time>2026-04-26T09:14:23Z</time></trkpt><trkpt lat="43.062522858891576" lon="10.905508290884237"><ele>291.0</ele><time>2026-04-26T09:14:24Z</time></trkpt><trkpt lat="43.06268882546806" lon="10.905723292610155"><ele>291.0</ele><time>2026-04-26T09:14:25Z</time></trkpt><trkpt lat="43.06285491435808" lon="10.905940132974324"><ele>290.6666666666667</ele><time>2026-04-26T09:14:26Z</time></trkpt><trkpt lat="43.06302080303429" lon="10.906152968650156"><ele>290.33333333333337</ele><time>2026-04-26T09:14:27Z</time></trkpt><trkpt lat="43.06317758372686" lon="10.90636169031055"><ele>290.0</ele><time>2026-04-26T09:14:28Z</time></trkpt><trkpt lat="43.06332450484047" lon="10.906557260886778"><ele>289.6666666666667</ele><time>2026-04-26T09:14:29Z</time></trkpt><trkpt lat="43.06347468642287" lon="10.906753949545767"><ele>289.3333333333333</ele><time>2026-04-26T09:14:30Z</time></trkpt><trkpt lat="43.063627701575186" lon="10.906946053489383"><ele>289.0</ele><time>2026-04-26T09:14:31Z</time></trkpt><trkpt lat="43.0637867124167" lon="10.907149089717473"><ele>289.0</ele><time>2026-04-26T09:14:32Z</time></trkpt><trkpt lat="43.06394188065168" lon="10.907370707309735"><ele>289.0</ele><time>2026-04-26T09:14:33Z</time></trkpt><trkpt lat="43.06408941836967" lon="10.907616014978608"><ele>290.5</ele><time>2026-04-26T09:14:34Z</time></trkpt><trkpt lat="43.064226019417845" lon="10.90787748419246"><ele>292.0</ele><time>2026-04-26T09:14:35Z</time></trkpt><trkpt lat="43.064355712435116" lon="10.908148986715576"><ele>294.0</ele><time>2026-04-26T09:14:36Z</time></trkpt><trkpt lat="43.064491225647714" lon="10.90842613016778"><ele>296.0</ele><time>2026-04-26T09:14:37Z</time></trkpt><trkpt lat="43.06463619303426" lon="10.908712269753506"><ele>296.0</ele><time>2026-04-26T09:14:38Z</time></trkpt><trkpt lat="43.064782232215684" lon="10.909004258437188"><ele>296.0</ele><time>2026-04-26T09:14:39Z</time></trkpt><trkpt lat="43.0649269916449" lon="10.909299107200745"><ele>299.5</ele><time>2026-04-26T09:14:40Z</time></trkpt><trkpt lat="43.06507186153118" lon="10.909591604942953"><ele>303.0</ele><time>2026-04-26T09:14:41Z</time></trkpt><trkpt lat="43.065213922059606" lon="10.909866392581744"><ele>303.0</ele><time>2026-04-26T09:14:42Z</time></trkpt><trkpt lat="43.06536202099735" lon="10.91011659077358"><ele>303.0</ele><time>2026-04-26T09:14:43Z</time></trkpt><trkpt lat="43.06552527529899" lon="10.91035297427805"><ele>303.0</ele><time>2026-04-26T09:14:44Z</time></trkpt><trkpt lat="43.065698847002984" lon="10.910579346559702"><ele>303.0</ele><time>2026-04-26T09:14:45Z</time></trkpt><trkpt lat="43.0658857782359" lon="10.910787224299666"><ele>304.5</ele><time>2026-04-26T09:14:46Z</time></trkpt><trkpt lat="43.06608881814919" lon="10.910982167168457"><ele>306.0</ele><time>2026-04-26T09:14:47Z</time></trkpt><trkpt lat="43.066299335377614" lon="10.91116835629289"><ele>306.0</ele><time>2026-04-26T09:14:48Z</time></trkpt><trkpt lat="43.0665284196103" lon="10.911360421890397"><ele>306.0</ele><time>2026-04-26T09:14:49Z</time></trkpt><trkpt lat="43.066778928882506" lon="10.911547781676381"><ele>308.0</ele><time>2026-04-26T09:14:50Z</time></trkpt><trkpt lat="43.06703212901199" lon="10.911781771965122"><ele>310.0</ele><time>2026-04-26T09:14:51Z</time></trkpt><trkpt lat="43.067305968680884" lon="10.912007738861424"><ele>311.5</ele><time>2026-04-26T09:14:52Z</time></trkpt><trkpt lat="43.06759432351002" lon="10.912227559593049"><ele>313.0</ele><time>2026-04-26T09:14:53Z</time></trkpt><trkpt lat="43.06788071898771" lon="10.912476068401235"><ele>313.5</ele><time>2026-04-26T09:14:54Z</time></trkpt><trkpt lat="43.06817972796797" lon="10.91272071678578"><ele>314.0</ele><time>2026-04-26T09:14:55Z</time></trkpt><trkpt lat="43.06847750683156" lon="10.912957747965708"><ele>314.5</ele><time>2026-04-26T09:14:56Z</time></trkpt><trkpt lat="43.0687681339679" lon="10.913192372456866"><ele>315.0</ele><time>2026-04-26T09:14:57Z</time></trkpt><trkpt lat="43.06901731873353" lon="10.91341312779548"><ele>317.0</ele><time>2026-04-26T09:14:58Z</time></trkpt><trkpt lat="43.06925231684645" lon="10.913625503728875"><ele>319.0</ele><time>2026-04-26T09:14:59Z</time></trkpt><trkpt lat="43.069477794829695" lon="10.9138429735473"><ele>319.0</ele><time>2026-04-26T09:15:00Z</time></trkpt><trkpt lat="43.069694809662174" lon="10.91406350031756"><ele>319.0</ele><time>2026-04-26T09:15:01Z</time></trkpt><trkpt lat="43.069899786504045" lon="10.914292756136053"><ele>321.0</ele><time>2026-04-26T09:15:02Z</time></trkpt><trkpt lat="43.07008653646492" lon="10.914536992246136"><ele>323.0</ele><time>2026-04-26T09:15:03Z</time></trkpt><trkpt lat="43.07024350430593" lon="10.914809758417986"><ele>323.5</ele><time>2026-04-26T09:15:04Z</time></trkpt><trkpt lat="43.07036500883995" lon="10.915103580625404"><ele>324.0</ele><time>2026-04-26T09:15:05Z</time></trkpt><trkpt lat="43.070457033363724" lon="10.915431591444888"><ele>324.0</ele><time>2026-04-26T09:15:06.001Z</time></trkpt><trkpt lat="43.07050061135633" lon="10.915789737868824"><ele>324.0</ele><time>2026-04-26T09:15:07.001Z</time></trkpt><trkpt lat="43.070517856178775" lon="10.916158860905366"><ele>326.0</ele><time>2026-04-26T09:15:08.001Z</time></trkpt><trkpt lat="43.07049806007114" lon="10.916529574462857"><ele>328.0</ele><time>2026-04-26T09:15:09.001Z</time></trkpt><trkpt lat="43.07044206846" lon="10.91691104001828"><ele>330.5</ele><time>2026-04-26T09:15:10.001Z</time></trkpt><trkpt lat="43.07038151787379" lon="10.917293629535365"><ele>333.0</ele><time>2026-04-26T09:15:11.001Z</time></trkpt><trkpt lat="43.070322783974206" lon="10.917623802610938"><ele>336.5</ele><time>2026-04-26T09:15:12.001Z</time></trkpt><trkpt lat="43.070293105351084" lon="10.917936375044498"><ele>340.0</ele><time>2026-04-26T09:15:13.001Z</time></trkpt><trkpt lat="43.07030785667466" lon="10.918240960935849"><ele>344.0</ele><time>2026-04-26T09:15:14.001Z</time></trkpt><trkpt lat="43.070361752451824" lon="10.91855267642683"><ele>348.0</ele><time>2026-04-26T09:15:15.001Z</time></trkpt><trkpt lat="43.07045307959808" lon="10.918862018550376"><ele>348.0</ele><time>2026-04-26T09:15:16.001Z</time></trkpt><trkpt lat="43.07057795622984" lon="10.91915620665605"><ele>348.0</ele><time>2026-04-26T09:15:17.001Z</time></trkpt><trkpt lat="43.070737868070516" lon="10.91940931297578"><ele>351.5</ele><time>2026-04-26T09:15:18.001Z</time></trkpt><trkpt lat="43.070934245692534" lon="10.919614983079276"><ele>355.0</ele><time>2026-04-26T09:15:19.001Z</time></trkpt><trkpt lat="43.071154619183986" lon="10.919779393268232"><ele>355.0</ele><time>2026-04-26T09:15:20.001Z</time></trkpt><trkpt lat="43.07136307781767" lon="10.91988471182942"><ele>355.0</ele><time>2026-04-26T09:15:21.001Z</time></trkpt><trkpt lat="43.0715454702687" lon="10.920011941720738"><ele>355.0</ele><time>2026-04-26T09:15:22.001Z</time></trkpt><trkpt lat="43.071708317548186" lon="10.920119302343323"><ele>354.66666666666663</ele><time>2026-04-26T09:15:23.001Z</time></trkpt><trkpt lat="43.071870112589316" lon="10.920206654458081"><ele>354.3333333333333</ele><time>2026-04-26T09:15:24.001Z</time></trkpt><trkpt lat="43.07202901173617" lon="10.920294328740557"><ele>354.0</ele><time>2026-04-26T09:15:25.001Z</time></trkpt><trkpt lat="43.072198888415194" lon="10.920380520613428"><ele>354.0</ele><time>2026-04-26T09:15:26.001Z</time></trkpt><trkpt lat="43.072367822426116" lon="10.920464751368197"><ele>354.0</ele><time>2026-04-26T09:15:27.001Z</time></trkpt><trkpt lat="43.072518277649664" lon="10.920537421933622"><ele>354.0</ele><time>2026-04-26T09:15:28.001Z</time></trkpt><trkpt lat="43.07265942601354" lon="10.920603925500679"><ele>354.0</ele><time>2026-04-26T09:15:29.001Z</time></trkpt><trkpt lat="43.07279454788359" lon="10.920670309919375"><ele>354.0</ele><time>2026-04-26T09:15:30.001Z</time></trkpt><trkpt lat="43.07293223940175" lon="10.920736843005685"><ele>354.0</ele><time>2026-04-26T09:15:31.001Z</time></trkpt><trkpt lat="43.073067329746955" lon="10.920799022612389"><ele>354.0</ele><time>2026-04-26T09:15:32.001Z</time></trkpt><trkpt lat="43.073193463602806" lon="10.920857132008821"><ele>353.0</ele><time>2026-04-26T09:15:33.001Z</time></trkpt><trkpt lat="43.07330727763284" lon="10.920920279487774"><ele>352.0</ele><time>2026-04-26T09:15:34.001Z</time></trkpt><trkpt lat="43.07341982574483" lon="10.920968866588014"><ele>351.0</ele><time>2026-04-26T09:15:35.001Z</time></trkpt><trkpt lat="43.07352099530478" lon="10.921028930704026"><ele>350.0</ele><time>2026-04-26T09:15:36.001Z</time></trkpt><trkpt lat="43.073600687115935" lon="10.92110621832371"><ele>349.0</ele><time>2026-04-26T09:15:37.001Z</time></trkpt><trkpt lat="43.07365781862979" lon="10.921195348850443"><ele>349.0</ele><time>2026-04-26T09:15:38.001Z</time></trkpt><trkpt lat="43.073710753242295" lon="10.921295002084543"><ele>349.0</ele><time>2026-04-26T09:15:39.001Z</time></trkpt><trkpt lat="43.07377929580534" lon="10.921349686406865"><ele>349.0</ele><time>2026-04-26T09:15:40.001Z</time></trkpt><trkpt lat="43.073865768720516" lon="10.921356797489677"><ele>349.0</ele><time>2026-04-26T09:15:41.001Z</time></trkpt><trkpt lat="43.07394952769142" lon="10.921300706295208"><ele>349.0</ele><time>2026-04-26T09:15:42.001Z</time></trkpt><trkpt lat="43.074002533307635" lon="10.921184691008653"><ele>349.0</ele><time>2026-04-26T09:15:43.001Z</time></trkpt><trkpt lat="43.07402626371014" lon="10.921023696342658"><ele>349.0</ele><time>2026-04-26T09:15:44.001Z</time></trkpt><trkpt lat="43.074122924504195" lon="10.920856835070772"><ele>349.0</ele><time>2026-04-26T09:15:45.001Z</time></trkpt><trkpt lat="43.07426583522875" lon="10.920667852560833"><ele>349.0</ele><time>2026-04-26T09:15:46.001Z</time></trkpt><trkpt lat="43.074430801847974" lon="10.920418810556747"><ele>349.0</ele><time>2026-04-26T09:15:47.001Z</time></trkpt><trkpt lat="43.074594482766656" lon="10.920118674594638"><ele>349.0</ele><time>2026-04-26T09:15:48Z</time></trkpt><trkpt lat="43.07474690317443" lon="10.919809166025875"><ele>349.3333333333333</ele><time>2026-04-26T09:15:49Z</time></trkpt><trkpt lat="43.07489025210378" lon="10.919551916410061"><ele>349.6666666666667</ele><time>2026-04-26T09:15:50Z</time></trkpt><trkpt lat="43.07503171055222" lon="10.919336546453724"><ele>350.0</ele><time>2026-04-26T09:15:51Z</time></trkpt><trkpt lat="43.07520241100408" lon="10.919139117652058"><ele>348.0</ele><time>2026-04-26T09:15:52Z</time></trkpt><trkpt lat="43.07540057876077" lon="10.918972823241473"><ele>346.0</ele><time>2026-04-26T09:15:53Z</time></trkpt><trkpt lat="43.07561782897566" lon="10.91884290794192"><ele>346.0</ele><time>2026-04-26T09:15:54Z</time></trkpt><trkpt lat="43.075852497615195" lon="10.918756090802649"><ele>346.0</ele><time>2026-04-26T09:15:55Z</time></trkpt><trkpt lat="43.07609351438038" lon="10.918717239243444"><ele>346.0</ele><time>2026-04-26T09:15:56Z</time></trkpt><trkpt lat="43.076340101447805" lon="10.918736545182513"><ele>346.0</ele><time>2026-04-26T09:15:57Z</time></trkpt><trkpt lat="43.07659495162863" lon="10.918801410638501"><ele>345.5</ele><time>2026-04-26T09:15:58Z</time></trkpt><trkpt lat="43.0768525585598" lon="10.918913798704796"><ele>345.0</ele><time>2026-04-26T09:15:59Z</time></trkpt><trkpt lat="43.077120528923395" lon="10.919054782647937"><ele>345.0</ele><time>2026-04-26T09:16:00Z</time></trkpt><trkpt lat="43.07741394415626" lon="10.919218259147062"><ele>345.0</ele><time>2026-04-26T09:16:01Z</time></trkpt><trkpt lat="43.07773223194543" lon="10.919443239663979"><ele>346.0</ele><time>2026-04-26T09:16:02Z</time></trkpt><trkpt lat="43.07807577416958" lon="10.919693508555298"><ele>347.0</ele><time>2026-04-26T09:16:03Z</time></trkpt><trkpt lat="43.07843266396096" lon="10.919953217694347"><ele>349.0</ele><time>2026-04-26T09:16:04Z</time></trkpt><trkpt lat="43.078808466974415" lon="10.920195219175204"><ele>351.0</ele><time>2026-04-26T09:16:05Z</time></trkpt><trkpt lat="43.0791814521223" lon="10.920459654309532"><ele>351.0</ele><time>2026-04-26T09:16:06Z</time></trkpt><trkpt lat="43.079517837636" lon="10.920704610836172"><ele>351.0</ele><time>2026-04-26T09:16:07Z</time></trkpt><trkpt lat="43.079825598586325" lon="10.92093160233339"><ele>353.5</ele><time>2026-04-26T09:16:08Z</time></trkpt><trkpt lat="43.08013039576276" lon="10.921155462259714"><ele>356.0</ele><time>2026-04-26T09:16:09Z</time></trkpt><trkpt lat="43.080435185193224" lon="10.921374397630942"><ele>356.0</ele><time>2026-04-26T09:16:10Z</time></trkpt><trkpt lat="43.08072577807006" lon="10.921612309076483"><ele>356.0</ele><time>2026-04-26T09:16:11Z</time></trkpt><trkpt lat="43.08102427912728" lon="10.921832558788275"><ele>357.5</ele><time>2026-04-26T09:16:12Z</time></trkpt><trkpt lat="43.081313944713756" lon="10.922045466209035"><ele>359.0</ele><time>2026-04-26T09:16:13Z</time></trkpt><trkpt lat="43.08160399332163" lon="10.92225865535051"><ele>360.0</ele><time>2026-04-26T09:16:14Z</time></trkpt><trkpt lat="43.081890517840215" lon="10.922469254088899"><ele>361.0</ele><time>2026-04-26T09:16:15Z</time></trkpt><trkpt lat="43.082170613258135" lon="10.922677697921355"><ele>363.0</ele><time>2026-04-26T09:16:16Z</time></trkpt><trkpt lat="43.082449174084296" lon="10.922885011034456"><ele>365.0</ele><time>2026-04-26T09:16:17Z</time></trkpt><trkpt lat="43.0827294833975" lon="10.92309300936742"><ele>365.0</ele><time>2026-04-26T09:16:18Z</time></trkpt><trkpt lat="43.08301454476371" lon="10.923303908307677"><ele>365.0</ele><time>2026-04-26T09:16:19Z</time></trkpt><trkpt lat="43.08330131267625" lon="10.923516071289585"><ele>367.0</ele><time>2026-04-26T09:16:20Z</time></trkpt><trkpt lat="43.083601324427654" lon="10.923738031122987"><ele>369.0</ele><time>2026-04-26T09:16:21Z</time></trkpt><trkpt lat="43.083902546339154" lon="10.923960886080895"><ele>370.5</ele><time>2026-04-26T09:16:22Z</time></trkpt><trkpt lat="43.08419937706852" lon="10.924179035695191"><ele>372.0</ele><time>2026-04-26T09:16:23Z</time></trkpt><trkpt lat="43.08449628126071" lon="10.924397187766763"><ele>372.0</ele><time>2026-04-26T09:16:24Z</time></trkpt><trkpt lat="43.08475581012616" lon="10.924587878356329"><ele>372.0</ele><time>2026-04-26T09:16:25Z</time></trkpt><trkpt lat="43.084999858097014" lon="10.924767048673429"><ele>373.5</ele><time>2026-04-26T09:16:26Z</time></trkpt><trkpt lat="43.08523241677089" lon="10.924921431621021"><ele>375.0</ele><time>2026-04-26T09:16:27Z</time></trkpt><trkpt lat="43.08544427160988" lon="10.925084323533005"><ele>375.0</ele><time>2026-04-26T09:16:28Z</time></trkpt><trkpt lat="43.08566050085064" lon="10.925247814594014"><ele>375.0</ele><time>2026-04-26T09:16:29Z</time></trkpt><trkpt lat="43.08588195048249" lon="10.92541622763884"><ele>375.5</ele><time>2026-04-26T09:16:30Z</time></trkpt><trkpt lat="43.08610100518363" lon="10.925573656857912"><ele>376.0</ele><time>2026-04-26T09:16:31Z</time></trkpt><trkpt lat="43.08629278274402" lon="10.92572375685557"><ele>376.0</ele><time>2026-04-26T09:16:32Z</time></trkpt><trkpt lat="43.086475647837474" lon="10.92586891739585"><ele>376.0</ele><time>2026-04-26T09:16:33Z</time></trkpt><trkpt lat="43.086676963223994" lon="10.926010763645923"><ele>376.0</ele><time>2026-04-26T09:16:34Z</time></trkpt><trkpt lat="43.08690005789623" lon="10.926123946172348"><ele>379.5</ele><time>2026-04-26T09:16:35Z</time></trkpt><trkpt lat="43.08715566222098" lon="10.926197801244163"><ele>383.0</ele><time>2026-04-26T09:16:36Z</time></trkpt><trkpt lat="43.08742807398134" lon="10.926263872938357"><ele>384.0</ele><time>2026-04-26T09:16:37Z</time></trkpt><trkpt lat="43.08771456579926" lon="10.926333893696764"><ele>385.0</ele><time>2026-04-26T09:16:38Z</time></trkpt><trkpt lat="43.08801549896645" lon="10.92641889364601"><ele>386.5</ele><time>2026-04-26T09:16:39Z</time></trkpt><trkpt lat="43.08831828587104" lon="10.92650455723033"><ele>388.0</ele><time>2026-04-26T09:16:40Z</time></trkpt><trkpt lat="43.08860586183608" lon="10.926584295394587"><ele>388.0</ele><time>2026-04-26T09:16:41Z</time></trkpt><trkpt lat="43.08886100508105" lon="10.926653215093344"><ele>388.0</ele><time>2026-04-26T09:16:42Z</time></trkpt><trkpt lat="43.0890740436942" lon="10.926719520393238"><ele>389.0</ele><time>2026-04-26T09:16:43Z</time></trkpt><trkpt lat="43.089255616050046" lon="10.926809227301385"><ele>390.0</ele><time>2026-04-26T09:16:44Z</time></trkpt><trkpt lat="43.08942700027592" lon="10.92695323625307"><ele>391.0</ele><time>2026-04-26T09:16:45Z</time></trkpt><trkpt lat="43.08959629641988" lon="10.927147249668215"><ele>391.0</ele><time>2026-04-26T09:16:46Z</time></trkpt><trkpt lat="43.08976009872089" lon="10.927337218466695"><ele>391.0</ele><time>2026-04-26T09:16:47Z</time></trkpt><trkpt lat="43.08990918579013" lon="10.927505003848271"><ele>391.0</ele><time>2026-04-26T09:16:48Z</time></trkpt><trkpt lat="43.090043881189935" lon="10.927670013025914"><ele>392.0</ele><time>2026-04-26T09:16:49Z</time></trkpt><trkpt lat="43.090167170026746" lon="10.927815680942542"><ele>393.0</ele><time>2026-04-26T09:16:50Z</time></trkpt><trkpt lat="43.090291587213784" lon="10.927962917383466"><ele>394.0</ele><time>2026-04-26T09:16:51Z</time></trkpt><trkpt lat="43.090414191260436" lon="10.928112289662298"><ele>394.0</ele><time>2026-04-26T09:16:52Z</time></trkpt><trkpt lat="43.09053234550885" lon="10.928259697447698"><ele>394.0</ele><time>2026-04-26T09:16:53Z</time></trkpt><trkpt lat="43.09064603647325" lon="10.928406052677683"><ele>394.0</ele><time>2026-04-26T09:16:54Z</time></trkpt><trkpt lat="43.09075948836415" lon="10.928550109656848"><ele>395.33333333333337</ele><time>2026-04-26T09:16:55Z</time></trkpt><trkpt lat="43.0908777995441" lon="10.928699489297811"><ele>396.66666666666663</ele><time>2026-04-26T09:16:56Z</time></trkpt><trkpt lat="43.09099659218367" lon="10.928845910989965"><ele>398.0</ele><time>2026-04-26T09:16:57Z</time></trkpt><trkpt lat="43.09111828635186" lon="10.928982670842835"><ele>398.0</ele><time>2026-04-26T09:16:58Z</time></trkpt><trkpt lat="43.09124405911038" lon="10.929106945966364"><ele>398.0</ele><time>2026-04-26T09:16:59Z</time></trkpt><trkpt lat="43.0913718676514" lon="10.929218093700964"><ele>398.0</ele><time>2026-04-26T09:17:00Z</time></trkpt><trkpt lat="43.0914943919966" lon="10.929312048361515"><ele>398.0</ele><time>2026-04-26T09:17:01Z</time></trkpt><trkpt lat="43.09160074962302" lon="10.929405488258286"><ele>398.5</ele><time>2026-04-26T09:17:02Z</time></trkpt><trkpt lat="43.091717965799084" lon="10.92949973323737"><ele>399.0</ele><time>2026-04-26T09:17:03Z</time></trkpt><trkpt lat="43.09186061591874" lon="10.92956700911228"><ele>399.5</ele><time>2026-04-26T09:17:04Z</time></trkpt><trkpt lat="43.09199774412596" lon="10.929615712316462"><ele>400.0</ele><time>2026-04-26T09:17:05Z</time></trkpt><trkpt lat="43.09214761101224" lon="10.929655438336844"><ele>400.0</ele><time>2026-04-26T09:17:06Z</time></trkpt><trkpt lat="43.09230325904754" lon="10.929679435902235"><ele>400.0</ele><time>2026-04-26T09:17:07Z</time></trkpt><trkpt lat="43.092465509200665" lon="10.929694821678844"><ele>400.0</ele><time>2026-04-26T09:17:08Z</time></trkpt><trkpt lat="43.09266108009629" lon="10.929734757997583"><ele>401.6666666666667</ele><time>2026-04-26T09:17:09Z</time></trkpt><trkpt lat="43.09287638529233" lon="10.929789659796176"><ele>403.33333333333337</ele><time>2026-04-26T09:17:10Z</time></trkpt><trkpt lat="43.09310340288421" lon="10.929820047680867"><ele>405.0</ele><time>2026-04-26T09:17:11Z</time></trkpt><trkpt lat="43.09332183400087" lon="10.929835845300248"><ele>406.0</ele><time>2026-04-26T09:17:12Z</time></trkpt><trkpt lat="43.09351054258926" lon="10.929864669051796"><ele>407.0</ele><time>2026-04-26T09:17:13Z</time></trkpt><trkpt lat="43.093683646749106" lon="10.929892201653447"><ele>408.0</ele><time>2026-04-26T09:17:14Z</time></trkpt><trkpt lat="43.09384693940499" lon="10.929923476090703"><ele>408.0</ele><time>2026-04-26T09:17:15Z</time></trkpt><trkpt lat="43.0940098716798" lon="10.929954042193332"><ele>408.0</ele><time>2026-04-26T09:17:16Z</time></trkpt><trkpt lat="43.094172359924166" lon="10.929975561720296"><ele>408.0</ele><time>2026-04-26T09:17:17Z</time></trkpt><trkpt lat="43.09433716727751" lon="10.929979704857564"><ele>409.33333333333337</ele><time>2026-04-26T09:17:18Z</time></trkpt><trkpt lat="43.09449221574286" lon="10.929961337464619"><ele>410.6666666666667</ele><time>2026-04-26T09:17:19Z</time></trkpt><trkpt lat="43.09464722169756" lon="10.929917767876704"><ele>412.0</ele><time>2026-04-26T09:17:20Z</time></trkpt><trkpt lat="43.094804944601634" lon="10.929878594956358"><ele>412.5</ele><time>2026-04-26T09:17:21.001Z</time></trkpt><trkpt lat="43.09497151371148" lon="10.929857346557057"><ele>413.0</ele><time>2026-04-26T09:17:22.001Z</time></trkpt><trkpt lat="43.09511094881645" lon="10.929836830817564"><ele>413.5</ele><time>2026-04-26T09:17:23.001Z</time></trkpt><trkpt lat="43.09525251872486" lon="10.929836625598004"><ele>414.0</ele><time>2026-04-26T09:17:24.001Z</time></trkpt><trkpt lat="43.095400185138814" lon="10.929868904371926"><ele>414.0</ele><time>2026-04-26T09:17:25.001Z</time></trkpt><trkpt lat="43.0955257581245" lon="10.92991010101006"><ele>414.0</ele><time>2026-04-26T09:17:26.001Z</time></trkpt><trkpt lat="43.09566716186892" lon="10.92988637040857"><ele>414.0</ele><time>2026-04-26T09:17:27.001Z</time></trkpt><trkpt lat="43.09581566363759" lon="10.929850811629485"><ele>414.0</ele><time>2026-04-26T09:17:28.001Z</time></trkpt><trkpt lat="43.09597266442614" lon="10.929817947386011"><ele>413.66666666666663</ele><time>2026-04-26T09:17:29.001Z</time></trkpt><trkpt lat="43.09613059267317" lon="10.9297751738068"><ele>413.3333333333333</ele><time>2026-04-26T09:17:30.001Z</time></trkpt><trkpt lat="43.09629047086325" lon="10.929736334194905"><ele>413.0</ele><time>2026-04-26T09:17:31.001Z</time></trkpt><trkpt lat="43.09645075987146" lon="10.929686791823496"><ele>413.0</ele><time>2026-04-26T09:17:32.001Z</time></trkpt><trkpt lat="43.09662123726391" lon="10.92964206419454"><ele>413.0</ele><time>2026-04-26T09:17:33.001Z</time></trkpt><trkpt lat="43.09678957395127" lon="10.929604006533499"><ele>413.0</ele><time>2026-04-26T09:17:34.001Z</time></trkpt><trkpt lat="43.096961493087136" lon="10.929560984606283"><ele>413.0</ele><time>2026-04-26T09:17:35.001Z</time></trkpt><trkpt lat="43.097128895832974" lon="10.92952239960937"><ele>413.0</ele><time>2026-04-26T09:17:36.001Z</time></trkpt><trkpt lat="43.09729266900414" lon="10.929482816790085"><ele>413.0</ele><time>2026-04-26T09:17:37.001Z</time></trkpt><trkpt lat="43.097438067485115" lon="10.92944635133633"><ele>414.0</ele><time>2026-04-26T09:17:38.001Z</time></trkpt><trkpt lat="43.09757975318014" lon="10.929410338855332"><ele>415.0</ele><time>2026-04-26T09:17:39.001Z</time></trkpt><trkpt lat="43.097722669118745" lon="10.929384229903729"><ele>416.0</ele><time>2026-04-26T09:17:40.001Z</time></trkpt><trkpt lat="43.09787333763894" lon="10.929349696622953"><ele>417.0</ele><time>2026-04-26T09:17:41.001Z</time></trkpt><trkpt lat="43.098025535369985" lon="10.929311638559463"><ele>417.0</ele><time>2026-04-26T09:17:42.001Z</time></trkpt><trkpt lat="43.09817059222313" lon="10.929274637789542"><ele>417.0</ele><time>2026-04-26T09:17:43.001Z</time></trkpt><trkpt lat="43.09832141117548" lon="10.929243048091537"><ele>417.0</ele><time>2026-04-26T09:17:44.001Z</time></trkpt><trkpt lat="43.098472822613154" lon="10.929207526118908"><ele>419.33333333333337</ele><time>2026-04-26T09:17:45.001Z</time></trkpt><trkpt lat="43.09862154828272" lon="10.929171985215717"><ele>421.6666666666667</ele><time>2026-04-26T09:17:46.001Z</time></trkpt><trkpt lat="43.09877525410487" lon="10.929133913892084"><ele>424.0</ele><time>2026-04-26T09:17:47.001Z</time></trkpt><trkpt lat="43.09893663201393" lon="10.929098493434784"><ele>426.6666666666667</ele><time>2026-04-26T09:17:48.001Z</time></trkpt><trkpt lat="43.09910756971856" lon="10.929060530169687"><ele>429.33333333333337</ele><time>2026-04-26T09:17:49.001Z</time></trkpt><trkpt lat="43.09928764724869" lon="10.929017238135035"><ele>432.0</ele><time>2026-04-26T09:17:50.001Z</time></trkpt><trkpt lat="43.099475482883776" lon="10.928972495225409"><ele>432.0</ele><time>2026-04-26T09:17:51.001Z</time></trkpt><trkpt lat="43.09967557581023" lon="10.92892863162073"><ele>432.0</ele><time>2026-04-26T09:17:52.001Z</time></trkpt><trkpt lat="43.09987864197284" lon="10.928881727240094"><ele>432.0</ele><time>2026-04-26T09:17:53.001Z</time></trkpt><trkpt lat="43.10007041735532" lon="10.928834733392248"><ele>436.66666666666663</ele><time>2026-04-26T09:17:54Z</time></trkpt><trkpt lat="43.10022926792363" lon="10.928791395449329"><ele>441.3333333333333</ele><time>2026-04-26T09:17:55Z</time></trkpt><trkpt lat="43.100373479510466" lon="10.928740537633466"><ele>446.0</ele><time>2026-04-26T09:17:56Z</time></trkpt><trkpt lat="43.10051320541146" lon="10.928652096271396"><ele>446.0</ele><time>2026-04-26T09:17:57Z</time></trkpt><trkpt lat="43.100636450201684" lon="10.928509522976528"><ele>446.0</ele><time>2026-04-26T09:17:58Z</time></trkpt><trkpt lat="43.10074507915937" lon="10.9283367041867"><ele>446.0</ele><time>2026-04-26T09:17:59Z</time></trkpt><trkpt lat="43.10082972196013" lon="10.928176961497725"><ele>448.25</ele><time>2026-04-26T09:18:00Z</time></trkpt><trkpt lat="43.100904990575614" lon="10.9280125273793"><ele>450.5</ele><time>2026-04-26T09:18:01Z</time></trkpt><trkpt lat="43.100960080143714" lon="10.927854531808284"><ele>452.75</ele><time>2026-04-26T09:18:02Z</time></trkpt><trkpt lat="43.10099208637848" lon="10.927676870206861"><ele>455.0</ele><time>2026-04-26T09:18:03Z</time></trkpt><trkpt lat="43.10100380211095" lon="10.927489019739092"><ele>455.25</ele><time>2026-04-26T09:18:04Z</time></trkpt><trkpt lat="43.10099019458533" lon="10.927290343782087"><ele>455.5</ele><time>2026-04-26T09:18:05Z</time></trkpt><trkpt lat="43.10097209777376" lon="10.927095583500018"><ele>455.75</ele><time>2026-04-26T09:18:06Z</time></trkpt><trkpt lat="43.100957759935625" lon="10.926910628325505"><ele>456.0</ele><time>2026-04-26T09:18:07Z</time></trkpt><trkpt lat="43.10095095616582" lon="10.926754831451234"><ele>456.25</ele><time>2026-04-26T09:18:08Z</time></trkpt><trkpt lat="43.100959474499554" lon="10.926598245484842"><ele>456.5</ele><time>2026-04-26T09:18:09Z</time></trkpt><trkpt lat="43.100981618843456" lon="10.926462824144805"><ele>456.75</ele><time>2026-04-26T09:18:10Z</time></trkpt><trkpt lat="43.1010105850249" lon="10.926313079293656"><ele>457.0</ele><time>2026-04-26T09:18:11Z</time></trkpt><trkpt lat="43.10105925010093" lon="10.926154187856316"><ele>457.0</ele><time>2026-04-26T09:18:12Z</time></trkpt><trkpt lat="43.1011260526403" lon="10.92599018708011"><ele>457.0</ele><time>2026-04-26T09:18:13Z</time></trkpt><trkpt lat="43.10119620293104" lon="10.925831589798223"><ele>457.0</ele><time>2026-04-26T09:18:14Z</time></trkpt><trkpt lat="43.101263054913034" lon="10.925687664890445"><ele>457.0</ele><time>2026-04-26T09:18:15Z</time></trkpt><trkpt lat="43.10133537149961" lon="10.925546088877807"><ele>456.5</ele><time>2026-04-26T09:18:16Z</time></trkpt><trkpt lat="43.1014073805472" lon="10.925402923397677"><ele>456.0</ele><time>2026-04-26T09:18:17Z</time></trkpt><trkpt lat="43.10147873805528" lon="10.925264791572973"><ele>455.5</ele><time>2026-04-26T09:18:18Z</time></trkpt><trkpt lat="43.101542919076714" lon="10.925140461965809"><ele>455.0</ele><time>2026-04-26T09:18:19Z</time></trkpt><trkpt lat="43.10160494391368" lon="10.925029260452147"><ele>454.6</ele><time>2026-04-26T09:18:20Z</time></trkpt><trkpt lat="43.101675029130405" lon="10.924931334292264"><ele>454.2</ele><time>2026-04-26T09:18:21Z</time></trkpt><trkpt lat="43.10175131089968" lon="10.924869924814255"><ele>453.79999999999995</ele><time>2026-04-26T09:18:22Z</time></trkpt><trkpt lat="43.10183482997311" lon="10.924848156856049"><ele>453.4</ele><time>2026-04-26T09:18:23Z</time></trkpt><trkpt lat="43.10192173114647" lon="10.92486714645282"><ele>453.0</ele><time>2026-04-26T09:18:24Z</time></trkpt><trkpt lat="43.10200387645781" lon="10.924926622393116"><ele>453.0</ele><time>2026-04-26T09:18:25Z</time></trkpt><trkpt lat="43.10208701306358" lon="10.924983070071482"><ele>452.99999999999994</ele><time>2026-04-26T09:18:26Z</time></trkpt><trkpt lat="43.10218449052464" lon="10.9250190123047"><ele>452.99999999999994</ele><time>2026-04-26T09:18:27Z</time></trkpt><trkpt lat="43.102290903406505" lon="10.925026732845732"><ele>453.0</ele><time>2026-04-26T09:18:28Z</time></trkpt><trkpt lat="43.102418537454795" lon="10.925005440007611"><ele>453.0</ele><time>2026-04-26T09:18:29Z</time></trkpt><trkpt lat="43.10254994245767" lon="10.92495096287055"><ele>452.75</ele><time>2026-04-26T09:18:30Z</time></trkpt><trkpt lat="43.102658588759276" lon="10.924915529238065"><ele>452.5</ele><time>2026-04-26T09:18:31Z</time></trkpt><trkpt lat="43.102774452431305" lon="10.924875749260803"><ele>452.25</ele><time>2026-04-26T09:18:32Z</time></trkpt><trkpt lat="43.1029020548485" lon="10.924824062107472"><ele>452.0</ele><time>2026-04-26T09:18:33Z</time></trkpt><trkpt lat="43.103038582327365" lon="10.924773658682554"><ele>452.0</ele><time>2026-04-26T09:18:34Z</time></trkpt><trkpt lat="43.103166188380115" lon="10.924724875143095"><ele>452.0</ele><time>2026-04-26T09:18:35Z</time></trkpt><trkpt lat="43.10330766994961" lon="10.924667680313503"><ele>452.0</ele><time>2026-04-26T09:18:36Z</time></trkpt><trkpt lat="43.10345421281774" lon="10.924609183301383"><ele>452.0</ele><time>2026-04-26T09:18:37Z</time></trkpt><trkpt lat="43.103590439301634" lon="10.924553426245975"><ele>451.25</ele><time>2026-04-26T09:18:38Z</time></trkpt><trkpt lat="43.103711539942076" lon="10.924481942994674"><ele>450.5</ele><time>2026-04-26T09:18:39Z</time></trkpt><trkpt lat="43.10382252887601" lon="10.924366606719829"><ele>449.75</ele><time>2026-04-26T09:18:40Z</time></trkpt><trkpt lat="43.10390975206989" lon="10.924200874681572"><ele>449.0</ele><time>2026-04-26T09:18:41Z</time></trkpt><trkpt lat="43.103975498850026" lon="10.924041760801646"><ele>450.6</ele><time>2026-04-26T09:18:42Z</time></trkpt><trkpt lat="43.10402242088643" lon="10.92391322685656"><ele>452.2</ele><time>2026-04-26T09:18:43Z</time></trkpt><trkpt lat="43.10407226234647" lon="10.923804270668873"><ele>453.80000000000007</ele><time>2026-04-26T09:18:44Z</time></trkpt><trkpt lat="43.10412486621556" lon="10.923705834433008"><ele>455.40000000000003</ele><time>2026-04-26T09:18:45Z</time></trkpt><trkpt lat="43.10420026899006" lon="10.92362001688197"><ele>457.0</ele><time>2026-04-26T09:18:46Z</time></trkpt><trkpt lat="43.1042852439405" lon="10.923593210926914"><ele>457.0</ele><time>2026-04-26T09:18:47Z</time></trkpt><trkpt lat="43.104374605995254" lon="10.923610900847592"><ele>457.00000000000006</ele><time>2026-04-26T09:18:48Z</time></trkpt><trkpt lat="43.10446061412291" lon="10.923668853836771"><ele>457.00000000000006</ele><time>2026-04-26T09:18:49Z</time></trkpt><trkpt lat="43.10454520410215" lon="10.92376198506538"><ele>457.0</ele><time>2026-04-26T09:18:50Z</time></trkpt><trkpt lat="43.10463431925856" lon="10.923858191101482"><ele>457.0</ele><time>2026-04-26T09:18:51Z</time></trkpt><trkpt lat="43.10473412758269" lon="10.923950354190872"><ele>457.00000000000006</ele><time>2026-04-26T09:18:52Z</time></trkpt><trkpt lat="43.104830030911586" lon="10.924007953075241"><ele>457.0</ele><time>2026-04-26T09:18:53Z</time></trkpt><trkpt lat="43.10491836483044" lon="10.924041382937094"><ele>457.0</ele><time>2026-04-26T09:18:54Z</time></trkpt><trkpt lat="43.1049941548269" lon="10.924078210810348"><ele>457.0</ele><time>2026-04-26T09:18:55Z</time></trkpt><trkpt lat="43.10505896272297" lon="10.924146461390071"><ele>457.00000000000006</ele><time>2026-04-26T09:18:56Z</time></trkpt><trkpt lat="43.10508842039144" lon="10.924245417492363"><ele>457.0</ele><time>2026-04-26T09:18:57Z</time></trkpt><trkpt lat="43.105077424220774" lon="10.924353325815737"><ele>457.6</ele><time>2026-04-26T09:18:58Z</time></trkpt><trkpt lat="43.105045618790754" lon="10.92444431522679"><ele>458.20000000000005</ele><time>2026-04-26T09:18:59Z</time></trkpt><trkpt lat="43.105040902822424" lon="10.92462509618578"><ele>458.8</ele><time>2026-04-26T09:19:01Z</time></trkpt><trkpt lat="43.10510287965329" lon="10.92472608105657"><ele>459.4</ele><time>2026-04-26T09:19:02Z</time></trkpt><trkpt lat="43.105185325763344" lon="10.924780810297994"><ele>460.0</ele><time>2026-04-26T09:19:03Z</time></trkpt><trkpt lat="43.10527998909324" lon="10.924796595356437"><ele>460.0</ele><time>2026-04-26T09:19:04Z</time></trkpt><trkpt lat="43.1053828139688" lon="10.924795721972597"><ele>460.0</ele><time>2026-04-26T09:19:05Z</time></trkpt><trkpt lat="43.10547582584135" lon="10.924781031242041"><ele>460.0</ele><time>2026-04-26T09:19:06Z</time></trkpt><trkpt lat="43.10557523191843" lon="10.92474531124991"><ele>460.0</ele><time>2026-04-26T09:19:07Z</time></trkpt><trkpt lat="43.105683350645165" lon="10.924681024115232"><ele>460.0</ele><time>2026-04-26T09:19:08Z</time></trkpt><trkpt lat="43.10579085979414" lon="10.924602374438237"><ele>462.4</ele><time>2026-04-26T09:19:09Z</time></trkpt><trkpt lat="43.10588559997846" lon="10.924550334717038"><ele>464.8</ele><time>2026-04-26T09:19:10Z</time></trkpt><trkpt lat="43.10598908060278" lon="10.924514545083598"><ele>467.20000000000005</ele><time>2026-04-26T09:19:11Z</time></trkpt><trkpt lat="43.106106223143165" lon="10.92452176876306"><ele>469.6</ele><time>2026-04-26T09:19:12Z</time></trkpt><trkpt lat="43.10621711352821" lon="10.92456732623093"><ele>472.0</ele><time>2026-04-26T09:19:13Z</time></trkpt><trkpt lat="43.10632196808255" lon="10.924629706110087"><ele>472.0</ele><time>2026-04-26T09:19:14Z</time></trkpt><trkpt lat="43.106452372953825" lon="10.924691186084932"><ele>472.0</ele><time>2026-04-26T09:19:15Z</time></trkpt><trkpt lat="43.106567993027625" lon="10.924770043426276"><ele>472.0</ele><time>2026-04-26T09:19:16Z</time></trkpt><trkpt lat="43.10668006162893" lon="10.92486512823446"><ele>472.0</ele><time>2026-04-26T09:19:17Z</time></trkpt><trkpt lat="43.106782418882155" lon="10.924971138606285"><ele>473.25</ele><time>2026-04-26T09:19:18Z</time></trkpt><trkpt lat="43.106879398721794" lon="10.925077471615086"><ele>474.5</ele><time>2026-04-26T09:19:19Z</time></trkpt><trkpt lat="43.106983331517604" lon="10.92518706125717"><ele>475.75</ele><time>2026-04-26T09:19:20Z</time></trkpt><trkpt lat="43.107072918607045" lon="10.92529365575297"><ele>477.0</ele><time>2026-04-26T09:19:21Z</time></trkpt><trkpt lat="43.10716084585744" lon="10.925397709549271"><ele>477.0</ele><time>2026-04-26T09:19:22Z</time></trkpt><trkpt lat="43.10725580474716" lon="10.925505729994956"><ele>477.00000000000006</ele><time>2026-04-26T09:19:23Z</time></trkpt><trkpt lat="43.1073413180787" lon="10.925607394627637"><ele>477.00000000000006</ele><time>2026-04-26T09:19:24.001Z</time></trkpt><trkpt lat="43.107435356268596" lon="10.925697042656058"><ele>477.0</ele><time>2026-04-26T09:19:25.001Z</time></trkpt><trkpt lat="43.107524501581906" lon="10.925741878176645"><ele>477.0</ele><time>2026-04-26T09:19:26.001Z</time></trkpt><trkpt lat="43.107637419686384" lon="10.92575231705773"><ele>479.40000000000003</ele><time>2026-04-26T09:19:27.001Z</time></trkpt><trkpt lat="43.107752728887625" lon="10.925725448040371"><ele>481.80000000000007</ele><time>2026-04-26T09:19:28.001Z</time></trkpt><trkpt lat="43.10786329922153" lon="10.925682356196376"><ele>484.2</ele><time>2026-04-26T09:19:29.001Z</time></trkpt><trkpt lat="43.10798185090956" lon="10.925642703332132"><ele>486.6</ele><time>2026-04-26T09:19:30.001Z</time></trkpt><trkpt lat="43.10806408170842" lon="10.925642087841782"><ele>489.0</ele><time>2026-04-26T09:19:31.001Z</time></trkpt><trkpt lat="43.108164827217635" lon="10.925669799310537"><ele>489.0</ele><time>2026-04-26T09:19:32.001Z</time></trkpt><trkpt lat="43.10825971809806" lon="10.925719330110745"><ele>489.0</ele><time>2026-04-26T09:19:33.001Z</time></trkpt><trkpt lat="43.10835179696512" lon="10.925790255652487"><ele>489.0</ele><time>2026-04-26T09:19:34.001Z</time></trkpt><trkpt lat="43.10845117496784" lon="10.925885053174568"><ele>489.0</ele><time>2026-04-26T09:19:35.001Z</time></trkpt><trkpt lat="43.108546967294764" lon="10.925999287127006"><ele>490.5</ele><time>2026-04-26T09:19:36.001Z</time></trkpt><trkpt lat="43.108626684786415" lon="10.926136465024356"><ele>492.0</ele><time>2026-04-26T09:19:37.001Z</time></trkpt><trkpt lat="43.10870251046771" lon="10.92628616347037"><ele>493.5</ele><time>2026-04-26T09:19:38.001Z</time></trkpt><trkpt lat="43.108768757714465" lon="10.926418411845923"><ele>495.0</ele><time>2026-04-26T09:19:39.001Z</time></trkpt><trkpt lat="43.10884308810682" lon="10.926562618658712"><ele>495.0</ele><time>2026-04-26T09:19:40.001Z</time></trkpt><trkpt lat="43.10892345759637" lon="10.926710561299194"><ele>495.0</ele><time>2026-04-26T09:19:41.001Z</time></trkpt><trkpt lat="43.109005180191865" lon="10.926862020663908"><ele>495.0</ele><time>2026-04-26T09:19:42.001Z</time></trkpt><trkpt lat="43.10907108583223" lon="10.927002609727973"><ele>495.0</ele><time>2026-04-26T09:19:43.001Z</time></trkpt><trkpt lat="43.10914679289616" lon="10.927145938571458"><ele>495.0</ele><time>2026-04-26T09:19:44.001Z</time></trkpt><trkpt lat="43.10922855332727" lon="10.92729625071184"><ele>495.0</ele><time>2026-04-26T09:19:45.001Z</time></trkpt><trkpt lat="43.109309410527146" lon="10.927442237629597"><ele>495.0</ele><time>2026-04-26T09:19:46.001Z</time></trkpt><trkpt lat="43.10939361362061" lon="10.927585783123641"><ele>495.0</ele><time>2026-04-26T09:19:47.001Z</time></trkpt><trkpt lat="43.10950238330338" lon="10.927718032841618"><ele>495.0</ele><time>2026-04-26T09:19:48.001Z</time></trkpt><trkpt lat="43.109628247933735" lon="10.927826570922106"><ele>495.0</ele><time>2026-04-26T09:19:49.001Z</time></trkpt><trkpt lat="43.109757822681544" lon="10.927921581952429"><ele>495.0</ele><time>2026-04-26T09:19:50.001Z</time></trkpt><trkpt lat="43.10987642774181" lon="10.928019477170684"><ele>495.0</ele><time>2026-04-26T09:19:51.001Z</time></trkpt><trkpt lat="43.10999543747953" lon="10.928116428390195"><ele>493.5</ele><time>2026-04-26T09:19:52.001Z</time></trkpt><trkpt lat="43.110117840477386" lon="10.928215968660018"><ele>492.0</ele><time>2026-04-26T09:19:53.001Z</time></trkpt><trkpt lat="43.11023880196272" lon="10.928316513282635"><ele>490.5</ele><time>2026-04-26T09:19:54.001Z</time></trkpt><trkpt lat="43.11035087335799" lon="10.92841771324607"><ele>489.0</ele><time>2026-04-26T09:19:55.001Z</time></trkpt><trkpt lat="43.11045402802614" lon="10.928502671184768"><ele>488.5</ele><time>2026-04-26T09:19:56.001Z</time></trkpt><trkpt lat="43.11055448107737" lon="10.928589208887418"><ele>488.0</ele><time>2026-04-26T09:19:57.001Z</time></trkpt><trkpt lat="43.11065725829648" lon="10.928666419484898"><ele>487.5</ele><time>2026-04-26T09:19:58.001Z</time></trkpt><trkpt lat="43.11076400814947" lon="10.928723944294754"><ele>487.0</ele><time>2026-04-26T09:19:59.001Z</time></trkpt><trkpt lat="43.11088321280002" lon="10.928754963032874"><ele>488.0</ele><time>2026-04-26T09:20:00Z</time></trkpt><trkpt lat="43.111008559972916" lon="10.928756249592157"><ele>489.0</ele><time>2026-04-26T09:20:01Z</time></trkpt><trkpt lat="43.11112758502625" lon="10.928730436472478"><ele>490.0</ele><time>2026-04-26T09:20:02Z</time></trkpt><trkpt lat="43.11124726859718" lon="10.928719708108435"><ele>491.0</ele><time>2026-04-26T09:20:03Z</time></trkpt><trkpt lat="43.11136199911811" lon="10.92873637317125"><ele>491.0</ele><time>2026-04-26T09:20:04Z</time></trkpt><trkpt lat="43.11148262125783" lon="10.928770339074639"><ele>491.0</ele><time>2026-04-26T09:20:05Z</time></trkpt><trkpt lat="43.11160224664973" lon="10.928815271580037"><ele>491.0</ele><time>2026-04-26T09:20:06Z</time></trkpt><trkpt lat="43.11171460045946" lon="10.928874109243656"><ele>491.0</ele><time>2026-04-26T09:20:07Z</time></trkpt><trkpt lat="43.111824504766005" lon="10.92894933036627"><ele>492.75</ele><time>2026-04-26T09:20:08Z</time></trkpt><trkpt lat="43.1119348299244" lon="10.929028596873883"><ele>494.5</ele><time>2026-04-26T09:20:09Z</time></trkpt><trkpt lat="43.11204938060428" lon="10.92911768727786"><ele>496.25</ele><time>2026-04-26T09:20:10Z</time></trkpt><trkpt lat="43.112167208311014" lon="10.92921527879312"><ele>498.0</ele><time>2026-04-26T09:20:11Z</time></trkpt><trkpt lat="43.112282688385235" lon="10.929320342444568"><ele>498.5</ele><time>2026-04-26T09:20:12Z</time></trkpt><trkpt lat="43.11239628362982" lon="10.929422063060938"><ele>499.0</ele><time>2026-04-26T09:20:13Z</time></trkpt><trkpt lat="43.11250554296686" lon="10.92951605005326"><ele>499.5</ele><time>2026-04-26T09:20:14Z</time></trkpt><trkpt lat="43.11261582981501" lon="10.929607979872172"><ele>500.0</ele><time>2026-04-26T09:20:15Z</time></trkpt><trkpt lat="43.11272933212115" lon="10.929695075380135"><ele>501.75</ele><time>2026-04-26T09:20:16Z</time></trkpt><trkpt lat="43.112845405852944" lon="10.929784412815454"><ele>503.5</ele><time>2026-04-26T09:20:17Z</time></trkpt><trkpt lat="43.11295924360404" lon="10.929866200241346"><ele>505.25</ele><time>2026-04-26T09:20:18Z</time></trkpt><trkpt lat="43.11306730057642" lon="10.929941046662647"><ele>507.0</ele><time>2026-04-26T09:20:19Z</time></trkpt><trkpt lat="43.11316048867621" lon="10.93000935531513"><ele>509.20000000000005</ele><time>2026-04-26T09:20:20Z</time></trkpt><trkpt lat="43.11323922643054" lon="10.930063847214535"><ele>511.40000000000003</ele><time>2026-04-26T09:20:21Z</time></trkpt><trkpt lat="43.11332166796183" lon="10.93011584970552"><ele>513.5999999999999</ele><time>2026-04-26T09:20:22Z</time></trkpt><trkpt lat="43.113412701541364" lon="10.930140891817915"><ele>515.8</ele><time>2026-04-26T09:20:23Z</time></trkpt><trkpt lat="43.11350700130983" lon="10.930127924842704"><ele>518.0</ele><time>2026-04-26T09:20:24Z</time></trkpt><trkpt lat="43.11360328378754" lon="10.930086078435732"><ele>517.6</ele><time>2026-04-26T09:20:25Z</time></trkpt><trkpt lat="43.11369907420114" lon="10.930038035013387"><ele>517.1999999999999</ele><time>2026-04-26T09:20:26Z</time></trkpt><trkpt lat="43.11380211064485" lon="10.930003340069856"><ele>516.8</ele><time>2026-04-26T09:20:27Z</time></trkpt><trkpt lat="43.11391153169873" lon="10.929977379811286"><ele>516.4</ele><time>2026-04-26T09:20:28Z</time></trkpt><trkpt lat="43.11402623720487" lon="10.92997247256999"><ele>516.0</ele><time>2026-04-26T09:20:29Z</time></trkpt><trkpt lat="43.11413189603186" lon="10.930017802935714"><ele>518.0</ele><time>2026-04-26T09:20:30Z</time></trkpt><trkpt lat="43.11424333924129" lon="10.930029208938771"><ele>520.0</ele><time>2026-04-26T09:20:31Z</time></trkpt><trkpt lat="43.114351845144775" lon="10.930033941589732"><ele>522.0</ele><time>2026-04-26T09:20:32Z</time></trkpt><trkpt lat="43.11446234127429" lon="10.929995821992897"><ele>524.0</ele><time>2026-04-26T09:20:33Z</time></trkpt><trkpt lat="43.11456955597804" lon="10.929924968722833"><ele>524.0</ele><time>2026-04-26T09:20:34Z</time></trkpt><trkpt lat="43.11466711810497" lon="10.929826944564574"><ele>524.0</ele><time>2026-04-26T09:20:35Z</time></trkpt><trkpt lat="43.11474763702889" lon="10.929702057505176"><ele>524.0</ele><time>2026-04-26T09:20:36Z</time></trkpt><trkpt lat="43.11481239073944" lon="10.929572585242608"><ele>524.0</ele><time>2026-04-26T09:20:37Z</time></trkpt><trkpt lat="43.11488968179201" lon="10.92947802736482"><ele>526.0</ele><time>2026-04-26T09:20:38Z</time></trkpt><trkpt lat="43.11495683048814" lon="10.929386714192898"><ele>528.0</ele><time>2026-04-26T09:20:39Z</time></trkpt><trkpt lat="43.11505863380912" lon="10.929343588512596"><ele>530.0</ele><time>2026-04-26T09:20:40Z</time></trkpt><trkpt lat="43.1151638284439" lon="10.929339113725385"><ele>532.0</ele><time>2026-04-26T09:20:41Z</time></trkpt><trkpt lat="43.11527541346356" lon="10.92934828560233"><ele>534.0</ele><time>2026-04-26T09:20:42Z</time></trkpt><trkpt lat="43.11540916306314" lon="10.929367430789197"><ele>534.0</ele><time>2026-04-26T09:20:43Z</time></trkpt><trkpt lat="43.11556340109514" lon="10.929420090088641"><ele>534.0</ele><time>2026-04-26T09:20:44Z</time></trkpt><trkpt lat="43.115762157289204" lon="10.929444301556515"><ele>534.0</ele><time>2026-04-26T09:20:45Z</time></trkpt><trkpt lat="43.115959482459225" lon="10.929503514755384"><ele>540.0</ele><time>2026-04-26T09:20:46Z</time></trkpt><trkpt lat="43.11611607460021" lon="10.929530143931894"><ele>546.0</ele><time>2026-04-26T09:20:47Z</time></trkpt><trkpt lat="43.116267203349956" lon="10.929517197849338"><ele>552.0</ele><time>2026-04-26T09:20:48Z</time></trkpt><trkpt lat="43.116418770684646" lon="10.929481351946038"><ele>552.0</ele><time>2026-04-26T09:20:49Z</time></trkpt><trkpt lat="43.11656861699579" lon="10.929464210619773"><ele>552.0</ele><time>2026-04-26T09:20:50Z</time></trkpt><trkpt lat="43.11671659084067" lon="10.92949083098118"><ele>552.0</ele><time>2026-04-26T09:20:51Z</time></trkpt><trkpt lat="43.11689641856744" lon="10.929525712122187"><ele>558.0</ele><time>2026-04-26T09:20:52Z</time></trkpt><trkpt lat="43.1171066961484" lon="10.929607937938021"><ele>564.0</ele><time>2026-04-26T09:20:53Z</time></trkpt><trkpt lat="43.117352141157596" lon="10.92966785606037"><ele>565.0</ele><time>2026-04-26T09:20:54Z</time></trkpt><trkpt lat="43.11756681522143" lon="10.929738590264517"><ele>566.0</ele><time>2026-04-26T09:20:55Z</time></trkpt><trkpt lat="43.11771675670013" lon="10.929795436705513"><ele>567.0</ele><time>2026-04-26T09:20:56Z</time></trkpt><trkpt lat="43.11782855174152" lon="10.929883227468743"><ele>567.0</ele><time>2026-04-26T09:20:57Z</time></trkpt><trkpt lat="43.11792692359637" lon="10.930008093905109"><ele>567.0</ele><time>2026-04-26T09:20:58Z</time></trkpt><trkpt lat="43.118016205084366" lon="10.930174764703553"><ele>567.0</ele><time>2026-04-26T09:20:59Z</time></trkpt><trkpt lat="43.118144088658745" lon="10.930314640921319"><ele>567.0</ele><time>2026-04-26T09:21:00Z</time></trkpt><trkpt lat="43.11832226421115" lon="10.930413973854309"><ele>570.5</ele><time>2026-04-26T09:21:01Z</time></trkpt><trkpt lat="43.11853604632318" lon="10.93048922231674"><ele>574.0</ele><time>2026-04-26T09:21:02Z</time></trkpt><trkpt lat="43.11876705418712" lon="10.930514473177968"><ele>574.0</ele><time>2026-04-26T09:21:03Z</time></trkpt><trkpt lat="43.11899402277826" lon="10.930523228882304"><ele>574.0</ele><time>2026-04-26T09:21:04Z</time></trkpt><trkpt lat="43.119157610065606" lon="10.930525753115784"><ele>574.0</ele><time>2026-04-26T09:21:05Z</time></trkpt><trkpt lat="43.11928991523089" lon="10.93050348051223"><ele>574.6666666666667</ele><time>2026-04-26T09:21:06Z</time></trkpt><trkpt lat="43.11940390242709" lon="10.930433107585158"><ele>575.3333333333334</ele><time>2026-04-26T09:21:07Z</time></trkpt><trkpt lat="43.11952735334259" lon="10.930282563161974"><ele>576.0</ele><time>2026-04-26T09:21:08Z</time></trkpt><trkpt lat="43.11967494101275" lon="10.930115997810507"><ele>577.6666666666666</ele><time>2026-04-26T09:21:09Z</time></trkpt><trkpt lat="43.119790837326335" lon="10.929964661547709"><ele>579.3333333333333</ele><time>2026-04-26T09:21:10Z</time></trkpt><trkpt lat="43.119870161087675" lon="10.929778110515153"><ele>581.0</ele><time>2026-04-26T09:21:11Z</time></trkpt><trkpt lat="43.119924902644144" lon="10.929542193166483"><ele>583.6666666666666</ele><time>2026-04-26T09:21:12Z</time></trkpt><trkpt lat="43.11998284040409" lon="10.929290084974452"><ele>586.3333333333334</ele><time>2026-04-26T09:21:13Z</time></trkpt><trkpt lat="43.120026319344575" lon="10.929095114850902"><ele>589.0</ele><time>2026-04-26T09:21:14Z</time></trkpt><trkpt lat="43.12009402839488" lon="10.928934528972393"><ele>589.6666666666667</ele><time>2026-04-26T09:21:15Z</time></trkpt><trkpt lat="43.12018957008252" lon="10.928817877420297"><ele>590.3333333333334</ele><time>2026-04-26T09:21:16Z</time></trkpt><trkpt lat="43.120324808548126" lon="10.928731067092889"><ele>591.0</ele><time>2026-04-26T09:21:17Z</time></trkpt><trkpt lat="43.12050655357959" lon="10.928633612059842"><ele>591.0</ele><time>2026-04-26T09:21:18Z</time></trkpt><trkpt lat="43.120711215627985" lon="10.92852672228247"><ele>591.0</ele><time>2026-04-26T09:21:19Z</time></trkpt><trkpt lat="43.12092388927668" lon="10.928397132552455"><ele>593.0</ele><time>2026-04-26T09:21:20Z</time></trkpt><trkpt lat="43.121090278930076" lon="10.92830844415771"><ele>595.0</ele><time>2026-04-26T09:21:21Z</time></trkpt><trkpt lat="43.12121269952543" lon="10.92820398299411"><ele>597.0</ele><time>2026-04-26T09:21:22Z</time></trkpt><trkpt lat="43.12131081548016" lon="10.928066663893924"><ele>597.0</ele><time>2026-04-26T09:21:23Z</time></trkpt><trkpt lat="43.121377650848245" lon="10.92789146956115"><ele>597.0</ele><time>2026-04-26T09:21:24Z</time></trkpt><trkpt lat="43.121409591094654" lon="10.927670472141553"><ele>597.0</ele><time>2026-04-26T09:21:25Z</time></trkpt><trkpt lat="43.12141249336832" lon="10.927431268005769"><ele>599.3333333333334</ele><time>2026-04-26T09:21:26Z</time></trkpt><trkpt lat="43.12143451271911" lon="10.92719482402188"><ele>601.6666666666667</ele><time>2026-04-26T09:21:27Z</time></trkpt><trkpt lat="43.121519072018415" lon="10.926960755318314"><ele>604.0</ele><time>2026-04-26T09:21:28Z</time></trkpt><trkpt lat="43.12163366553843" lon="10.926683349063522"><ele>604.0</ele><time>2026-04-26T09:21:29Z</time></trkpt><trkpt lat="43.12175696144575" lon="10.926378040809077"><ele>604.0</ele><time>2026-04-26T09:21:30Z</time></trkpt><trkpt lat="43.1218628064683" lon="10.926083384890669"><ele>609.0</ele><time>2026-04-26T09:21:31Z</time></trkpt><trkpt lat="43.121950103443005" lon="10.925864442348656"><ele>614.0</ele><time>2026-04-26T09:21:32Z</time></trkpt><trkpt lat="43.122047426298295" lon="10.925697795249315"><ele>619.0</ele><time>2026-04-26T09:21:33Z</time></trkpt><trkpt lat="43.12219109500813" lon="10.92560152017873"><ele>619.0</ele><time>2026-04-26T09:21:34.001Z</time></trkpt><trkpt lat="43.122342328095485" lon="10.92544418169193"><ele>619.0</ele><time>2026-04-26T09:21:35.001Z</time></trkpt><trkpt lat="43.12250583864108" lon="10.925272089367265"><ele>619.0</ele><time>2026-04-26T09:21:36.001Z</time></trkpt><trkpt lat="43.122664465776005" lon="10.925049736630362"><ele>619.3333333333334</ele><time>2026-04-26T09:21:37.001Z</time></trkpt><trkpt lat="43.12278913418694" lon="10.924785021201815"><ele>619.6666666666666</ele><time>2026-04-26T09:21:38.001Z</time></trkpt><trkpt lat="43.122895019794164" lon="10.924533479538997"><ele>620.0</ele><time>2026-04-26T09:21:39.001Z</time></trkpt><trkpt lat="43.1230284835895" lon="10.924341005199878"><ele>622.0</ele><time>2026-04-26T09:21:40.001Z</time></trkpt><trkpt lat="43.12318963611755" lon="10.924158527973576"><ele>624.0</ele><time>2026-04-26T09:21:41.001Z</time></trkpt><trkpt lat="43.12337653676181" lon="10.923939904613354"><ele>624.0</ele><time>2026-04-26T09:21:42.001Z</time></trkpt><trkpt lat="43.12358140719334" lon="10.923717334782625"><ele>624.0</ele><time>2026-04-26T09:21:43.001Z</time></trkpt><trkpt lat="43.12380224895879" lon="10.923526287648524"><ele>628.0</ele><time>2026-04-26T09:21:44.001Z</time></trkpt><trkpt lat="43.12404860080234" lon="10.92334026111856"><ele>632.0</ele><time>2026-04-26T09:21:45.001Z</time></trkpt><trkpt lat="43.124282575146445" lon="10.923181613382472"><ele>632.0</ele><time>2026-04-26T09:21:46.001Z</time></trkpt><trkpt lat="43.12446629687361" lon="10.923063291506846"><ele>632.0</ele><time>2026-04-26T09:21:47.001Z</time></trkpt><trkpt lat="43.124615314126075" lon="10.92296942129947"><ele>632.0</ele><time>2026-04-26T09:21:48.001Z</time></trkpt><trkpt lat="43.12474094645388" lon="10.922898257916088"><ele>632.0</ele><time>2026-04-26T09:21:49.001Z</time></trkpt><trkpt lat="43.124829306750954" lon="10.922882868771934"><ele>632.0</ele><time>2026-04-26T09:21:50.001Z</time></trkpt><trkpt lat="43.12492982106421" lon="10.922922658523477"><ele>632.0</ele><time>2026-04-26T09:21:51.001Z</time></trkpt><trkpt lat="43.124983720313125" lon="10.923057480304198"><ele>632.0</ele><time>2026-04-26T09:21:52.001Z</time></trkpt><trkpt lat="43.12503099658225" lon="10.923206020067067"><ele>632.0</ele><time>2026-04-26T09:21:53.001Z</time></trkpt><trkpt lat="43.12507773895432" lon="10.923406499966156"><ele>632.75</ele><time>2026-04-26T09:21:54.001Z</time></trkpt><trkpt lat="43.12509297001796" lon="10.92363056248822"><ele>633.5</ele><time>2026-04-26T09:21:55.001Z</time></trkpt><trkpt lat="43.125122732524964" lon="10.923783803554608"><ele>634.25</ele><time>2026-04-26T09:21:56.001Z</time></trkpt><trkpt lat="43.12514184715673" lon="10.923891889449553"><ele>635.0</ele><time>2026-04-26T09:21:57.001Z</time></trkpt><trkpt lat="43.12523241040581" lon="10.9239465204579"><ele>635.0</ele><time>2026-04-26T09:21:58.001Z</time></trkpt><trkpt lat="43.125356263458094" lon="10.923962735388898"><ele>635.0</ele><time>2026-04-26T09:21:59.001Z</time></trkpt><trkpt lat="43.12554564834964" lon="10.923883316939591"><ele>635.0</ele><time>2026-04-26T09:22:00.001Z</time></trkpt><trkpt lat="43.125762069282196" lon="10.923783547919669"><ele>636.0</ele><time>2026-04-26T09:22:01.001Z</time></trkpt><trkpt lat="43.125964853039065" lon="10.923691965714784"><ele>637.0</ele><time>2026-04-26T09:22:02.001Z</time></trkpt><trkpt lat="43.126097849669364" lon="10.92359836169244"><ele>638.0</ele><time>2026-04-26T09:22:03.001Z</time></trkpt><trkpt lat="43.126210538534295" lon="10.923475020234767"><ele>641.3333333333333</ele><time>2026-04-26T09:22:04.001Z</time></trkpt><trkpt lat="43.12628540819637" lon="10.923285479390078"><ele>644.6666666666666</ele><time>2026-04-26T09:22:05.001Z</time></trkpt><trkpt lat="43.12637309648203" lon="10.923044519122035"><ele>648.0</ele><time>2026-04-26T09:22:06Z</time></trkpt><trkpt lat="43.12645869559772" lon="10.922755209539208"><ele>650.0</ele><time>2026-04-26T09:22:07Z</time></trkpt><trkpt lat="43.12655759481716" lon="10.922455702652648"><ele>652.0</ele><time>2026-04-26T09:22:08Z</time></trkpt><trkpt lat="43.12666604764641" lon="10.922145346875554"><ele>653.3333333333334</ele><time>2026-04-26T09:22:09Z</time></trkpt><trkpt lat="43.12675746947292" lon="10.921882903696009"><ele>654.6666666666666</ele><time>2026-04-26T09:22:10Z</time></trkpt><trkpt lat="43.126820856964365" lon="10.921655303237312"><ele>656.0</ele><time>2026-04-26T09:22:11Z</time></trkpt><trkpt lat="43.126856147055" lon="10.921437151928412"><ele>656.5</ele><time>2026-04-26T09:22:12Z</time></trkpt><trkpt lat="43.12683510517371" lon="10.921255752921468"><ele>657.0</ele><time>2026-04-26T09:22:13Z</time></trkpt><trkpt lat="43.12680673909128" lon="10.921095217572347"><ele>657.5</ele><time>2026-04-26T09:22:14Z</time></trkpt><trkpt lat="43.12681590822789" lon="10.920926277467629"><ele>658.0</ele><time>2026-04-26T09:22:15Z</time></trkpt><trkpt lat="43.12688943996661" lon="10.920740139195974"><ele>658.0</ele><time>2026-04-26T09:22:16Z</time></trkpt><trkpt lat="43.12698979795557" lon="10.920566553545823"><ele>658.0</ele><time>2026-04-26T09:22:17Z</time></trkpt><trkpt lat="43.12705340517444" lon="10.920396694343887"><ele>658.0</ele><time>2026-04-26T09:22:18Z</time></trkpt><trkpt lat="43.12708959281077" lon="10.920230618950512"><ele>658.0</ele><time>2026-04-26T09:22:19Z</time></trkpt><trkpt lat="43.12709013876304" lon="10.920074263824874"><ele>656.25</ele><time>2026-04-26T09:22:20Z</time></trkpt><trkpt lat="43.127070110839924" lon="10.919895554973655"><ele>654.5</ele><time>2026-04-26T09:22:21Z</time></trkpt><trkpt lat="43.12696945608163" lon="10.91973224734072"><ele>652.75</ele><time>2026-04-26T09:22:22Z</time></trkpt><trkpt lat="43.12688323061516" lon="10.919551501790924"><ele>651.0</ele><time>2026-04-26T09:22:23Z</time></trkpt><trkpt lat="43.12681644006127" lon="10.919386826341723"><ele>648.8</ele><time>2026-04-26T09:22:24Z</time></trkpt><trkpt lat="43.126753949661584" lon="10.919232822687833"><ele>646.5999999999999</ele><time>2026-04-26T09:22:25Z</time></trkpt><trkpt lat="43.126726677611515" lon="10.919102312974829"><ele>644.4</ele><time>2026-04-26T09:22:26Z</time></trkpt><trkpt lat="43.12671572932432" lon="10.918966030341613"><ele>642.2</ele><time>2026-04-26T09:22:27Z</time></trkpt><trkpt lat="43.12674187074518" lon="10.918835184846362"><ele>640.0</ele><time>2026-04-26T09:22:28Z</time></trkpt><trkpt lat="43.1268522287968" lon="10.918736833856627"><ele>640.0</ele><time>2026-04-26T09:22:29Z</time></trkpt><trkpt lat="43.12699542401596" lon="10.91864785150934"><ele>640.0</ele><time>2026-04-26T09:22:30Z</time></trkpt><trkpt lat="43.12716990184493" lon="10.918552746306393"><ele>640.0</ele><time>2026-04-26T09:22:31Z</time></trkpt><trkpt lat="43.127380172224264" lon="10.918438130978162"><ele>636.0</ele><time>2026-04-26T09:22:32Z</time></trkpt><trkpt lat="43.12761402794113" lon="10.918309063087907"><ele>632.0</ele><time>2026-04-26T09:22:33Z</time></trkpt><trkpt lat="43.12786202164622" lon="10.918171447488922"><ele>632.0</ele><time>2026-04-26T09:22:34Z</time></trkpt><trkpt lat="43.128133302423265" lon="10.9180208915833"><ele>632.0</ele><time>2026-04-26T09:22:35Z</time></trkpt><trkpt lat="43.12839482150288" lon="10.917875604307612"><ele>630.0</ele><time>2026-04-26T09:22:36Z</time></trkpt><trkpt lat="43.1286168491727" lon="10.917743907507601"><ele>628.0</ele><time>2026-04-26T09:22:37Z</time></trkpt><trkpt lat="43.128845365674714" lon="10.917664907423202"><ele>628.0</ele><time>2026-04-26T09:22:38Z</time></trkpt><trkpt lat="43.12904859632716" lon="10.917604157075402"><ele>628.0</ele><time>2026-04-26T09:22:39Z</time></trkpt><trkpt lat="43.12923461994185" lon="10.917549232438896"><ele>628.0</ele><time>2026-04-26T09:22:40Z</time></trkpt><trkpt lat="43.12938351733985" lon="10.917446768297175"><ele>628.6666666666667</ele><time>2026-04-26T09:22:41Z</time></trkpt><trkpt lat="43.12948872918327" lon="10.9173040673376"><ele>629.3333333333334</ele><time>2026-04-26T09:22:42Z</time></trkpt><trkpt lat="43.12961199067275" lon="10.917097799885982"><ele>630.0</ele><time>2026-04-26T09:22:43Z</time></trkpt><trkpt lat="43.12965510657928" lon="10.916872890226122"><ele>625.6666666666666</ele><time>2026-04-26T09:22:44Z</time></trkpt><trkpt lat="43.129747020290466" lon="10.91658499133822"><ele>621.3333333333333</ele><time>2026-04-26T09:22:45Z</time></trkpt><trkpt lat="43.12981527651961" lon="10.916383966895351"><ele>617.0</ele><time>2026-04-26T09:22:46Z</time></trkpt><trkpt lat="43.12994607686477" lon="10.91623114497296"><ele>617.0</ele><time>2026-04-26T09:22:47Z</time></trkpt><trkpt lat="43.13011378912401" lon="10.91611335482273"><ele>617.0</ele><time>2026-04-26T09:22:48Z</time></trkpt><trkpt lat="43.1302091824074" lon="10.915898996241442"><ele>617.0</ele><time>2026-04-26T09:22:49Z</time></trkpt><trkpt lat="43.1302778928926" lon="10.915708723826986"><ele>620.6666666666666</ele><time>2026-04-26T09:22:50Z</time></trkpt><trkpt lat="43.130332432676546" lon="10.915446837917155"><ele>624.3333333333334</ele><time>2026-04-26T09:22:51Z</time></trkpt><trkpt lat="43.130328884485344" lon="10.915259259449593"><ele>628.0</ele><time>2026-04-26T09:22:52Z</time></trkpt><trkpt lat="43.130402393059605" lon="10.915131027566543"><ele>629.25</ele><time>2026-04-26T09:22:53Z</time></trkpt><trkpt lat="43.130484060086985" lon="10.915009458657416"><ele>630.5</ele><time>2026-04-26T09:22:54Z</time></trkpt><trkpt lat="43.130497877236515" lon="10.914858464334642"><ele>631.75</ele><time>2026-04-26T09:22:55Z</time></trkpt><trkpt lat="43.13047123190741" lon="10.91468145769596"><ele>633.0</ele><time>2026-04-26T09:22:56Z</time></trkpt><trkpt lat="43.130426759200425" lon="10.914523953990644"><ele>633.0</ele><time>2026-04-26T09:22:57Z</time></trkpt><trkpt lat="43.13042298983044" lon="10.914371504662666"><ele>633.0</ele><time>2026-04-26T09:22:58Z</time></trkpt><trkpt lat="43.1304828858269" lon="10.914179098175252"><ele>633.0</ele><time>2026-04-26T09:22:59Z</time></trkpt><trkpt lat="43.130573285927326" lon="10.913961152643685"><ele>633.0</ele><time>2026-04-26T09:23:00Z</time></trkpt><trkpt lat="43.1306723985192" lon="10.913744593034968"><ele>626.75</ele><time>2026-04-26T09:23:01Z</time></trkpt><trkpt lat="43.130749992459435" lon="10.913576079490461"><ele>620.5</ele><time>2026-04-26T09:23:02Z</time></trkpt><trkpt lat="43.13079121497237" lon="10.913402923631821"><ele>614.25</ele><time>2026-04-26T09:23:03Z</time></trkpt><trkpt lat="43.13077847218711" lon="10.913213059089852"><ele>608.0</ele><time>2026-04-26T09:23:04Z</time></trkpt><trkpt lat="43.130745679561905" lon="10.913048645538344"><ele>607.6</ele><time>2026-04-26T09:23:05Z</time></trkpt><trkpt lat="43.13072519400755" lon="10.91290660768104"><ele>607.1999999999999</ele><time>2026-04-26T09:23:06Z</time></trkpt><trkpt lat="43.130737315810926" lon="10.912769402704233"><ele>606.8</ele><time>2026-04-26T09:23:07Z</time></trkpt><trkpt lat="43.13078771702746" lon="10.912689325793634"><ele>606.4</ele><time>2026-04-26T09:23:08Z</time></trkpt><trkpt lat="43.13091487835354" lon="10.912613775219844"><ele>606.0</ele><time>2026-04-26T09:23:09Z</time></trkpt><trkpt lat="43.13106446141155" lon="10.91257645320655"><ele>606.0</ele><time>2026-04-26T09:23:10Z</time></trkpt><trkpt lat="43.13124363789361" lon="10.912601532814712"><ele>606.0</ele><time>2026-04-26T09:23:11Z</time></trkpt><trkpt lat="43.13142099737388" lon="10.91264032590283"><ele>606.0</ele><time>2026-04-26T09:23:12Z</time></trkpt><trkpt lat="43.131558956876155" lon="10.912687593354846"><ele>603.75</ele><time>2026-04-26T09:23:13Z</time></trkpt><trkpt lat="43.131665386421254" lon="10.912688788679949"><ele>601.5</ele><time>2026-04-26T09:23:14Z</time></trkpt><trkpt lat="43.131763646149544" lon="10.91266105061708"><ele>599.25</ele><time>2026-04-26T09:23:15Z</time></trkpt><trkpt lat="43.13181273482023" lon="10.912504487519001"><ele>597.0</ele><time>2026-04-26T09:23:16Z</time></trkpt><trkpt lat="43.13176836361645" lon="10.912337455712764"><ele>596.6666666666666</ele><time>2026-04-26T09:23:17Z</time></trkpt><trkpt lat="43.13169543253335" lon="10.9121556499519"><ele>596.3333333333333</ele><time>2026-04-26T09:23:18Z</time></trkpt><trkpt lat="43.13156075352171" lon="10.912027533719595"><ele>596.0</ele><time>2026-04-26T09:23:19Z</time></trkpt><trkpt lat="43.1314437128486" lon="10.911869330348718"><ele>592.0</ele><time>2026-04-26T09:23:20Z</time></trkpt><trkpt lat="43.13127738857395" lon="10.911650080294342"><ele>588.0</ele><time>2026-04-26T09:23:21Z</time></trkpt><trkpt lat="43.131180470393616" lon="10.911503911320594"><ele>584.0</ele><time>2026-04-26T09:23:22Z</time></trkpt><trkpt lat="43.13113827538618" lon="10.911316500857284"><ele>584.0</ele><time>2026-04-26T09:23:23Z</time></trkpt><trkpt lat="43.131136662520646" lon="10.91110562643455"><ele>584.0</ele><time>2026-04-26T09:23:24Z</time></trkpt><trkpt lat="43.131077385120044" lon="10.910949287628537"><ele>584.0</ele><time>2026-04-26T09:23:25Z</time></trkpt><trkpt lat="43.13101629301887" lon="10.910863089303012"><ele>584.0</ele><time>2026-04-26T09:23:26Z</time></trkpt><trkpt lat="43.13091133888734" lon="10.910815401432624"><ele>582.0</ele><time>2026-04-26T09:23:27Z</time></trkpt><trkpt lat="43.130838571222014" lon="10.910774324007384"><ele>580.0</ele><time>2026-04-26T09:23:28Z</time></trkpt><trkpt lat="43.130843756537544" lon="10.91060874701806"><ele>578.0</ele><time>2026-04-26T09:23:30Z</time></trkpt><trkpt lat="43.13092547582727" lon="10.910512317406642"><ele>576.0</ele><time>2026-04-26T09:23:31Z</time></trkpt><trkpt lat="43.13106073261348" lon="10.910511996076561"><ele>574.0</ele><time>2026-04-26T09:23:32Z</time></trkpt><trkpt lat="43.13116731191861" lon="10.910309492673438"><ele>574.0</ele><time>2026-04-26T09:23:33Z</time></trkpt><trkpt lat="43.13131969861022" lon="10.910196779170763"><ele>574.0</ele><time>2026-04-26T09:23:34Z</time></trkpt><trkpt lat="43.13151094427676" lon="10.910019956283081"><ele>574.0</ele><time>2026-04-26T09:23:35Z</time></trkpt><trkpt lat="43.13180680931428" lon="10.909986143353269"><ele>570.5</ele><time>2026-04-26T09:23:36Z</time></trkpt><trkpt lat="43.132167202458646" lon="10.909705063377883"><ele>567.0</ele><time>2026-04-26T09:23:37Z</time></trkpt><trkpt lat="43.13257306693471" lon="10.90939130514801"><ele>558.5</ele><time>2026-04-26T09:23:38Z</time></trkpt><trkpt lat="43.132847497418545" lon="10.909184962765867"><ele>550.0</ele><time>2026-04-26T09:23:39.001Z</time></trkpt><trkpt lat="43.133053367565694" lon="10.909014390363778"><ele>550.0</ele><time>2026-04-26T09:23:40.001Z</time></trkpt><trkpt lat="43.13319409148701" lon="10.908749454149191"><ele>550.0</ele><time>2026-04-26T09:23:41.001Z</time></trkpt><trkpt lat="43.13325460872984" lon="10.908520118872051"><ele>550.0</ele><time>2026-04-26T09:23:42.001Z</time></trkpt><trkpt lat="43.13329386537319" lon="10.908325446872391"><ele>550.75</ele><time>2026-04-26T09:23:43.001Z</time></trkpt><trkpt lat="43.13334928871709" lon="10.908151044953883"><ele>551.5</ele><time>2026-04-26T09:23:44.001Z</time></trkpt><trkpt lat="43.1334082016229" lon="10.908045438677032"><ele>552.25</ele><time>2026-04-26T09:23:45.001Z</time></trkpt><trkpt lat="43.13343412774792" lon="10.90786978484764"><ele>553.0</ele><time>2026-04-26T09:23:46.001Z</time></trkpt><trkpt lat="43.13357793504672" lon="10.907808794904236"><ele>553.0</ele><time>2026-04-26T09:23:47.001Z</time></trkpt><trkpt lat="43.1337127540193" lon="10.907811692938223"><ele>553.0</ele><time>2026-04-26T09:23:48.001Z</time></trkpt><trkpt lat="43.1338435248882" lon="10.907951690870233"><ele>553.0</ele><time>2026-04-26T09:23:49.001Z</time></trkpt><trkpt lat="43.13404437349447" lon="10.908010297434519"><ele>555.3333333333334</ele><time>2026-04-26T09:23:50.001Z</time></trkpt><trkpt lat="43.13423086423318" lon="10.908064055544074"><ele>557.6666666666666</ele><time>2026-04-26T09:23:51.001Z</time></trkpt><trkpt lat="43.134437046509106" lon="10.90811493364738"><ele>560.0</ele><time>2026-04-26T09:23:52.001Z</time></trkpt><trkpt lat="43.13462134862068" lon="10.908106443372718"><ele>560.0</ele><time>2026-04-26T09:23:53.001Z</time></trkpt><trkpt lat="43.13481115742875" lon="10.90803957883737"><ele>560.0</ele><time>2026-04-26T09:23:54.001Z</time></trkpt><trkpt lat="43.13502558586695" lon="10.90793256707336"><ele>560.0</ele><time>2026-04-26T09:23:55.001Z</time></trkpt><trkpt lat="43.13522235516419" lon="10.907813646412885"><ele>560.0</ele><time>2026-04-26T09:23:56.001Z</time></trkpt><trkpt lat="43.13534774756107" lon="10.907706760014047"><ele>560.0</ele><time>2026-04-26T09:23:57.001Z</time></trkpt><trkpt lat="43.135438716313594" lon="10.907589122529922"><ele>560.0</ele><time>2026-04-26T09:23:58.001Z</time></trkpt><trkpt lat="43.135508119948575" lon="10.907408107516316"><ele>560.0</ele><time>2026-04-26T09:23:59.001Z</time></trkpt><trkpt lat="43.135569469729454" lon="10.90715666750756"><ele>560.0</ele><time>2026-04-26T09:24:00.001Z</time></trkpt><trkpt lat="43.13562909326028" lon="10.906907331201943"><ele>560.0</ele><time>2026-04-26T09:24:01.001Z</time></trkpt><trkpt lat="43.13567299838883" lon="10.906713062833672"><ele>560.0</ele><time>2026-04-26T09:24:02.001Z</time></trkpt><trkpt lat="43.13572485316761" lon="10.906572533172273"><ele>562.6666666666666</ele><time>2026-04-26T09:24:03.001Z</time></trkpt><trkpt lat="43.13580753178486" lon="10.906479323237875"><ele>565.3333333333334</ele><time>2026-04-26T09:24:04.001Z</time></trkpt><trkpt lat="43.135952146365995" lon="10.906384111332578"><ele>568.0</ele><time>2026-04-26T09:24:05.001Z</time></trkpt><trkpt lat="43.136129545562376" lon="10.90628461215149"><ele>568.0</ele><time>2026-04-26T09:24:06.001Z</time></trkpt><trkpt lat="43.136347880633224" lon="10.906145250741206"><ele>568.0</ele><time>2026-04-26T09:24:07.001Z</time></trkpt><trkpt lat="43.136598737552724" lon="10.90601219610835"><ele>569.0</ele><time>2026-04-26T09:24:08.001Z</time></trkpt><trkpt lat="43.13680052256317" lon="10.905895609575758"><ele>570.0</ele><time>2026-04-26T09:24:09.001Z</time></trkpt><trkpt lat="43.13697509728952" lon="10.905790049111324"><ele>571.0</ele><time>2026-04-26T09:24:10.001Z</time></trkpt><trkpt lat="43.13717758058579" lon="10.905737680833724"><ele>575.0</ele><time>2026-04-26T09:24:11.001Z</time></trkpt><trkpt lat="43.137428466637516" lon="10.905699439021978"><ele>579.0</ele><time>2026-04-26T09:24:12Z</time></trkpt><trkpt lat="43.13768349611003" lon="10.905686717157458"><ele>579.0</ele><time>2026-04-26T09:24:13Z</time></trkpt><trkpt lat="43.137918100695416" lon="10.90565822868798"><ele>579.0</ele><time>2026-04-26T09:24:14Z</time></trkpt><trkpt lat="43.13818475505541" lon="10.90567341789452"><ele>578.5</ele><time>2026-04-26T09:24:15Z</time></trkpt><trkpt lat="43.13847777237747" lon="10.90571686894022"><ele>578.0</ele><time>2026-04-26T09:24:16Z</time></trkpt><trkpt lat="43.13878125109723" lon="10.905760077266486"><ele>576.0</ele><time>2026-04-26T09:24:17Z</time></trkpt><trkpt lat="43.13909597542126" lon="10.905813158892318"><ele>574.0</ele><time>2026-04-26T09:24:18Z</time></trkpt><trkpt lat="43.139362180230975" lon="10.905855288991592"><ele>574.0</ele><time>2026-04-26T09:24:19Z</time></trkpt><trkpt lat="43.13959966498804" lon="10.905891810663519"><ele>574.0</ele><time>2026-04-26T09:24:20Z</time></trkpt><trkpt lat="43.13981078255856" lon="10.905920316307416"><ele>571.0</ele><time>2026-04-26T09:24:21Z</time></trkpt><trkpt lat="43.140011406837445" lon="10.905890126698488"><ele>568.0</ele><time>2026-04-26T09:24:22Z</time></trkpt><trkpt lat="43.14017181934742" lon="10.905856442213867"><ele>565.0</ele><time>2026-04-26T09:24:23Z</time></trkpt><trkpt lat="43.14033076986206" lon="10.905758359665816"><ele>565.0</ele><time>2026-04-26T09:24:24Z</time></trkpt><trkpt lat="43.14050732816328" lon="10.905593858513983"><ele>565.0</ele><time>2026-04-26T09:24:25Z</time></trkpt><trkpt lat="43.140705399358815" lon="10.905387068886917"><ele>563.5</ele><time>2026-04-26T09:24:26Z</time></trkpt><trkpt lat="43.14093647049228" lon="10.905165297381558"><ele>562.0</ele><time>2026-04-26T09:24:27Z</time></trkpt><trkpt lat="43.14116457868088" lon="10.904942206980225"><ele>561.6666666666667</ele><time>2026-04-26T09:24:28Z</time></trkpt><trkpt lat="43.14133724314394" lon="10.904776974427136"><ele>561.3333333333334</ele><time>2026-04-26T09:24:29Z</time></trkpt><trkpt lat="43.14147202663906" lon="10.904650292552587"><ele>561.0</ele><time>2026-04-26T09:24:30Z</time></trkpt><trkpt lat="43.14156905165385" lon="10.904530035760642"><ele>561.0</ele><time>2026-04-26T09:24:31Z</time></trkpt><trkpt lat="43.14161814974128" lon="10.904377856626516"><ele>561.0</ele><time>2026-04-26T09:24:32Z</time></trkpt><trkpt lat="43.14161867524303" lon="10.904197629989786"><ele>561.0</ele><time>2026-04-26T09:24:33Z</time></trkpt><trkpt lat="43.1415406292306" lon="10.90399226400889"><ele>561.0</ele><time>2026-04-26T09:24:34Z</time></trkpt><trkpt lat="43.141456205223676" lon="10.903807780008236"><ele>559.75</ele><time>2026-04-26T09:24:35Z</time></trkpt><trkpt lat="43.141404983208275" lon="10.903645754972295"><ele>558.5</ele><time>2026-04-26T09:24:36Z</time></trkpt><trkpt lat="43.14140213577151" lon="10.903447250210542"><ele>557.25</ele><time>2026-04-26T09:24:37Z</time></trkpt><trkpt lat="43.14147386759837" lon="10.903258535767236"><ele>556.0</ele><time>2026-04-26T09:24:38Z</time></trkpt><trkpt lat="43.141557224226375" lon="10.903029641259392"><ele>561.0</ele><time>2026-04-26T09:24:39Z</time></trkpt><trkpt lat="43.14164260047331" lon="10.902797149881257"><ele>566.0</ele><time>2026-04-26T09:24:40Z</time></trkpt><trkpt lat="43.14169812622522" lon="10.902623244552977"><ele>571.0</ele><time>2026-04-26T09:24:41Z</time></trkpt><trkpt lat="43.1417889915178" lon="10.90250696499009"><ele>571.0</ele><time>2026-04-26T09:24:42Z</time></trkpt><trkpt lat="43.1419166392379" lon="10.902426656634994"><ele>571.0</ele><time>2026-04-26T09:24:43Z</time></trkpt><trkpt lat="43.142057351922375" lon="10.902462645155408"><ele>571.0</ele><time>2026-04-26T09:24:44Z</time></trkpt><trkpt lat="43.142210679474985" lon="10.90250527998757"><ele>571.0</ele><time>2026-04-26T09:24:45Z</time></trkpt><trkpt lat="43.14239508332958" lon="10.902521909809149"><ele>573.6666666666667</ele><time>2026-04-26T09:24:46Z</time></trkpt><trkpt lat="43.14260839111608" lon="10.902513044709286"><ele>576.3333333333334</ele><time>2026-04-26T09:24:47Z</time></trkpt><trkpt lat="43.14283943871492" lon="10.902449434749904"><ele>579.0</ele><time>2026-04-26T09:24:48Z</time></trkpt><trkpt lat="43.14304803428006" lon="10.90236680992661"><ele>582.0</ele><time>2026-04-26T09:24:49Z</time></trkpt><trkpt lat="43.143214765585405" lon="10.902264915509052"><ele>585.0</ele><time>2026-04-26T09:24:50Z</time></trkpt><trkpt lat="43.143370770320914" lon="10.902145980103457"><ele>588.0</ele><time>2026-04-26T09:24:51Z</time></trkpt><trkpt lat="43.14350313214729" lon="10.901992430058632"><ele>588.0</ele><time>2026-04-26T09:24:52Z</time></trkpt><trkpt lat="43.14361545528825" lon="10.901780767704595"><ele>588.0</ele><time>2026-04-26T09:24:53Z</time></trkpt><trkpt lat="43.143689552625716" lon="10.901551939617736"><ele>588.0</ele><time>2026-04-26T09:24:54Z</time></trkpt><trkpt lat="43.14373747334809" lon="10.901264208622752"><ele>584.0</ele><time>2026-04-26T09:24:55Z</time></trkpt><trkpt lat="43.14379451134984" lon="10.90095954287218"><ele>580.0</ele><time>2026-04-26T09:24:56Z</time></trkpt><trkpt lat="43.14391995107552" lon="10.900650943579999"><ele>578.5</ele><time>2026-04-26T09:24:57Z</time></trkpt><trkpt lat="43.14403364943977" lon="10.900291320984216"><ele>577.0</ele><time>2026-04-26T09:24:58Z</time></trkpt><trkpt lat="43.14414470154633" lon="10.900006135723"><ele>581.6666666666667</ele><time>2026-04-26T09:24:59Z</time></trkpt><trkpt lat="43.14423452692252" lon="10.899759931560597"><ele>586.3333333333334</ele><time>2026-04-26T09:25:00Z</time></trkpt><trkpt lat="43.14431582168415" lon="10.899550845174431"><ele>591.0</ele><time>2026-04-26T09:25:01Z</time></trkpt><trkpt lat="43.1444037913017" lon="10.899362364911237"><ele>588.0</ele><time>2026-04-26T09:25:02Z</time></trkpt><trkpt lat="43.14453020932089" lon="10.899197792542648"><ele>585.0</ele><time>2026-04-26T09:25:03Z</time></trkpt><trkpt lat="43.14470229157917" lon="10.899081418101103"><ele>582.0</ele><time>2026-04-26T09:25:04Z</time></trkpt><trkpt lat="43.14483818623692" lon="10.898957904762716"><ele>587.3333333333334</ele><time>2026-04-26T09:25:05Z</time></trkpt><trkpt lat="43.1449517532424" lon="10.898839025222799"><ele>592.6666666666667</ele><time>2026-04-26T09:25:06Z</time></trkpt><trkpt lat="43.145046432400406" lon="10.898658362066016"><ele>598.0</ele><time>2026-04-26T09:25:07Z</time></trkpt><trkpt lat="43.14512691663797" lon="10.898437786130671"><ele>596.0</ele><time>2026-04-26T09:25:08Z</time></trkpt><trkpt lat="43.1451786577859" lon="10.898225246027025"><ele>594.0</ele><time>2026-04-26T09:25:09Z</time></trkpt><trkpt lat="43.14519568026719" lon="10.89803786831533"><ele>592.0</ele><time>2026-04-26T09:25:10Z</time></trkpt><trkpt lat="43.145148855555085" lon="10.897846252560676"><ele>590.0</ele><time>2026-04-26T09:25:11Z</time></trkpt><trkpt lat="43.14503779614654" lon="10.897636725172987"><ele>591.3333333333333</ele><time>2026-04-26T09:25:12Z</time></trkpt><trkpt lat="43.14491343616912" lon="10.89740103622267"><ele>592.6666666666666</ele><time>2026-04-26T09:25:13Z</time></trkpt><trkpt lat="43.14482425194012" lon="10.897205897646554"><ele>594.0</ele><time>2026-04-26T09:25:14Z</time></trkpt><trkpt lat="43.144784000373285" lon="10.897005955963634"><ele>590.6666666666666</ele><time>2026-04-26T09:25:15Z</time></trkpt><trkpt lat="43.14477930003439" lon="10.896766673745445"><ele>587.3333333333333</ele><time>2026-04-26T09:25:16Z</time></trkpt><trkpt lat="43.14478975252547" lon="10.896517653802032"><ele>584.0</ele><time>2026-04-26T09:25:17Z</time></trkpt><trkpt lat="43.14478854225741" lon="10.89631830429502"><ele>584.0</ele><time>2026-04-26T09:25:18Z</time></trkpt><trkpt lat="43.14473113444504" lon="10.89615279274888"><ele>584.0</ele><time>2026-04-26T09:25:19Z</time></trkpt><trkpt lat="43.144622722115194" lon="10.89599722726666"><ele>584.0</ele><time>2026-04-26T09:25:20Z</time></trkpt><trkpt lat="43.14449162247079" lon="10.895820771442626"><ele>586.25</ele><time>2026-04-26T09:25:21Z</time></trkpt><trkpt lat="43.1443966448526" lon="10.895676165728968"><ele>588.5</ele><time>2026-04-26T09:25:22Z</time></trkpt><trkpt lat="43.14436068943916" lon="10.895517438754872"><ele>590.75</ele><time>2026-04-26T09:25:23Z</time></trkpt><trkpt lat="43.1443783893071" lon="10.895356114722944"><ele>593.0</ele><time>2026-04-26T09:25:24Z</time></trkpt><trkpt lat="43.14443186608694" lon="10.895207726872803"><ele>593.0</ele><time>2026-04-26T09:25:25Z</time></trkpt><trkpt lat="43.14450714756884" lon="10.89509182993934"><ele>593.0</ele><time>2026-04-26T09:25:26Z</time></trkpt><trkpt lat="43.144514794955306" lon="10.894951683985932"><ele>593.0</ele><time>2026-04-26T09:25:27Z</time></trkpt><trkpt lat="43.144460851135385" lon="10.894779203788488"><ele>593.0</ele><time>2026-04-26T09:25:28Z</time></trkpt><trkpt lat="43.144349563103354" lon="10.894630388660843"><ele>592.3333333333333</ele><time>2026-04-26T09:25:29Z</time></trkpt><trkpt lat="43.144190458625005" lon="10.89450403831419"><ele>591.6666666666666</ele><time>2026-04-26T09:25:30Z</time></trkpt><trkpt lat="43.14406475778715" lon="10.894391956192667"><ele>591.0</ele><time>2026-04-26T09:25:31Z</time></trkpt><trkpt lat="43.143989136949074" lon="10.894244648474583"><ele>591.0</ele><time>2026-04-26T09:25:32Z</time></trkpt><trkpt lat="43.14396150665179" lon="10.894099393765043"><ele>591.0</ele><time>2026-04-26T09:25:33Z</time></trkpt><trkpt lat="43.143980204118215" lon="10.893943124761327"><ele>591.0</ele><time>2026-04-26T09:25:34Z</time></trkpt><trkpt lat="43.14405920455545" lon="10.893810520777896"><ele>591.0</ele><time>2026-04-26T09:25:35Z</time></trkpt><trkpt lat="43.14418024879679" lon="10.89367595126053"><ele>596.3333333333334</ele><time>2026-04-26T09:25:36Z</time></trkpt><trkpt lat="43.144319327471244" lon="10.893613854850608"><ele>601.6666666666667</ele><time>2026-04-26T09:25:37Z</time></trkpt><trkpt lat="43.144496885115615" lon="10.893554940338081"><ele>607.0</ele><time>2026-04-26T09:25:38Z</time></trkpt><trkpt lat="43.14468105189502" lon="10.893505197162753"><ele>607.0</ele><time>2026-04-26T09:25:39Z</time></trkpt><trkpt lat="43.14481694889537" lon="10.893441112135642"><ele>607.0</ele><time>2026-04-26T09:25:40Z</time></trkpt><trkpt lat="43.144936379171895" lon="10.893325760663604"><ele>607.0</ele><time>2026-04-26T09:25:41Z</time></trkpt><trkpt lat="43.14500402574686" lon="10.893089320926737"><ele>609.5</ele><time>2026-04-26T09:25:42Z</time></trkpt><trkpt lat="43.14508292670035" lon="10.892827567136743"><ele>612.0</ele><time>2026-04-26T09:25:43Z</time></trkpt><trkpt lat="43.145177265924374" lon="10.892519504494112"><ele>612.0</ele><time>2026-04-26T09:25:44.001Z</time></trkpt><trkpt lat="43.14522999400329" lon="10.89213030988931"><ele>612.0</ele><time>2026-04-26T09:25:45.001Z</time></trkpt><trkpt lat="43.14525440089941" lon="10.891744390313574"><ele>612.0</ele><time>2026-04-26T09:25:46.001Z</time></trkpt><trkpt lat="43.14528409940029" lon="10.89140281740676"><ele>612.0</ele><time>2026-04-26T09:25:47.001Z</time></trkpt><trkpt lat="43.14528208182737" lon="10.891077785096385"><ele>613.0</ele><time>2026-04-26T09:25:48.001Z</time></trkpt><trkpt lat="43.14528422530845" lon="10.890749755105563"><ele>614.0</ele><time>2026-04-26T09:25:49.001Z</time></trkpt><trkpt lat="43.145253687882565" lon="10.890362667479328"><ele>617.0</ele><time>2026-04-26T09:25:50.001Z</time></trkpt><trkpt lat="43.14521913952026" lon="10.889945764477076"><ele>620.0</ele><time>2026-04-26T09:25:51.001Z</time></trkpt><trkpt lat="43.14520170108605" lon="10.889565564312313"><ele>620.0</ele><time>2026-04-26T09:25:52.001Z</time></trkpt><trkpt lat="43.1451862403338" lon="10.889283087976418"><ele>620.0</ele><time>2026-04-26T09:25:53.001Z</time></trkpt><trkpt lat="43.14516366596417" lon="10.88900787852996"><ele>620.0</ele><time>2026-04-26T09:25:54.001Z</time></trkpt><trkpt lat="43.14514664689729" lon="10.888741917841026"><ele>620.3333333333333</ele><time>2026-04-26T09:25:55.001Z</time></trkpt><trkpt lat="43.145143494084365" lon="10.888501572062031"><ele>620.6666666666666</ele><time>2026-04-26T09:25:56.001Z</time></trkpt><trkpt lat="43.14515610318846" lon="10.888270809876161"><ele>621.0</ele><time>2026-04-26T09:25:57.001Z</time></trkpt><trkpt lat="43.14521308638334" lon="10.888077294651788"><ele>621.0</ele><time>2026-04-26T09:25:58.001Z</time></trkpt><trkpt lat="43.14531625108543" lon="10.887880397329397"><ele>621.0</ele><time>2026-04-26T09:25:59.001Z</time></trkpt><trkpt lat="43.14546015432287" lon="10.88768136236678"><ele>621.0</ele><time>2026-04-26T09:26:00.001Z</time></trkpt><trkpt lat="43.145623439663325" lon="10.887465750011708"><ele>622.0</ele><time>2026-04-26T09:26:01.001Z</time></trkpt><trkpt lat="43.145778140691164" lon="10.88727413263841"><ele>623.0</ele><time>2026-04-26T09:26:02.001Z</time></trkpt><trkpt lat="43.14591039316327" lon="10.887119792921256"><ele>624.0</ele><time>2026-04-26T09:26:03.001Z</time></trkpt><trkpt lat="43.1459981834643" lon="10.886966900914839"><ele>624.0</ele><time>2026-04-26T09:26:04.001Z</time></trkpt><trkpt lat="43.146049067290534" lon="10.8867924714174"><ele>624.0</ele><time>2026-04-26T09:26:05.001Z</time></trkpt><trkpt lat="43.14605695583396" lon="10.886582125687633"><ele>624.0</ele><time>2026-04-26T09:26:06.001Z</time></trkpt><trkpt lat="43.146031464415316" lon="10.886360007834897"><ele>623.75</ele><time>2026-04-26T09:26:07.001Z</time></trkpt><trkpt lat="43.14597481013787" lon="10.886157493893633"><ele>623.5</ele><time>2026-04-26T09:26:08.001Z</time></trkpt><trkpt lat="43.14592813374685" lon="10.886012079104278"><ele>623.25</ele><time>2026-04-26T09:26:09.001Z</time></trkpt><trkpt lat="43.14590924762501" lon="10.885908775408424"><ele>623.0</ele><time>2026-04-26T09:26:10.001Z</time></trkpt><trkpt lat="43.145966019439165" lon="10.885768241815995"><ele>622.5</ele><time>2026-04-26T09:26:12.001Z</time></trkpt><trkpt lat="43.14606161884141" lon="10.88572876640977"><ele>622.0</ele><time>2026-04-26T09:26:13.001Z</time></trkpt><trkpt lat="43.146197551839165" lon="10.88579536501415"><ele>621.5</ele><time>2026-04-26T09:26:14.001Z</time></trkpt><trkpt lat="43.14637782421493" lon="10.8858415099053"><ele>621.0</ele><time>2026-04-26T09:26:15.001Z</time></trkpt><trkpt lat="43.146588566772785" lon="10.885936298368131"><ele>619.5</ele><time>2026-04-26T09:26:16.001Z</time></trkpt><trkpt lat="43.14683173358355" lon="10.886023489224186"><ele>618.0</ele><time>2026-04-26T09:26:17.001Z</time></trkpt><trkpt lat="43.14708133723289" lon="10.886086309660474"><ele>618.0</ele><time>2026-04-26T09:26:18Z</time></trkpt><trkpt lat="43.14734032171386" lon="10.886103029392569"><ele>618.0</ele><time>2026-04-26T09:26:19Z</time></trkpt><trkpt lat="43.14758018708328" lon="10.886073255421687"><ele>613.6666666666666</ele><time>2026-04-26T09:26:20Z</time></trkpt><trkpt lat="43.147774777229884" lon="10.886076528594062"><ele>609.3333333333333</ele><time>2026-04-26T09:26:21Z</time></trkpt><trkpt lat="43.14794500993548" lon="10.886109887442538"><ele>605.0</ele><time>2026-04-26T09:26:22Z</time></trkpt><trkpt lat="43.148099235808566" lon="10.886193939517076"><ele>605.5</ele><time>2026-04-26T09:26:23Z</time></trkpt><trkpt lat="43.148257626800195" lon="10.886337843953566"><ele>606.0</ele><time>2026-04-26T09:26:24Z</time></trkpt><trkpt lat="43.14848013093028" lon="10.886527114911084"><ele>606.0</ele><time>2026-04-26T09:26:25Z</time></trkpt><trkpt lat="43.14867115215319" lon="10.886699616123277"><ele>606.0</ele><time>2026-04-26T09:26:26Z</time></trkpt><trkpt lat="43.14883305591309" lon="10.886822898823757"><ele>606.0</ele><time>2026-04-26T09:26:27Z</time></trkpt><trkpt lat="43.14898007356373" lon="10.886913300046992"><ele>606.0</ele><time>2026-04-26T09:26:28Z</time></trkpt><trkpt lat="43.14911717493328" lon="10.886951833574779"><ele>606.0</ele><time>2026-04-26T09:26:29Z</time></trkpt><trkpt lat="43.14924509298485" lon="10.886960245163925"><ele>606.0</ele><time>2026-04-26T09:26:30Z</time></trkpt><trkpt lat="43.14936189774998" lon="10.886928683840882"><ele>606.0</ele><time>2026-04-26T09:26:31Z</time></trkpt><trkpt lat="43.14944953795687" lon="10.88681826921901"><ele>609.3333333333334</ele><time>2026-04-26T09:26:32Z</time></trkpt><trkpt lat="43.149559169709484" lon="10.886653013619979"><ele>612.6666666666667</ele><time>2026-04-26T09:26:33Z</time></trkpt><trkpt lat="43.149639346627126" lon="10.886434509516487"><ele>616.0</ele><time>2026-04-26T09:26:34Z</time></trkpt><trkpt lat="43.14968842440176" lon="10.886242775277388"><ele>616.0</ele><time>2026-04-26T09:26:35Z</time></trkpt><trkpt lat="43.149686958959286" lon="10.886049838674142"><ele>616.0</ele><time>2026-04-26T09:26:36Z</time></trkpt><trkpt lat="43.149631449918544" lon="10.885845691043377"><ele>616.0</ele><time>2026-04-26T09:26:37Z</time></trkpt><trkpt lat="43.149607786424546" lon="10.885683440292867"><ele>616.0</ele><time>2026-04-26T09:26:38Z</time></trkpt><trkpt lat="43.149629138763956" lon="10.885554099841235"><ele>616.75</ele><time>2026-04-26T09:26:39Z</time></trkpt><trkpt lat="43.14968223455775" lon="10.885449113376762"><ele>617.5</ele><time>2026-04-26T09:26:40Z</time></trkpt><trkpt lat="43.149757123943594" lon="10.885338537787371"><ele>618.25</ele><time>2026-04-26T09:26:41Z</time></trkpt><trkpt lat="43.14988755968023" lon="10.885344323689957"><ele>619.0</ele><time>2026-04-26T09:26:42Z</time></trkpt><trkpt lat="43.15007950437017" lon="10.88530087832984"><ele>614.0</ele><time>2026-04-26T09:26:43Z</time></trkpt><trkpt lat="43.150304260737975" lon="10.885268010196818"><ele>609.0</ele><time>2026-04-26T09:26:44Z</time></trkpt><trkpt lat="43.15053654748766" lon="10.88527395376207"><ele>606.3333333333334</ele><time>2026-04-26T09:26:45Z</time></trkpt><trkpt lat="43.150725285651774" lon="10.885305807922151"><ele>603.6666666666667</ele><time>2026-04-26T09:26:46Z</time></trkpt><trkpt lat="43.15088266965433" lon="10.88534138412668"><ele>601.0</ele><time>2026-04-26T09:26:47Z</time></trkpt><trkpt lat="43.15102366801585" lon="10.88531324933614"><ele>601.0</ele><time>2026-04-26T09:26:48Z</time></trkpt><trkpt lat="43.151139766281915" lon="10.885264088187318"><ele>601.0</ele><time>2026-04-26T09:26:49Z</time></trkpt><trkpt lat="43.15124424750806" lon="10.885134268067624"><ele>601.0</ele><time>2026-04-26T09:26:50Z</time></trkpt><trkpt lat="43.15133270606438" lon="10.884923908496942"><ele>601.0</ele><time>2026-04-26T09:26:51Z</time></trkpt><trkpt lat="43.15138716828942" lon="10.884742717017984"><ele>601.2</ele><time>2026-04-26T09:26:52Z</time></trkpt><trkpt lat="43.151397925317596" lon="10.884593242615603"><ele>601.4000000000001</ele><time>2026-04-26T09:26:53Z</time></trkpt><trkpt lat="43.15144753310193" lon="10.884478587583937"><ele>601.6</ele><time>2026-04-26T09:26:54Z</time></trkpt><trkpt lat="43.1515040403758" lon="10.884415832485306"><ele>601.8000000000001</ele><time>2026-04-26T09:26:55Z</time></trkpt><trkpt lat="43.15158725701829" lon="10.884371374372467"><ele>602.0</ele><time>2026-04-26T09:26:56Z</time></trkpt><trkpt lat="43.15170795085298" lon="10.884343906092337"><ele>602.0</ele><time>2026-04-26T09:26:57Z</time></trkpt><trkpt lat="43.15186463557515" lon="10.884359761419448"><ele>602.0</ele><time>2026-04-26T09:26:58Z</time></trkpt><trkpt lat="43.15206134139641" lon="10.884361415273057"><ele>602.0</ele><time>2026-04-26T09:26:59Z</time></trkpt><trkpt lat="43.152284129570894" lon="10.884272937292076"><ele>606.0</ele><time>2026-04-26T09:27:00Z</time></trkpt><trkpt lat="43.152491680346" lon="10.884201393604238"><ele>610.0</ele><time>2026-04-26T09:27:01Z</time></trkpt><trkpt lat="43.15266209661524" lon="10.88420035988961"><ele>614.0</ele><time>2026-04-26T09:27:02Z</time></trkpt><trkpt lat="43.15278456623801" lon="10.884202875720995"><ele>609.0</ele><time>2026-04-26T09:27:03Z</time></trkpt><trkpt lat="43.152910722267855" lon="10.884283137759402"><ele>604.0</ele><time>2026-04-26T09:27:04Z</time></trkpt><trkpt lat="43.153039940527144" lon="10.884414328411983"><ele>599.0</ele><time>2026-04-26T09:27:05Z</time></trkpt><trkpt lat="43.153142386860814" lon="10.8845950923389"><ele>599.0</ele><time>2026-04-26T09:27:06Z</time></trkpt><trkpt lat="43.153203489967126" lon="10.884740909102142"><ele>599.0</ele><time>2026-04-26T09:27:07Z</time></trkpt><trkpt lat="43.15327051979021" lon="10.884834860071466"><ele>599.0</ele><time>2026-04-26T09:27:08Z</time></trkpt><trkpt lat="43.1533601381308" lon="10.884895139088703"><ele>599.0</ele><time>2026-04-26T09:27:09Z</time></trkpt><trkpt lat="43.15346014584148" lon="10.884851643568862"><ele>599.0</ele><time>2026-04-26T09:27:10Z</time></trkpt><trkpt lat="43.15352656754114" lon="10.884720261786597"><ele>600.3333333333333</ele><time>2026-04-26T09:27:11Z</time></trkpt><trkpt lat="43.15353777173429" lon="10.88453075234345"><ele>601.6666666666666</ele><time>2026-04-26T09:27:12Z</time></trkpt><trkpt lat="43.153555582257184" lon="10.884301454465081"><ele>603.0</ele><time>2026-04-26T09:27:13Z</time></trkpt><trkpt lat="43.153604418879546" lon="10.884042355891316"><ele>605.3333333333334</ele><time>2026-04-26T09:27:14Z</time></trkpt><trkpt lat="43.1536659683464" lon="10.883765600185512"><ele>607.6666666666667</ele><time>2026-04-26T09:27:15Z</time></trkpt><trkpt lat="43.15374295334084" lon="10.883493347025398"><ele>610.0</ele><time>2026-04-26T09:27:16Z</time></trkpt><trkpt lat="43.15382102461978" lon="10.883273740032756"><ele>612.25</ele><time>2026-04-26T09:27:17Z</time></trkpt><trkpt lat="43.153879537007754" lon="10.883103762832222"><ele>614.5</ele><time>2026-04-26T09:27:18Z</time></trkpt><trkpt lat="43.153926604965605" lon="10.882953689895038"><ele>616.75</ele><time>2026-04-26T09:27:19Z</time></trkpt><trkpt lat="43.15396787565936" lon="10.882801756485273"><ele>619.0</ele><time>2026-04-26T09:27:20Z</time></trkpt><trkpt lat="43.153939478481654" lon="10.88261378100416"><ele>619.8</ele><time>2026-04-26T09:27:21Z</time></trkpt><trkpt lat="43.1538962484895" lon="10.882453918637049"><ele>620.5999999999999</ele><time>2026-04-26T09:27:22Z</time></trkpt><trkpt lat="43.153869117031476" lon="10.882339383281462"><ele>621.4</ele><time>2026-04-26T09:27:23Z</time></trkpt><trkpt lat="43.15386458676569" lon="10.8822378596871"><ele>622.1999999999999</ele><time>2026-04-26T09:27:24Z</time></trkpt><trkpt lat="43.153899645766465" lon="10.882129872034328"><ele>623.0</ele><time>2026-04-26T09:27:25Z</time></trkpt><trkpt lat="43.15398259458563" lon="10.882053729256953"><ele>620.4</ele><time>2026-04-26T09:27:26Z</time></trkpt><trkpt lat="43.15407875927338" lon="10.882044990594395"><ele>617.8</ele><time>2026-04-26T09:27:27Z</time></trkpt><trkpt lat="43.15417755747052" lon="10.882104200475574"><ele>615.2</ele><time>2026-04-26T09:27:28Z</time></trkpt><trkpt lat="43.15427325971763" lon="10.882179314125546"><ele>612.6</ele><time>2026-04-26T09:27:29Z</time></trkpt><trkpt lat="43.15437283195752" lon="10.882184194059672"><ele>610.0</ele><time>2026-04-26T09:27:30Z</time></trkpt><trkpt lat="43.15446549106187" lon="10.882130278930623"><ele>610.0</ele><time>2026-04-26T09:27:31Z</time></trkpt><trkpt lat="43.15458053808452" lon="10.88198828103237"><ele>610.0</ele><time>2026-04-26T09:27:32Z</time></trkpt><trkpt lat="43.15469027282798" lon="10.881785944956603"><ele>610.0</ele><time>2026-04-26T09:27:33Z</time></trkpt><trkpt lat="43.15481327236067" lon="10.881539519424095"><ele>608.0</ele><time>2026-04-26T09:27:34Z</time></trkpt><trkpt lat="43.15497639916199" lon="10.881301025595395"><ele>606.0</ele><time>2026-04-26T09:27:35Z</time></trkpt><trkpt lat="43.15518590971064" lon="10.881037892798842"><ele>612.0</ele><time>2026-04-26T09:27:36Z</time></trkpt><trkpt lat="43.155378161571285" lon="10.88078090171021"><ele>618.0</ele><time>2026-04-26T09:27:37Z</time></trkpt><trkpt lat="43.15551725148557" lon="10.88059181879287"><ele>618.0</ele><time>2026-04-26T09:27:38Z</time></trkpt><trkpt lat="43.15562040679966" lon="10.880457129749367"><ele>618.0</ele><time>2026-04-26T09:27:39Z</time></trkpt><trkpt lat="43.155718428926185" lon="10.880359813754444"><ele>618.0</ele><time>2026-04-26T09:27:40Z</time></trkpt><trkpt lat="43.15585222776487" lon="10.880319645837599"><ele>618.0</ele><time>2026-04-26T09:27:41Z</time></trkpt><trkpt lat="43.15597621965088" lon="10.880280770382107"><ele>616.25</ele><time>2026-04-26T09:27:42Z</time></trkpt><trkpt lat="43.15607578051018" lon="10.880248591909957"><ele>614.5</ele><time>2026-04-26T09:27:43Z</time></trkpt><trkpt lat="43.156142458824924" lon="10.880153315999644"><ele>612.75</ele><time>2026-04-26T09:27:44Z</time></trkpt><trkpt lat="43.15613384863746" lon="10.879970150979284"><ele>611.0</ele><time>2026-04-26T09:27:45Z</time></trkpt><trkpt lat="43.15611703760124" lon="10.879758165542478"><ele>611.0</ele><time>2026-04-26T09:27:46Z</time></trkpt><trkpt lat="43.15611221344695" lon="10.879551381867502"><ele>611.0</ele><time>2026-04-26T09:27:47Z</time></trkpt><trkpt lat="43.156128358795385" lon="10.879357856624761"><ele>611.0</ele><time>2026-04-26T09:27:48Z</time></trkpt><trkpt lat="43.15615325351773" lon="10.879202628569383"><ele>611.0</ele><time>2026-04-26T09:27:49Z</time></trkpt><trkpt lat="43.156196324732484" lon="10.879112287352722"><ele>611.0</ele><time>2026-04-26T09:27:50Z</time></trkpt><trkpt lat="43.15626275493654" lon="10.879062324714582"><ele>611.0</ele><time>2026-04-26T09:27:51Z</time></trkpt><trkpt lat="43.15635727010982" lon="10.879070429308578"><ele>611.0</ele><time>2026-04-26T09:27:52Z</time></trkpt><trkpt lat="43.15641203433215" lon="10.879158489444736"><ele>611.0</ele><time>2026-04-26T09:27:53Z</time></trkpt><trkpt lat="43.1564051873299" lon="10.879318974072156"><ele>611.0</ele><time>2026-04-26T09:27:54Z</time></trkpt><trkpt lat="43.15647347900313" lon="10.879450014882948"><ele>606.5</ele><time>2026-04-26T09:27:55.001Z</time></trkpt><trkpt lat="43.156595626060174" lon="10.87952707174961"><ele>602.0</ele><time>2026-04-26T09:27:56.001Z</time></trkpt><trkpt lat="43.15672287304452" lon="10.879579218536218"><ele>597.5</ele><time>2026-04-26T09:27:57.001Z</time></trkpt><trkpt lat="43.15684309189091" lon="10.879547023290332"><ele>593.0</ele><time>2026-04-26T09:27:58.001Z</time></trkpt><trkpt lat="43.15696657716904" lon="10.8794043534979"><ele>593.3333333333333</ele><time>2026-04-26T09:27:59.001Z</time></trkpt><trkpt lat="43.157139707767456" lon="10.879186548813587"><ele>593.6666666666666</ele><time>2026-04-26T09:28:00.001Z</time></trkpt><trkpt lat="43.15728037838249" lon="10.879022860878285"><ele>594.0</ele><time>2026-04-26T09:28:01.001Z</time></trkpt><trkpt lat="43.15746879022877" lon="10.878843177364773"><ele>594.0</ele><time>2026-04-26T09:28:02.001Z</time></trkpt><trkpt lat="43.15766455169399" lon="10.878691396024406"><ele>594.0</ele><time>2026-04-26T09:28:03.001Z</time></trkpt><trkpt lat="43.157880426306356" lon="10.878566060318764"><ele>594.0</ele><time>2026-04-26T09:28:04.001Z</time></trkpt><trkpt lat="43.15809749499914" lon="10.878493422896257"><ele>594.0</ele><time>2026-04-26T09:28:05.001Z</time></trkpt><trkpt lat="43.15832713387103" lon="10.878448758455555"><ele>588.0</ele><time>2026-04-26T09:28:06.001Z</time></trkpt><trkpt lat="43.158579486928765" lon="10.878455358876963"><ele>582.0</ele><time>2026-04-26T09:28:07.001Z</time></trkpt><trkpt lat="43.15883588089915" lon="10.878451294566508"><ele>579.5</ele><time>2026-04-26T09:28:08.001Z</time></trkpt><trkpt lat="43.15910229008561" lon="10.878478347228329"><ele>577.0</ele><time>2026-04-26T09:28:09.001Z</time></trkpt><trkpt lat="43.159365545026134" lon="10.87850277456349"><ele>577.0</ele><time>2026-04-26T09:28:10.001Z</time></trkpt><trkpt lat="43.15963396578385" lon="10.878516274499658"><ele>577.0</ele><time>2026-04-26T09:28:11.001Z</time></trkpt><trkpt lat="43.159908516880556" lon="10.878532177769555"><ele>574.0</ele><time>2026-04-26T09:28:12.001Z</time></trkpt><trkpt lat="43.16018674741186" lon="10.878568950569171"><ele>571.0</ele><time>2026-04-26T09:28:13.001Z</time></trkpt><trkpt lat="43.160459286744775" lon="10.878589524406355"><ele>571.0</ele><time>2026-04-26T09:28:14.001Z</time></trkpt><trkpt lat="43.1607169371433" lon="10.878591115960408"><ele>571.0</ele><time>2026-04-26T09:28:15.001Z</time></trkpt><trkpt lat="43.16095114639665" lon="10.878627453763126"><ele>571.0</ele><time>2026-04-26T09:28:16.001Z</time></trkpt><trkpt lat="43.16116371692349" lon="10.878678609287112"><ele>571.0</ele><time>2026-04-26T09:28:17.001Z</time></trkpt><trkpt lat="43.161360280336" lon="10.878748426217529"><ele>571.0</ele><time>2026-04-26T09:28:18.001Z</time></trkpt><trkpt lat="43.161547025990586" lon="10.878839428439447"><ele>568.3333333333334</ele><time>2026-04-26T09:28:19.001Z</time></trkpt><trkpt lat="43.16172398353783" lon="10.878966110133824"><ele>565.6666666666666</ele><time>2026-04-26T09:28:20.001Z</time></trkpt><trkpt lat="43.16189453843788" lon="10.879112265109969"><ele>563.0</ele><time>2026-04-26T09:28:21.001Z</time></trkpt><trkpt lat="43.16205906930511" lon="10.879275695233313"><ele>559.3333333333333</ele><time>2026-04-26T09:28:22.001Z</time></trkpt><trkpt lat="43.16222013398568" lon="10.879453885823004"><ele>555.6666666666666</ele><time>2026-04-26T09:28:23.001Z</time></trkpt><trkpt lat="43.162379519452365" lon="10.8796430696472"><ele>552.0</ele><time>2026-04-26T09:28:24Z</time></trkpt><trkpt lat="43.16254471414167" lon="10.879844462747279"><ele>551.5</ele><time>2026-04-26T09:28:25Z</time></trkpt><trkpt lat="43.162713977617344" lon="10.880057967422719"><ele>551.0</ele><time>2026-04-26T09:28:26Z</time></trkpt><trkpt lat="43.162875802527736" lon="10.880278863418136"><ele>548.0</ele><time>2026-04-26T09:28:27Z</time></trkpt><trkpt lat="43.16302646250907" lon="10.88053485003447"><ele>545.0</ele><time>2026-04-26T09:28:28Z</time></trkpt><trkpt lat="43.1631669380025" lon="10.880815797744779"><ele>547.0</ele><time>2026-04-26T09:28:29Z</time></trkpt><trkpt lat="43.163296925514366" lon="10.881104360977659"><ele>549.0</ele><time>2026-04-26T09:28:30Z</time></trkpt><trkpt lat="43.16342790063705" lon="10.881411415002896"><ele>549.0</ele><time>2026-04-26T09:28:31Z</time></trkpt><trkpt lat="43.16356107411706" lon="10.88172818324598"><ele>549.0</ele><time>2026-04-26T09:28:32Z</time></trkpt><trkpt lat="43.16368970360438" lon="10.882045625174944"><ele>545.0</ele><time>2026-04-26T09:28:33Z</time></trkpt><trkpt lat="43.163817218998275" lon="10.882363827550263"><ele>541.0</ele><time>2026-04-26T09:28:34Z</time></trkpt><trkpt lat="43.16394453512577" lon="10.882683122990509"><ele>541.5</ele><time>2026-04-26T09:28:35Z</time></trkpt><trkpt lat="43.16407478587994" lon="10.883001682824261"><ele>542.0</ele><time>2026-04-26T09:28:36Z</time></trkpt><trkpt lat="43.16421918647279" lon="10.883306263103453"><ele>541.5</ele><time>2026-04-26T09:28:37Z</time></trkpt><trkpt lat="43.16437702990588" lon="10.883598239957857"><ele>541.0</ele><time>2026-04-26T09:28:38Z</time></trkpt><trkpt lat="43.1645430237539" lon="10.883886439594772"><ele>541.0</ele><time>2026-04-26T09:28:39Z</time></trkpt><trkpt lat="43.16470825763909" lon="10.884164801524195"><ele>541.0</ele><time>2026-04-26T09:28:40Z</time></trkpt><trkpt lat="43.16487841484315" lon="10.884445672520151"><ele>541.0</ele><time>2026-04-26T09:28:41Z</time></trkpt><trkpt lat="43.16504985379823" lon="10.884721188012989"><ele>541.0</ele><time>2026-04-26T09:28:42Z</time></trkpt><trkpt lat="43.165220515471034" lon="10.885000432219336"><ele>540.0</ele><time>2026-04-26T09:28:43Z</time></trkpt><trkpt lat="43.16538351669467" lon="10.885277078670168"><ele>539.0</ele><time>2026-04-26T09:28:44Z</time></trkpt><trkpt lat="43.165543568784194" lon="10.88555268821106"><ele>537.0</ele><time>2026-04-26T09:28:45Z</time></trkpt><trkpt lat="43.165709177169816" lon="10.885834522229938"><ele>535.0</ele><time>2026-04-26T09:28:46Z</time></trkpt><trkpt lat="43.16587519400848" lon="10.886109638840503"><ele>533.0</ele><time>2026-04-26T09:28:47Z</time></trkpt><trkpt lat="43.16603465990827" lon="10.886367898827588"><ele>531.0</ele><time>2026-04-26T09:28:48Z</time></trkpt><trkpt lat="43.166194942387996" lon="10.886604358847036"><ele>528.0</ele><time>2026-04-26T09:28:49Z</time></trkpt><trkpt lat="43.16638334897073" lon="10.886831606367316"><ele>525.0</ele><time>2026-04-26T09:28:50Z</time></trkpt><trkpt lat="43.16658904309398" lon="10.887054228058613"><ele>532.0</ele><time>2026-04-26T09:28:51Z</time></trkpt><trkpt lat="43.16680514736261" lon="10.887266691366104"><ele>539.0</ele><time>2026-04-26T09:28:52Z</time></trkpt><trkpt lat="43.16703053469426" lon="10.887479101238434"><ele>537.0</ele><time>2026-04-26T09:28:53Z</time></trkpt><trkpt lat="43.167263602802436" lon="10.88768478703929"><ele>535.0</ele><time>2026-04-26T09:28:54Z</time></trkpt><trkpt lat="43.167495334816635" lon="10.887896527800978"><ele>540.5</ele><time>2026-04-26T09:28:55Z</time></trkpt><trkpt lat="43.16772635278903" lon="10.888111660587226"><ele>546.0</ele><time>2026-04-26T09:28:56Z</time></trkpt><trkpt lat="43.16795728398768" lon="10.888325291023953"><ele>543.5</ele><time>2026-04-26T09:28:57Z</time></trkpt><trkpt lat="43.168191701727935" lon="10.888540848536932"><ele>541.0</ele><time>2026-04-26T09:28:58Z</time></trkpt><trkpt lat="43.16842650681355" lon="10.888759503383609"><ele>546.0</ele><time>2026-04-26T09:28:59Z</time></trkpt><trkpt lat="43.16866165527941" lon="10.888975868680278"><ele>551.0</ele><time>2026-04-26T09:29:00Z</time></trkpt><trkpt lat="43.168895433370366" lon="10.889196618678952"><ele>554.5</ele><time>2026-04-26T09:29:01Z</time></trkpt><trkpt lat="43.16913080200928" lon="10.88941642303568"><ele>558.0</ele><time>2026-04-26T09:29:02Z</time></trkpt><trkpt lat="43.169366726854314" lon="10.889633827228431"><ele>558.0</ele><time>2026-04-26T09:29:03Z</time></trkpt><trkpt lat="43.16959983314296" lon="10.889844695011508"><ele>558.0</ele><time>2026-04-26T09:29:04Z</time></trkpt><trkpt lat="43.169818696654914" lon="10.890074491703917"><ele>560.5</ele><time>2026-04-26T09:29:05Z</time></trkpt><trkpt lat="43.17004188594121" lon="10.89028493975438"><ele>563.0</ele><time>2026-04-26T09:29:06Z</time></trkpt><trkpt lat="43.17026145333555" lon="10.890494591717905"><ele>563.0</ele><time>2026-04-26T09:29:07Z</time></trkpt><trkpt lat="43.17047751388052" lon="10.890698920406741"><ele>563.0</ele><time>2026-04-26T09:29:08Z</time></trkpt><trkpt lat="43.170667329554" lon="10.890944979690259"><ele>568.0</ele><time>2026-04-26T09:29:09Z</time></trkpt><trkpt lat="43.170845179485056" lon="10.89121007722371"><ele>573.0</ele><time>2026-04-26T09:29:10Z</time></trkpt><trkpt lat="43.17101032534163" lon="10.891494984678179"><ele>570.5</ele><time>2026-04-26T09:29:11Z</time></trkpt><trkpt lat="43.17116788857775" lon="10.891789249669461"><ele>568.0</ele><time>2026-04-26T09:29:12Z</time></trkpt><trkpt lat="43.17132131364557" lon="10.892084724609271"><ele>568.0</ele><time>2026-04-26T09:29:13Z</time></trkpt><trkpt lat="43.17147842596274" lon="10.892385820789428"><ele>568.0</ele><time>2026-04-26T09:29:14Z</time></trkpt><trkpt lat="43.17162978529134" lon="10.892688500932637"><ele>574.5</ele><time>2026-04-26T09:29:15Z</time></trkpt><trkpt lat="43.171777881939086" lon="10.892995491067456"><ele>581.0</ele><time>2026-04-26T09:29:16Z</time></trkpt><trkpt lat="43.17192686037977" lon="10.893306944560791"><ele>579.0</ele><time>2026-04-26T09:29:17Z</time></trkpt><trkpt lat="43.17208570924281" lon="10.893613910992475"><ele>577.0</ele><time>2026-04-26T09:29:18Z</time></trkpt><trkpt lat="43.172253219803615" lon="10.893917016694225"><ele>583.5</ele><time>2026-04-26T09:29:19Z</time></trkpt><trkpt lat="43.17242048017386" lon="10.894212993051198"><ele>590.0</ele><time>2026-04-26T09:29:20Z</time></trkpt><trkpt lat="43.17258857184521" lon="10.89450626120339"><ele>590.0</ele><time>2026-04-26T09:29:21Z</time></trkpt><trkpt lat="43.17273826110542" lon="10.89476031498309"><ele>590.0</ele><time>2026-04-26T09:29:22Z</time></trkpt><trkpt lat="43.17286210948514" lon="10.8950023319096"><ele>590.3333333333333</ele><time>2026-04-26T09:29:23Z</time></trkpt><trkpt lat="43.17296007263073" lon="10.895242353755686"><ele>590.6666666666666</ele><time>2026-04-26T09:29:24Z</time></trkpt><trkpt lat="43.17304440859536" lon="10.89550755340594"><ele>591.0</ele><time>2026-04-26T09:29:25Z</time></trkpt><trkpt lat="43.17309324705771" lon="10.895788317399473"><ele>592.0</ele><time>2026-04-26T09:29:26Z</time></trkpt><trkpt lat="43.17310552730042" lon="10.896083344101834"><ele>593.0</ele><time>2026-04-26T09:29:27Z</time></trkpt><trkpt lat="43.17308010160826" lon="10.896357979018765"><ele>594.0</ele><time>2026-04-26T09:29:28Z</time></trkpt><trkpt lat="43.173020920247666" lon="10.896657476709064"><ele>599.0</ele><time>2026-04-26T09:29:29Z</time></trkpt><trkpt lat="43.172939605590194" lon="10.896993919470319"><ele>604.0</ele><time>2026-04-26T09:29:30Z</time></trkpt><trkpt lat="43.17284811899882" lon="10.897333698914348"><ele>606.6666666666667</ele><time>2026-04-26T09:29:31Z</time></trkpt><trkpt lat="43.17277206537371" lon="10.89761599591134"><ele>609.3333333333334</ele><time>2026-04-26T09:29:32Z</time></trkpt><trkpt lat="43.17270240204412" lon="10.89787778866852"><ele>612.0</ele><time>2026-04-26T09:29:33Z</time></trkpt><trkpt lat="43.17263785858085" lon="10.898094524481444"><ele>612.0</ele><time>2026-04-26T09:29:34Z</time></trkpt><trkpt lat="43.172583888312765" lon="10.898280504295304"><ele>612.0</ele><time>2026-04-26T09:29:35Z</time></trkpt><trkpt lat="43.17256348119905" lon="10.898445510913453"><ele>612.0</ele><time>2026-04-26T09:29:36Z</time></trkpt><trkpt lat="43.17257068998564" lon="10.898615114940434"><ele>612.0</ele><time>2026-04-26T09:29:37Z</time></trkpt><trkpt lat="43.17261468625393" lon="10.898795393561864"><ele>613.5</ele><time>2026-04-26T09:29:38Z</time></trkpt><trkpt lat="43.17264908271392" lon="10.89895882137075"><ele>615.0</ele><time>2026-04-26T09:29:39Z</time></trkpt><trkpt lat="43.172646804912084" lon="10.899116430638642"><ele>616.5</ele><time>2026-04-26T09:29:40Z</time></trkpt><trkpt lat="43.17258769865419" lon="10.899276736955834"><ele>618.0</ele><time>2026-04-26T09:29:41Z</time></trkpt><trkpt lat="43.17249048466085" lon="10.899417340038477"><ele>616.6666666666666</ele><time>2026-04-26T09:29:42Z</time></trkpt><trkpt lat="43.172388062035274" lon="10.899575956500755"><ele>615.3333333333333</ele><time>2026-04-26T09:29:43Z</time></trkpt><trkpt lat="43.17230597696601" lon="10.899756249478317"><ele>614.0</ele><time>2026-04-26T09:29:44Z</time></trkpt><trkpt lat="43.17222130032097" lon="10.899935114140806"><ele>616.0</ele><time>2026-04-26T09:29:45Z</time></trkpt><trkpt lat="43.17216275763081" lon="10.900148458382219"><ele>618.0</ele><time>2026-04-26T09:29:46Z</time></trkpt><trkpt lat="43.17213205165251" lon="10.900387735777958"><ele>620.0</ele><time>2026-04-26T09:29:47Z</time></trkpt><trkpt lat="43.17213101475876" lon="10.90065183016099"><ele>617.0</ele><time>2026-04-26T09:29:48Z</time></trkpt><trkpt lat="43.172160153092584" lon="10.900951818430771"><ele>614.0</ele><time>2026-04-26T09:29:49Z</time></trkpt><trkpt lat="43.1722074968803" lon="10.9012895259134"><ele>614.0</ele><time>2026-04-26T09:29:50Z</time></trkpt><trkpt lat="43.17226587244336" lon="10.901680479442373"><ele>614.0</ele><time>2026-04-26T09:29:51Z</time></trkpt><trkpt lat="43.17233395609129" lon="10.902092180650715"><ele>626.5</ele><time>2026-04-26T09:29:52Z</time></trkpt><trkpt lat="43.17240848583654" lon="10.902509525688181"><ele>639.0</ele><time>2026-04-26T09:29:53Z</time></trkpt><trkpt lat="43.1724759474516" lon="10.902863472700757"><ele>642.0</ele><time>2026-04-26T09:29:54Z</time></trkpt><trkpt lat="43.17254747640398" lon="10.903180763641393"><ele>645.0</ele><time>2026-04-26T09:29:55Z</time></trkpt><trkpt lat="43.17264096528432" lon="10.9034708252876"><ele>647.0</ele><time>2026-04-26T09:29:56Z</time></trkpt><trkpt lat="43.172774124702265" lon="10.90374871904801"><ele>649.0</ele><time>2026-04-26T09:29:57Z</time></trkpt><trkpt lat="43.172930904238584" lon="10.904014082506993"><ele>646.5</ele><time>2026-04-26T09:29:58Z</time></trkpt><trkpt lat="43.17311147661137" lon="10.904260949613649"><ele>644.0</ele><time>2026-04-26T09:29:59Z</time></trkpt><trkpt lat="43.17329259438278" lon="10.904497501849658"><ele>650.5</ele><time>2026-04-26T09:30:00Z</time></trkpt><trkpt lat="43.173467168119195" lon="10.904758462383576"><ele>657.0</ele><time>2026-04-26T09:30:01Z</time></trkpt><trkpt lat="43.173653306870044" lon="10.904993240475301"><ele>651.5</ele><time>2026-04-26T09:30:02.001Z</time></trkpt><trkpt lat="43.173832859700305" lon="10.905225164647431"><ele>646.0</ele><time>2026-04-26T09:30:03.001Z</time></trkpt><trkpt lat="43.17399071990802" lon="10.90543646608717"><ele>653.3333333333334</ele><time>2026-04-26T09:30:04.001Z</time></trkpt><trkpt lat="43.17412701899087" lon="10.905658017072485"><ele>660.6666666666666</ele><time>2026-04-26T09:30:05.001Z</time></trkpt><trkpt lat="43.17423767442507" lon="10.905916001687277"><ele>668.0</ele><time>2026-04-26T09:30:06.001Z</time></trkpt><trkpt lat="43.17434472510338" lon="10.906202728920883"><ele>668.0</ele><time>2026-04-26T09:30:07.001Z</time></trkpt><trkpt lat="43.174438541347165" lon="10.906508541421877"><ele>668.0</ele><time>2026-04-26T09:30:08.001Z</time></trkpt><trkpt lat="43.17451225784575" lon="10.906791421195114"><ele>665.6666666666666</ele><time>2026-04-26T09:30:09.001Z</time></trkpt><trkpt lat="43.174573224013365" lon="10.907050031730448"><ele>663.3333333333334</ele><time>2026-04-26T09:30:10.001Z</time></trkpt><trkpt lat="43.17461361349812" lon="10.907275924758402"><ele>661.0</ele><time>2026-04-26T09:30:11.001Z</time></trkpt><trkpt lat="43.174629925849516" lon="10.907482734409681"><ele>663.0</ele><time>2026-04-26T09:30:12.001Z</time></trkpt><trkpt lat="43.17461330058359" lon="10.907700214340808"><ele>665.0</ele><time>2026-04-26T09:30:13.001Z</time></trkpt><trkpt lat="43.17457356215152" lon="10.907929901329386"><ele>667.0</ele><time>2026-04-26T09:30:14.001Z</time></trkpt><trkpt lat="43.1745437704668" lon="10.90814340032753"><ele>667.0</ele><time>2026-04-26T09:30:15.001Z</time></trkpt><trkpt lat="43.17454668606675" lon="10.908367009533116"><ele>667.0</ele><time>2026-04-26T09:30:16.001Z</time></trkpt><trkpt lat="43.174588314903886" lon="10.908616388664868"><ele>667.0</ele><time>2026-04-26T09:30:17.001Z</time></trkpt><trkpt lat="43.174653714815356" lon="10.908878672576405"><ele>667.0</ele><time>2026-04-26T09:30:18.001Z</time></trkpt><trkpt lat="43.17475045770718" lon="10.909139827339702"><ele>667.0</ele><time>2026-04-26T09:30:19.001Z</time></trkpt><trkpt lat="43.1748774757921" lon="10.909402111818869"><ele>667.0</ele><time>2026-04-26T09:30:20.001Z</time></trkpt><trkpt lat="43.17502632266468" lon="10.909640031167672"><ele>667.5</ele><time>2026-04-26T09:30:21.001Z</time></trkpt><trkpt lat="43.1752020016437" lon="10.909843237316565"><ele>668.0</ele><time>2026-04-26T09:30:22.001Z</time></trkpt><trkpt lat="43.1754020773275" lon="10.910014139542513"><ele>665.5</ele><time>2026-04-26T09:30:23.001Z</time></trkpt><trkpt lat="43.175617411972894" lon="10.910159621171069"><ele>663.0</ele><time>2026-04-26T09:30:24.001Z</time></trkpt><trkpt lat="43.17584645411557" lon="10.910269006489012"><ele>663.0</ele><time>2026-04-26T09:30:25.001Z</time></trkpt><trkpt lat="43.17609814774296" lon="10.910357970367796"><ele>663.0</ele><time>2026-04-26T09:30:26.001Z</time></trkpt><trkpt lat="43.17637610367789" lon="10.910423019865298"><ele>666.5</ele><time>2026-04-26T09:30:27.001Z</time></trkpt><trkpt lat="43.17667513150003" lon="10.91048269920575"><ele>670.0</ele><time>2026-04-26T09:30:28.001Z</time></trkpt><trkpt lat="43.17698773380073" lon="10.910553865295965"><ele>670.0</ele><time>2026-04-26T09:30:29.001Z</time></trkpt><trkpt lat="43.17729691798372" lon="10.910622235655639"><ele>670.0</ele><time>2026-04-26T09:30:30Z</time></trkpt><trkpt lat="43.17757577842957" lon="10.91069551752012"><ele>672.5</ele><time>2026-04-26T09:30:31Z</time></trkpt><trkpt lat="43.1778296527388" lon="10.91076074129524"><ele>675.0</ele><time>2026-04-26T09:30:32Z</time></trkpt><trkpt lat="43.17805372854065" lon="10.910829516734088"><ele>675.0</ele><time>2026-04-26T09:30:33Z</time></trkpt><trkpt lat="43.17826528030014" lon="10.910876131889857"><ele>675.0</ele><time>2026-04-26T09:30:34Z</time></trkpt><trkpt lat="43.17846060433704" lon="10.910877438888445"><ele>675.0</ele><time>2026-04-26T09:30:35Z</time></trkpt><trkpt lat="43.178666452950615" lon="10.910831275693806"><ele>675.0</ele><time>2026-04-26T09:30:36Z</time></trkpt><trkpt lat="43.17887362382913" lon="10.9107530599365"><ele>675.0</ele><time>2026-04-26T09:30:37Z</time></trkpt><trkpt lat="43.17906030943964" lon="10.910647975039657"><ele>675.0</ele><time>2026-04-26T09:30:38Z</time></trkpt><trkpt lat="43.17926167223916" lon="10.910465372348137"><ele>675.0</ele><time>2026-04-26T09:30:39Z</time></trkpt><trkpt lat="43.17945025397155" lon="10.910256934238951"><ele>675.0</ele><time>2026-04-26T09:30:40Z</time></trkpt><trkpt lat="43.17961095266652" lon="10.910096695069077"><ele>675.0</ele><time>2026-04-26T09:30:41Z</time></trkpt><trkpt lat="43.179750269538246" lon="10.909932343400907"><ele>673.0</ele><time>2026-04-26T09:30:42Z</time></trkpt><trkpt lat="43.17984679221709" lon="10.909739636595788"><ele>671.0</ele><time>2026-04-26T09:30:43Z</time></trkpt><trkpt lat="43.17991964269461" lon="10.909514882578861"><ele>669.0</ele><time>2026-04-26T09:30:44Z</time></trkpt><trkpt lat="43.17996007662024" lon="10.909257453087909"><ele>672.0</ele><time>2026-04-26T09:30:45Z</time></trkpt><trkpt lat="43.179955989314514" lon="10.909001163250927"><ele>675.0</ele><time>2026-04-26T09:30:46Z</time></trkpt><trkpt lat="43.179929656003814" lon="10.908746919802141"><ele>678.0</ele><time>2026-04-26T09:30:47Z</time></trkpt><trkpt lat="43.17988128278996" lon="10.90854404720769"><ele>677.25</ele><time>2026-04-26T09:30:48Z</time></trkpt><trkpt lat="43.179862229543026" lon="10.908354661075341"><ele>676.5</ele><time>2026-04-26T09:30:49Z</time></trkpt><trkpt lat="43.17988089834343" lon="10.908159389781874"><ele>675.75</ele><time>2026-04-26T09:30:50Z</time></trkpt><trkpt lat="43.179952193635586" lon="10.907993717185464"><ele>675.0</ele><time>2026-04-26T09:30:51Z</time></trkpt><trkpt lat="43.18004360859726" lon="10.90784492482261"><ele>675.0</ele><time>2026-04-26T09:30:52Z</time></trkpt><trkpt lat="43.18016996121051" lon="10.907693602448933"><ele>675.0</ele><time>2026-04-26T09:30:53Z</time></trkpt><trkpt lat="43.18034983925529" lon="10.907630214055247"><ele>675.0</ele><time>2026-04-26T09:30:54Z</time></trkpt><trkpt lat="43.18054871805911" lon="10.907594822496742"><ele>676.5</ele><time>2026-04-26T09:30:55Z</time></trkpt><trkpt lat="43.18079343666986" lon="10.90755298984561"><ele>678.0</ele><time>2026-04-26T09:30:56Z</time></trkpt><trkpt lat="43.181067809042986" lon="10.907505081074257"><ele>678.0</ele><time>2026-04-26T09:30:57Z</time></trkpt><trkpt lat="43.18136555300924" lon="10.907451880626903"><ele>678.0</ele><time>2026-04-26T09:30:58Z</time></trkpt><trkpt lat="43.181680773927326" lon="10.907398779342838"><ele>675.0</ele><time>2026-04-26T09:30:59Z</time></trkpt><trkpt lat="43.18196159651398" lon="10.907327457667362"><ele>672.0</ele><time>2026-04-26T09:31:00Z</time></trkpt><trkpt lat="43.18220103085848" lon="10.907290769503701"><ele>667.0</ele><time>2026-04-26T09:31:01Z</time></trkpt><trkpt lat="43.182429011330306" lon="10.907289895147331"><ele>662.0</ele><time>2026-04-26T09:31:02Z</time></trkpt><trkpt lat="43.18267552791572" lon="10.907341474969861"><ele>662.0</ele><time>2026-04-26T09:31:03Z</time></trkpt><trkpt lat="43.18293986934506" lon="10.907449425142566"><ele>662.0</ele><time>2026-04-26T09:31:04Z</time></trkpt><trkpt lat="43.18322097099496" lon="10.907583056852998"><ele>660.5</ele><time>2026-04-26T09:31:05Z</time></trkpt><trkpt lat="43.18347030459926" lon="10.90769812235092"><ele>659.0</ele><time>2026-04-26T09:31:06Z</time></trkpt><trkpt lat="43.18370926484879" lon="10.907770925972823"><ele>659.0</ele><time>2026-04-26T09:31:07Z</time></trkpt><trkpt lat="43.18395208567085" lon="10.907817548005998"><ele>659.0</ele><time>2026-04-26T09:31:08Z</time></trkpt><trkpt lat="43.18421775078612" lon="10.907837141738364"><ele>662.5</ele><time>2026-04-26T09:31:09Z</time></trkpt><trkpt lat="43.184503666450176" lon="10.907830190778949"><ele>666.0</ele><time>2026-04-26T09:31:10Z</time></trkpt><trkpt lat="43.18480125704464" lon="10.907808452961557"><ele>659.5</ele><time>2026-04-26T09:31:11Z</time></trkpt><trkpt lat="43.18508186350342" lon="10.90778133406095"><ele>653.0</ele><time>2026-04-26T09:31:12Z</time></trkpt><trkpt lat="43.185343249760976" lon="10.90777031921188"><ele>653.0</ele><time>2026-04-26T09:31:13Z</time></trkpt><trkpt lat="43.185552096242425" lon="10.907760610065457"><ele>653.0</ele><time>2026-04-26T09:31:14Z</time></trkpt><trkpt lat="43.18573804871022" lon="10.907744288793133"><ele>653.0</ele><time>2026-04-26T09:31:15Z</time></trkpt><trkpt lat="43.18591352059725" lon="10.907706277812204"><ele>654.3333333333333</ele><time>2026-04-26T09:31:16Z</time></trkpt><trkpt lat="43.1860825375355" lon="10.90762379703862"><ele>655.6666666666666</ele><time>2026-04-26T09:31:17Z</time></trkpt><trkpt lat="43.186237362507136" lon="10.907485082974695"><ele>657.0</ele><time>2026-04-26T09:31:18Z</time></trkpt><trkpt lat="43.18637895073944" lon="10.907305800161975"><ele>657.0</ele><time>2026-04-26T09:31:19Z</time></trkpt><trkpt lat="43.18649233147158" lon="10.907067224275876"><ele>657.0</ele><time>2026-04-26T09:31:20Z</time></trkpt><trkpt lat="43.186590115068086" lon="10.906791522393272"><ele>657.0</ele><time>2026-04-26T09:31:21Z</time></trkpt><trkpt lat="43.18668764513161" lon="10.906499621968992"><ele>652.0</ele><time>2026-04-26T09:31:22Z</time></trkpt><trkpt lat="43.186769778152254" lon="10.906231790356866"><ele>647.0</ele><time>2026-04-26T09:31:23Z</time></trkpt><trkpt lat="43.18684899423536" lon="10.906012637553179"><ele>642.0</ele><time>2026-04-26T09:31:24Z</time></trkpt><trkpt lat="43.186916611810936" lon="10.905808569108467"><ele>642.0</ele><time>2026-04-26T09:31:25Z</time></trkpt><trkpt lat="43.18698890128046" lon="10.905632446785603"><ele>642.0</ele><time>2026-04-26T09:31:26Z</time></trkpt><trkpt lat="43.18708647217993" lon="10.905495354694262"><ele>642.0</ele><time>2026-04-26T09:31:27Z</time></trkpt><trkpt lat="43.1872238349391" lon="10.905412611037887"><ele>642.0</ele><time>2026-04-26T09:31:28Z</time></trkpt><trkpt lat="43.18737301626471" lon="10.905355390759945"><ele>633.0</ele><time>2026-04-26T09:31:29Z</time></trkpt><trkpt lat="43.187531066904334" lon="10.90536693540638"><ele>624.0</ele><time>2026-04-26T09:31:30Z</time></trkpt><trkpt lat="43.18771245310827" lon="10.90543609540847"><ele>615.0</ele><time>2026-04-26T09:31:31Z</time></trkpt><trkpt lat="43.187930336500784" lon="10.905504819299574"><ele>615.0</ele><time>2026-04-26T09:31:32Z</time></trkpt><trkpt lat="43.188165764746806" lon="10.90560153102703"><ele>615.0</ele><time>2026-04-26T09:31:33Z</time></trkpt><trkpt lat="43.188426650988845" lon="10.905693415610164"><ele>615.0</ele><time>2026-04-26T09:31:34Z</time></trkpt><trkpt lat="43.18871083208" lon="10.90579416831328"><ele>615.0</ele><time>2026-04-26T09:31:35Z</time></trkpt><trkpt lat="43.18901202859941" lon="10.905907156908638"><ele>606.0</ele><time>2026-04-26T09:31:36Z</time></trkpt><trkpt lat="43.189324049857866" lon="10.906027649088383"><ele>597.0</ele><time>2026-04-26T09:31:37Z</time></trkpt><trkpt lat="43.189617003216334" lon="10.906123473613635"><ele>596.5</ele><time>2026-04-26T09:31:38Z</time></trkpt><trkpt lat="43.18986474825309" lon="10.906214820535258"><ele>596.0</ele><time>2026-04-26T09:31:39Z</time></trkpt><trkpt lat="43.190077997801666" lon="10.90630699936218"><ele>596.0</ele><time>2026-04-26T09:31:40Z</time></trkpt><trkpt lat="43.19024498855193" lon="10.906426785479592"><ele>596.0</ele><time>2026-04-26T09:31:41Z</time></trkpt><trkpt lat="43.19040092469711" lon="10.906601081262648"><ele>596.0</ele><time>2026-04-26T09:31:42Z</time></trkpt><trkpt lat="43.19052397984223" lon="10.906833519315798"><ele>600.0</ele><time>2026-04-26T09:31:43Z</time></trkpt><trkpt lat="43.19065380842549" lon="10.907069160055778"><ele>604.0</ele><time>2026-04-26T09:31:44Z</time></trkpt><trkpt lat="43.19078624702178" lon="10.907306937670361"><ele>608.0</ele><time>2026-04-26T09:31:45Z</time></trkpt><trkpt lat="43.190940268563665" lon="10.907531419361462"><ele>596.5</ele><time>2026-04-26T09:31:46Z</time></trkpt><trkpt lat="43.191119635318515" lon="10.907733330722726"><ele>585.0</ele><time>2026-04-26T09:31:47Z</time></trkpt><trkpt lat="43.1913138632496" lon="10.907897286086106"><ele>600.5</ele><time>2026-04-26T09:31:48Z</time></trkpt><trkpt lat="43.1915246203992" lon="10.908030750790722"><ele>616.0</ele><time>2026-04-26T09:31:49Z</time></trkpt><trkpt lat="43.19174640697193" lon="10.908126925066325"><ele>616.0</ele><time>2026-04-26T09:31:50Z</time></trkpt><trkpt lat="43.19198278807094" lon="10.908182182396272"><ele>616.0</ele><time>2026-04-26T09:31:51Z</time></trkpt><trkpt lat="43.192235251613596" lon="10.908233839747503"><ele>625.0</ele><time>2026-04-26T09:31:52Z</time></trkpt><trkpt lat="43.19248276883864" lon="10.908284336072656"><ele>634.0</ele><time>2026-04-26T09:31:53Z</time></trkpt><trkpt lat="43.19273615100102" lon="10.908336138566849"><ele>634.0</ele><time>2026-04-26T09:31:54Z</time></trkpt><trkpt lat="43.192994903235906" lon="10.908389038878394"><ele>634.0</ele><time>2026-04-26T09:31:55Z</time></trkpt><trkpt lat="43.19324615486244" lon="10.90842375518389"><ele>627.3333333333334</ele><time>2026-04-26T09:31:56Z</time></trkpt><trkpt lat="43.193446092495726" lon="10.908471408537636"><ele>620.6666666666666</ele><time>2026-04-26T09:31:57Z</time></trkpt><trkpt lat="43.19363474074441" lon="10.908500236811866"><ele>614.0</ele><time>2026-04-26T09:31:58Z</time></trkpt><trkpt lat="43.19383152808776" lon="10.908505038993857"><ele>615.6666666666666</ele><time>2026-04-26T09:31:59Z</time></trkpt><trkpt lat="43.194033359170675" lon="10.908453691297739"><ele>617.3333333333334</ele><time>2026-04-26T09:32:00Z</time></trkpt><trkpt lat="43.19422554890904" lon="10.908349585529212"><ele>619.0</ele><time>2026-04-26T09:32:01Z</time></trkpt><trkpt lat="43.19441944164234" lon="10.908207175122374"><ele>627.6666666666667</ele><time>2026-04-26T09:32:02Z</time></trkpt><trkpt lat="43.19459026448742" lon="10.908014770039978"><ele>636.3333333333334</ele><time>2026-04-26T09:32:03Z</time></trkpt><trkpt lat="43.194731428273634" lon="10.907787911954646"><ele>645.0</ele><time>2026-04-26T09:32:04Z</time></trkpt><trkpt lat="43.1948366889012" lon="10.90755667065043"><ele>645.6666666666666</ele><time>2026-04-26T09:32:05Z</time></trkpt><trkpt lat="43.19493324922791" lon="10.907358915868269"><ele>646.3333333333333</ele><time>2026-04-26T09:32:06Z</time></trkpt><trkpt lat="43.19505097746625" lon="10.907213617162629"><ele>647.0</ele><time>2026-04-26T09:32:07.001Z</time></trkpt><trkpt lat="43.19518553442893" lon="10.907105419956238"><ele>647.0</ele><time>2026-04-26T09:32:08.001Z</time></trkpt><trkpt lat="43.19534910422184" lon="10.907031527040699"><ele>647.0</ele><time>2026-04-26T09:32:09.001Z</time></trkpt><trkpt lat="43.19554048115237" lon="10.907037454103321"><ele>647.0</ele><time>2026-04-26T09:32:10.001Z</time></trkpt><trkpt lat="43.195754404270545" lon="10.907030173230767"><ele>643.6666666666666</ele><time>2026-04-26T09:32:11.001Z</time></trkpt><trkpt lat="43.195983728118556" lon="10.907017666294559"><ele>640.3333333333334</ele><time>2026-04-26T09:32:12.001Z</time></trkpt><trkpt lat="43.19618657881519" lon="10.90699871048449"><ele>637.0</ele><time>2026-04-26T09:32:13.001Z</time></trkpt><trkpt lat="43.19636400904253" lon="10.907033643825617"><ele>639.0</ele><time>2026-04-26T09:32:14.001Z</time></trkpt><trkpt lat="43.196546003443004" lon="10.907120444300828"><ele>641.0</ele><time>2026-04-26T09:32:15.001Z</time></trkpt><trkpt lat="43.19671306696953" lon="10.907250279375958"><ele>643.0</ele><time>2026-04-26T09:32:16.001Z</time></trkpt><trkpt lat="43.19685057405737" lon="10.907369216532505"><ele>643.0</ele><time>2026-04-26T09:32:17.001Z</time></trkpt><trkpt lat="43.19700054257097" lon="10.907435995672236"><ele>643.0</ele><time>2026-04-26T09:32:18.001Z</time></trkpt><trkpt lat="43.19716280688064" lon="10.907447686987867"><ele>643.0</ele><time>2026-04-26T09:32:19.001Z</time></trkpt><trkpt lat="43.19733027403154" lon="10.907406418118416"><ele>644.0</ele><time>2026-04-26T09:32:20.001Z</time></trkpt><trkpt lat="43.19748026205828" lon="10.907302364296926"><ele>645.0</ele><time>2026-04-26T09:32:21.001Z</time></trkpt><trkpt lat="43.19762202806942" lon="10.907132038747834"><ele>646.0</ele><time>2026-04-26T09:32:22.001Z</time></trkpt><trkpt lat="43.19776634369371" lon="10.906959589573475"><ele>646.0</ele><time>2026-04-26T09:32:23.001Z</time></trkpt><trkpt lat="43.197916744859455" lon="10.906779714552018"><ele>646.0</ele><time>2026-04-26T09:32:24.001Z</time></trkpt><trkpt lat="43.1980694630322" lon="10.906640603298886"><ele>646.0</ele><time>2026-04-26T09:32:25.001Z</time></trkpt><trkpt lat="43.19820435887696" lon="10.906534213363082"><ele>646.0</ele><time>2026-04-26T09:32:26.001Z</time></trkpt><trkpt lat="43.19831340769848" lon="10.90647545136305"><ele>646.0</ele><time>2026-04-26T09:32:27.001Z</time></trkpt><trkpt lat="43.198420139758944" lon="10.906450298273397"><ele>646.0</ele><time>2026-04-26T09:32:28.001Z</time></trkpt><trkpt lat="43.19854762081099" lon="10.906506152136082"><ele>646.0</ele><time>2026-04-26T09:32:29.001Z</time></trkpt><trkpt lat="43.19870113431293" lon="10.90656377468647"><ele>646.0</ele><time>2026-04-26T09:32:30.001Z</time></trkpt><trkpt lat="43.19886327622313" lon="10.906563973849519"><ele>646.0</ele><time>2026-04-26T09:32:31.001Z</time></trkpt><trkpt lat="43.1990248141063" lon="10.906488475722336"><ele>646.0</ele><time>2026-04-26T09:32:32.001Z</time></trkpt><trkpt lat="43.19916180386208" lon="10.90634712502"><ele>642.6666666666667</ele><time>2026-04-26T09:32:33.001Z</time></trkpt><trkpt lat="43.199274329987965" lon="10.906153055127081"><ele>639.3333333333334</ele><time>2026-04-26T09:32:34.001Z</time></trkpt><trkpt lat="43.199377511314914" lon="10.905984953913483"><ele>636.0</ele><time>2026-04-26T09:32:35.001Z</time></trkpt><trkpt lat="43.19946578686425" lon="10.905821662190915"><ele>633.0</ele><time>2026-04-26T09:32:36Z</time></trkpt><trkpt lat="43.19954997294195" lon="10.905679711376166"><ele>630.0</ele><time>2026-04-26T09:32:37Z</time></trkpt><trkpt lat="43.19963587855165" lon="10.905523165180396"><ele>627.0</ele><time>2026-04-26T09:32:38Z</time></trkpt><trkpt lat="43.19974312496407" lon="10.905384236156264"><ele>624.0</ele><time>2026-04-26T09:32:39Z</time></trkpt><trkpt lat="43.19985268251201" lon="10.90524314177635"><ele>624.0</ele><time>2026-04-26T09:32:40Z</time></trkpt><trkpt lat="43.19998109932793" lon="10.90511265952111"><ele>624.0</ele><time>2026-04-26T09:32:41Z</time></trkpt><trkpt lat="43.20011277256942" lon="10.904985882317883"><ele>624.0</ele><time>2026-04-26T09:32:42Z</time></trkpt><trkpt lat="43.200251468840065" lon="10.904851204690958"><ele>630.6666666666666</ele><time>2026-04-26T09:32:43Z</time></trkpt><trkpt lat="43.20040830979911" lon="10.90478920108446"><ele>637.3333333333333</ele><time>2026-04-26T09:32:44Z</time></trkpt><trkpt lat="43.200463396079805" lon="10.904429262481623"><ele>644.0</ele><time>2026-04-26T09:32:45Z</time></trkpt><trkpt lat="43.200582686101846" lon="10.904257131058124"><ele>643.6666666666666</ele><time>2026-04-26T09:32:46Z</time></trkpt><trkpt lat="43.20070927131234" lon="10.904096431254137"><ele>643.3333333333334</ele><time>2026-04-26T09:32:47Z</time></trkpt><trkpt lat="43.20084846266539" lon="10.903949060323779"><ele>643.0</ele><time>2026-04-26T09:32:48Z</time></trkpt><trkpt lat="43.20099746629028" lon="10.903818344582168"><ele>643.0</ele><time>2026-04-26T09:32:49Z</time></trkpt><trkpt lat="43.20115868657449" lon="10.903719967853126"><ele>643.0</ele><time>2026-04-26T09:32:50Z</time></trkpt><trkpt lat="43.20132651134402" lon="10.90366097717393"><ele>643.0</ele><time>2026-04-26T09:32:51Z</time></trkpt><trkpt lat="43.2015030591696" lon="10.903605057552788"><ele>640.6666666666667</ele><time>2026-04-26T09:32:52Z</time></trkpt><trkpt lat="43.20168482425093" lon="10.903618572366849"><ele>638.3333333333334</ele><time>2026-04-26T09:32:53Z</time></trkpt><trkpt lat="43.2018686188047" lon="10.903662066101564"><ele>636.0</ele><time>2026-04-26T09:32:54Z</time></trkpt><trkpt lat="43.20204481890955" lon="10.903764965339793"><ele>636.0</ele><time>2026-04-26T09:32:55Z</time></trkpt><trkpt lat="43.2022045069238" lon="10.903890579674709"><ele>636.0</ele><time>2026-04-26T09:32:56Z</time></trkpt><trkpt lat="43.20236254204118" lon="10.904044298115265"><ele>636.0</ele><time>2026-04-26T09:32:57Z</time></trkpt><trkpt lat="43.20252274431061" lon="10.904201294988153"><ele>630.0</ele><time>2026-04-26T09:32:58Z</time></trkpt><trkpt lat="43.20269467959765" lon="10.90435137448919"><ele>624.0</ele><time>2026-04-26T09:32:59Z</time></trkpt><trkpt lat="43.20287975270736" lon="10.90446860888506"><ele>618.0</ele><time>2026-04-26T09:33:00Z</time></trkpt><trkpt lat="43.2030815352536" lon="10.904541474305676"><ele>624.3333333333334</ele><time>2026-04-26T09:33:01Z</time></trkpt><trkpt lat="43.203293478289524" lon="10.904577261326727"><ele>630.6666666666667</ele><time>2026-04-26T09:33:02Z</time></trkpt><trkpt lat="43.20350847088859" lon="10.904568917379637"><ele>637.0</ele><time>2026-04-26T09:33:03Z</time></trkpt><trkpt lat="43.20371453010904" lon="10.904506015581694"><ele>637.0</ele><time>2026-04-26T09:33:04Z</time></trkpt><trkpt lat="43.203918059986556" lon="10.904391401485725"><ele>637.0</ele><time>2026-04-26T09:33:05Z</time></trkpt><trkpt lat="43.204103791335264" lon="10.904232363677092"><ele>637.0</ele><time>2026-04-26T09:33:06Z</time></trkpt><trkpt lat="43.20426390478603" lon="10.904023359371392"><ele>637.3333333333334</ele><time>2026-04-26T09:33:07Z</time></trkpt><trkpt lat="43.20439639838171" lon="10.903785272118267"><ele>637.6666666666666</ele><time>2026-04-26T09:33:08Z</time></trkpt><trkpt lat="43.20450753690609" lon="10.903517375437005"><ele>638.0</ele><time>2026-04-26T09:33:09Z</time></trkpt><trkpt lat="43.20460448062344" lon="10.903230442987196"><ele>640.0</ele><time>2026-04-26T09:33:10Z</time></trkpt><trkpt lat="43.20468472946167" lon="10.902937518741183"><ele>642.0</ele><time>2026-04-26T09:33:11Z</time></trkpt><trkpt lat="43.20478979987974" lon="10.902675056280346"><ele>644.0</ele><time>2026-04-26T09:33:12Z</time></trkpt><trkpt lat="43.20489226555266" lon="10.902429502306402"><ele>644.0</ele><time>2026-04-26T09:33:13Z</time></trkpt><trkpt lat="43.20499669420095" lon="10.902184231182195"><ele>644.0</ele><time>2026-04-26T09:33:14Z</time></trkpt><trkpt lat="43.20514255122981" lon="10.901969782208628"><ele>644.0</ele><time>2026-04-26T09:33:15Z</time></trkpt><trkpt lat="43.20531337204131" lon="10.90176952079322"><ele>648.0</ele><time>2026-04-26T09:33:16Z</time></trkpt><trkpt lat="43.20551094969416" lon="10.901591526392599"><ele>652.0</ele><time>2026-04-26T09:33:17Z</time></trkpt><trkpt lat="43.205725487918635" lon="10.901431899395263"><ele>652.0</ele><time>2026-04-26T09:33:18Z</time></trkpt><trkpt lat="43.20594452664117" lon="10.901269306224652"><ele>652.0</ele><time>2026-04-26T09:33:19Z</time></trkpt><trkpt lat="43.206150575847005" lon="10.901107141164035"><ele>652.0</ele><time>2026-04-26T09:33:20Z</time></trkpt><trkpt lat="43.206327269103134" lon="10.900946225379561"><ele>652.0</ele><time>2026-04-26T09:33:21Z</time></trkpt><trkpt lat="43.20649752404388" lon="10.900758883840671"><ele>652.0</ele><time>2026-04-26T09:33:22Z</time></trkpt><trkpt lat="43.206656630576546" lon="10.900544062505578"><ele>653.0</ele><time>2026-04-26T09:33:23Z</time></trkpt><trkpt lat="43.20681049653811" lon="10.900303819926974"><ele>654.0</ele><time>2026-04-26T09:33:24Z</time></trkpt><trkpt lat="43.206948157359754" lon="10.900036660159506"><ele>656.5</ele><time>2026-04-26T09:33:25Z</time></trkpt><trkpt lat="43.20709554827895" lon="10.899755623180992"><ele>659.0</ele><time>2026-04-26T09:33:26Z</time></trkpt><trkpt lat="43.20722874503964" lon="10.899448185999246"><ele>650.5</ele><time>2026-04-26T09:33:27Z</time></trkpt><trkpt lat="43.207362489072814" lon="10.899128287613737"><ele>642.0</ele><time>2026-04-26T09:33:28Z</time></trkpt><trkpt lat="43.207496329556115" lon="10.898803241451864"><ele>642.0</ele><time>2026-04-26T09:33:29Z</time></trkpt><trkpt lat="43.20763441226474" lon="10.89846837158645"><ele>642.0</ele><time>2026-04-26T09:33:30Z</time></trkpt><trkpt lat="43.20775414777222" lon="10.898138126630146"><ele>644.0</ele><time>2026-04-26T09:33:31Z</time></trkpt><trkpt lat="43.2078753317429" lon="10.897849692154145"><ele>646.0</ele><time>2026-04-26T09:33:32Z</time></trkpt><trkpt lat="43.20799399253914" lon="10.897579097180762"><ele>649.3333333333334</ele><time>2026-04-26T09:33:33Z</time></trkpt><trkpt lat="43.20810393680027" lon="10.897328668114866"><ele>652.6666666666666</ele><time>2026-04-26T09:33:34Z</time></trkpt><trkpt lat="43.20820630459936" lon="10.897084005838911"><ele>656.0</ele><time>2026-04-26T09:33:35Z</time></trkpt><trkpt lat="43.208315186479716" lon="10.896858831853782"><ele>652.0</ele><time>2026-04-26T09:33:36Z</time></trkpt><trkpt lat="43.20844238331874" lon="10.89664072284397"><ele>648.0</ele><time>2026-04-26T09:33:37Z</time></trkpt><trkpt lat="43.208588429923616" lon="10.896440248290538"><ele>644.0</ele><time>2026-04-26T09:33:38Z</time></trkpt><trkpt lat="43.20875140966694" lon="10.89625280637365"><ele>644.0</ele><time>2026-04-26T09:33:39Z</time></trkpt><trkpt lat="43.208933382043895" lon="10.896090255524062"><ele>644.0</ele><time>2026-04-26T09:33:40Z</time></trkpt><trkpt lat="43.20912844619202" lon="10.89596135276104"><ele>644.0</ele><time>2026-04-26T09:33:41Z</time></trkpt><trkpt lat="43.209343167901515" lon="10.895865962042246"><ele>640.3333333333333</ele><time>2026-04-26T09:33:42Z</time></trkpt><trkpt lat="43.20956188464566" lon="10.89580114434643"><ele>636.6666666666666</ele><time>2026-04-26T09:33:43Z</time></trkpt><trkpt lat="43.209784069731896" lon="10.89577638462874"><ele>633.0</ele><time>2026-04-26T09:33:44Z</time></trkpt><trkpt lat="43.210011011755974" lon="10.895803597040063"><ele>631.0</ele><time>2026-04-26T09:33:45Z</time></trkpt><trkpt lat="43.210242175131725" lon="10.895864932782537"><ele>629.0</ele><time>2026-04-26T09:33:46Z</time></trkpt><trkpt lat="43.21045769627921" lon="10.895953595263531"><ele>627.0</ele><time>2026-04-26T09:33:47Z</time></trkpt><trkpt lat="43.21066875011129" lon="10.896071514348971"><ele>625.0</ele><time>2026-04-26T09:33:48Z</time></trkpt><trkpt lat="43.21088057794158" lon="10.896191216665441"><ele>625.0</ele><time>2026-04-26T09:33:49Z</time></trkpt><trkpt lat="43.21109289896872" lon="10.896312918606306"><ele>625.0</ele><time>2026-04-26T09:33:50Z</time></trkpt><trkpt lat="43.21129961645286" lon="10.896437484134262"><ele>624.6666666666667</ele><time>2026-04-26T09:33:51Z</time></trkpt><trkpt lat="43.2115049539946" lon="10.89656000484045"><ele>624.3333333333334</ele><time>2026-04-26T09:33:52Z</time></trkpt><trkpt lat="43.21170568321723" lon="10.896684045066651"><ele>624.0</ele><time>2026-04-26T09:33:53Z</time></trkpt><trkpt lat="43.211906507694295" lon="10.896807822690738"><ele>624.0</ele><time>2026-04-26T09:33:54Z</time></trkpt><trkpt lat="43.212106048395555" lon="10.89693145111263"><ele>624.0</ele><time>2026-04-26T09:33:55Z</time></trkpt><trkpt lat="43.21230129773411" lon="10.89705774496394"><ele>624.0</ele><time>2026-04-26T09:33:56Z</time></trkpt><trkpt lat="43.21249272151714" lon="10.897181509353834"><ele>623.3333333333334</ele><time>2026-04-26T09:33:57Z</time></trkpt><trkpt lat="43.212679192137664" lon="10.89729968360102"><ele>622.6666666666667</ele><time>2026-04-26T09:33:58Z</time></trkpt><trkpt lat="43.21286714701827" lon="10.897415774309657"><ele>622.0</ele><time>2026-04-26T09:33:59Z</time></trkpt><trkpt lat="43.2130475912223" lon="10.897528642795335"><ele>619.0</ele><time>2026-04-26T09:34:00Z</time></trkpt><trkpt lat="43.21321859071661" lon="10.897637507627913"><ele>616.0</ele><time>2026-04-26T09:34:01Z</time></trkpt><trkpt lat="43.21338251050689" lon="10.897739427648883"><ele>613.0</ele><time>2026-04-26T09:34:02Z</time></trkpt><trkpt lat="43.21354190983675" lon="10.897835039956352"><ele>613.0</ele><time>2026-04-26T09:34:03Z</time></trkpt><trkpt lat="43.213701134375796" lon="10.897930104859626"><ele>613.0</ele><time>2026-04-26T09:34:04Z</time></trkpt><trkpt lat="43.21384754631168" lon="10.89801884632418"><ele>613.0</ele><time>2026-04-26T09:34:05Z</time></trkpt><trkpt lat="43.21399095862365" lon="10.898108421336001"><ele>612.25</ele><time>2026-04-26T09:34:06Z</time></trkpt><trkpt lat="43.21412328579344" lon="10.898191013266032"><ele>611.5</ele><time>2026-04-26T09:34:07Z</time></trkpt><trkpt lat="43.214245050675416" lon="10.898267023037317"><ele>610.75</ele><time>2026-04-26T09:34:08Z</time></trkpt><trkpt lat="43.21437030556589" lon="10.898343597616947"><ele>610.0</ele><time>2026-04-26T09:34:09Z</time></trkpt><trkpt lat="43.21449664907278" lon="10.898424889662397"><ele>609.25</ele><time>2026-04-26T09:34:10Z</time></trkpt><trkpt lat="43.214622048422356" lon="10.898507516847486"><ele>608.5</ele><time>2026-04-26T09:34:11Z</time></trkpt><trkpt lat="43.21473466449964" lon="10.898577562230122"><ele>607.75</ele><time>2026-04-26T09:34:12Z</time></trkpt><trkpt lat="43.21483894960951" lon="10.898643271812096"><ele>607.0</ele><time>2026-04-26T09:34:13Z</time></trkpt><trkpt lat="43.21493189814317" lon="10.898695243509048"><ele>607.0</ele><time>2026-04-26T09:34:14Z</time></trkpt><trkpt lat="43.21500640631804" lon="10.898746630771779"><ele>607.0</ele><time>2026-04-26T09:34:15Z</time></trkpt><trkpt lat="43.21506866571268" lon="10.8988087905758"><ele>607.0</ele><time>2026-04-26T09:34:16Z</time></trkpt><trkpt lat="43.215107080580324" lon="10.89890259046117"><ele>607.0</ele><time>2026-04-26T09:34:17.001Z</time></trkpt><trkpt lat="43.21514710228057" lon="10.89900283493071"><ele>607.0</ele><time>2026-04-26T09:34:18.001Z</time></trkpt><trkpt lat="43.21522072958692" lon="10.89907239454702"><ele>607.0</ele><time>2026-04-26T09:34:19.001Z</time></trkpt><trkpt lat="43.215297061413295" lon="10.899080527859079"><ele>607.0</ele><time>2026-04-26T09:34:20.001Z</time></trkpt><trkpt lat="43.215372574743114" lon="10.899035020999019"><ele>607.0</ele><time>2026-04-26T09:34:21.001Z</time></trkpt><trkpt lat="43.215439554063096" lon="10.898940838412418"><ele>607.0</ele><time>2026-04-26T09:34:22.001Z</time></trkpt><trkpt lat="43.21551738775446" lon="10.89883125812823"><ele>607.0</ele><time>2026-04-26T09:34:23.001Z</time></trkpt><trkpt lat="43.21562559282424" lon="10.898732745348106"><ele>607.0</ele><time>2026-04-26T09:34:24.001Z</time></trkpt><trkpt lat="43.215757755596115" lon="10.898650278981949"><ele>607.3333333333334</ele><time>2026-04-26T09:34:25.001Z</time></trkpt><trkpt lat="43.21590887058647" lon="10.89858052935361"><ele>607.6666666666666</ele><time>2026-04-26T09:34:26.001Z</time></trkpt><trkpt lat="43.21607557534287" lon="10.898511000598631"><ele>608.0</ele><time>2026-04-26T09:34:27.001Z</time></trkpt><trkpt lat="43.21624554332201" lon="10.898429658225917"><ele>608.6666666666666</ele><time>2026-04-26T09:34:28.001Z</time></trkpt><trkpt lat="43.216424097155816" lon="10.898341863413266"><ele>609.3333333333334</ele><time>2026-04-26T09:34:29.001Z</time></trkpt><trkpt lat="43.2166131602188" lon="10.898249993077155"><ele>610.0</ele><time>2026-04-26T09:34:30.001Z</time></trkpt><trkpt lat="43.21680449809595" lon="10.898157826580505"><ele>610.6666666666667</ele><time>2026-04-26T09:34:31.001Z</time></trkpt><trkpt lat="43.216997756403416" lon="10.898057290738087"><ele>611.3333333333334</ele><time>2026-04-26T09:34:32.001Z</time></trkpt><trkpt lat="43.21719969502178" lon="10.897956071282653"><ele>612.0</ele><time>2026-04-26T09:34:33.001Z</time></trkpt><trkpt lat="43.21739790014619" lon="10.897860340304064"><ele>612.0</ele><time>2026-04-26T09:34:34.001Z</time></trkpt><trkpt lat="43.217586757159225" lon="10.897768001373942"><ele>612.0</ele><time>2026-04-26T09:34:35.001Z</time></trkpt><trkpt lat="43.217773768088946" lon="10.897669920199762"><ele>612.0</ele><time>2026-04-26T09:34:36.001Z</time></trkpt><trkpt lat="43.217952441196545" lon="10.897576012590966"><ele>612.0</ele><time>2026-04-26T09:34:37.001Z</time></trkpt><trkpt lat="43.21812986705201" lon="10.89748369160177"><ele>612.0</ele><time>2026-04-26T09:34:38.001Z</time></trkpt><trkpt lat="43.21830828995095" lon="10.89739701914974"><ele>612.0</ele><time>2026-04-26T09:34:39.001Z</time></trkpt><trkpt lat="43.218479488448835" lon="10.897310357040002"><ele>611.6666666666666</ele><time>2026-04-26T09:34:40.001Z</time></trkpt><trkpt lat="43.2186389526409" lon="10.897229611484406"><ele>611.3333333333333</ele><time>2026-04-26T09:34:41.001Z</time></trkpt><trkpt lat="43.21878669828528" lon="10.89715580557529"><ele>611.0</ele><time>2026-04-26T09:34:42Z</time></trkpt><trkpt lat="43.21893250122037" lon="10.897082893183706"><ele>612.0</ele><time>2026-04-26T09:34:43Z</time></trkpt><trkpt lat="43.21908451277734" lon="10.897001421288973"><ele>613.0</ele><time>2026-04-26T09:34:44Z</time></trkpt><trkpt lat="43.21923822353666" lon="10.89691123606058"><ele>614.0</ele><time>2026-04-26T09:34:45Z</time></trkpt><trkpt lat="43.219396427876774" lon="10.896816165936135"><ele>612.0</ele><time>2026-04-26T09:34:46Z</time></trkpt><trkpt lat="43.21954300908236" lon="10.896723976036581"><ele>610.0</ele><time>2026-04-26T09:34:47Z</time></trkpt><trkpt lat="43.21968441982174" lon="10.896638793795804"><ele>608.0</ele><time>2026-04-26T09:34:48Z</time></trkpt><trkpt lat="43.219819795433715" lon="10.896553803362233"><ele>607.25</ele><time>2026-04-26T09:34:49Z</time></trkpt><trkpt lat="43.21994509000375" lon="10.896472393082032"><ele>606.5</ele><time>2026-04-26T09:34:50Z</time></trkpt><trkpt lat="43.22006195983657" lon="10.89637971093981"><ele>605.75</ele><time>2026-04-26T09:34:51Z</time></trkpt><trkpt lat="43.22017239149949" lon="10.896261057133927"><ele>605.0</ele><time>2026-04-26T09:34:52Z</time></trkpt><trkpt lat="43.22027942404928" lon="10.896110416725055"><ele>605.0</ele><time>2026-04-26T09:34:53Z</time></trkpt><trkpt lat="43.220377120772085" lon="10.895935776388502"><ele>605.0</ele><time>2026-04-26T09:34:54Z</time></trkpt><trkpt lat="43.2204646583914" lon="10.895747738016807"><ele>605.0</ele><time>2026-04-26T09:34:55Z</time></trkpt><trkpt lat="43.22053855948174" lon="10.895538898924892"><ele>602.0</ele><time>2026-04-26T09:34:56Z</time></trkpt><trkpt lat="43.22059242849504" lon="10.895309747770133"><ele>599.0</ele><time>2026-04-26T09:34:57Z</time></trkpt><trkpt lat="43.220616773781785" lon="10.89508742892091"><ele>596.0</ele><time>2026-04-26T09:34:58Z</time></trkpt><trkpt lat="43.22061579344325" lon="10.894866235670664"><ele>595.0</ele><time>2026-04-26T09:34:59Z</time></trkpt><trkpt lat="43.22060355664724" lon="10.894637730242213"><ele>594.0</ele><time>2026-04-26T09:35:00Z</time></trkpt><trkpt lat="43.220573315296534" lon="10.894414586987688"><ele>593.0</ele><time>2026-04-26T09:35:01Z</time></trkpt><trkpt lat="43.22054135877931" lon="10.894207863430871"><ele>592.1999999999999</ele><time>2026-04-26T09:35:02Z</time></trkpt><trkpt lat="43.22051814736484" lon="10.894035534051959"><ele>591.4</ele><time>2026-04-26T09:35:03Z</time></trkpt><trkpt lat="43.220512430306165" lon="10.893900951051677"><ele>590.5999999999999</ele><time>2026-04-26T09:35:04Z</time></trkpt><trkpt lat="43.22050896111677" lon="10.893799119331941"><ele>589.8</ele><time>2026-04-26T09:35:05Z</time></trkpt><trkpt lat="43.22049626169855" lon="10.893688009688182"><ele>589.0</ele><time>2026-04-26T09:35:07Z</time></trkpt><trkpt lat="43.22049860085163" lon="10.893874449642727"><ele>589.0</ele><time>2026-04-26T09:35:41Z</time></trkpt><trkpt lat="43.22051960439447" lon="10.894005841890333"><ele>589.0</ele><time>2026-04-26T09:35:42Z</time></trkpt><trkpt lat="43.220543709030984" lon="10.89415663367565"><ele>589.0</ele><time>2026-04-26T09:35:43Z</time></trkpt><trkpt lat="43.22055068122455" lon="10.894341203011475"><ele>589.0</ele><time>2026-04-26T09:35:44Z</time></trkpt><trkpt lat="43.22057776265364" lon="10.894562603550723"><ele>590.3333333333334</ele><time>2026-04-26T09:35:45Z</time></trkpt><trkpt lat="43.220605935742704" lon="10.894785976906865"><ele>591.6666666666666</ele><time>2026-04-26T09:35:46Z</time></trkpt><trkpt lat="43.22060794037636" lon="10.89502362090171"><ele>593.0</ele><time>2026-04-26T09:35:47Z</time></trkpt><trkpt lat="43.22059135256313" lon="10.895249436092499"><ele>594.0</ele><time>2026-04-26T09:35:48Z</time></trkpt><trkpt lat="43.220545734596534" lon="10.895469393630556"><ele>595.0</ele><time>2026-04-26T09:35:49Z</time></trkpt><trkpt lat="43.220457276780195" lon="10.89568647363843"><ele>596.0</ele><time>2026-04-26T09:35:50Z</time></trkpt><trkpt lat="43.22036485752879" lon="10.895877378942261"><ele>599.0</ele><time>2026-04-26T09:35:51Z</time></trkpt><trkpt lat="43.22025073710958" lon="10.896060642452722"><ele>602.0</ele><time>2026-04-26T09:35:52Z</time></trkpt><trkpt lat="43.22012193865446" lon="10.89622765552415"><ele>605.0</ele><time>2026-04-26T09:35:53Z</time></trkpt><trkpt lat="43.219974472348" lon="10.896372676368136"><ele>606.0</ele><time>2026-04-26T09:35:54Z</time></trkpt><trkpt lat="43.21981625570404" lon="10.896489795114007"><ele>607.0</ele><time>2026-04-26T09:35:55Z</time></trkpt><trkpt lat="43.219640987254074" lon="10.896587048240129"><ele>608.0</ele><time>2026-04-26T09:35:56Z</time></trkpt><trkpt lat="43.21945994246265" lon="10.89669372357167"><ele>609.0</ele><time>2026-04-26T09:35:57Z</time></trkpt><trkpt lat="43.219277605016714" lon="10.89680754891592"><ele>610.0</ele><time>2026-04-26T09:35:58Z</time></trkpt><trkpt lat="43.2191081344285" lon="10.896920636158935"><ele>611.0</ele><time>2026-04-26T09:35:59Z</time></trkpt><trkpt lat="43.21893387066649" lon="10.897025709824778"><ele>611.0</ele><time>2026-04-26T09:36:00Z</time></trkpt><trkpt lat="43.21875603378857" lon="10.89712853606415"><ele>611.0</ele><time>2026-04-26T09:36:01Z</time></trkpt><trkpt lat="43.21857747503896" lon="10.897214563229749"><ele>611.0</ele><time>2026-04-26T09:36:02Z</time></trkpt><trkpt lat="43.218390434448885" lon="10.897295380306584"><ele>611.0</ele><time>2026-04-26T09:36:03Z</time></trkpt><trkpt lat="43.2182116051726" lon="10.89738875897922"><ele>611.0</ele><time>2026-04-26T09:36:04Z</time></trkpt><trkpt lat="43.218032842986574" lon="10.897481441496227"><ele>611.0</ele><time>2026-04-26T09:36:05Z</time></trkpt><trkpt lat="43.217852901156384" lon="10.897573503249133"><ele>612.0</ele><time>2026-04-26T09:36:06Z</time></trkpt><trkpt lat="43.21766835829822" lon="10.89766662531133"><ele>613.0</ele><time>2026-04-26T09:36:07Z</time></trkpt><trkpt lat="43.21749530954992" lon="10.897749728831556"><ele>614.0</ele><time>2026-04-26T09:36:08Z</time></trkpt><trkpt lat="43.21734189106763" lon="10.897830554144917"><ele>613.3333333333333</ele><time>2026-04-26T09:36:09Z</time></trkpt><trkpt lat="43.217192953105005" lon="10.89791253653315"><ele>612.6666666666666</ele><time>2026-04-26T09:36:10Z</time></trkpt><trkpt lat="43.217044573989334" lon="10.897988399050556"><ele>612.0</ele><time>2026-04-26T09:36:11Z</time></trkpt><trkpt lat="43.21690362630581" lon="10.89806245872049"><ele>612.0</ele><time>2026-04-26T09:36:12Z</time></trkpt><trkpt lat="43.21676826685245" lon="10.89812802764173"><ele>612.0</ele><time>2026-04-26T09:36:13Z</time></trkpt><trkpt lat="43.21663098837092" lon="10.89819912215501"><ele>612.0</ele><time>2026-04-26T09:36:14Z</time></trkpt><trkpt lat="43.2164918062177" lon="10.89826651474549"><ele>612.0</ele><time>2026-04-26T09:36:15Z</time></trkpt><trkpt lat="43.21635196743554" lon="10.898333778449684"><ele>611.5</ele><time>2026-04-26T09:36:16Z</time></trkpt><trkpt lat="43.21622220614543" lon="10.898400373884682"><ele>611.0</ele><time>2026-04-26T09:36:17Z</time></trkpt><trkpt lat="43.21609991920374" lon="10.898457595286564"><ele>610.5</ele><time>2026-04-26T09:36:18Z</time></trkpt><trkpt lat="43.215985493588136" lon="10.898511888398797"><ele>610.0</ele><time>2026-04-26T09:36:19Z</time></trkpt><trkpt lat="43.215876646591695" lon="10.898567940276735"><ele>609.6</ele><time>2026-04-26T09:36:20Z</time></trkpt><trkpt lat="43.215765761435414" lon="10.898610258659255"><ele>609.2</ele><time>2026-04-26T09:36:21.001Z</time></trkpt><trkpt lat="43.215676631689036" lon="10.898658604302984"><ele>608.8</ele><time>2026-04-26T09:36:22.001Z</time></trkpt><trkpt lat="43.21558845396227" lon="10.898700865869749"><ele>608.4</ele><time>2026-04-26T09:36:23.001Z</time></trkpt><trkpt lat="43.21549628588147" lon="10.898721059991937"><ele>608.0</ele><time>2026-04-26T09:36:24.001Z</time></trkpt><trkpt lat="43.21541312937775" lon="10.898750371678439"><ele>607.75</ele><time>2026-04-26T09:36:25.001Z</time></trkpt><trkpt lat="43.215304366899474" lon="10.898698812757779"><ele>607.5</ele><time>2026-04-26T09:36:26.001Z</time></trkpt><trkpt lat="43.21519472874795" lon="10.898705559287531"><ele>607.25</ele><time>2026-04-26T09:36:27.001Z</time></trkpt><trkpt lat="43.21508053736062" lon="10.898705510011656"><ele>607.0</ele><time>2026-04-26T09:36:28.001Z</time></trkpt><trkpt lat="43.21496224641807" lon="10.898661164346832"><ele>607.0</ele><time>2026-04-26T09:36:29.001Z</time></trkpt><trkpt lat="43.21484792850148" lon="10.898596578621476"><ele>607.0</ele><time>2026-04-26T09:36:30.001Z</time></trkpt><trkpt lat="43.21472759949375" lon="10.898518458099936"><ele>607.0</ele><time>2026-04-26T09:36:31.001Z</time></trkpt><trkpt lat="43.21460067359092" lon="10.8984371017451"><ele>607.0</ele><time>2026-04-26T09:36:32.001Z</time></trkpt><trkpt lat="43.2144671246763" lon="10.898351902673568"><ele>608.0</ele><time>2026-04-26T09:36:33.001Z</time></trkpt><trkpt lat="43.21432713056702" lon="10.898267237380857"><ele>609.0</ele><time>2026-04-26T09:36:34.001Z</time></trkpt><trkpt lat="43.21417574112103" lon="10.898174138478106"><ele>610.0</ele><time>2026-04-26T09:36:35.001Z</time></trkpt><trkpt lat="43.21402707186268" lon="10.898087392592775"><ele>611.0</ele><time>2026-04-26T09:36:36.001Z</time></trkpt><trkpt lat="43.21386831754685" lon="10.897990601398881"><ele>612.0</ele><time>2026-04-26T09:36:37.001Z</time></trkpt><trkpt lat="43.21371228270601" lon="10.89789575293728"><ele>613.0</ele><time>2026-04-26T09:36:38.001Z</time></trkpt><trkpt lat="43.21355551458091" lon="10.897787603659694"><ele>613.0</ele><time>2026-04-26T09:36:39.001Z</time></trkpt><trkpt lat="43.21339467694323" lon="10.897688147707981"><ele>613.0</ele><time>2026-04-26T09:36:40.001Z</time></trkpt><trkpt lat="43.21323359697641" lon="10.897583211251401"><ele>613.0</ele><time>2026-04-26T09:36:41.001Z</time></trkpt><trkpt lat="43.213067192320345" lon="10.897479161530162"><ele>616.0</ele><time>2026-04-26T09:36:42.001Z</time></trkpt><trkpt lat="43.21289543695923" lon="10.897363317303501"><ele>619.0</ele><time>2026-04-26T09:36:43.001Z</time></trkpt><trkpt lat="43.21271836921442" lon="10.89725296081147"><ele>622.0</ele><time>2026-04-26T09:36:44.001Z</time></trkpt><trkpt lat="43.21253234529385" lon="10.897141847590026"><ele>622.0</ele><time>2026-04-26T09:36:45.001Z</time></trkpt><trkpt lat="43.21234264647638" lon="10.897025688898264"><ele>622.0</ele><time>2026-04-26T09:36:46.001Z</time></trkpt><trkpt lat="43.21215486181622" lon="10.896904931292466"><ele>622.0</ele><time>2026-04-26T09:36:47.001Z</time></trkpt><trkpt lat="43.21197392096122" lon="10.896787451739277"><ele>622.3333333333334</ele><time>2026-04-26T09:36:48Z</time></trkpt><trkpt lat="43.21179368727121" lon="10.896676655368035"><ele>622.6666666666666</ele><time>2026-04-26T09:36:49Z</time></trkpt><trkpt lat="43.211602839480655" lon="10.89655883625999"><ele>623.0</ele><time>2026-04-26T09:36:50Z</time></trkpt><trkpt lat="43.21140311066194" lon="10.896436908699986"><ele>624.0</ele><time>2026-04-26T09:36:51Z</time></trkpt><trkpt lat="43.21119363093221" lon="10.896306815939061"><ele>625.0</ele><time>2026-04-26T09:36:52Z</time></trkpt><trkpt lat="43.21098098502785" lon="10.896175507193664"><ele>625.0</ele><time>2026-04-26T09:36:53Z</time></trkpt><trkpt lat="43.2107630955793" lon="10.896044306983901"><ele>625.0</ele><time>2026-04-26T09:36:54Z</time></trkpt><trkpt lat="43.21054807430108" lon="10.895922774894778"><ele>625.0</ele><time>2026-04-26T09:36:55Z</time></trkpt><trkpt lat="43.210328549727485" lon="10.895820869746974"><ele>625.0</ele><time>2026-04-26T09:36:56Z</time></trkpt><trkpt lat="43.21010650244099" lon="10.895750932858189"><ele>625.0</ele><time>2026-04-26T09:36:57Z</time></trkpt><trkpt lat="43.20988298627677" lon="10.895715433759976"><ele>625.0</ele><time>2026-04-26T09:36:58Z</time></trkpt><trkpt lat="43.20965183358237" lon="10.89571839324014"><ele>629.0</ele><time>2026-04-26T09:36:59Z</time></trkpt><trkpt lat="43.20942496528495" lon="10.89576219527192"><ele>633.0</ele><time>2026-04-26T09:37:00Z</time></trkpt><trkpt lat="43.209204859779106" lon="10.895846409180836"><ele>638.5</ele><time>2026-04-26T09:37:01Z</time></trkpt><trkpt lat="43.20898902150511" lon="10.89596470051435"><ele>644.0</ele><time>2026-04-26T09:37:02Z</time></trkpt><trkpt lat="43.20878079310807" lon="10.896127571710172"><ele>644.0</ele><time>2026-04-26T09:37:03Z</time></trkpt><trkpt lat="43.20858587844181" lon="10.896325474907808"><ele>644.0</ele><time>2026-04-26T09:37:04Z</time></trkpt><trkpt lat="43.20842334808478" lon="10.896557177154587"><ele>650.0</ele><time>2026-04-26T09:37:05Z</time></trkpt><trkpt lat="43.208278819632724" lon="10.896814275156643"><ele>656.0</ele><time>2026-04-26T09:37:06Z</time></trkpt><trkpt lat="43.20815290286237" lon="10.897100862629307"><ele>656.0</ele><time>2026-04-26T09:37:07Z</time></trkpt><trkpt lat="43.208028763579385" lon="10.897396217810702"><ele>656.0</ele><time>2026-04-26T09:37:08Z</time></trkpt><trkpt lat="43.207908968075834" lon="10.897699941874885"><ele>651.0</ele><time>2026-04-26T09:37:09Z</time></trkpt><trkpt lat="43.20779046855974" lon="10.897996388651388"><ele>646.0</ele><time>2026-04-26T09:37:10Z</time></trkpt><trkpt lat="43.207663005079304" lon="10.89829062815656"><ele>644.0</ele><time>2026-04-26T09:37:11Z</time></trkpt><trkpt lat="43.207540985277085" lon="10.89858663195096"><ele>642.0</ele><time>2026-04-26T09:37:12Z</time></trkpt><trkpt lat="43.207421388305015" lon="10.898885762168781"><ele>650.5</ele><time>2026-04-26T09:37:13Z</time></trkpt><trkpt lat="43.20729408920135" lon="10.899177997280061"><ele>659.0</ele><time>2026-04-26T09:37:14Z</time></trkpt><trkpt lat="43.2071644482837" lon="10.899468289906862"><ele>659.0</ele><time>2026-04-26T09:37:15Z</time></trkpt><trkpt lat="43.20704342936443" lon="10.899752914629447"><ele>659.0</ele><time>2026-04-26T09:37:16Z</time></trkpt><trkpt lat="43.20691584794773" lon="10.90002927148632"><ele>657.3333333333333</ele><time>2026-04-26T09:37:17Z</time></trkpt><trkpt lat="43.20678687413148" lon="10.90027751990287"><ele>655.6666666666666</ele><time>2026-04-26T09:37:18Z</time></trkpt><trkpt lat="43.20664557273729" lon="10.900499868301914"><ele>654.0</ele><time>2026-04-26T09:37:19Z</time></trkpt><trkpt lat="43.20647724886135" lon="10.900705981681584"><ele>653.0</ele><time>2026-04-26T09:37:20Z</time></trkpt><trkpt lat="43.20629367445808" lon="10.900901489310959"><ele>652.0</ele><time>2026-04-26T09:37:21Z</time></trkpt><trkpt lat="43.20608885829294" lon="10.901078751116176"><ele>652.0</ele><time>2026-04-26T09:37:22Z</time></trkpt><trkpt lat="43.205872727940104" lon="10.901243724702544"><ele>652.0</ele><time>2026-04-26T09:37:23Z</time></trkpt><trkpt lat="43.205658190303744" lon="10.901415733148728"><ele>652.6666666666667</ele><time>2026-04-26T09:37:24Z</time></trkpt><trkpt lat="43.20546178145156" lon="10.901579005936307"><ele>653.3333333333334</ele><time>2026-04-26T09:37:25Z</time></trkpt><trkpt lat="43.205284846199234" lon="10.901742043447348"><ele>654.0</ele><time>2026-04-26T09:37:26Z</time></trkpt><trkpt lat="43.205123729997815" lon="10.90193778456961"><ele>649.0</ele><time>2026-04-26T09:37:27Z</time></trkpt><trkpt lat="43.2049720704912" lon="10.902170675310954"><ele>644.0</ele><time>2026-04-26T09:37:28Z</time></trkpt><trkpt lat="43.204834529460875" lon="10.902444199477287"><ele>645.5</ele><time>2026-04-26T09:37:29Z</time></trkpt><trkpt lat="43.20471487117535" lon="10.90275656266485"><ele>647.0</ele><time>2026-04-26T09:37:30Z</time></trkpt><trkpt lat="43.20461083140404" lon="10.90307955150071"><ele>647.0</ele><time>2026-04-26T09:37:31Z</time></trkpt><trkpt lat="43.20451808953555" lon="10.903376146591377"><ele>647.0</ele><time>2026-04-26T09:37:32Z</time></trkpt><trkpt lat="43.20442749841799" lon="10.903647279002431"><ele>644.0</ele><time>2026-04-26T09:37:33Z</time></trkpt><trkpt lat="43.20431287407571" lon="10.90388241950722"><ele>641.0</ele><time>2026-04-26T09:37:34Z</time></trkpt><trkpt lat="43.20415974696999" lon="10.904081315883912"><ele>638.0</ele><time>2026-04-26T09:37:35Z</time></trkpt><trkpt lat="43.204004965819465" lon="10.90424430352634"><ele>637.6666666666666</ele><time>2026-04-26T09:37:36Z</time></trkpt><trkpt lat="43.20383425140708" lon="10.904366006123979"><ele>637.3333333333334</ele><time>2026-04-26T09:37:37Z</time></trkpt><trkpt lat="43.20364225602239" lon="10.90445761632975"><ele>637.0</ele><time>2026-04-26T09:37:38Z</time></trkpt><trkpt lat="43.20343923814665" lon="10.904510610922795"><ele>637.0</ele><time>2026-04-26T09:37:39Z</time></trkpt><trkpt lat="43.20322996315139" lon="10.904519502263762"><ele>637.0</ele><time>2026-04-26T09:37:40Z</time></trkpt><trkpt lat="43.203025124557044" lon="10.904447292614524"><ele>637.0</ele><time>2026-04-26T09:37:41Z</time></trkpt><trkpt lat="43.20282690657048" lon="10.904345410480927"><ele>636.6666666666667</ele><time>2026-04-26T09:37:42Z</time></trkpt><trkpt lat="43.20263258937838" lon="10.904205251261873"><ele>636.3333333333334</ele><time>2026-04-26T09:37:43Z</time></trkpt><trkpt lat="43.202449667822385" lon="10.904030240523266"><ele>636.0</ele><time>2026-04-26T09:37:44Z</time></trkpt><trkpt lat="43.202266740024776" lon="10.903889629816403"><ele>636.0</ele><time>2026-04-26T09:37:45Z</time></trkpt><trkpt lat="43.202102257648725" lon="10.903740884908796"><ele>636.0</ele><time>2026-04-26T09:37:46Z</time></trkpt><trkpt lat="43.20192251619567" lon="10.903622114420363"><ele>636.0</ele><time>2026-04-26T09:37:47Z</time></trkpt><trkpt lat="43.20173032631714" lon="10.903549536945457"><ele>636.0</ele><time>2026-04-26T09:37:48Z</time></trkpt><trkpt lat="43.20152260858958" lon="10.903535071812785"><ele>636.0</ele><time>2026-04-26T09:37:49Z</time></trkpt><trkpt lat="43.20130608024482" lon="10.903596430097092"><ele>636.0</ele><time>2026-04-26T09:37:50Z</time></trkpt><trkpt lat="43.20108959160788" lon="10.903680873296057"><ele>639.5</ele><time>2026-04-26T09:37:51Z</time></trkpt><trkpt lat="43.200890755621074" lon="10.903826210606555"><ele>643.0</ele><time>2026-04-26T09:37:52Z</time></trkpt><trkpt lat="43.200706567666096" lon="10.904010734718788"><ele>643.3333333333334</ele><time>2026-04-26T09:37:53Z</time></trkpt><trkpt lat="43.20055122287021" lon="10.904203559924934"><ele>643.6666666666666</ele><time>2026-04-26T09:37:54Z</time></trkpt><trkpt lat="43.20041840189223" lon="10.904395031727923"><ele>644.0</ele><time>2026-04-26T09:37:55Z</time></trkpt><trkpt lat="43.200292258032604" lon="10.904578924880727"><ele>644.0</ele><time>2026-04-26T09:37:56Z</time></trkpt><trkpt lat="43.20015775913289" lon="10.904737288124528"><ele>644.0</ele><time>2026-04-26T09:37:57Z</time></trkpt><trkpt lat="43.20003728063161" lon="10.904914599690946"><ele>644.0</ele><time>2026-04-26T09:37:58Z</time></trkpt><trkpt lat="43.19991175909754" lon="10.905095560073612"><ele>649.0</ele><time>2026-04-26T09:37:59Z</time></trkpt><trkpt lat="43.19977943925469" lon="10.90527297758592"><ele>654.0</ele><time>2026-04-26T09:38:00Z</time></trkpt><trkpt lat="43.199650083521654" lon="10.905443623299432"><ele>659.0</ele><time>2026-04-26T09:38:01Z</time></trkpt><trkpt lat="43.1995254563417" lon="10.905631387757392"><ele>659.0</ele><time>2026-04-26T09:38:02Z</time></trkpt><trkpt lat="43.19940841602465" lon="10.905834923495377"><ele>659.0</ele><time>2026-04-26T09:38:03Z</time></trkpt><trkpt lat="43.19929734077057" lon="10.906046701685328"><ele>659.0</ele><time>2026-04-26T09:38:04Z</time></trkpt><trkpt lat="43.19920408485895" lon="10.906234443947447"><ele>655.75</ele><time>2026-04-26T09:38:05Z</time></trkpt><trkpt lat="43.19910924398454" lon="10.90636667516334"><ele>652.5</ele><time>2026-04-26T09:38:06Z</time></trkpt><trkpt lat="43.198999254819356" lon="10.906456981788182"><ele>649.25</ele><time>2026-04-26T09:38:07Z</time></trkpt><trkpt lat="43.19886040809257" lon="10.906509598878467"><ele>646.0</ele><time>2026-04-26T09:38:08Z</time></trkpt><trkpt lat="43.198709242987235" lon="10.906528479660395"><ele>646.0</ele><time>2026-04-26T09:38:09Z</time></trkpt><trkpt lat="43.198557205154344" lon="10.906496189911461"><ele>646.0</ele><time>2026-04-26T09:38:10Z</time></trkpt><trkpt lat="43.19842263292752" lon="10.906426682229494"><ele>646.0</ele><time>2026-04-26T09:38:11Z</time></trkpt><trkpt lat="43.19828616575263" lon="10.906421746893475"><ele>646.0</ele><time>2026-04-26T09:38:12Z</time></trkpt><trkpt lat="43.19813473740605" lon="10.906497517512022"><ele>646.0</ele><time>2026-04-26T09:38:13Z</time></trkpt><trkpt lat="43.197983221567426" lon="10.906638246379226"><ele>646.0</ele><time>2026-04-26T09:38:14Z</time></trkpt><trkpt lat="43.19781943784476" lon="10.90681692503294"><ele>646.0</ele><time>2026-04-26T09:38:15Z</time></trkpt><trkpt lat="43.19767281476935" lon="10.90700247050795"><ele>646.0</ele><time>2026-04-26T09:38:16Z</time></trkpt><trkpt lat="43.19755217321007" lon="10.907161235545908"><ele>646.0</ele><time>2026-04-26T09:38:17Z</time></trkpt><trkpt lat="43.19743315775588" lon="10.907289884173357"><ele>646.0</ele><time>2026-04-26T09:38:18Z</time></trkpt><trkpt lat="43.197297200693576" lon="10.907378711598811"><ele>645.0</ele><time>2026-04-26T09:38:19Z</time></trkpt><trkpt lat="43.19713744964142" lon="10.9074154199098"><ele>644.0</ele><time>2026-04-26T09:38:20Z</time></trkpt><trkpt lat="43.196964446551924" lon="10.907394116464431"><ele>643.0</ele><time>2026-04-26T09:38:21Z</time></trkpt><trkpt lat="43.19679857584985" lon="10.907310783400781"><ele>643.0</ele><time>2026-04-26T09:38:22Z</time></trkpt><trkpt lat="43.19664125709563" lon="10.907163887727927"><ele>643.0</ele><time>2026-04-26T09:38:23Z</time></trkpt><trkpt lat="43.19646784473607" lon="10.907028748200291"><ele>643.0</ele><time>2026-04-26T09:38:24Z</time></trkpt><trkpt lat="43.196287680990174" lon="10.906951502885038"><ele>640.0</ele><time>2026-04-26T09:38:25Z</time></trkpt><trkpt lat="43.196071954451476" lon="10.906933849849693"><ele>637.0</ele><time>2026-04-26T09:38:26Z</time></trkpt><trkpt lat="43.19580896539981" lon="10.906943946051395"><ele>640.3333333333334</ele><time>2026-04-26T09:38:27Z</time></trkpt><trkpt lat="43.19556315136627" lon="10.906956918623777"><ele>643.6666666666666</ele><time>2026-04-26T09:38:28.001Z</time></trkpt><trkpt lat="43.19536469094152" lon="10.906964717212404"><ele>647.0</ele><time>2026-04-26T09:38:29.001Z</time></trkpt><trkpt lat="43.19518686121931" lon="10.907036431054685"><ele>647.0</ele><time>2026-04-26T09:38:30.001Z</time></trkpt><trkpt lat="43.19503526607389" lon="10.907144678104316"><ele>647.0</ele><time>2026-04-26T09:38:31.001Z</time></trkpt><trkpt lat="43.194896345227406" lon="10.907304138946426"><ele>647.0</ele><time>2026-04-26T09:38:32.001Z</time></trkpt><trkpt lat="43.19476994852355" lon="10.907527983373537"><ele>646.3333333333333</ele><time>2026-04-26T09:38:33.001Z</time></trkpt><trkpt lat="43.194651551433466" lon="10.907773760675955"><ele>645.6666666666666</ele><time>2026-04-26T09:38:34.001Z</time></trkpt><trkpt lat="43.19452922052058" lon="10.907971078991963"><ele>645.0</ele><time>2026-04-26T09:38:35.001Z</time></trkpt><trkpt lat="43.194387145217085" lon="10.90813740105296"><ele>645.0</ele><time>2026-04-26T09:38:36.001Z</time></trkpt><trkpt lat="43.19420852070608" lon="10.908276485689766"><ele>645.0</ele><time>2026-04-26T09:38:37.001Z</time></trkpt><trkpt lat="43.194005308098085" lon="10.90838527480997"><ele>645.0</ele><time>2026-04-26T09:38:38.001Z</time></trkpt><trkpt lat="43.19378920492195" lon="10.90845788327169"><ele>629.5</ele><time>2026-04-26T09:38:39.001Z</time></trkpt><trkpt lat="43.19356644308391" lon="10.90846754755815"><ele>614.0</ele><time>2026-04-26T09:38:40.001Z</time></trkpt><trkpt lat="43.193334149580714" lon="10.908434813747517"><ele>624.0</ele><time>2026-04-26T09:38:41.001Z</time></trkpt><trkpt lat="43.19307975310917" lon="10.908373055637522"><ele>634.0</ele><time>2026-04-26T09:38:42.001Z</time></trkpt><trkpt lat="43.19282126132487" lon="10.908320525587628"><ele>634.0</ele><time>2026-04-26T09:38:43.001Z</time></trkpt><trkpt lat="43.19255396305277" lon="10.908270180075828"><ele>634.0</ele><time>2026-04-26T09:38:44.001Z</time></trkpt><trkpt lat="43.192286311423686" lon="10.908198165196945"><ele>625.0</ele><time>2026-04-26T09:38:45.001Z</time></trkpt><trkpt lat="43.19204435596834" lon="10.908149100186616"><ele>616.0</ele><time>2026-04-26T09:38:46.001Z</time></trkpt><trkpt lat="43.19181858883274" lon="10.908118398315276"><ele>616.0</ele><time>2026-04-26T09:38:47.001Z</time></trkpt><trkpt lat="43.19163240247267" lon="10.908034473306987"><ele>616.0</ele><time>2026-04-26T09:38:48.001Z</time></trkpt><trkpt lat="43.191454473404" lon="10.90794562484002"><ele>616.0</ele><time>2026-04-26T09:38:49.001Z</time></trkpt><trkpt lat="43.19128252662656" lon="10.907838080622637"><ele>613.3333333333334</ele><time>2026-04-26T09:38:50.001Z</time></trkpt><trkpt lat="43.19111593993584" lon="10.907694127182134"><ele>610.6666666666666</ele><time>2026-04-26T09:38:51.001Z</time></trkpt><trkpt lat="43.190960451314616" lon="10.907512509141897"><ele>608.0</ele><time>2026-04-26T09:38:52.001Z</time></trkpt><trkpt lat="43.190815408042944" lon="10.907303635305487"><ele>608.0</ele><time>2026-04-26T09:38:53.001Z</time></trkpt><trkpt lat="43.19067594060187" lon="10.90706724267809"><ele>608.0</ele><time>2026-04-26T09:38:54Z</time></trkpt><trkpt lat="43.190559588008725" lon="10.906822294498827"><ele>608.0</ele><time>2026-04-26T09:38:55Z</time></trkpt><trkpt lat="43.1904504732608" lon="10.906620284411558"><ele>604.0</ele><time>2026-04-26T09:38:56Z</time></trkpt><trkpt lat="43.19032989746781" lon="10.90645856045659"><ele>600.0</ele><time>2026-04-26T09:38:57Z</time></trkpt><trkpt lat="43.19017778521588" lon="10.906329678361725"><ele>596.0</ele><time>2026-04-26T09:38:58Z</time></trkpt><trkpt lat="43.189987969147204" lon="10.9062239623554"><ele>596.3333333333333</ele><time>2026-04-26T09:38:59Z</time></trkpt><trkpt lat="43.18978544797462" lon="10.906147465799243"><ele>596.6666666666666</ele><time>2026-04-26T09:39:00Z</time></trkpt><trkpt lat="43.18955777259153" lon="10.906058021672093"><ele>597.0</ele><time>2026-04-26T09:39:01Z</time></trkpt><trkpt lat="43.189313312957054" lon="10.905965466457136"><ele>605.5</ele><time>2026-04-26T09:39:02Z</time></trkpt><trkpt lat="43.18906081236159" lon="10.905866261465912"><ele>614.0</ele><time>2026-04-26T09:39:03Z</time></trkpt><trkpt lat="43.18879420168108" lon="10.905769955500991"><ele>614.5</ele><time>2026-04-26T09:39:04Z</time></trkpt><trkpt lat="43.18851721679936" lon="10.905670052458774"><ele>615.0</ele><time>2026-04-26T09:39:05Z</time></trkpt><trkpt lat="43.1882364755462" lon="10.90556667346723"><ele>615.0</ele><time>2026-04-26T09:39:06Z</time></trkpt><trkpt lat="43.18797616890838" lon="10.905462799189477"><ele>615.0</ele><time>2026-04-26T09:39:07Z</time></trkpt><trkpt lat="43.18776488361293" lon="10.905384949817304"><ele>615.0</ele><time>2026-04-26T09:39:08Z</time></trkpt><trkpt lat="43.187589438941544" lon="10.905329517655256"><ele>615.0</ele><time>2026-04-26T09:39:09Z</time></trkpt><trkpt lat="43.18743838198949" lon="10.90529557539891"><ele>615.0</ele><time>2026-04-26T09:39:10Z</time></trkpt><trkpt lat="43.187302199254" lon="10.905307441605917"><ele>624.0</ele><time>2026-04-26T09:39:11Z</time></trkpt><trkpt lat="43.18715596868471" lon="10.905388996670897"><ele>633.0</ele><time>2026-04-26T09:39:12Z</time></trkpt><trkpt lat="43.18702339596368" lon="10.905523167027956"><ele>642.0</ele><time>2026-04-26T09:39:13Z</time></trkpt><trkpt lat="43.18690776751038" lon="10.905713260585486"><ele>641.6666666666666</ele><time>2026-04-26T09:39:14Z</time></trkpt><trkpt lat="43.18682974243708" lon="10.905963462902912"><ele>641.3333333333333</ele><time>2026-04-26T09:39:15Z</time></trkpt><trkpt lat="43.186730433442385" lon="10.906249801698719"><ele>641.0</ele><time>2026-04-26T09:39:16Z</time></trkpt><trkpt lat="43.18663827897054" lon="10.906568760060791"><ele>640.0</ele><time>2026-04-26T09:39:17Z</time></trkpt><trkpt lat="43.18653403497751" lon="10.906860187528636"><ele>639.0</ele><time>2026-04-26T09:39:18Z</time></trkpt><trkpt lat="43.18644823264824" lon="10.907102492391122"><ele>638.0</ele><time>2026-04-26T09:39:19Z</time></trkpt><trkpt lat="43.186336565426345" lon="10.90730385499492"><ele>640.3333333333333</ele><time>2026-04-26T09:39:20Z</time></trkpt><trkpt lat="43.186211516701455" lon="10.90746572513625"><ele>642.6666666666666</ele><time>2026-04-26T09:39:21Z</time></trkpt><trkpt lat="43.18606073003316" lon="10.907593646725072"><ele>645.0</ele><time>2026-04-26T09:39:22Z</time></trkpt><trkpt lat="43.18587404010755" lon="10.907688263003424"><ele>647.6666666666666</ele><time>2026-04-26T09:39:23Z</time></trkpt><trkpt lat="43.185670567668325" lon="10.907731363056293"><ele>650.3333333333333</ele><time>2026-04-26T09:39:24Z</time></trkpt><trkpt lat="43.18544075883492" lon="10.907731606057526"><ele>653.0</ele><time>2026-04-26T09:39:25Z</time></trkpt><trkpt lat="43.18519128902739" lon="10.907737892802109"><ele>653.0</ele><time>2026-04-26T09:39:26Z</time></trkpt><trkpt lat="43.18492791967938" lon="10.907757357660316"><ele>653.0</ele><time>2026-04-26T09:39:27Z</time></trkpt><trkpt lat="43.18465142622044" lon="10.907775292427386"><ele>659.5</ele><time>2026-04-26T09:39:28Z</time></trkpt><trkpt lat="43.18440230765993" lon="10.907788627920004"><ele>666.0</ele><time>2026-04-26T09:39:29Z</time></trkpt><trkpt lat="43.18418332026841" lon="10.907788462280239"><ele>663.6666666666666</ele><time>2026-04-26T09:39:30Z</time></trkpt><trkpt lat="43.18397831647441" lon="10.907771230781847"><ele>661.3333333333333</ele><time>2026-04-26T09:39:31Z</time></trkpt><trkpt lat="43.18376268324639" lon="10.907737594517426"><ele>659.0</ele><time>2026-04-26T09:39:32Z</time></trkpt><trkpt lat="43.18354604429846" lon="10.907677686154054"><ele>659.0</ele><time>2026-04-26T09:39:33Z</time></trkpt><trkpt lat="43.18331291619785" lon="10.907590566301842"><ele>659.0</ele><time>2026-04-26T09:39:34Z</time></trkpt><trkpt lat="43.1830628301334" lon="10.907486117228553"><ele>660.5</ele><time>2026-04-26T09:39:35Z</time></trkpt><trkpt lat="43.18280403671659" lon="10.907381438787986"><ele>662.0</ele><time>2026-04-26T09:39:36Z</time></trkpt><trkpt lat="43.18255541368923" lon="10.90727802214359"><ele>667.0</ele><time>2026-04-26T09:39:37Z</time></trkpt><trkpt lat="43.18230596793362" lon="10.907275499728526"><ele>672.0</ele><time>2026-04-26T09:39:38Z</time></trkpt><trkpt lat="43.18202807465499" lon="10.907305526351927"><ele>672.0</ele><time>2026-04-26T09:39:39Z</time></trkpt><trkpt lat="43.18173828274826" lon="10.9073487535173"><ele>672.0</ele><time>2026-04-26T09:39:40Z</time></trkpt><trkpt lat="43.181434633865685" lon="10.90739673545398"><ele>675.0</ele><time>2026-04-26T09:39:41Z</time></trkpt><trkpt lat="43.18113339714894" lon="10.907448885600399"><ele>678.0</ele><time>2026-04-26T09:39:42Z</time></trkpt><trkpt lat="43.180866521147934" lon="10.907495640497437"><ele>677.0</ele><time>2026-04-26T09:39:43Z</time></trkpt><trkpt lat="43.18062976219553" lon="10.907521537861625"><ele>676.0</ele><time>2026-04-26T09:39:44Z</time></trkpt><trkpt lat="43.18044435120063" lon="10.907548850821385"><ele>675.0</ele><time>2026-04-26T09:39:45Z</time></trkpt><trkpt lat="43.180280928271905" lon="10.907590907647466"><ele>675.0</ele><time>2026-04-26T09:39:46Z</time></trkpt><trkpt lat="43.18013830377953" lon="10.9076728691638"><ele>675.0</ele><time>2026-04-26T09:39:47Z</time></trkpt><trkpt lat="43.180004321779734" lon="10.90780842375025"><ele>675.0</ele><time>2026-04-26T09:39:48Z</time></trkpt><trkpt lat="43.179897611442044" lon="10.907980707104326"><ele>676.0</ele><time>2026-04-26T09:39:49Z</time></trkpt><trkpt lat="43.17982845999478" lon="10.90821328419187"><ele>677.0</ele><time>2026-04-26T09:39:50Z</time></trkpt><trkpt lat="43.179826435102214" lon="10.9084652209203"><ele>678.0</ele><time>2026-04-26T09:39:51Z</time></trkpt><trkpt lat="43.179864207603686" lon="10.908724100331064"><ele>678.0</ele><time>2026-04-26T09:39:52Z</time></trkpt><trkpt lat="43.17991459327772" lon="10.908946007860862"><ele>678.0</ele><time>2026-04-26T09:39:53Z</time></trkpt><trkpt lat="43.17993486045859" lon="10.909141776008102"><ele>678.0</ele><time>2026-04-26T09:39:54Z</time></trkpt><trkpt lat="43.17991502471979" lon="10.909353639646264"><ele>675.0</ele><time>2026-04-26T09:39:55Z</time></trkpt><trkpt lat="43.17985989548328" lon="10.909574200307073"><ele>672.0</ele><time>2026-04-26T09:39:56Z</time></trkpt><trkpt lat="43.17976866313844" lon="10.909788802759826"><ele>669.0</ele><time>2026-04-26T09:39:57Z</time></trkpt><trkpt lat="43.17963287171499" lon="10.909983398810065"><ele>671.0</ele><time>2026-04-26T09:39:58Z</time></trkpt><trkpt lat="43.17946538147253" lon="10.910168979446771"><ele>673.0</ele><time>2026-04-26T09:39:59Z</time></trkpt><trkpt lat="43.179286400182804" lon="10.910348174683813"><ele>675.0</ele><time>2026-04-26T09:40:00Z</time></trkpt><trkpt lat="43.179107403654996" lon="10.910491879447"><ele>675.0</ele><time>2026-04-26T09:40:01Z</time></trkpt><trkpt lat="43.178941442944215" lon="10.910626423539982"><ele>675.0</ele><time>2026-04-26T09:40:02Z</time></trkpt><trkpt lat="43.17874953487682" lon="10.910715207610242"><ele>675.0</ele><time>2026-04-26T09:40:03Z</time></trkpt><trkpt lat="43.17853714246689" lon="10.910778363488582"><ele>675.0</ele><time>2026-04-26T09:40:04Z</time></trkpt><trkpt lat="43.17831783428379" lon="10.910810868623757"><ele>675.0</ele><time>2026-04-26T09:40:05Z</time></trkpt><trkpt lat="43.178095332319984" lon="10.910785027522223"><ele>675.0</ele><time>2026-04-26T09:40:06Z</time></trkpt><trkpt lat="43.17785221992339" lon="10.910713421604616"><ele>675.0</ele><time>2026-04-26T09:40:07Z</time></trkpt><trkpt lat="43.17758133887974" lon="10.910640173250316"><ele>675.0</ele><time>2026-04-26T09:40:08Z</time></trkpt><trkpt lat="43.17728480408035" lon="10.910572328499613"><ele>672.5</ele><time>2026-04-26T09:40:09Z</time></trkpt><trkpt lat="43.176968117951375" lon="10.910507026041158"><ele>670.0</ele><time>2026-04-26T09:40:10Z</time></trkpt><trkpt lat="43.17664763951043" lon="10.910436660301112"><ele>666.5</ele><time>2026-04-26T09:40:11Z</time></trkpt><trkpt lat="43.17633011402678" lon="10.910370846521706"><ele>663.0</ele><time>2026-04-26T09:40:12Z</time></trkpt><trkpt lat="43.1760460838979" lon="10.910313424213308"><ele>663.0</ele><time>2026-04-26T09:40:13Z</time></trkpt><trkpt lat="43.175810417316214" lon="10.91023929074709"><ele>663.0</ele><time>2026-04-26T09:40:14Z</time></trkpt><trkpt lat="43.17561352185902" lon="10.910133079993136"><ele>664.6666666666666</ele><time>2026-04-26T09:40:15Z</time></trkpt><trkpt lat="43.175429570541" lon="10.91000929021484"><ele>666.3333333333333</ele><time>2026-04-26T09:40:16Z</time></trkpt><trkpt lat="43.17525118327091" lon="10.909866415947528"><ele>668.0</ele><time>2026-04-26T09:40:17Z</time></trkpt><trkpt lat="43.17510465283111" lon="10.909678847303667"><ele>668.0</ele><time>2026-04-26T09:40:18Z</time></trkpt><trkpt lat="43.17497528153159" lon="10.909515792775492"><ele>668.0</ele><time>2026-04-26T09:40:19Z</time></trkpt><trkpt lat="43.174861365634555" lon="10.909338190921252"><ele>668.0</ele><time>2026-04-26T09:40:20Z</time></trkpt><trkpt lat="43.17477503806418" lon="10.909116367642378"><ele>667.6666666666666</ele><time>2026-04-26T09:40:21Z</time></trkpt><trkpt lat="43.174694534667736" lon="10.908893699512795"><ele>667.3333333333334</ele><time>2026-04-26T09:40:22Z</time></trkpt><trkpt lat="43.17463152224747" lon="10.908653077260416"><ele>667.0</ele><time>2026-04-26T09:40:23Z</time></trkpt><trkpt lat="43.174590263213524" lon="10.90839965507919"><ele>667.0</ele><time>2026-04-26T09:40:24Z</time></trkpt><trkpt lat="43.174576349207996" lon="10.908170075658411"><ele>667.0</ele><time>2026-04-26T09:40:25Z</time></trkpt><trkpt lat="43.17459968429169" lon="10.907955087675292"><ele>667.0</ele><time>2026-04-26T09:40:26Z</time></trkpt><trkpt lat="43.174644499104026" lon="10.907741264204242"><ele>665.0</ele><time>2026-04-26T09:40:27Z</time></trkpt><trkpt lat="43.17465585905435" lon="10.907499708082895"><ele>663.0</ele><time>2026-04-26T09:40:28Z</time></trkpt><trkpt lat="43.17463586173976" lon="10.907251362392495"><ele>661.0</ele><time>2026-04-26T09:40:29Z</time></trkpt><trkpt lat="43.17459363722905" lon="10.906980660910738"><ele>664.5</ele><time>2026-04-26T09:40:30Z</time></trkpt><trkpt lat="43.17452642805319" lon="10.906693154477063"><ele>668.0</ele><time>2026-04-26T09:40:31Z</time></trkpt><trkpt lat="43.174430778654575" lon="10.906399234445779"><ele>668.0</ele><time>2026-04-26T09:40:32Z</time></trkpt><trkpt lat="43.17433090702883" lon="10.906111206372696"><ele>668.0</ele><time>2026-04-26T09:40:33Z</time></trkpt><trkpt lat="43.17424552147948" lon="10.905848514428708"><ele>668.0</ele><time>2026-04-26T09:40:34Z</time></trkpt><trkpt lat="43.17413777143089" lon="10.905619643779254"><ele>664.3333333333333</ele><time>2026-04-26T09:40:35Z</time></trkpt><trkpt lat="43.17400065128463" lon="10.905407664931625"><ele>660.6666666666666</ele><time>2026-04-26T09:40:36.001Z</time></trkpt><trkpt lat="43.17383874508321" lon="10.905191175821393"><ele>657.0</ele><time>2026-04-26T09:40:37.001Z</time></trkpt><trkpt lat="43.173664657671694" lon="10.904972712633507"><ele>657.0</ele><time>2026-04-26T09:40:38.001Z</time></trkpt><trkpt lat="43.17349316075187" lon="10.904740214504617"><ele>657.0</ele><time>2026-04-26T09:40:39.001Z</time></trkpt><trkpt lat="43.17332305377964" lon="10.904509913254469"><ele>654.3333333333334</ele><time>2026-04-26T09:40:40.001Z</time></trkpt><trkpt lat="43.17316349328995" lon="10.904298418432951"><ele>651.6666666666667</ele><time>2026-04-26T09:40:41.001Z</time></trkpt><trkpt lat="43.17301333384633" lon="10.904089078379288"><ele>649.0</ele><time>2026-04-26T09:40:42.001Z</time></trkpt><trkpt lat="43.172880721044116" lon="10.903879924123029"><ele>649.0</ele><time>2026-04-26T09:40:43.001Z</time></trkpt><trkpt lat="43.17276037049853" lon="10.9036640779975"><ele>649.0</ele><time>2026-04-26T09:40:44.001Z</time></trkpt><trkpt lat="43.172655411304376" lon="10.90341995552761"><ele>649.0</ele><time>2026-04-26T09:40:45.001Z</time></trkpt><trkpt lat="43.17257000515136" lon="10.903160321047862"><ele>647.6666666666667</ele><time>2026-04-26T09:40:46.001Z</time></trkpt><trkpt lat="43.17250888082469" lon="10.90287373647533"><ele>646.3333333333334</ele><time>2026-04-26T09:40:47.001Z</time></trkpt><trkpt lat="43.17245756910685" lon="10.902572094610969"><ele>645.0</ele><time>2026-04-26T09:40:48.001Z</time></trkpt><trkpt lat="43.17240573664492" lon="10.902264119750475"><ele>631.0</ele><time>2026-04-26T09:40:49.001Z</time></trkpt><trkpt lat="43.17234817774334" lon="10.901951543356189"><ele>617.0</ele><time>2026-04-26T09:40:50.001Z</time></trkpt><trkpt lat="43.17231056222453" lon="10.901655720862088"><ele>616.0</ele><time>2026-04-26T09:40:51.001Z</time></trkpt><trkpt lat="43.1722636423918" lon="10.901380400232927"><ele>615.0</ele><time>2026-04-26T09:40:52.001Z</time></trkpt><trkpt lat="43.17222093513559" lon="10.90111958767909"><ele>614.0</ele><time>2026-04-26T09:40:53.001Z</time></trkpt><trkpt lat="43.17218636457569" lon="10.900871375392878"><ele>616.0</ele><time>2026-04-26T09:40:54.001Z</time></trkpt><trkpt lat="43.172169699505496" lon="10.90063388319457"><ele>618.0</ele><time>2026-04-26T09:40:55.001Z</time></trkpt><trkpt lat="43.17216791874666" lon="10.900403895978668"><ele>620.0</ele><time>2026-04-26T09:40:56.001Z</time></trkpt><trkpt lat="43.17219197854956" lon="10.900201229562585"><ele>618.5</ele><time>2026-04-26T09:40:57.001Z</time></trkpt><trkpt lat="43.172238994842225" lon="10.89999283224167"><ele>617.0</ele><time>2026-04-26T09:40:58.001Z</time></trkpt><trkpt lat="43.17230251769135" lon="10.899830303983714"><ele>615.5</ele><time>2026-04-26T09:40:59.001Z</time></trkpt><trkpt lat="43.172388038154494" lon="10.899686614057103"><ele>614.0</ele><time>2026-04-26T09:41:00Z</time></trkpt><trkpt lat="43.17246506418741" lon="10.89952431263053"><ele>615.0</ele><time>2026-04-26T09:41:01Z</time></trkpt><trkpt lat="43.17255548785909" lon="10.899391139792757"><ele>616.0</ele><time>2026-04-26T09:41:02Z</time></trkpt><trkpt lat="43.172630581460986" lon="10.899254059039086"><ele>617.0</ele><time>2026-04-26T09:41:03Z</time></trkpt><trkpt lat="43.17267545805524" lon="10.89909313275735"><ele>618.0</ele><time>2026-04-26T09:41:04Z</time></trkpt><trkpt lat="43.17267358994656" lon="10.898928363611834"><ele>618.0</ele><time>2026-04-26T09:41:05Z</time></trkpt><trkpt lat="43.1726578737298" lon="10.898750277202026"><ele>618.0</ele><time>2026-04-26T09:41:06Z</time></trkpt><trkpt lat="43.17260407453725" lon="10.898569629977665"><ele>618.0</ele><time>2026-04-26T09:41:07Z</time></trkpt><trkpt lat="43.17259325696495" lon="10.898383335269875"><ele>618.0</ele><time>2026-04-26T09:41:08Z</time></trkpt><trkpt lat="43.17265567363187" lon="10.898207052169822"><ele>616.0</ele><time>2026-04-26T09:41:09Z</time></trkpt><trkpt lat="43.17271621512907" lon="10.89798383537629"><ele>614.0</ele><time>2026-04-26T09:41:10Z</time></trkpt><trkpt lat="43.1727821073467" lon="10.897740890047585"><ele>612.0</ele><time>2026-04-26T09:41:11Z</time></trkpt><trkpt lat="43.172854178603615" lon="10.897473869730424"><ele>609.3333333333334</ele><time>2026-04-26T09:41:12Z</time></trkpt><trkpt lat="43.17292918842839" lon="10.897189204537703"><ele>606.6666666666667</ele><time>2026-04-26T09:41:13Z</time></trkpt><trkpt lat="43.173003034622724" lon="10.896901556700703"><ele>604.0</ele><time>2026-04-26T09:41:14Z</time></trkpt><trkpt lat="43.173067868046715" lon="10.89665702007037"><ele>600.6666666666667</ele><time>2026-04-26T09:41:15Z</time></trkpt><trkpt lat="43.17312484531255" lon="10.896407605942583"><ele>597.3333333333334</ele><time>2026-04-26T09:41:16Z</time></trkpt><trkpt lat="43.17315093687454" lon="10.896150334783052"><ele>594.0</ele><time>2026-04-26T09:41:17Z</time></trkpt><trkpt lat="43.17314312900668" lon="10.89587957738119"><ele>593.0</ele><time>2026-04-26T09:41:18Z</time></trkpt><trkpt lat="43.17310757576069" lon="10.895604578286543"><ele>592.0</ele><time>2026-04-26T09:41:19Z</time></trkpt><trkpt lat="43.17303278508441" lon="10.89533244624961"><ele>591.0</ele><time>2026-04-26T09:41:20Z</time></trkpt><trkpt lat="43.17292922757889" lon="10.895062875693919"><ele>590.5</ele><time>2026-04-26T09:41:21Z</time></trkpt><trkpt lat="43.17279718018661" lon="10.894808638284836"><ele>590.0</ele><time>2026-04-26T09:41:22Z</time></trkpt><trkpt lat="43.17265045924128" lon="10.894553305913146"><ele>590.0</ele><time>2026-04-26T09:41:23Z</time></trkpt><trkpt lat="43.17250755282445" lon="10.894297890985344"><ele>590.0</ele><time>2026-04-26T09:41:24Z</time></trkpt><trkpt lat="43.172360577114716" lon="10.894035735013265"><ele>583.5</ele><time>2026-04-26T09:41:25Z</time></trkpt><trkpt lat="43.172216971158925" lon="10.893766403362829"><ele>577.0</ele><time>2026-04-26T09:41:26Z</time></trkpt><trkpt lat="43.1720758985598" lon="10.893490481663235"><ele>579.0</ele><time>2026-04-26T09:41:27Z</time></trkpt><trkpt lat="43.17193139634417" lon="10.893196218104395"><ele>581.0</ele><time>2026-04-26T09:41:28Z</time></trkpt><trkpt lat="43.17178994899862" lon="10.892903438727926"><ele>581.0</ele><time>2026-04-26T09:41:29Z</time></trkpt><trkpt lat="43.17165623044476" lon="10.892620467119125"><ele>581.0</ele><time>2026-04-26T09:41:30Z</time></trkpt><trkpt lat="43.17151773959737" lon="10.892345070527615"><ele>574.5</ele><time>2026-04-26T09:41:31Z</time></trkpt><trkpt lat="43.17137610914052" lon="10.892082782612512"><ele>568.0</ele><time>2026-04-26T09:41:32Z</time></trkpt><trkpt lat="43.17123408839132" lon="10.891820258038393"><ele>569.6666666666667</ele><time>2026-04-26T09:41:33Z</time></trkpt><trkpt lat="43.171101657992764" lon="10.89157145792898"><ele>571.3333333333334</ele><time>2026-04-26T09:41:34Z</time></trkpt><trkpt lat="43.170971074499334" lon="10.891337088480807"><ele>573.0</ele><time>2026-04-26T09:41:35Z</time></trkpt><trkpt lat="43.17082758630606" lon="10.89110868373782"><ele>568.0</ele><time>2026-04-26T09:41:36Z</time></trkpt><trkpt lat="43.170662694168215" lon="10.890888194390037"><ele>563.0</ele><time>2026-04-26T09:41:37Z</time></trkpt><trkpt lat="43.17048183444031" lon="10.890683801445267"><ele>563.0</ele><time>2026-04-26T09:41:38Z</time></trkpt><trkpt lat="43.170299945057934" lon="10.89049558210487"><ele>563.0</ele><time>2026-04-26T09:41:39Z</time></trkpt><trkpt lat="43.17011019558812" lon="10.890301307468965"><ele>563.0</ele><time>2026-04-26T09:41:40Z</time></trkpt><trkpt lat="43.169912906865314" lon="10.890119109062494"><ele>563.0</ele><time>2026-04-26T09:41:41Z</time></trkpt><trkpt lat="43.16970795726745" lon="10.88993960244782"><ele>560.5</ele><time>2026-04-26T09:41:42Z</time></trkpt><trkpt lat="43.169514443405546" lon="10.889756064255588"><ele>558.0</ele><time>2026-04-26T09:41:43Z</time></trkpt><trkpt lat="43.16932296098109" lon="10.889571795930808"><ele>558.0</ele><time>2026-04-26T09:41:44Z</time></trkpt><trkpt lat="43.16912679416947" lon="10.889387139225873"><ele>558.0</ele><time>2026-04-26T09:41:45Z</time></trkpt><trkpt lat="43.16892955175033" lon="10.889205954166757"><ele>554.5</ele><time>2026-04-26T09:41:46Z</time></trkpt><trkpt lat="43.168727395895345" lon="10.889022787208287"><ele>551.0</ele><time>2026-04-26T09:41:47Z</time></trkpt><trkpt lat="43.16852948268458" lon="10.888836690622622"><ele>551.0</ele><time>2026-04-26T09:41:48Z</time></trkpt><trkpt lat="43.16833066008969" lon="10.888647198323548"><ele>551.0</ele><time>2026-04-26T09:41:49Z</time></trkpt><trkpt lat="43.16812886008003" lon="10.888459557283223"><ele>548.5</ele><time>2026-04-26T09:41:50Z</time></trkpt><trkpt lat="43.167923539422745" lon="10.888275778951053"><ele>546.0</ele><time>2026-04-26T09:41:51Z</time></trkpt><trkpt lat="43.16773155883746" lon="10.888072488415988"><ele>546.0</ele><time>2026-04-26T09:41:52Z</time></trkpt><trkpt lat="43.16753098149401" lon="10.88788488122873"><ele>546.0</ele><time>2026-04-26T09:41:53Z</time></trkpt><trkpt lat="43.16732983275349" lon="10.887698534632655"><ele>542.5</ele><time>2026-04-26T09:41:54Z</time></trkpt><trkpt lat="43.16713019228123" lon="10.887513379546125"><ele>539.0</ele><time>2026-04-26T09:41:55Z</time></trkpt><trkpt lat="43.166932958553375" lon="10.887330972487613"><ele>539.0</ele><time>2026-04-26T09:41:56Z</time></trkpt><trkpt lat="43.16672947229304" lon="10.887168181143448"><ele>539.0</ele><time>2026-04-26T09:41:57Z</time></trkpt><trkpt lat="43.16654109431683" lon="10.886975064616779"><ele>535.0</ele><time>2026-04-26T09:41:58Z</time></trkpt><trkpt lat="43.16635889184807" lon="10.886766968987967"><ele>531.0</ele><time>2026-04-26T09:41:59Z</time></trkpt><trkpt lat="43.16618221503819" lon="10.886540188317511"><ele>531.0</ele><time>2026-04-26T09:42:00Z</time></trkpt><trkpt lat="43.166018079483685" lon="10.886294500841423"><ele>531.0</ele><time>2026-04-26T09:42:01Z</time></trkpt><trkpt lat="43.165858955092254" lon="10.886043247013014"><ele>533.0</ele><time>2026-04-26T09:42:02Z</time></trkpt><trkpt lat="43.16570374294093" lon="10.885783785794478"><ele>535.0</ele><time>2026-04-26T09:42:03Z</time></trkpt><trkpt lat="43.165547798014934" lon="10.885523460986729"><ele>537.0</ele><time>2026-04-26T09:42:04Z</time></trkpt><trkpt lat="43.165406721772186" lon="10.885249011442976"><ele>539.0</ele><time>2026-04-26T09:42:05Z</time></trkpt><trkpt lat="43.16525084459444" lon="10.884990077948007"><ele>540.0</ele><time>2026-04-26T09:42:06Z</time></trkpt><trkpt lat="43.16508478697316" lon="10.884746927418028"><ele>541.0</ele><time>2026-04-26T09:42:07Z</time></trkpt><trkpt lat="43.164934233949545" lon="10.884490584173022"><ele>541.0</ele><time>2026-04-26T09:42:08Z</time></trkpt><trkpt lat="43.16479750151155" lon="10.88422974530969"><ele>541.0</ele><time>2026-04-26T09:42:09Z</time></trkpt><trkpt lat="43.16465115508442" lon="10.883984782303695"><ele>541.0</ele><time>2026-04-26T09:42:10Z</time></trkpt><trkpt lat="43.164509587516605" lon="10.883742159413691"><ele>541.0</ele><time>2026-04-26T09:42:11Z</time></trkpt><trkpt lat="43.16437568688028" lon="10.8834914347017"><ele>541.5</ele><time>2026-04-26T09:42:12Z</time></trkpt><trkpt lat="43.16423739253666" lon="10.883252464852974"><ele>542.0</ele><time>2026-04-26T09:42:13Z</time></trkpt><trkpt lat="43.16411551810654" lon="10.882988268694458"><ele>541.5</ele><time>2026-04-26T09:42:14Z</time></trkpt><trkpt lat="43.16399814378647" lon="10.882717946644082"><ele>541.0</ele><time>2026-04-26T09:42:15Z</time></trkpt><trkpt lat="43.163885366750364" lon="10.88244415266761"><ele>541.0</ele><time>2026-04-26T09:42:16Z</time></trkpt><trkpt lat="43.16378835255023" lon="10.882165314213845"><ele>541.0</ele><time>2026-04-26T09:42:17Z</time></trkpt><trkpt lat="43.16366093358003" lon="10.881907123706762"><ele>545.0</ele><time>2026-04-26T09:42:18Z</time></trkpt><trkpt lat="43.163547120155755" lon="10.881634856908049"><ele>549.0</ele><time>2026-04-26T09:42:19Z</time></trkpt><trkpt lat="43.16343304096956" lon="10.881357543033804"><ele>549.0</ele><time>2026-04-26T09:42:20Z</time></trkpt><trkpt lat="43.16331851917165" lon="10.881082038254503"><ele>549.0</ele><time>2026-04-26T09:42:21Z</time></trkpt><trkpt lat="43.16320071240432" lon="10.88080254397099"><ele>547.0</ele><time>2026-04-26T09:42:22Z</time></trkpt><trkpt lat="43.163064619938666" lon="10.880539261524307"><ele>545.0</ele><time>2026-04-26T09:42:23Z</time></trkpt><trkpt lat="43.162910190363085" lon="10.880290343653668"><ele>548.0</ele><time>2026-04-26T09:42:24Z</time></trkpt><trkpt lat="43.16274116931139" lon="10.880042218712232"><ele>551.0</ele><time>2026-04-26T09:42:25Z</time></trkpt><trkpt lat="43.162560445955634" lon="10.879812503931515"><ele>551.0</ele><time>2026-04-26T09:42:26Z</time></trkpt><trkpt lat="43.16237356854739" lon="10.879591606594571"><ele>551.0</ele><time>2026-04-26T09:42:27Z</time></trkpt><trkpt lat="43.162177191743666" lon="10.879372277679877"><ele>557.0</ele><time>2026-04-26T09:42:28Z</time></trkpt><trkpt lat="43.16197604018042" lon="10.879163099206062"><ele>563.0</ele><time>2026-04-26T09:42:29Z</time></trkpt><trkpt lat="43.16177704908756" lon="10.878977840168288"><ele>563.0</ele><time>2026-04-26T09:42:30Z</time></trkpt><trkpt lat="43.161583184472185" lon="10.878829966485673"><ele>563.0</ele><time>2026-04-26T09:42:31Z</time></trkpt><trkpt lat="43.161380344459594" lon="10.878718666390599"><ele>563.0</ele><time>2026-04-26T09:42:32Z</time></trkpt><trkpt lat="43.161182972468275" lon="10.878637956667458"><ele>567.0</ele><time>2026-04-26T09:42:33Z</time></trkpt><trkpt lat="43.160959845681994" lon="10.878586875777566"><ele>571.0</ele><time>2026-04-26T09:42:34Z</time></trkpt><trkpt lat="43.160720946508825" lon="10.87855752368897"><ele>571.0</ele><time>2026-04-26T09:42:35Z</time></trkpt><trkpt lat="43.160462925911126" lon="10.878539688437645"><ele>571.0</ele><time>2026-04-26T09:42:36Z</time></trkpt><trkpt lat="43.160195084799554" lon="10.878523458813412"><ele>571.0</ele><time>2026-04-26T09:42:37Z</time></trkpt><trkpt lat="43.1599235938504" lon="10.878497111863538"><ele>571.0</ele><time>2026-04-26T09:42:38Z</time></trkpt><trkpt lat="43.159645740724216" lon="10.8784731885685"><ele>574.0</ele><time>2026-04-26T09:42:39Z</time></trkpt><trkpt lat="43.159369112838434" lon="10.878447895373768"><ele>577.0</ele><time>2026-04-26T09:42:40Z</time></trkpt><trkpt lat="43.159086830579504" lon="10.878418458096478"><ele>584.5</ele><time>2026-04-26T09:42:41Z</time></trkpt><trkpt lat="43.158815048843366" lon="10.878388454605918"><ele>592.0</ele><time>2026-04-26T09:42:42.001Z</time></trkpt><trkpt lat="43.15857116142167" lon="10.878369342359745"><ele>592.0</ele><time>2026-04-26T09:42:43.001Z</time></trkpt><trkpt lat="43.158338760515036" lon="10.878377577689458"><ele>592.0</ele><time>2026-04-26T09:42:44.001Z</time></trkpt><trkpt lat="43.15810646720894" lon="10.878415989178587"><ele>593.0</ele><time>2026-04-26T09:42:45.001Z</time></trkpt><trkpt lat="43.157881851584776" lon="10.878485537359865"><ele>594.0</ele><time>2026-04-26T09:42:46.001Z</time></trkpt><trkpt lat="43.157665403312485" lon="10.878600702288228"><ele>594.0</ele><time>2026-04-26T09:42:47.001Z</time></trkpt><trkpt lat="43.1574525251198" lon="10.878758574965612"><ele>594.0</ele><time>2026-04-26T09:42:48.001Z</time></trkpt><trkpt lat="43.15724709161471" lon="10.878947066372303"><ele>593.6666666666666</ele><time>2026-04-26T09:42:49.001Z</time></trkpt><trkpt lat="43.15709275748441" lon="10.87913746003551"><ele>593.3333333333333</ele><time>2026-04-26T09:42:50.001Z</time></trkpt><trkpt lat="43.15696828342988" lon="10.879308422243124"><ele>593.0</ele><time>2026-04-26T09:42:51.001Z</time></trkpt><trkpt lat="43.15686788339498" lon="10.879420762617428"><ele>593.0</ele><time>2026-04-26T09:42:52.001Z</time></trkpt><trkpt lat="43.156759729053256" lon="10.879490201314779"><ele>593.0</ele><time>2026-04-26T09:42:53.001Z</time></trkpt><trkpt lat="43.15662739066545" lon="10.879502080793435"><ele>593.0</ele><time>2026-04-26T09:42:54.001Z</time></trkpt><trkpt lat="43.15651647519798" lon="10.879451740361242"><ele>593.0</ele><time>2026-04-26T09:42:55.001Z</time></trkpt><trkpt lat="43.15643602368354" lon="10.879336989942297"><ele>596.0</ele><time>2026-04-26T09:42:56.001Z</time></trkpt><trkpt lat="43.156390047344516" lon="10.879218852967188"><ele>599.0</ele><time>2026-04-26T09:42:57.001Z</time></trkpt><trkpt lat="43.15635859649235" lon="10.879111126043675"><ele>602.0</ele><time>2026-04-26T09:42:58.001Z</time></trkpt><trkpt lat="43.15630172341106" lon="10.879055637423134"><ele>605.0</ele><time>2026-04-26T09:42:59.001Z</time></trkpt><trkpt lat="43.15621907168941" lon="10.879060927699626"><ele>608.0</ele><time>2026-04-26T09:43:00.001Z</time></trkpt><trkpt lat="43.15615123859512" lon="10.879159599644677"><ele>611.0</ele><time>2026-04-26T09:43:01.001Z</time></trkpt><trkpt lat="43.15610977635951" lon="10.87931354697101"><ele>611.0</ele><time>2026-04-26T09:43:02.001Z</time></trkpt><trkpt lat="43.15606800092897" lon="10.879534592339736"><ele>611.0</ele><time>2026-04-26T09:43:03.001Z</time></trkpt><trkpt lat="43.15604978234913" lon="10.879859401344998"><ele>611.0</ele><time>2026-04-26T09:43:05.001Z</time></trkpt><trkpt lat="43.15606940392417" lon="10.880064534736048"><ele>612.75</ele><time>2026-04-26T09:43:06Z</time></trkpt><trkpt lat="43.15603936064187" lon="10.880202631771274"><ele>614.5</ele><time>2026-04-26T09:43:07Z</time></trkpt><trkpt lat="43.155955688008845" lon="10.880302410612076"><ele>616.25</ele><time>2026-04-26T09:43:08Z</time></trkpt><trkpt lat="43.15583554061589" lon="10.880277820229125"><ele>618.0</ele><time>2026-04-26T09:43:09Z</time></trkpt><trkpt lat="43.155684583883314" lon="10.880330459021273"><ele>618.0</ele><time>2026-04-26T09:43:10Z</time></trkpt><trkpt lat="43.15555794959016" lon="10.880480125628866"><ele>618.0</ele><time>2026-04-26T09:43:11Z</time></trkpt><trkpt lat="43.15538215557292" lon="10.880711972087708"><ele>618.0</ele><time>2026-04-26T09:43:12Z</time></trkpt><trkpt lat="43.155206135564924" lon="10.8809586726281"><ele>617.0</ele><time>2026-04-26T09:43:13Z</time></trkpt><trkpt lat="43.154996720108905" lon="10.881235003455512"><ele>616.0</ele><time>2026-04-26T09:43:14Z</time></trkpt><trkpt lat="43.15476123934465" lon="10.881507033599267"><ele>616.0</ele><time>2026-04-26T09:43:15Z</time></trkpt><trkpt lat="43.154611997634" lon="10.88173123506688"><ele>616.0</ele><time>2026-04-26T09:43:16Z</time></trkpt><trkpt lat="43.15449739628833" lon="10.881907829041172"><ele>616.0</ele><time>2026-04-26T09:43:17Z</time></trkpt><trkpt lat="43.15441872773567" lon="10.882059894727032"><ele>614.8</ele><time>2026-04-26T09:43:18Z</time></trkpt><trkpt lat="43.15437091627839" lon="10.882134812343953"><ele>613.6</ele><time>2026-04-26T09:43:19Z</time></trkpt><trkpt lat="43.15428302100655" lon="10.882146945106554"><ele>612.4</ele><time>2026-04-26T09:43:20Z</time></trkpt><trkpt lat="43.15420068291196" lon="10.882073942485935"><ele>611.2</ele><time>2026-04-26T09:43:21Z</time></trkpt><trkpt lat="43.1540795757359" lon="10.881994386155714"><ele>610.0</ele><time>2026-04-26T09:43:22Z</time></trkpt><trkpt lat="43.153980862901676" lon="10.881973703602178"><ele>613.25</ele><time>2026-04-26T09:43:23Z</time></trkpt><trkpt lat="43.153890141469354" lon="10.881983734867614"><ele>616.5</ele><time>2026-04-26T09:43:24Z</time></trkpt><trkpt lat="43.153795855982644" lon="10.882067105860024"><ele>619.75</ele><time>2026-04-26T09:43:25Z</time></trkpt><trkpt lat="43.15376937574076" lon="10.8822460192921"><ele>623.0</ele><time>2026-04-26T09:43:26Z</time></trkpt><trkpt lat="43.153789053585264" lon="10.882427187195564"><ele>622.0</ele><time>2026-04-26T09:43:27Z</time></trkpt><trkpt lat="43.1538680702271" lon="10.882661288204945"><ele>621.0</ele><time>2026-04-26T09:43:28Z</time></trkpt><trkpt lat="43.15393192945956" lon="10.882811973197974"><ele>620.0</ele><time>2026-04-26T09:43:29Z</time></trkpt><trkpt lat="43.15392910097425" lon="10.882958860484822"><ele>619.0</ele><time>2026-04-26T09:43:30Z</time></trkpt><trkpt lat="43.153833889500106" lon="10.883141388005983"><ele>619.0</ele><time>2026-04-26T09:43:31Z</time></trkpt><trkpt lat="43.153750609544936" lon="10.88336590187467"><ele>619.0</ele><time>2026-04-26T09:43:32Z</time></trkpt><trkpt lat="43.153663484610156" lon="10.88364034295248"><ele>619.0</ele><time>2026-04-26T09:43:33Z</time></trkpt><trkpt lat="43.15361760778055" lon="10.883861495892615"><ele>616.75</ele><time>2026-04-26T09:43:34Z</time></trkpt><trkpt lat="43.15357280792682" lon="10.884026903391549"><ele>614.5</ele><time>2026-04-26T09:43:35Z</time></trkpt><trkpt lat="43.15354681674629" lon="10.884190446183341"><ele>612.25</ele><time>2026-04-26T09:43:36Z</time></trkpt><trkpt lat="43.15354126906451" lon="10.884351152640681"><ele>610.0</ele><time>2026-04-26T09:43:37Z</time></trkpt><trkpt lat="43.153525119358726" lon="10.884488611905956"><ele>608.8333333333334</ele><time>2026-04-26T09:43:38Z</time></trkpt><trkpt lat="43.15351279612008" lon="10.88460634008818"><ele>607.6666666666667</ele><time>2026-04-26T09:43:39Z</time></trkpt><trkpt lat="43.15349506384766" lon="10.884714111151128"><ele>606.5</ele><time>2026-04-26T09:43:40Z</time></trkpt><trkpt lat="43.15346181040339" lon="10.884806190516509"><ele>605.3333333333334</ele><time>2026-04-26T09:43:41Z</time></trkpt><trkpt lat="43.15340884043523" lon="10.884861120671223"><ele>604.1666666666666</ele><time>2026-04-26T09:43:42Z</time></trkpt><trkpt lat="43.153322370784714" lon="10.884859370436503"><ele>603.0</ele><time>2026-04-26T09:43:43Z</time></trkpt><trkpt lat="43.153245999274716" lon="10.884817052119441"><ele>603.0</ele><time>2026-04-26T09:43:44Z</time></trkpt><trkpt lat="43.153207369896826" lon="10.884681701563759"><ele>603.0</ele><time>2026-04-26T09:43:45Z</time></trkpt><trkpt lat="43.15316055984352" lon="10.884562621141024"><ele>603.0</ele><time>2026-04-26T09:43:46Z</time></trkpt><trkpt lat="43.153090892485025" lon="10.884443425032627"><ele>603.0</ele><time>2026-04-26T09:43:47Z</time></trkpt><trkpt lat="43.153007528998785" lon="10.88433517314861"><ele>603.0</ele><time>2026-04-26T09:43:48Z</time></trkpt><trkpt lat="43.15292369303548" lon="10.88424542599889"><ele>605.1999999999999</ele><time>2026-04-26T09:43:49Z</time></trkpt><trkpt lat="43.152825823808925" lon="10.884180641595613"><ele>607.4</ele><time>2026-04-26T09:43:50Z</time></trkpt><trkpt lat="43.15272796708931" lon="10.884130878995066"><ele>609.5999999999999</ele><time>2026-04-26T09:43:51Z</time></trkpt><trkpt lat="43.152622391507464" lon="10.884104159779467"><ele>611.8</ele><time>2026-04-26T09:43:52Z</time></trkpt><trkpt lat="43.15250812183247" lon="10.884134547815862"><ele>614.0</ele><time>2026-04-26T09:43:53Z</time></trkpt><trkpt lat="43.15239763719572" lon="10.884139384013674"><ele>614.0</ele><time>2026-04-26T09:43:54Z</time></trkpt><trkpt lat="43.15228706630584" lon="10.884191301203387"><ele>614.0</ele><time>2026-04-26T09:43:55Z</time></trkpt><trkpt lat="43.15217675876562" lon="10.884231553262072"><ele>614.0</ele><time>2026-04-26T09:43:56Z</time></trkpt><trkpt lat="43.152082072148914" lon="10.884289975924819"><ele>614.0</ele><time>2026-04-26T09:43:57Z</time></trkpt><trkpt lat="43.15197138320836" lon="10.884327994128903"><ele>614.0</ele><time>2026-04-26T09:43:58Z</time></trkpt><trkpt lat="43.15186629119332" lon="10.884341711605027"><ele>614.2</ele><time>2026-04-26T09:43:59Z</time></trkpt><trkpt lat="43.151765370584855" lon="10.884317397157192"><ele>614.4</ele><time>2026-04-26T09:44:00Z</time></trkpt><trkpt lat="43.15164617706782" lon="10.884282796837601"><ele>614.6</ele><time>2026-04-26T09:44:01Z</time></trkpt><trkpt lat="43.15154813975655" lon="10.884302716905705"><ele>614.8</ele><time>2026-04-26T09:44:02Z</time></trkpt><trkpt lat="43.1514407101484" lon="10.88436968081114"><ele>615.0</ele><time>2026-04-26T09:44:03Z</time></trkpt><trkpt lat="43.151367490813335" lon="10.884448042745278"><ele>615.0</ele><time>2026-04-26T09:44:04Z</time></trkpt><trkpt lat="43.15133265271707" lon="10.884586166186116"><ele>615.0</ele><time>2026-04-26T09:44:05Z</time></trkpt><trkpt lat="43.15131881371501" lon="10.884743760656264"><ele>615.0</ele><time>2026-04-26T09:44:06Z</time></trkpt><trkpt lat="43.151288653180366" lon="10.884908865657255"><ele>615.0</ele><time>2026-04-26T09:44:07Z</time></trkpt><trkpt lat="43.15123410775949" lon="10.885064460214162"><ele>612.2</ele><time>2026-04-26T09:44:08Z</time></trkpt><trkpt lat="43.151164264089715" lon="10.88518250111043"><ele>609.4</ele><time>2026-04-26T09:44:09Z</time></trkpt><trkpt lat="43.151078370085635" lon="10.885244874228292"><ele>606.6</ele><time>2026-04-26T09:44:10Z</time></trkpt><trkpt lat="43.15097587734729" lon="10.885291449492703"><ele>603.8</ele><time>2026-04-26T09:44:11Z</time></trkpt><trkpt lat="43.15087359101589" lon="10.885318328372698"><ele>601.0</ele><time>2026-04-26T09:44:12Z</time></trkpt><trkpt lat="43.15077050590486" lon="10.885270947522825"><ele>603.0</ele><time>2026-04-26T09:44:13Z</time></trkpt><trkpt lat="43.150644075195196" lon="10.885249979395205"><ele>605.0</ele><time>2026-04-26T09:44:14Z</time></trkpt><trkpt lat="43.15052309511984" lon="10.885223582330237"><ele>607.0</ele><time>2026-04-26T09:44:15Z</time></trkpt><trkpt lat="43.150404768077905" lon="10.88521314380893"><ele>609.0</ele><time>2026-04-26T09:44:16Z</time></trkpt><trkpt lat="43.15029430493461" lon="10.885208066055226"><ele>609.0</ele><time>2026-04-26T09:44:17Z</time></trkpt><trkpt lat="43.15019468103631" lon="10.88523358557671"><ele>609.0</ele><time>2026-04-26T09:44:18Z</time></trkpt><trkpt lat="43.150075112568175" lon="10.885259406627073"><ele>609.0</ele><time>2026-04-26T09:44:19Z</time></trkpt><trkpt lat="43.14996066831704" lon="10.885281653107926"><ele>609.0</ele><time>2026-04-26T09:44:20Z</time></trkpt><trkpt lat="43.149856726055894" lon="10.885301538981814"><ele>609.0</ele><time>2026-04-26T09:44:21Z</time></trkpt><trkpt lat="43.14977157737466" lon="10.885325472134147"><ele>611.0</ele><time>2026-04-26T09:44:22Z</time></trkpt><trkpt lat="43.149704691397886" lon="10.8853557097213"><ele>613.0</ele><time>2026-04-26T09:44:23Z</time></trkpt><trkpt lat="43.14963362723165" lon="10.885415486499989"><ele>615.0</ele><time>2026-04-26T09:44:24Z</time></trkpt><trkpt lat="43.149604958774766" lon="10.8855369171436"><ele>617.0</ele><time>2026-04-26T09:44:25Z</time></trkpt><trkpt lat="43.14958458129427" lon="10.88566554910537"><ele>619.0</ele><time>2026-04-26T09:44:26Z</time></trkpt><trkpt lat="43.14958007632812" lon="10.885822724062061"><ele>618.4</ele><time>2026-04-26T09:44:27Z</time></trkpt><trkpt lat="43.14959644294855" lon="10.885958870738305"><ele>617.8</ele><time>2026-04-26T09:44:28Z</time></trkpt><trkpt lat="43.14962965609862" lon="10.886107418142062"><ele>617.2</ele><time>2026-04-26T09:44:29Z</time></trkpt><trkpt lat="43.14963334649794" lon="10.88623769767995"><ele>616.6</ele><time>2026-04-26T09:44:30Z</time></trkpt><trkpt lat="43.149621119188005" lon="10.88637054798111"><ele>616.0</ele><time>2026-04-26T09:44:31Z</time></trkpt><trkpt lat="43.149565530652005" lon="10.886491881469762"><ele>616.0</ele><time>2026-04-26T09:44:32Z</time></trkpt><trkpt lat="43.14951001792801" lon="10.886631231238749"><ele>616.0</ele><time>2026-04-26T09:44:33Z</time></trkpt><trkpt lat="43.14943797326295" lon="10.886767704035565"><ele>616.0</ele><time>2026-04-26T09:44:34Z</time></trkpt><trkpt lat="43.149367767619005" lon="10.886861337366668"><ele>616.0</ele><time>2026-04-26T09:44:35Z</time></trkpt><trkpt lat="43.14928043654399" lon="10.886914497004836"><ele>616.0</ele><time>2026-04-26T09:44:36Z</time></trkpt><trkpt lat="43.14916970210465" lon="10.886930258808384"><ele>613.5</ele><time>2026-04-26T09:44:37Z</time></trkpt><trkpt lat="43.14904754706277" lon="10.886922680302836"><ele>611.0</ele><time>2026-04-26T09:44:38Z</time></trkpt><trkpt lat="43.14894114098969" lon="10.886850754861165"><ele>608.5</ele><time>2026-04-26T09:44:39Z</time></trkpt><trkpt lat="43.14883083971831" lon="10.886780753732177"><ele>606.0</ele><time>2026-04-26T09:44:40Z</time></trkpt><trkpt lat="43.1487041962323" lon="10.886707265350566"><ele>606.0</ele><time>2026-04-26T09:44:41.001Z</time></trkpt><trkpt lat="43.14858535479699" lon="10.886598731327267"><ele>606.0</ele><time>2026-04-26T09:44:42.001Z</time></trkpt><trkpt lat="43.148483768262714" lon="10.88650416884878"><ele>606.0</ele><time>2026-04-26T09:44:43.001Z</time></trkpt><trkpt lat="43.14839661844403" lon="10.88641991016402"><ele>606.0</ele><time>2026-04-26T09:44:44.001Z</time></trkpt><trkpt lat="43.14830037475653" lon="10.88633621499135"><ele>605.75</ele><time>2026-04-26T09:44:45.001Z</time></trkpt><trkpt lat="43.148199858766844" lon="10.88625080434327"><ele>605.5</ele><time>2026-04-26T09:44:46.001Z</time></trkpt><trkpt lat="43.14810084443992" lon="10.886160874748679"><ele>605.25</ele><time>2026-04-26T09:44:47.001Z</time></trkpt><trkpt lat="43.14799082505056" lon="10.886073534747911"><ele>605.0</ele><time>2026-04-26T09:44:48.001Z</time></trkpt><trkpt lat="43.147864575713115" lon="10.886015335616625"><ele>605.0</ele><time>2026-04-26T09:44:49.001Z</time></trkpt><trkpt lat="43.14772043432446" lon="10.886009841991882"><ele>605.0</ele><time>2026-04-26T09:44:50.001Z</time></trkpt><trkpt lat="43.147574912311896" lon="10.886027915439364"><ele>605.0</ele><time>2026-04-26T09:44:51.001Z</time></trkpt><trkpt lat="43.14743913041822" lon="10.886036343859233"><ele>605.0</ele><time>2026-04-26T09:44:52.001Z</time></trkpt><trkpt lat="43.14732522162956" lon="10.886050119190811"><ele>608.25</ele><time>2026-04-26T09:44:53.001Z</time></trkpt><trkpt lat="43.147207928048225" lon="10.886053652157155"><ele>611.5</ele><time>2026-04-26T09:44:54.001Z</time></trkpt><trkpt lat="43.14708783091574" lon="10.88605477145237"><ele>614.75</ele><time>2026-04-26T09:44:55.001Z</time></trkpt><trkpt lat="43.146967419643424" lon="10.886018189463027"><ele>618.0</ele><time>2026-04-26T09:44:56.001Z</time></trkpt><trkpt lat="43.14684341193331" lon="10.885980953259427"><ele>618.0</ele><time>2026-04-26T09:44:57.001Z</time></trkpt><trkpt lat="43.14670835183231" lon="10.885944027368582"><ele>618.0</ele><time>2026-04-26T09:44:58.001Z</time></trkpt><trkpt lat="43.14659981020051" lon="10.88590107308003"><ele>618.0</ele><time>2026-04-26T09:44:59.001Z</time></trkpt><trkpt lat="43.14649199457311" lon="10.885868457331366"><ele>618.0</ele><time>2026-04-26T09:45:00.001Z</time></trkpt><trkpt lat="43.146385093077406" lon="10.885829353778673"><ele>618.5</ele><time>2026-04-26T09:45:01.001Z</time></trkpt><trkpt lat="43.146296232353485" lon="10.88578893427229"><ele>619.0</ele><time>2026-04-26T09:45:02.001Z</time></trkpt><trkpt lat="43.146190391433166" lon="10.885740319569697"><ele>619.5</ele><time>2026-04-26T09:45:03.001Z</time></trkpt><trkpt lat="43.14611007321054" lon="10.88570186981507"><ele>620.0</ele><time>2026-04-26T09:45:04.001Z</time></trkpt><trkpt lat="43.14603618081357" lon="10.885672714796847"><ele>620.5</ele><time>2026-04-26T09:45:05.001Z</time></trkpt><trkpt lat="43.14597141858345" lon="10.885681642021556"><ele>621.0</ele><time>2026-04-26T09:45:06.001Z</time></trkpt><trkpt lat="43.14588900476639" lon="10.885729030569388"><ele>621.0</ele><time>2026-04-26T09:45:07.001Z</time></trkpt><trkpt lat="43.14586064887153" lon="10.885849755093867"><ele>621.0</ele><time>2026-04-26T09:45:08.001Z</time></trkpt><trkpt lat="43.1458780745858" lon="10.885988785545205"><ele>621.0</ele><time>2026-04-26T09:45:09.001Z</time></trkpt><trkpt lat="43.145909765220765" lon="10.886107417453289"><ele>621.0</ele><time>2026-04-26T09:45:10.001Z</time></trkpt><trkpt lat="43.145931484378245" lon="10.886196960929976"><ele>621.0</ele><time>2026-04-26T09:45:11.001Z</time></trkpt><trkpt lat="43.145973595747826" lon="10.88635420902231"><ele>621.3333333333334</ele><time>2026-04-26T09:45:13Z</time></trkpt><trkpt lat="43.14599066926717" lon="10.886450626650094"><ele>621.6666666666666</ele><time>2026-04-26T09:45:14Z</time></trkpt><trkpt lat="43.14599920749489" lon="10.886558093706183"><ele>622.0</ele><time>2026-04-26T09:45:15Z</time></trkpt><trkpt lat="43.14600903300707" lon="10.886657563583817"><ele>622.3333333333333</ele><time>2026-04-26T09:45:16Z</time></trkpt><trkpt lat="43.14600678434203" lon="10.886769206136236"><ele>622.6666666666666</ele><time>2026-04-26T09:45:17Z</time></trkpt><trkpt lat="43.145992167491514" lon="10.886857049589457"><ele>623.0</ele><time>2026-04-26T09:45:18Z</time></trkpt><trkpt lat="43.14596959831848" lon="10.886959969369627"><ele>623.1999999999999</ele><time>2026-04-26T09:45:19Z</time></trkpt><trkpt lat="43.14590962615408" lon="10.887066623635217"><ele>623.4</ele><time>2026-04-26T09:45:20Z</time></trkpt><trkpt lat="43.14582668434407" lon="10.887168158293854"><ele>623.5999999999999</ele><time>2026-04-26T09:45:21Z</time></trkpt><trkpt lat="43.14573309316446" lon="10.887254940984183"><ele>623.8</ele><time>2026-04-26T09:45:22Z</time></trkpt><trkpt lat="43.14565779324777" lon="10.887301903955631"><ele>624.0</ele><time>2026-04-26T09:45:23Z</time></trkpt><trkpt lat="43.145609343497426" lon="10.887372972864052"><ele>622.75</ele><time>2026-04-26T09:45:24Z</time></trkpt><trkpt lat="43.14547372448469" lon="10.88726681475034"><ele>621.5</ele><time>2026-04-26T09:45:25Z</time></trkpt><trkpt lat="43.145390911675314" lon="10.887201212810092"><ele>620.25</ele><time>2026-04-26T09:45:26Z</time></trkpt><trkpt lat="43.14532246761151" lon="10.88704951401332"><ele>619.0</ele><time>2026-04-26T09:45:27Z</time></trkpt><trkpt lat="43.145305957252816" lon="10.886873017474182"><ele>621.0</ele><time>2026-04-26T09:45:28Z</time></trkpt><trkpt lat="43.14529570424937" lon="10.88668533193928"><ele>623.0</ele><time>2026-04-26T09:45:29Z</time></trkpt><trkpt lat="43.14531815770153" lon="10.886476553312685"><ele>625.0</ele><time>2026-04-26T09:45:30Z</time></trkpt><trkpt lat="43.145351562103656" lon="10.886259817205652"><ele>625.0</ele><time>2026-04-26T09:45:31Z</time></trkpt><trkpt lat="43.1453743766717" lon="10.886048593860481"><ele>625.0</ele><time>2026-04-26T09:45:32Z</time></trkpt><trkpt lat="43.14540086166441" lon="10.885860627440737"><ele>625.0</ele><time>2026-04-26T09:45:33Z</time></trkpt><trkpt lat="43.14538036259174" lon="10.88567790488153"><ele>625.0</ele><time>2026-04-26T09:45:34Z</time></trkpt><trkpt lat="43.14533086772292" lon="10.885461795818292"><ele>626.3333333333334</ele><time>2026-04-26T09:45:35Z</time></trkpt><trkpt lat="43.14519748962624" lon="10.885225460842937"><ele>627.6666666666666</ele><time>2026-04-26T09:45:36Z</time></trkpt><trkpt lat="43.145060123158686" lon="10.884974951514488"><ele>629.0</ele><time>2026-04-26T09:45:37Z</time></trkpt><trkpt lat="43.14492324849123" lon="10.884735520161346"><ele>628.6666666666666</ele><time>2026-04-26T09:45:38Z</time></trkpt><trkpt lat="43.14478145185417" lon="10.884562771744744"><ele>628.3333333333334</ele><time>2026-04-26T09:45:39Z</time></trkpt><trkpt lat="43.144687636171405" lon="10.88436345047729"><ele>628.0</ele><time>2026-04-26T09:45:40Z</time></trkpt><trkpt lat="43.14462083819661" lon="10.884127909503448"><ele>628.0</ele><time>2026-04-26T09:45:41Z</time></trkpt><trkpt lat="43.144561493395116" lon="10.883869699842988"><ele>628.0</ele><time>2026-04-26T09:45:42Z</time></trkpt><trkpt lat="43.14452114827826" lon="10.883614355960859"><ele>628.0</ele><time>2026-04-26T09:45:43Z</time></trkpt><trkpt lat="43.14450429314383" lon="10.883380798548233"><ele>627.3333333333334</ele><time>2026-04-26T09:45:44Z</time></trkpt><trkpt lat="43.1445308642409" lon="10.883186932452384"><ele>626.6666666666666</ele><time>2026-04-26T09:45:45Z</time></trkpt><trkpt lat="43.144567672755365" lon="10.882962591357193"><ele>626.0</ele><time>2026-04-26T09:45:46Z</time></trkpt><trkpt lat="43.14468872142236" lon="10.882768691640843"><ele>626.3333333333333</ele><time>2026-04-26T09:45:47Z</time></trkpt><trkpt lat="43.1448290560327" lon="10.8825601085432"><ele>626.6666666666666</ele><time>2026-04-26T09:45:48Z</time></trkpt><trkpt lat="43.144966863035634" lon="10.882315344130976"><ele>627.0</ele><time>2026-04-26T09:45:49Z</time></trkpt><trkpt lat="43.14514045918007" lon="10.88206546103128"><ele>627.0</ele><time>2026-04-26T09:45:50Z</time></trkpt><trkpt lat="43.14527809159439" lon="10.881831975537692"><ele>627.0</ele><time>2026-04-26T09:45:51Z</time></trkpt><trkpt lat="43.14538014932448" lon="10.881632258127977"><ele>627.0</ele><time>2026-04-26T09:45:52Z</time></trkpt><trkpt lat="43.145435123605424" lon="10.881414082610174"><ele>625.6666666666666</ele><time>2026-04-26T09:45:53Z</time></trkpt><trkpt lat="43.14544746283555" lon="10.881170371208823"><ele>624.3333333333333</ele><time>2026-04-26T09:45:54Z</time></trkpt><trkpt lat="43.14543336824559" lon="10.880874661027406"><ele>623.0</ele><time>2026-04-26T09:45:55Z</time></trkpt><trkpt lat="43.145379299262096" lon="10.880539335403407"><ele>621.0</ele><time>2026-04-26T09:45:56Z</time></trkpt><trkpt lat="43.14531923380533" lon="10.880166804447516"><ele>619.0</ele><time>2026-04-26T09:45:57Z</time></trkpt><trkpt lat="43.14525637575331" lon="10.879768711344568"><ele>619.0</ele><time>2026-04-26T09:45:58Z</time></trkpt><trkpt lat="43.14518911485484" lon="10.879359542781359"><ele>619.0</ele><time>2026-04-26T09:45:59Z</time></trkpt><trkpt lat="43.1451307426914" lon="10.878937358628274"><ele>620.0</ele><time>2026-04-26T09:46:00Z</time></trkpt><trkpt lat="43.14507897903411" lon="10.878543970960342"><ele>621.0</ele><time>2026-04-26T09:46:01Z</time></trkpt><trkpt lat="43.14503221514018" lon="10.878194671637928"><ele>621.5</ele><time>2026-04-26T09:46:02Z</time></trkpt><trkpt lat="43.14498583395374" lon="10.877879593290313"><ele>622.0</ele><time>2026-04-26T09:46:03Z</time></trkpt><trkpt lat="43.14492346528507" lon="10.877596134385705"><ele>619.0</ele><time>2026-04-26T09:46:04Z</time></trkpt><trkpt lat="43.144832361663056" lon="10.877331659420685"><ele>616.0</ele><time>2026-04-26T09:46:05Z</time></trkpt><trkpt lat="43.14470536658648" lon="10.877083000793629"><ele>613.0</ele><time>2026-04-26T09:46:06Z</time></trkpt><trkpt lat="43.144551681403044" lon="10.876855625402548"><ele>615.6666666666667</ele><time>2026-04-26T09:46:07Z</time></trkpt><trkpt lat="43.14440844195919" lon="10.876669641433327"><ele>618.3333333333334</ele><time>2026-04-26T09:46:08Z</time></trkpt><trkpt lat="43.144275309657154" lon="10.87649546734004"><ele>621.0</ele><time>2026-04-26T09:46:09Z</time></trkpt><trkpt lat="43.1441715868185" lon="10.876292609746855"><ele>621.0</ele><time>2026-04-26T09:46:10Z</time></trkpt><trkpt lat="43.144094789050065" lon="10.876072838135158"><ele>621.0</ele><time>2026-04-26T09:46:11Z</time></trkpt><trkpt lat="43.144029569567444" lon="10.87580059217916"><ele>621.0</ele><time>2026-04-26T09:46:12Z</time></trkpt><trkpt lat="43.14396274049976" lon="10.875494596498108"><ele>621.3333333333334</ele><time>2026-04-26T09:46:13Z</time></trkpt><trkpt lat="43.143908727725865" lon="10.875190379877926"><ele>621.6666666666667</ele><time>2026-04-26T09:46:14Z</time></trkpt><trkpt lat="43.14389834856545" lon="10.874909958074305"><ele>622.0</ele><time>2026-04-26T09:46:15Z</time></trkpt><trkpt lat="43.14388619250137" lon="10.874637960855564"><ele>619.6666666666667</ele><time>2026-04-26T09:46:16Z</time></trkpt><trkpt lat="43.14389451416711" lon="10.874346482211806"><ele>617.3333333333334</ele><time>2026-04-26T09:46:17Z</time></trkpt><trkpt lat="43.14391904693757" lon="10.874036978596447"><ele>615.0</ele><time>2026-04-26T09:46:18Z</time></trkpt><trkpt lat="43.14394223247722" lon="10.873708955918543"><ele>606.3333333333334</ele><time>2026-04-26T09:46:19Z</time></trkpt><trkpt lat="43.14396405485352" lon="10.873432981125454"><ele>597.6666666666667</ele><time>2026-04-26T09:46:20Z</time></trkpt><trkpt lat="43.14398529933161" lon="10.873194784536862"><ele>589.0</ele><time>2026-04-26T09:46:21Z</time></trkpt><trkpt lat="43.14402174284717" lon="10.872977101980545"><ele>593.6666666666667</ele><time>2026-04-26T09:46:22Z</time></trkpt><trkpt lat="43.14408618399824" lon="10.872769515174324"><ele>598.3333333333334</ele><time>2026-04-26T09:46:23Z</time></trkpt><trkpt lat="43.14416874841702" lon="10.872601115601816"><ele>603.0</ele><time>2026-04-26T09:46:24Z</time></trkpt><trkpt lat="43.144269664169045" lon="10.872467616830114"><ele>603.0</ele><time>2026-04-26T09:46:25Z</time></trkpt><trkpt lat="43.14440225288139" lon="10.872363654136764"><ele>603.0</ele><time>2026-04-26T09:46:26Z</time></trkpt><trkpt lat="43.144558481092155" lon="10.872274131059212"><ele>603.0</ele><time>2026-04-26T09:46:27Z</time></trkpt><trkpt lat="43.1447422199002" lon="10.872219961789781"><ele>607.6666666666666</ele><time>2026-04-26T09:46:28Z</time></trkpt><trkpt lat="43.144938522664916" lon="10.872179540127545"><ele>612.3333333333333</ele><time>2026-04-26T09:46:29Z</time></trkpt><trkpt lat="43.145113250073784" lon="10.872131914568833"><ele>617.0</ele><time>2026-04-26T09:46:30Z</time></trkpt><trkpt lat="43.1452656264962" lon="10.87209425421825"><ele>617.0</ele><time>2026-04-26T09:46:31Z</time></trkpt><trkpt lat="43.14539852720829" lon="10.8720574960945"><ele>617.0</ele><time>2026-04-26T09:46:32Z</time></trkpt><trkpt lat="43.14551164510873" lon="10.872008665351107"><ele>617.0</ele><time>2026-04-26T09:46:33Z</time></trkpt><trkpt lat="43.1455991882683" lon="10.87191794822453"><ele>617.0</ele><time>2026-04-26T09:46:34Z</time></trkpt><trkpt lat="43.145639701034156" lon="10.871783352524512"><ele>610.6666666666666</ele><time>2026-04-26T09:46:35Z</time></trkpt><trkpt lat="43.145635524235665" lon="10.87161060579239"><ele>604.3333333333334</ele><time>2026-04-26T09:46:36Z</time></trkpt><trkpt lat="43.14558805335619" lon="10.871415766114882"><ele>598.0</ele><time>2026-04-26T09:46:37Z</time></trkpt><trkpt lat="43.145497270035456" lon="10.871197438324746"><ele>598.0</ele><time>2026-04-26T09:46:38Z</time></trkpt><trkpt lat="43.14542916491781" lon="10.870974033222812"><ele>598.0</ele><time>2026-04-26T09:46:39Z</time></trkpt><trkpt lat="43.1453811887984" lon="10.870776586820453"><ele>598.0</ele><time>2026-04-26T09:46:40Z</time></trkpt><trkpt lat="43.14536602478203" lon="10.870575567218335"><ele>594.6666666666667</ele><time>2026-04-26T09:46:41Z</time></trkpt><trkpt lat="43.14538932650095" lon="10.870365915323411"><ele>591.3333333333334</ele><time>2026-04-26T09:46:42.001Z</time></trkpt><trkpt lat="43.145444590780116" lon="10.870130440214139"><ele>588.0</ele><time>2026-04-26T09:46:43.001Z</time></trkpt><trkpt lat="43.14553034541984" lon="10.869891227629"><ele>585.3333333333334</ele><time>2026-04-26T09:46:44.001Z</time></trkpt><trkpt lat="43.14562109642959" lon="10.869669913243321"><ele>582.6666666666667</ele><time>2026-04-26T09:46:45.001Z</time></trkpt><trkpt lat="43.14569109508646" lon="10.869459610044675"><ele>580.0</ele><time>2026-04-26T09:46:46.001Z</time></trkpt><trkpt lat="43.14572425539598" lon="10.869231190409808"><ele>574.0</ele><time>2026-04-26T09:46:47.001Z</time></trkpt><trkpt lat="43.14571086325257" lon="10.868996792352998"><ele>568.0</ele><time>2026-04-26T09:46:48.001Z</time></trkpt><trkpt lat="43.14565450109761" lon="10.868743290269729"><ele>562.0</ele><time>2026-04-26T09:46:49.001Z</time></trkpt><trkpt lat="43.14557517838683" lon="10.868476286405018"><ele>561.5</ele><time>2026-04-26T09:46:50.001Z</time></trkpt><trkpt lat="43.145490422859034" lon="10.868170316462747"><ele>561.0</ele><time>2026-04-26T09:46:51.001Z</time></trkpt><trkpt lat="43.14540926272359" lon="10.867853987749724"><ele>564.0</ele><time>2026-04-26T09:46:52.001Z</time></trkpt><trkpt lat="43.145331645418544" lon="10.867541049558104"><ele>567.0</ele><time>2026-04-26T09:46:53.001Z</time></trkpt><trkpt lat="43.1452508017769" lon="10.867252334189855"><ele>567.0</ele><time>2026-04-26T09:46:54.001Z</time></trkpt><trkpt lat="43.14517961327223" lon="10.866982397441504"><ele>567.0</ele><time>2026-04-26T09:46:55.001Z</time></trkpt><trkpt lat="43.14510870763424" lon="10.866726966707978"><ele>567.0</ele><time>2026-04-26T09:46:56.001Z</time></trkpt><trkpt lat="43.14501353036466" lon="10.866472715108838"><ele>567.3333333333334</ele><time>2026-04-26T09:46:57.001Z</time></trkpt><trkpt lat="43.14489809159001" lon="10.866226394003363"><ele>567.6666666666667</ele><time>2026-04-26T09:46:58.001Z</time></trkpt><trkpt lat="43.14476777472467" lon="10.865992246762122"><ele>568.0</ele><time>2026-04-26T09:46:59.001Z</time></trkpt><trkpt lat="43.1446311126684" lon="10.865787048838914"><ele>562.0</ele><time>2026-04-26T09:47:00.001Z</time></trkpt><trkpt lat="43.14451615880815" lon="10.86557149173638"><ele>556.0</ele><time>2026-04-26T09:47:01.001Z</time></trkpt><trkpt lat="43.144399516906894" lon="10.865375006108273"><ele>550.0</ele><time>2026-04-26T09:47:02.001Z</time></trkpt><trkpt lat="43.144308874090186" lon="10.8651798511489"><ele>549.6666666666667</ele><time>2026-04-26T09:47:03.001Z</time></trkpt><trkpt lat="43.14424443943145" lon="10.864970629305894"><ele>549.3333333333334</ele><time>2026-04-26T09:47:04.001Z</time></trkpt><trkpt lat="43.14419697898617" lon="10.864743360007298"><ele>549.0</ele><time>2026-04-26T09:47:05.001Z</time></trkpt><trkpt lat="43.144146631156474" lon="10.864515301359548"><ele>549.6666666666666</ele><time>2026-04-26T09:47:06.001Z</time></trkpt><trkpt lat="43.14412596228033" lon="10.864254367829767"><ele>550.3333333333333</ele><time>2026-04-26T09:47:07.001Z</time></trkpt><trkpt lat="43.14407843415384" lon="10.864004708745469"><ele>551.0</ele><time>2026-04-26T09:47:08.001Z</time></trkpt><trkpt lat="43.14404194566555" lon="10.863762126388114"><ele>541.0</ele><time>2026-04-26T09:47:09.001Z</time></trkpt><trkpt lat="43.14400342644282" lon="10.863529422707181"><ele>531.0</ele><time>2026-04-26T09:47:10.001Z</time></trkpt><trkpt lat="43.14397485210384" lon="10.863300083859928"><ele>521.0</ele><time>2026-04-26T09:47:11.001Z</time></trkpt><trkpt lat="43.14396364199561" lon="10.863082467037083"><ele>521.0</ele><time>2026-04-26T09:47:12.001Z</time></trkpt><trkpt lat="43.143981396270526" lon="10.862868917887036"><ele>521.0</ele><time>2026-04-26T09:47:13.001Z</time></trkpt><trkpt lat="43.144020637387534" lon="10.862630018414984"><ele>521.0</ele><time>2026-04-26T09:47:14.001Z</time></trkpt><trkpt lat="43.14407374066295" lon="10.862368234269255"><ele>526.0</ele><time>2026-04-26T09:47:15.001Z</time></trkpt><trkpt lat="43.1441301177192" lon="10.862091249642246"><ele>531.0</ele><time>2026-04-26T09:47:16.001Z</time></trkpt><trkpt lat="43.144181700694624" lon="10.861819682225137"><ele>536.0</ele><time>2026-04-26T09:47:17.001Z</time></trkpt><trkpt lat="43.144231747067835" lon="10.8615831691976"><ele>536.0</ele><time>2026-04-26T09:47:18Z</time></trkpt><trkpt lat="43.14427620293674" lon="10.86138436928018"><ele>536.0</ele><time>2026-04-26T09:47:19Z</time></trkpt><trkpt lat="43.14433023963112" lon="10.861211878829923"><ele>536.0</ele><time>2026-04-26T09:47:20Z</time></trkpt><trkpt lat="43.14440476978287" lon="10.861077115729847"><ele>536.0</ele><time>2026-04-26T09:47:21Z</time></trkpt><trkpt lat="43.14449997270122" lon="10.860981773049675"><ele>536.0</ele><time>2026-04-26T09:47:22Z</time></trkpt><trkpt lat="43.14462635250343" lon="10.860919900547344"><ele>536.0</ele><time>2026-04-26T09:47:23Z</time></trkpt><trkpt lat="43.14476778474274" lon="10.860874826270873"><ele>536.0</ele><time>2026-04-26T09:47:24Z</time></trkpt><trkpt lat="43.144912274952304" lon="10.860830489647045"><ele>536.0</ele><time>2026-04-26T09:47:25Z</time></trkpt><trkpt lat="43.14504704185706" lon="10.860790258737849"><ele>536.0</ele><time>2026-04-26T09:47:26Z</time></trkpt><trkpt lat="43.14516617077742" lon="10.860749931916981"><ele>536.0</ele><time>2026-04-26T09:47:27Z</time></trkpt><trkpt lat="43.14528565168859" lon="10.860714004609855"><ele>536.0</ele><time>2026-04-26T09:47:28Z</time></trkpt><trkpt lat="43.14539662576442" lon="10.860663749893"><ele>536.0</ele><time>2026-04-26T09:47:29Z</time></trkpt><trkpt lat="43.14549490310187" lon="10.860580272364569"><ele>536.0</ele><time>2026-04-26T09:47:30Z</time></trkpt><trkpt lat="43.145595108655606" lon="10.860491897064206"><ele>536.0</ele><time>2026-04-26T09:47:31Z</time></trkpt><trkpt lat="43.14568225404453" lon="10.86040354048864"><ele>536.0</ele><time>2026-04-26T09:47:32Z</time></trkpt><trkpt lat="43.1457377675964" lon="10.860295937832984"><ele>536.0</ele><time>2026-04-26T09:47:33Z</time></trkpt><trkpt lat="43.14575085462085" lon="10.860168461135798"><ele>536.0</ele><time>2026-04-26T09:47:34Z</time></trkpt><trkpt lat="43.145731485474165" lon="10.860034126464521"><ele>532.6</ele><time>2026-04-26T09:47:35Z</time></trkpt><trkpt lat="43.14569640342752" lon="10.859893872519272"><ele>529.2</ele><time>2026-04-26T09:47:36Z</time></trkpt><trkpt lat="43.14566837109627" lon="10.859749544150814"><ele>525.8</ele><time>2026-04-26T09:47:37Z</time></trkpt><trkpt lat="43.1456509617165" lon="10.859602501474724"><ele>522.4</ele><time>2026-04-26T09:47:38Z</time></trkpt><trkpt lat="43.145647060837426" lon="10.859465068888312"><ele>519.0</ele><time>2026-04-26T09:47:39Z</time></trkpt><trkpt lat="43.14566217903514" lon="10.859348363910184"><ele>520.0</ele><time>2026-04-26T09:47:40Z</time></trkpt><trkpt lat="43.14568996491331" lon="10.859252773805908"><ele>521.0</ele><time>2026-04-26T09:47:41Z</time></trkpt><trkpt lat="43.14572192084317" lon="10.859167624453113"><ele>522.0</ele><time>2026-04-26T09:47:42Z</time></trkpt><trkpt lat="43.145758748450646" lon="10.85908536870802"><ele>523.0</ele><time>2026-04-26T09:47:43Z</time></trkpt><trkpt lat="43.145803006950466" lon="10.859014622272655"><ele>524.0</ele><time>2026-04-26T09:47:44Z</time></trkpt><trkpt lat="43.14584376189829" lon="10.858947728175314"><ele>525.0</ele><time>2026-04-26T09:47:45Z</time></trkpt><trkpt lat="43.145942612958336" lon="10.858823259673528"><ele>525.0</ele><time>2026-04-26T09:47:47Z</time></trkpt><trkpt lat="43.146010419531244" lon="10.858758498910626"><ele>525.0</ele><time>2026-04-26T09:47:48Z</time></trkpt><trkpt lat="43.14607827125755" lon="10.858667333560332"><ele>525.0</ele><time>2026-04-26T09:47:49Z</time></trkpt><trkpt lat="43.146146654328824" lon="10.85857100866018"><ele>525.0</ele><time>2026-04-26T09:47:50Z</time></trkpt><trkpt lat="43.14623395191997" lon="10.858477780668613"><ele>525.0</ele><time>2026-04-26T09:47:51Z</time></trkpt><trkpt lat="43.14632778035266" lon="10.85836253047517"><ele>525.0</ele><time>2026-04-26T09:47:52Z</time></trkpt><trkpt lat="43.146414816087926" lon="10.858264761522552"><ele>525.0</ele><time>2026-04-26T09:47:53Z</time></trkpt><trkpt lat="43.1465175097349" lon="10.858176373824918"><ele>525.0</ele><time>2026-04-26T09:47:54Z</time></trkpt><trkpt lat="43.14662518286842" lon="10.858092623817278"><ele>525.0</ele><time>2026-04-26T09:47:55Z</time></trkpt><trkpt lat="43.14673894544199" lon="10.858010138817257"><ele>525.0</ele><time>2026-04-26T09:47:56Z</time></trkpt><trkpt lat="43.146850593536115" lon="10.857930988885881"><ele>525.0</ele><time>2026-04-26T09:47:57Z</time></trkpt><trkpt lat="43.146952151818205" lon="10.85786619061199"><ele>525.0</ele><time>2026-04-26T09:47:58Z</time></trkpt><trkpt lat="43.147056163740075" lon="10.85781316204964"><ele>525.0</ele><time>2026-04-26T09:47:59Z</time></trkpt><trkpt lat="43.14717490784324" lon="10.857781760216296"><ele>525.0</ele><time>2026-04-26T09:48:00Z</time></trkpt><trkpt lat="43.14728839711787" lon="10.85773320024485"><ele>525.0</ele><time>2026-04-26T09:48:01Z</time></trkpt><trkpt lat="43.14739338890016" lon="10.857691535868332"><ele>525.0</ele><time>2026-04-26T09:48:02Z</time></trkpt><trkpt lat="43.14749517497009" lon="10.857653686306985"><ele>525.0</ele><time>2026-04-26T09:48:03Z</time></trkpt><trkpt lat="43.1476039972947" lon="10.857613409753"><ele>525.0</ele><time>2026-04-26T09:48:04Z</time></trkpt><trkpt lat="43.147713233148124" lon="10.85756150754026"><ele>522.6</ele><time>2026-04-26T09:48:05Z</time></trkpt><trkpt lat="43.1478134367552" lon="10.857532721459341"><ele>520.2</ele><time>2026-04-26T09:48:06Z</time></trkpt><trkpt lat="43.147916387874886" lon="10.857516778499006"><ele>517.8</ele><time>2026-04-26T09:48:07Z</time></trkpt><trkpt lat="43.14800973788572" lon="10.857481132710808"><ele>515.4</ele><time>2026-04-26T09:48:08Z</time></trkpt><trkpt lat="43.14808521496808" lon="10.857420817651741"><ele>513.0</ele><time>2026-04-26T09:48:09Z</time></trkpt><trkpt lat="43.14814066080473" lon="10.857319974690308"><ele>513.0</ele><time>2026-04-26T09:48:10Z</time></trkpt><trkpt lat="43.148164371988024" lon="10.857197539466103"><ele>513.0</ele><time>2026-04-26T09:48:11Z</time></trkpt><trkpt lat="43.1481659775549" lon="10.857063536948187"><ele>513.0</ele><time>2026-04-26T09:48:12Z</time></trkpt><trkpt lat="43.14813390600005" lon="10.856936499174918"><ele>513.0</ele><time>2026-04-26T09:48:13Z</time></trkpt><trkpt lat="43.14808043713955" lon="10.856821886862745"><ele>513.0</ele><time>2026-04-26T09:48:14Z</time></trkpt><trkpt lat="43.14800340075354" lon="10.856732516943591"><ele>512.4</ele><time>2026-04-26T09:48:15Z</time></trkpt><trkpt lat="43.1479199301193" lon="10.856668131325739"><ele>511.79999999999995</ele><time>2026-04-26T09:48:16Z</time></trkpt><trkpt lat="43.14782440909148" lon="10.856609062927244"><ele>511.2</ele><time>2026-04-26T09:48:17Z</time></trkpt><trkpt lat="43.147727175874316" lon="10.85654640396858"><ele>510.6</ele><time>2026-04-26T09:48:18Z</time></trkpt><trkpt lat="43.14764655958059" lon="10.856489885064809"><ele>510.0</ele><time>2026-04-26T09:48:19Z</time></trkpt><trkpt lat="43.147567925008545" lon="10.85643522124867"><ele>510.0</ele><time>2026-04-26T09:48:20Z</time></trkpt><trkpt lat="43.14750158262023" lon="10.856388628397154"><ele>510.0</ele><time>2026-04-26T09:48:21Z</time></trkpt><trkpt lat="43.14744795122215" lon="10.856328443202395"><ele>510.0</ele><time>2026-04-26T09:48:22Z</time></trkpt><trkpt lat="43.1474057455656" lon="10.856253742956888"><ele>510.0</ele><time>2026-04-26T09:48:23Z</time></trkpt><trkpt lat="43.14737092955453" lon="10.856180378164698"><ele>510.0</ele><time>2026-04-26T09:48:24Z</time></trkpt><trkpt lat="43.147346412320246" lon="10.856055616924818"><ele>510.0</ele><time>2026-04-26T09:48:26Z</time></trkpt><trkpt lat="43.147410683820375" lon="10.855933734683063"><ele>510.3333333333333</ele><time>2026-04-26T09:48:28Z</time></trkpt><trkpt lat="43.147465446867194" lon="10.855850276428638"><ele>510.66666666666663</ele><time>2026-04-26T09:48:29Z</time></trkpt><trkpt lat="43.147520857925386" lon="10.855768554035873"><ele>511.0</ele><time>2026-04-26T09:48:30Z</time></trkpt><trkpt lat="43.147574373714505" lon="10.855681499322014"><ele>511.3333333333333</ele><time>2026-04-26T09:48:31Z</time></trkpt><trkpt lat="43.147628672148876" lon="10.855584629040079"><ele>511.66666666666663</ele><time>2026-04-26T09:48:32Z</time></trkpt><trkpt lat="43.14769116792674" lon="10.855483603236241"><ele>512.0</ele><time>2026-04-26T09:48:33Z</time></trkpt><trkpt lat="43.14776021536418" lon="10.85538846634943"><ele>512.0</ele><time>2026-04-26T09:48:34Z</time></trkpt><trkpt lat="43.1478416016153" lon="10.855321656343348"><ele>512.0</ele><time>2026-04-26T09:48:35Z</time></trkpt><trkpt lat="43.14793356824124" lon="10.855257793277852"><ele>512.0</ele><time>2026-04-26T09:48:36Z</time></trkpt><trkpt lat="43.14803446066264" lon="10.855191835199749"><ele>512.0</ele><time>2026-04-26T09:48:37Z</time></trkpt><trkpt lat="43.14814308850405" lon="10.855120950713527"><ele>512.0</ele><time>2026-04-26T09:48:38Z</time></trkpt><trkpt lat="43.148262976772685" lon="10.855043419374502"><ele>510.0</ele><time>2026-04-26T09:48:39Z</time></trkpt><trkpt lat="43.148376427087285" lon="10.854969972691691"><ele>508.00000000000006</ele><time>2026-04-26T09:48:40Z</time></trkpt><trkpt lat="43.14847911930576" lon="10.854907198849453"><ele>506.00000000000006</ele><time>2026-04-26T09:48:41Z</time></trkpt><trkpt lat="43.14857930894943" lon="10.854850654032836"><ele>504.0</ele><time>2026-04-26T09:48:42Z</time></trkpt><trkpt lat="43.14865928631543" lon="10.854775582122917"><ele>502.0</ele><time>2026-04-26T09:48:43Z</time></trkpt><trkpt lat="43.14872551028396" lon="10.85467162378388"><ele>502.0</ele><time>2026-04-26T09:48:44.001Z</time></trkpt><trkpt lat="43.1487684057346" lon="10.85454146887386"><ele>502.00000000000006</ele><time>2026-04-26T09:48:45.001Z</time></trkpt><trkpt lat="43.14879714876658" lon="10.854387745582901"><ele>502.00000000000006</ele><time>2026-04-26T09:48:46.001Z</time></trkpt><trkpt lat="43.14881282206778" lon="10.854235019398503"><ele>502.0</ele><time>2026-04-26T09:48:47.001Z</time></trkpt><trkpt lat="43.14880956429571" lon="10.854077381420845"><ele>502.0</ele><time>2026-04-26T09:48:48.001Z</time></trkpt><trkpt lat="43.148797992040805" lon="10.853926934886013"><ele>499.6</ele><time>2026-04-26T09:48:49.001Z</time></trkpt><trkpt lat="43.14878482769296" lon="10.853782856169886"><ele>497.20000000000005</ele><time>2026-04-26T09:48:50.001Z</time></trkpt><trkpt lat="43.14878281277623" lon="10.853646460701817"><ele>494.8</ele><time>2026-04-26T09:48:51.001Z</time></trkpt><trkpt lat="43.14873079584321" lon="10.85352014224136"><ele>492.4</ele><time>2026-04-26T09:48:52.001Z</time></trkpt><trkpt lat="43.148638675311375" lon="10.853441797840079"><ele>490.0</ele><time>2026-04-26T09:48:53.001Z</time></trkpt><trkpt lat="43.148561117678895" lon="10.853358594948581"><ele>490.0</ele><time>2026-04-26T09:48:54.001Z</time></trkpt><trkpt lat="43.14850338726697" lon="10.853248345026559"><ele>490.0</ele><time>2026-04-26T09:48:55.001Z</time></trkpt><trkpt lat="43.148473751827005" lon="10.853110188651254"><ele>490.0</ele><time>2026-04-26T09:48:56.001Z</time></trkpt><trkpt lat="43.14845801450605" lon="10.85296507836803"><ele>490.0</ele><time>2026-04-26T09:48:57.001Z</time></trkpt><trkpt lat="43.148412990578535" lon="10.852822194384894"><ele>490.0</ele><time>2026-04-26T09:48:58.001Z</time></trkpt><trkpt lat="43.14833578048525" lon="10.852696851244104"><ele>490.5</ele><time>2026-04-26T09:48:59.001Z</time></trkpt><trkpt lat="43.14823384350331" lon="10.852597878486577"><ele>491.0</ele><time>2026-04-26T09:49:00.001Z</time></trkpt><trkpt lat="43.14812347314022" lon="10.852512445052607"><ele>491.5</ele><time>2026-04-26T09:49:01.001Z</time></trkpt><trkpt lat="43.1480108824286" lon="10.852426562603457"><ele>492.0</ele><time>2026-04-26T09:49:02.001Z</time></trkpt><trkpt lat="43.14791561371343" lon="10.852335909595414"><ele>492.0</ele><time>2026-04-26T09:49:03.001Z</time></trkpt><trkpt lat="43.14783863218987" lon="10.852253574508905"><ele>492.0</ele><time>2026-04-26T09:49:04.001Z</time></trkpt><trkpt lat="43.147780109927965" lon="10.85217166322339"><ele>492.0</ele><time>2026-04-26T09:49:05.001Z</time></trkpt><trkpt lat="43.14773868888518" lon="10.85209757200695"><ele>492.0</ele><time>2026-04-26T09:49:06.001Z</time></trkpt><trkpt lat="43.14769960955814" lon="10.852014298345404"><ele>492.0</ele><time>2026-04-26T09:49:08.001Z</time></trkpt><trkpt lat="43.14763846271415" lon="10.85209823255031"><ele>492.0</ele><time>2026-04-26T09:50:13Z</time></trkpt><trkpt lat="43.147580487198994" lon="10.852141987818614"><ele>492.00000000000006</ele><time>2026-04-26T09:50:19Z</time></trkpt><trkpt lat="43.14750840262439" lon="10.85217922080679"><ele>492.0</ele><time>2026-04-26T09:50:33Z</time></trkpt><trkpt lat="43.147483021409826" lon="10.852099576966626"><ele>492.00000000000006</ele><time>2026-04-26T09:50:46Z</time></trkpt><trkpt lat="43.14745136649611" lon="10.852004088473906"><ele>492.00000000000006</ele><time>2026-04-26T09:50:52Z</time></trkpt><trkpt lat="43.14742073907827" lon="10.851925474360092"><ele>492.0</ele><time>2026-04-26T09:50:58.001Z</time></trkpt><trkpt lat="43.147356202155215" lon="10.851947787728202"><ele>492.00000000000006</ele><time>2026-04-26T09:51:07.001Z</time></trkpt><trkpt lat="43.14730271630162" lon="10.851996175473431"><ele>492.00000000000006</ele><time>2026-04-26T09:51:09.001Z</time></trkpt><trkpt lat="43.147237670931794" lon="10.852018216787982"><ele>490.57142857142867</ele><time>2026-04-26T09:51:21.001Z</time></trkpt><trkpt lat="43.1472090381796" lon="10.851922347614677"><ele>489.14285714285717</ele><time>2026-04-26T09:51:24.001Z</time></trkpt><trkpt lat="43.147175863406176" lon="10.851837466523783"><ele>487.7142857142858</ele><time>2026-04-26T09:51:31Z</time></trkpt><trkpt lat="43.14714324005062" lon="10.851921629187528"><ele>486.28571428571433</ele><time>2026-04-26T09:51:50Z</time></trkpt><trkpt lat="43.14709448626407" lon="10.851984208603021"><ele>484.8571428571429</ele><time>2026-04-26T09:51:59Z</time></trkpt><trkpt lat="43.14709359478495" lon="10.851896394953567"><ele>483.42857142857144</ele><time>2026-04-26T09:53:18.001Z</time></trkpt><trkpt lat="43.147120915318204" lon="10.851799175791152"><ele>482.0</ele><time>2026-04-26T09:53:27.001Z</time></trkpt><trkpt lat="43.14717632000133" lon="10.851854696163926"><ele>482.0</ele><time>2026-04-26T09:53:43Z</time></trkpt><trkpt lat="43.14720255825965" lon="10.851939926571973"><ele>482.00000000000006</ele><time>2026-04-26T09:53:49Z</time></trkpt><trkpt lat="43.14724691857957" lon="10.852012784076424"><ele>482.0</ele><time>2026-04-26T09:53:57Z</time></trkpt><trkpt lat="43.14731139601259" lon="10.852003632575506"><ele>482.0</ele><time>2026-04-26T09:54:06Z</time></trkpt><trkpt lat="43.147370772899976" lon="10.851953390821537"><ele>482.00000000000006</ele><time>2026-04-26T09:54:14Z</time></trkpt><trkpt lat="43.14745472408991" lon="10.852032401223951"><ele>482.0</ele><time>2026-04-26T09:54:36Z</time></trkpt><trkpt lat="43.147492110365356" lon="10.852108669315493"><ele>482.0</ele><time>2026-04-26T09:54:43Z</time></trkpt><trkpt lat="43.14756425193572" lon="10.852106497575708"><ele>492.0</ele><time>2026-04-26T09:54:59Z</time></trkpt><trkpt lat="43.14763477248484" lon="10.852094322974159"><ele>492.0</ele><time>2026-04-26T09:55:05Z</time></trkpt></trkseg></trk></gpx>